<?xml version="1.0" encoding="UTF-8" standalone="no" ?>
<gpx xmlns="http://www.topografix.com/GPX/1/1" xmlns:xsi="http://www.w3.org/2001/XMLSchema-instance" xsi:schemaLocation="http://www.topografix.com/GPX/1/1 http://www.topografix.com/GPX/1/1/gpx.xsd" version="1.1" creator="VisuGPX - https://www.visugpx.com">
  <metadata>
    <name>Rando VTT Royan 2023....</name>
    <desc><![CDATA[Top rando, trous de bombes incroyables à franchir]]></desc>
  </metadata>
  <trk>
    <name><![CDATA[Rando VTT Royan 2023...._1]]></name>
    <trkseg>
      <trkpt lat="45.64191" lon="-1.02264">
        <ele>21</ele>
        <time>2023-08-06T06:08:10Z</time>
      </trkpt>
      <trkpt lat="45.64194" lon="-1.0226">
        <ele>20.8</ele>
        <time>2023-08-06T06:08:26Z</time>
      </trkpt>
      <trkpt lat="45.64196" lon="-1.02256">
        <ele>20.8</ele>
        <time>2023-08-06T06:08:29Z</time>
      </trkpt>
      <trkpt lat="45.64197" lon="-1.02253">
        <ele>20.8</ele>
        <time>2023-08-06T06:08:31Z</time>
      </trkpt>
      <trkpt lat="45.64193" lon="-1.02241">
        <ele>20.8</ele>
        <time>2023-08-06T06:08:36Z</time>
      </trkpt>
      <trkpt lat="45.64183" lon="-1.02217">
        <ele>21</ele>
        <time>2023-08-06T06:08:43Z</time>
      </trkpt>
      <trkpt lat="45.64174" lon="-1.02183">
        <ele>20.8</ele>
        <time>2023-08-06T06:08:52Z</time>
      </trkpt>
      <trkpt lat="45.64166" lon="-1.02151">
        <ele>21</ele>
        <time>2023-08-06T06:09:00Z</time>
      </trkpt>
      <trkpt lat="45.64163" lon="-1.02134">
        <ele>20.8</ele>
        <time>2023-08-06T06:09:04Z</time>
      </trkpt>
      <trkpt lat="45.64159" lon="-1.02117">
        <ele>20.6</ele>
        <time>2023-08-06T06:09:08Z</time>
      </trkpt>
      <trkpt lat="45.64152" lon="-1.02082">
        <ele>20.4</ele>
        <time>2023-08-06T06:09:15Z</time>
      </trkpt>
      <trkpt lat="45.64144" lon="-1.02039">
        <ele>20.2</ele>
        <time>2023-08-06T06:09:23Z</time>
      </trkpt>
      <trkpt lat="45.6414" lon="-1.02017">
        <ele>19.8</ele>
        <time>2023-08-06T06:09:29Z</time>
      </trkpt>
      <trkpt lat="45.64134" lon="-1.01994">
        <ele>19.8</ele>
        <time>2023-08-06T06:09:38Z</time>
      </trkpt>
      <trkpt lat="45.64133" lon="-1.01992">
        <ele>19.8</ele>
        <time>2023-08-06T06:09:39Z</time>
      </trkpt>
      <trkpt lat="45.64126" lon="-1.01971">
        <ele>19</ele>
        <time>2023-08-06T06:09:46Z</time>
      </trkpt>
      <trkpt lat="45.64119" lon="-1.01949">
        <ele>18.8</ele>
        <time>2023-08-06T06:09:51Z</time>
      </trkpt>
      <trkpt lat="45.64105" lon="-1.01927">
        <ele>18.8</ele>
        <time>2023-08-06T06:09:57Z</time>
      </trkpt>
      <trkpt lat="45.64086" lon="-1.01896">
        <ele>18.8</ele>
        <time>2023-08-06T06:10:05Z</time>
      </trkpt>
      <trkpt lat="45.64083" lon="-1.01892">
        <ele>18.6</ele>
        <time>2023-08-06T06:10:06Z</time>
      </trkpt>
      <trkpt lat="45.64059" lon="-1.01854">
        <ele>17.8</ele>
        <time>2023-08-06T06:10:15Z</time>
      </trkpt>
      <trkpt lat="45.64056" lon="-1.01849">
        <ele>17.6</ele>
        <time>2023-08-06T06:10:16Z</time>
      </trkpt>
      <trkpt lat="45.6403" lon="-1.0181">
        <ele>17.2</ele>
        <time>2023-08-06T06:10:25Z</time>
      </trkpt>
      <trkpt lat="45.64002" lon="-1.01769">
        <ele>17.2</ele>
        <time>2023-08-06T06:10:34Z</time>
      </trkpt>
      <trkpt lat="45.63999" lon="-1.01765">
        <ele>17</ele>
        <time>2023-08-06T06:10:35Z</time>
      </trkpt>
      <trkpt lat="45.63992" lon="-1.01756">
        <ele>16.6</ele>
        <time>2023-08-06T06:10:37Z</time>
      </trkpt>
      <trkpt lat="45.63985" lon="-1.01754">
        <ele>16.6</ele>
        <time>2023-08-06T06:10:39Z</time>
      </trkpt>
      <trkpt lat="45.63975" lon="-1.01764">
        <ele>16.4</ele>
        <time>2023-08-06T06:10:42Z</time>
      </trkpt>
      <trkpt lat="45.63945" lon="-1.01802">
        <ele>16.6</ele>
        <time>2023-08-06T06:10:51Z</time>
      </trkpt>
      <trkpt lat="45.63913" lon="-1.01841">
        <ele>17.2</ele>
        <time>2023-08-06T06:11:00Z</time>
      </trkpt>
      <trkpt lat="45.63884" lon="-1.01872">
        <ele>16.2</ele>
        <time>2023-08-06T06:11:06Z</time>
      </trkpt>
      <trkpt lat="45.63878" lon="-1.01878">
        <ele>15.6</ele>
        <time>2023-08-06T06:11:07Z</time>
      </trkpt>
      <trkpt lat="45.63861" lon="-1.01896">
        <ele>14.6</ele>
        <time>2023-08-06T06:11:10Z</time>
      </trkpt>
      <trkpt lat="45.63843" lon="-1.01914">
        <ele>13.4</ele>
        <time>2023-08-06T06:11:13Z</time>
      </trkpt>
      <trkpt lat="45.63837" lon="-1.01919">
        <ele>13.2</ele>
        <time>2023-08-06T06:11:14Z</time>
      </trkpt>
      <trkpt lat="45.63812" lon="-1.01943">
        <ele>12.4</ele>
        <time>2023-08-06T06:11:19Z</time>
      </trkpt>
      <trkpt lat="45.63808" lon="-1.01947">
        <ele>12.6</ele>
        <time>2023-08-06T06:11:20Z</time>
      </trkpt>
      <trkpt lat="45.638" lon="-1.01946">
        <ele>12.6</ele>
        <time>2023-08-06T06:11:22Z</time>
      </trkpt>
      <trkpt lat="45.63796" lon="-1.01942">
        <ele>12.6</ele>
        <time>2023-08-06T06:11:23Z</time>
      </trkpt>
      <trkpt lat="45.63793" lon="-1.01937">
        <ele>12.6</ele>
        <time>2023-08-06T06:11:24Z</time>
      </trkpt>
      <trkpt lat="45.6378" lon="-1.01915">
        <ele>11.4</ele>
        <time>2023-08-06T06:11:28Z</time>
      </trkpt>
      <trkpt lat="45.63764" lon="-1.01887">
        <ele>10.2</ele>
        <time>2023-08-06T06:11:33Z</time>
      </trkpt>
      <trkpt lat="45.63754" lon="-1.01869">
        <ele>9.6</ele>
        <time>2023-08-06T06:11:36Z</time>
      </trkpt>
      <trkpt lat="45.63751" lon="-1.01863">
        <ele>9.2</ele>
        <time>2023-08-06T06:11:37Z</time>
      </trkpt>
      <trkpt lat="45.63729" lon="-1.01823">
        <ele>8.2</ele>
        <time>2023-08-06T06:11:44Z</time>
      </trkpt>
      <trkpt lat="45.63725" lon="-1.01817">
        <ele>7.8</ele>
        <time>2023-08-06T06:11:45Z</time>
      </trkpt>
      <trkpt lat="45.63713" lon="-1.01796">
        <ele>7.2</ele>
        <time>2023-08-06T06:11:48Z</time>
      </trkpt>
      <trkpt lat="45.63709" lon="-1.01787">
        <ele>6.8</ele>
        <time>2023-08-06T06:11:49Z</time>
      </trkpt>
      <trkpt lat="45.63702" lon="-1.01769">
        <ele>5.6</ele>
        <time>2023-08-06T06:11:51Z</time>
      </trkpt>
      <trkpt lat="45.637" lon="-1.0175">
        <ele>4.2</ele>
        <time>2023-08-06T06:11:53Z</time>
      </trkpt>
      <trkpt lat="45.63701" lon="-1.01738">
        <ele>2.6</ele>
        <time>2023-08-06T06:11:55Z</time>
      </trkpt>
      <trkpt lat="45.63702" lon="-1.01736">
        <ele>2</ele>
        <time>2023-08-06T06:11:56Z</time>
      </trkpt>
      <trkpt lat="45.63703" lon="-1.01734">
        <ele>1.4</ele>
        <time>2023-08-06T06:11:57Z</time>
      </trkpt>
      <trkpt lat="45.63704" lon="-1.01734">
        <ele>1</ele>
        <time>2023-08-06T06:11:58Z</time>
      </trkpt>
      <trkpt lat="45.63707" lon="-1.01733">
        <ele>0.6</ele>
        <time>2023-08-06T06:12:00Z</time>
      </trkpt>
      <trkpt lat="45.63708" lon="-1.01731">
        <ele>0.4</ele>
        <time>2023-08-06T06:12:01Z</time>
      </trkpt>
      <trkpt lat="45.6371" lon="-1.01721">
        <ele>0.2</ele>
        <time>2023-08-06T06:12:04Z</time>
      </trkpt>
      <trkpt lat="45.63712" lon="-1.01717">
        <ele>-0.2</ele>
        <time>2023-08-06T06:12:05Z</time>
      </trkpt>
      <trkpt lat="45.63715" lon="-1.01702">
        <ele>-0.6</ele>
        <time>2023-08-06T06:12:08Z</time>
      </trkpt>
      <trkpt lat="45.63715" lon="-1.01695">
        <ele>-0.8</ele>
        <time>2023-08-06T06:12:09Z</time>
      </trkpt>
      <trkpt lat="45.63715" lon="-1.01689">
        <ele>-0.8</ele>
        <time>2023-08-06T06:12:10Z</time>
      </trkpt>
      <trkpt lat="45.63715" lon="-1.01682">
        <ele>-0.8</ele>
        <time>2023-08-06T06:12:11Z</time>
      </trkpt>
      <trkpt lat="45.63714" lon="-1.01663">
        <ele>-1.2</ele>
        <time>2023-08-06T06:12:14Z</time>
      </trkpt>
      <trkpt lat="45.63715" lon="-1.01657">
        <ele>-1.2</ele>
        <time>2023-08-06T06:12:15Z</time>
      </trkpt>
      <trkpt lat="45.63719" lon="-1.01628">
        <ele>-1.4</ele>
        <time>2023-08-06T06:12:20Z</time>
      </trkpt>
      <trkpt lat="45.63721" lon="-1.01621">
        <ele>-1.2</ele>
        <time>2023-08-06T06:12:21Z</time>
      </trkpt>
      <trkpt lat="45.63723" lon="-1.01615">
        <ele>-1</ele>
        <time>2023-08-06T06:12:22Z</time>
      </trkpt>
      <trkpt lat="45.63729" lon="-1.01595">
        <ele>-0.8</ele>
        <time>2023-08-06T06:12:26Z</time>
      </trkpt>
      <trkpt lat="45.63732" lon="-1.01579">
        <ele>-1</ele>
        <time>2023-08-06T06:12:29Z</time>
      </trkpt>
      <trkpt lat="45.63733" lon="-1.01566">
        <ele>-1.2</ele>
        <time>2023-08-06T06:12:31Z</time>
      </trkpt>
      <trkpt lat="45.63732" lon="-1.01553">
        <ele>-1.2</ele>
        <time>2023-08-06T06:12:33Z</time>
      </trkpt>
      <trkpt lat="45.63731" lon="-1.01534">
        <ele>-1.4</ele>
        <time>2023-08-06T06:12:36Z</time>
      </trkpt>
      <trkpt lat="45.63736" lon="-1.015">
        <ele>-0.4</ele>
        <time>2023-08-06T06:12:42Z</time>
      </trkpt>
      <trkpt lat="45.63734" lon="-1.01483">
        <ele>-0.8</ele>
        <time>2023-08-06T06:12:45Z</time>
      </trkpt>
      <trkpt lat="45.63732" lon="-1.01477">
        <ele>-0.8</ele>
        <time>2023-08-06T06:12:46Z</time>
      </trkpt>
      <trkpt lat="45.63724" lon="-1.01449">
        <ele>-1.4</ele>
        <time>2023-08-06T06:12:52Z</time>
      </trkpt>
      <trkpt lat="45.63712" lon="-1.01416">
        <ele>-1.8</ele>
        <time>2023-08-06T06:12:58Z</time>
      </trkpt>
      <trkpt lat="45.63708" lon="-1.01404">
        <ele>-1.8</ele>
        <time>2023-08-06T06:13:00Z</time>
      </trkpt>
      <trkpt lat="45.63703" lon="-1.01384">
        <ele>-1.6</ele>
        <time>2023-08-06T06:13:04Z</time>
      </trkpt>
      <trkpt lat="45.637" lon="-1.0137">
        <ele>-1.6</ele>
        <time>2023-08-06T06:13:06Z</time>
      </trkpt>
      <trkpt lat="45.63698" lon="-1.01353">
        <ele>-1.6</ele>
        <time>2023-08-06T06:13:08Z</time>
      </trkpt>
      <trkpt lat="45.63699" lon="-1.01346">
        <ele>-1.8</ele>
        <time>2023-08-06T06:13:09Z</time>
      </trkpt>
      <trkpt lat="45.63703" lon="-1.01327">
        <ele>-1.8</ele>
        <time>2023-08-06T06:13:12Z</time>
      </trkpt>
      <trkpt lat="45.63705" lon="-1.01313">
        <ele>-1.8</ele>
        <time>2023-08-06T06:13:14Z</time>
      </trkpt>
      <trkpt lat="45.63705" lon="-1.01306">
        <ele>-2</ele>
        <time>2023-08-06T06:13:15Z</time>
      </trkpt>
      <trkpt lat="45.63704" lon="-1.01299">
        <ele>-1.8</ele>
        <time>2023-08-06T06:13:16Z</time>
      </trkpt>
      <trkpt lat="45.637" lon="-1.01268">
        <ele>-2.2</ele>
        <time>2023-08-06T06:13:21Z</time>
      </trkpt>
      <trkpt lat="45.63695" lon="-1.01223">
        <ele>-2.2</ele>
        <time>2023-08-06T06:13:28Z</time>
      </trkpt>
      <trkpt lat="45.63693" lon="-1.01188">
        <ele>-2.8</ele>
        <time>2023-08-06T06:13:35Z</time>
      </trkpt>
      <trkpt lat="45.63695" lon="-1.01184">
        <ele>-2.6</ele>
        <time>2023-08-06T06:13:36Z</time>
      </trkpt>
      <trkpt lat="45.63701" lon="-1.01182">
        <ele>-2.4</ele>
        <time>2023-08-06T06:13:38Z</time>
      </trkpt>
      <trkpt lat="45.63721" lon="-1.01186">
        <ele>-2</ele>
        <time>2023-08-06T06:13:43Z</time>
      </trkpt>
      <trkpt lat="45.63757" lon="-1.01189">
        <ele>-2</ele>
        <time>2023-08-06T06:13:51Z</time>
      </trkpt>
      <trkpt lat="45.63797" lon="-1.01193">
        <ele>-1.4</ele>
        <time>2023-08-06T06:14:00Z</time>
      </trkpt>
      <trkpt lat="45.63828" lon="-1.012">
        <ele>-1.4</ele>
        <time>2023-08-06T06:14:07Z</time>
      </trkpt>
      <trkpt lat="45.63863" lon="-1.01212">
        <ele>-1</ele>
        <time>2023-08-06T06:14:15Z</time>
      </trkpt>
      <trkpt lat="45.63902" lon="-1.01225">
        <ele>-0.8</ele>
        <time>2023-08-06T06:14:24Z</time>
      </trkpt>
      <trkpt lat="45.6393" lon="-1.01236">
        <ele>-1</ele>
        <time>2023-08-06T06:14:31Z</time>
      </trkpt>
      <trkpt lat="45.63956" lon="-1.01247">
        <ele>-1</ele>
        <time>2023-08-06T06:14:38Z</time>
      </trkpt>
      <trkpt lat="45.63988" lon="-1.01258">
        <ele>-0.6</ele>
        <time>2023-08-06T06:14:46Z</time>
      </trkpt>
      <trkpt lat="45.63995" lon="-1.01261">
        <ele>-0.4</ele>
        <time>2023-08-06T06:14:48Z</time>
      </trkpt>
      <trkpt lat="45.64004" lon="-1.01261">
        <ele>-0.4</ele>
        <time>2023-08-06T06:14:50Z</time>
      </trkpt>
      <trkpt lat="45.64012" lon="-1.0126">
        <ele>-0.4</ele>
        <time>2023-08-06T06:14:52Z</time>
      </trkpt>
      <trkpt lat="45.64041" lon="-1.01256">
        <ele>-0.4</ele>
        <time>2023-08-06T06:14:58Z</time>
      </trkpt>
      <trkpt lat="45.64074" lon="-1.01257">
        <ele>7.4</ele>
        <time>2023-08-06T06:15:04Z</time>
      </trkpt>
      <trkpt lat="45.64085" lon="-1.0126">
        <ele>0.4</ele>
        <time>2023-08-06T06:15:06Z</time>
      </trkpt>
      <trkpt lat="45.64112" lon="-1.01266">
        <ele>1.2</ele>
        <time>2023-08-06T06:15:12Z</time>
      </trkpt>
      <trkpt lat="45.64117" lon="-1.01268">
        <ele>1.8</ele>
        <time>2023-08-06T06:15:13Z</time>
      </trkpt>
      <trkpt lat="45.64138" lon="-1.01276">
        <ele>2.6</ele>
        <time>2023-08-06T06:15:18Z</time>
      </trkpt>
      <trkpt lat="45.64151" lon="-1.01281">
        <ele>3</ele>
        <time>2023-08-06T06:15:21Z</time>
      </trkpt>
      <trkpt lat="45.64167" lon="-1.01289">
        <ele>3.4</ele>
        <time>2023-08-06T06:15:25Z</time>
      </trkpt>
      <trkpt lat="45.6417" lon="-1.01291">
        <ele>3.4</ele>
        <time>2023-08-06T06:15:26Z</time>
      </trkpt>
      <trkpt lat="45.64178" lon="-1.01297">
        <ele>3.6</ele>
        <time>2023-08-06T06:15:28Z</time>
      </trkpt>
      <trkpt lat="45.64186" lon="-1.01302">
        <ele>3.6</ele>
        <time>2023-08-06T06:15:30Z</time>
      </trkpt>
      <trkpt lat="45.64202" lon="-1.01313">
        <ele>3.8</ele>
        <time>2023-08-06T06:15:34Z</time>
      </trkpt>
      <trkpt lat="45.64213" lon="-1.01325">
        <ele>4.2</ele>
        <time>2023-08-06T06:15:37Z</time>
      </trkpt>
      <trkpt lat="45.64217" lon="-1.0133">
        <ele>4.2</ele>
        <time>2023-08-06T06:15:38Z</time>
      </trkpt>
      <trkpt lat="45.64236" lon="-1.01347">
        <ele>4.8</ele>
        <time>2023-08-06T06:15:42Z</time>
      </trkpt>
      <trkpt lat="45.64245" lon="-1.01353">
        <ele>4.8</ele>
        <time>2023-08-06T06:15:44Z</time>
      </trkpt>
      <trkpt lat="45.6426" lon="-1.01358">
        <ele>4.4</ele>
        <time>2023-08-06T06:15:47Z</time>
      </trkpt>
      <trkpt lat="45.64293" lon="-1.01364">
        <ele>4</ele>
        <time>2023-08-06T06:15:53Z</time>
      </trkpt>
      <trkpt lat="45.64323" lon="-1.01368">
        <ele>3.6</ele>
        <time>2023-08-06T06:15:59Z</time>
      </trkpt>
      <trkpt lat="45.64327" lon="-1.0137">
        <ele>3.6</ele>
        <time>2023-08-06T06:16:00Z</time>
      </trkpt>
      <trkpt lat="45.64331" lon="-1.01372">
        <ele>3.6</ele>
        <time>2023-08-06T06:16:01Z</time>
      </trkpt>
      <trkpt lat="45.64338" lon="-1.0138">
        <ele>3.8</ele>
        <time>2023-08-06T06:16:03Z</time>
      </trkpt>
      <trkpt lat="45.64341" lon="-1.01386">
        <ele>4</ele>
        <time>2023-08-06T06:16:04Z</time>
      </trkpt>
      <trkpt lat="45.64343" lon="-1.01393">
        <ele>4.2</ele>
        <time>2023-08-06T06:16:05Z</time>
      </trkpt>
      <trkpt lat="45.64349" lon="-1.01418">
        <ele>4.8</ele>
        <time>2023-08-06T06:16:09Z</time>
      </trkpt>
      <trkpt lat="45.64351" lon="-1.0143">
        <ele>4.6</ele>
        <time>2023-08-06T06:16:11Z</time>
      </trkpt>
      <trkpt lat="45.64354" lon="-1.01467">
        <ele>4.4</ele>
        <time>2023-08-06T06:16:16Z</time>
      </trkpt>
      <trkpt lat="45.64361" lon="-1.01521">
        <ele>3.2</ele>
        <time>2023-08-06T06:16:23Z</time>
      </trkpt>
      <trkpt lat="45.64362" lon="-1.01529">
        <ele>3</ele>
        <time>2023-08-06T06:16:24Z</time>
      </trkpt>
      <trkpt lat="45.64368" lon="-1.01569">
        <ele>2</ele>
        <time>2023-08-06T06:16:29Z</time>
      </trkpt>
      <trkpt lat="45.6437" lon="-1.01585">
        <ele>2</ele>
        <time>2023-08-06T06:16:31Z</time>
      </trkpt>
      <trkpt lat="45.64383" lon="-1.01628">
        <ele>2</ele>
        <time>2023-08-06T06:16:37Z</time>
      </trkpt>
      <trkpt lat="45.64397" lon="-1.01663">
        <ele>2</ele>
        <time>2023-08-06T06:16:43Z</time>
      </trkpt>
      <trkpt lat="45.64415" lon="-1.0169">
        <ele>2.4</ele>
        <time>2023-08-06T06:16:49Z</time>
      </trkpt>
      <trkpt lat="45.6442" lon="-1.01698">
        <ele>2.6</ele>
        <time>2023-08-06T06:16:51Z</time>
      </trkpt>
      <trkpt lat="45.64427" lon="-1.01704">
        <ele>3.4</ele>
        <time>2023-08-06T06:16:53Z</time>
      </trkpt>
      <trkpt lat="45.64434" lon="-1.01708">
        <ele>4</ele>
        <time>2023-08-06T06:16:55Z</time>
      </trkpt>
      <trkpt lat="45.64446" lon="-1.01712">
        <ele>4.6</ele>
        <time>2023-08-06T06:16:58Z</time>
      </trkpt>
      <trkpt lat="45.64454" lon="-1.01713">
        <ele>5</ele>
        <time>2023-08-06T06:17:00Z</time>
      </trkpt>
      <trkpt lat="45.64457" lon="-1.01713">
        <ele>5.2</ele>
        <time>2023-08-06T06:17:01Z</time>
      </trkpt>
      <trkpt lat="45.64461" lon="-1.01712">
        <ele>5.6</ele>
        <time>2023-08-06T06:17:02Z</time>
      </trkpt>
      <trkpt lat="45.6447" lon="-1.01711">
        <ele>7</ele>
        <time>2023-08-06T06:17:04Z</time>
      </trkpt>
      <trkpt lat="45.64487" lon="-1.01709">
        <ele>7.8</ele>
        <time>2023-08-06T06:17:08Z</time>
      </trkpt>
      <trkpt lat="45.64491" lon="-1.01708">
        <ele>8</ele>
        <time>2023-08-06T06:17:09Z</time>
      </trkpt>
      <trkpt lat="45.64515" lon="-1.01704">
        <ele>9</ele>
        <time>2023-08-06T06:17:15Z</time>
      </trkpt>
      <trkpt lat="45.64519" lon="-1.01704">
        <ele>9.2</ele>
        <time>2023-08-06T06:17:16Z</time>
      </trkpt>
      <trkpt lat="45.64537" lon="-1.01704">
        <ele>10.2</ele>
        <time>2023-08-06T06:17:20Z</time>
      </trkpt>
      <trkpt lat="45.6455" lon="-1.01705">
        <ele>10.2</ele>
        <time>2023-08-06T06:17:23Z</time>
      </trkpt>
      <trkpt lat="45.6458" lon="-1.01708">
        <ele>10.6</ele>
        <time>2023-08-06T06:17:30Z</time>
      </trkpt>
      <trkpt lat="45.64592" lon="-1.01709">
        <ele>11.2</ele>
        <time>2023-08-06T06:17:33Z</time>
      </trkpt>
      <trkpt lat="45.64617" lon="-1.01711">
        <ele>12</ele>
        <time>2023-08-06T06:17:39Z</time>
      </trkpt>
      <trkpt lat="45.64629" lon="-1.01712">
        <ele>12.4</ele>
        <time>2023-08-06T06:17:42Z</time>
      </trkpt>
      <trkpt lat="45.64641" lon="-1.01714">
        <ele>12.2</ele>
        <time>2023-08-06T06:17:45Z</time>
      </trkpt>
      <trkpt lat="45.64648" lon="-1.01718">
        <ele>12.2</ele>
        <time>2023-08-06T06:17:47Z</time>
      </trkpt>
      <trkpt lat="45.6465" lon="-1.01722">
        <ele>12.2</ele>
        <time>2023-08-06T06:17:48Z</time>
      </trkpt>
      <trkpt lat="45.64654" lon="-1.01734">
        <ele>12.6</ele>
        <time>2023-08-06T06:17:51Z</time>
      </trkpt>
      <trkpt lat="45.64655" lon="-1.01768">
        <ele>13.2</ele>
        <time>2023-08-06T06:17:57Z</time>
      </trkpt>
      <trkpt lat="45.64654" lon="-1.01805">
        <ele>12.6</ele>
        <time>2023-08-06T06:18:04Z</time>
      </trkpt>
      <trkpt lat="45.64659" lon="-1.01838">
        <ele>12.6</ele>
        <time>2023-08-06T06:18:10Z</time>
      </trkpt>
      <trkpt lat="45.64663" lon="-1.0185">
        <ele>12.8</ele>
        <time>2023-08-06T06:18:12Z</time>
      </trkpt>
      <trkpt lat="45.6468" lon="-1.01887">
        <ele>13.6</ele>
        <time>2023-08-06T06:18:19Z</time>
      </trkpt>
      <trkpt lat="45.64698" lon="-1.01908">
        <ele>14.6</ele>
        <time>2023-08-06T06:18:25Z</time>
      </trkpt>
      <trkpt lat="45.64714" lon="-1.01922">
        <ele>15.6</ele>
        <time>2023-08-06T06:18:30Z</time>
      </trkpt>
      <trkpt lat="45.6472" lon="-1.01926">
        <ele>15.8</ele>
        <time>2023-08-06T06:18:32Z</time>
      </trkpt>
      <trkpt lat="45.64729" lon="-1.01932">
        <ele>16.8</ele>
        <time>2023-08-06T06:18:35Z</time>
      </trkpt>
      <trkpt lat="45.64743" lon="-1.01943">
        <ele>17.8</ele>
        <time>2023-08-06T06:18:40Z</time>
      </trkpt>
      <trkpt lat="45.64746" lon="-1.01944">
        <ele>18</ele>
        <time>2023-08-06T06:18:41Z</time>
      </trkpt>
      <trkpt lat="45.64749" lon="-1.01944">
        <ele>18</ele>
        <time>2023-08-06T06:18:42Z</time>
      </trkpt>
      <trkpt lat="45.64755" lon="-1.01939">
        <ele>18.4</ele>
        <time>2023-08-06T06:18:44Z</time>
      </trkpt>
      <trkpt lat="45.6476" lon="-1.0193">
        <ele>18.8</ele>
        <time>2023-08-06T06:18:46Z</time>
      </trkpt>
      <trkpt lat="45.64775" lon="-1.01905">
        <ele>20.2</ele>
        <time>2023-08-06T06:18:51Z</time>
      </trkpt>
      <trkpt lat="45.64785" lon="-1.01884">
        <ele>21.2</ele>
        <time>2023-08-06T06:18:55Z</time>
      </trkpt>
      <trkpt lat="45.64792" lon="-1.01868">
        <ele>22.4</ele>
        <time>2023-08-06T06:18:58Z</time>
      </trkpt>
      <trkpt lat="45.64794" lon="-1.01863">
        <ele>22.6</ele>
        <time>2023-08-06T06:18:59Z</time>
      </trkpt>
      <trkpt lat="45.64797" lon="-1.01857">
        <ele>22.6</ele>
        <time>2023-08-06T06:19:00Z</time>
      </trkpt>
      <trkpt lat="45.64806" lon="-1.01836">
        <ele>22.8</ele>
        <time>2023-08-06T06:19:04Z</time>
      </trkpt>
      <trkpt lat="45.64812" lon="-1.0182">
        <ele>22.8</ele>
        <time>2023-08-06T06:19:07Z</time>
      </trkpt>
      <trkpt lat="45.64829" lon="-1.01776">
        <ele>23.2</ele>
        <time>2023-08-06T06:19:15Z</time>
      </trkpt>
      <trkpt lat="45.64855" lon="-1.01725">
        <ele>22.4</ele>
        <time>2023-08-06T06:19:24Z</time>
      </trkpt>
      <trkpt lat="45.64878" lon="-1.01694">
        <ele>22</ele>
        <time>2023-08-06T06:19:31Z</time>
      </trkpt>
      <trkpt lat="45.64905" lon="-1.01667">
        <ele>23.2</ele>
        <time>2023-08-06T06:19:39Z</time>
      </trkpt>
      <trkpt lat="45.64912" lon="-1.01661">
        <ele>23.4</ele>
        <time>2023-08-06T06:19:41Z</time>
      </trkpt>
      <trkpt lat="45.64936" lon="-1.01644">
        <ele>23.8</ele>
        <time>2023-08-06T06:19:47Z</time>
      </trkpt>
      <trkpt lat="45.64977" lon="-1.01612">
        <ele>23.8</ele>
        <time>2023-08-06T06:19:57Z</time>
      </trkpt>
      <trkpt lat="45.64993" lon="-1.01598">
        <ele>23.8</ele>
        <time>2023-08-06T06:20:01Z</time>
      </trkpt>
      <trkpt lat="45.65004" lon="-1.01585">
        <ele>23.8</ele>
        <time>2023-08-06T06:20:04Z</time>
      </trkpt>
      <trkpt lat="45.6501" lon="-1.01578">
        <ele>23.8</ele>
        <time>2023-08-06T06:20:06Z</time>
      </trkpt>
      <trkpt lat="45.65017" lon="-1.01573">
        <ele>23.6</ele>
        <time>2023-08-06T06:20:08Z</time>
      </trkpt>
      <trkpt lat="45.65021" lon="-1.01574">
        <ele>23.6</ele>
        <time>2023-08-06T06:20:09Z</time>
      </trkpt>
      <trkpt lat="45.65024" lon="-1.01576">
        <ele>23.8</ele>
        <time>2023-08-06T06:20:10Z</time>
      </trkpt>
      <trkpt lat="45.65027" lon="-1.01583">
        <ele>24</ele>
        <time>2023-08-06T06:20:12Z</time>
      </trkpt>
      <trkpt lat="45.65032" lon="-1.01593">
        <ele>24</ele>
        <time>2023-08-06T06:20:15Z</time>
      </trkpt>
      <trkpt lat="45.65034" lon="-1.01601">
        <ele>24</ele>
        <time>2023-08-06T06:20:17Z</time>
      </trkpt>
      <trkpt lat="45.65041" lon="-1.01626">
        <ele>24</ele>
        <time>2023-08-06T06:20:22Z</time>
      </trkpt>
      <trkpt lat="45.65052" lon="-1.01651">
        <ele>24.4</ele>
        <time>2023-08-06T06:20:27Z</time>
      </trkpt>
      <trkpt lat="45.65054" lon="-1.01656">
        <ele>24.6</ele>
        <time>2023-08-06T06:20:28Z</time>
      </trkpt>
      <trkpt lat="45.65067" lon="-1.01695">
        <ele>25</ele>
        <time>2023-08-06T06:20:36Z</time>
      </trkpt>
      <trkpt lat="45.6507" lon="-1.01705">
        <ele>25</ele>
        <time>2023-08-06T06:20:38Z</time>
      </trkpt>
      <trkpt lat="45.65074" lon="-1.01714">
        <ele>25.2</ele>
        <time>2023-08-06T06:20:40Z</time>
      </trkpt>
      <trkpt lat="45.65077" lon="-1.01724">
        <ele>25.2</ele>
        <time>2023-08-06T06:20:42Z</time>
      </trkpt>
      <trkpt lat="45.65087" lon="-1.01754">
        <ele>25.4</ele>
        <time>2023-08-06T06:20:48Z</time>
      </trkpt>
      <trkpt lat="45.65093" lon="-1.01769">
        <ele>25.6</ele>
        <time>2023-08-06T06:20:51Z</time>
      </trkpt>
      <trkpt lat="45.65103" lon="-1.01791">
        <ele>25.8</ele>
        <time>2023-08-06T06:20:55Z</time>
      </trkpt>
      <trkpt lat="45.65119" lon="-1.01823">
        <ele>25.8</ele>
        <time>2023-08-06T06:21:01Z</time>
      </trkpt>
      <trkpt lat="45.65121" lon="-1.01827">
        <ele>25.8</ele>
        <time>2023-08-06T06:21:02Z</time>
      </trkpt>
      <trkpt lat="45.6513" lon="-1.01845">
        <ele>25.6</ele>
        <time>2023-08-06T06:21:06Z</time>
      </trkpt>
      <trkpt lat="45.65134" lon="-1.01854">
        <ele>25.6</ele>
        <time>2023-08-06T06:21:08Z</time>
      </trkpt>
      <trkpt lat="45.65145" lon="-1.01873">
        <ele>25.4</ele>
        <time>2023-08-06T06:21:13Z</time>
      </trkpt>
      <trkpt lat="45.65147" lon="-1.01876">
        <ele>25.6</ele>
        <time>2023-08-06T06:21:14Z</time>
      </trkpt>
      <trkpt lat="45.65168" lon="-1.01906">
        <ele>25.6</ele>
        <time>2023-08-06T06:21:20Z</time>
      </trkpt>
      <trkpt lat="45.65169" lon="-1.01913">
        <ele>25.6</ele>
        <time>2023-08-06T06:21:21Z</time>
      </trkpt>
      <trkpt lat="45.65177" lon="-1.01938">
        <ele>25.4</ele>
        <time>2023-08-06T06:21:25Z</time>
      </trkpt>
      <trkpt lat="45.65194" lon="-1.01979">
        <ele>25.4</ele>
        <time>2023-08-06T06:21:31Z</time>
      </trkpt>
      <trkpt lat="45.65206" lon="-1.02018">
        <ele>25.2</ele>
        <time>2023-08-06T06:21:37Z</time>
      </trkpt>
      <trkpt lat="45.65211" lon="-1.02029">
        <ele>25</ele>
        <time>2023-08-06T06:21:39Z</time>
      </trkpt>
      <trkpt lat="45.65216" lon="-1.0205">
        <ele>25</ele>
        <time>2023-08-06T06:21:42Z</time>
      </trkpt>
      <trkpt lat="45.65225" lon="-1.02081">
        <ele>24.8</ele>
        <time>2023-08-06T06:21:47Z</time>
      </trkpt>
      <trkpt lat="45.65229" lon="-1.02093">
        <ele>24.8</ele>
        <time>2023-08-06T06:21:49Z</time>
      </trkpt>
      <trkpt lat="45.65236" lon="-1.02112">
        <ele>24.4</ele>
        <time>2023-08-06T06:21:53Z</time>
      </trkpt>
      <trkpt lat="45.65237" lon="-1.02116">
        <ele>24.4</ele>
        <time>2023-08-06T06:21:54Z</time>
      </trkpt>
      <trkpt lat="45.65238" lon="-1.02119">
        <ele>24.2</ele>
        <time>2023-08-06T06:21:55Z</time>
      </trkpt>
      <trkpt lat="45.65243" lon="-1.02121">
        <ele>24.4</ele>
        <time>2023-08-06T06:21:57Z</time>
      </trkpt>
      <trkpt lat="45.65245" lon="-1.02119">
        <ele>24.2</ele>
        <time>2023-08-06T06:21:58Z</time>
      </trkpt>
      <trkpt lat="45.65248" lon="-1.02116">
        <ele>24.2</ele>
        <time>2023-08-06T06:22:00Z</time>
      </trkpt>
      <trkpt lat="45.65251" lon="-1.02109">
        <ele>24.2</ele>
        <time>2023-08-06T06:22:03Z</time>
      </trkpt>
      <trkpt lat="45.65261" lon="-1.02094">
        <ele>24.6</ele>
        <time>2023-08-06T06:22:09Z</time>
      </trkpt>
      <trkpt lat="45.65273" lon="-1.02083">
        <ele>25</ele>
        <time>2023-08-06T06:22:13Z</time>
      </trkpt>
      <trkpt lat="45.65283" lon="-1.02074">
        <ele>25.4</ele>
        <time>2023-08-06T06:22:16Z</time>
      </trkpt>
      <trkpt lat="45.6529" lon="-1.02068">
        <ele>25.6</ele>
        <time>2023-08-06T06:22:18Z</time>
      </trkpt>
      <trkpt lat="45.65316" lon="-1.02046">
        <ele>26</ele>
        <time>2023-08-06T06:22:25Z</time>
      </trkpt>
      <trkpt lat="45.65338" lon="-1.02029">
        <ele>26.4</ele>
        <time>2023-08-06T06:22:31Z</time>
      </trkpt>
      <trkpt lat="45.65341" lon="-1.02027">
        <ele>26.6</ele>
        <time>2023-08-06T06:22:32Z</time>
      </trkpt>
      <trkpt lat="45.65363" lon="-1.02016">
        <ele>26.2</ele>
        <time>2023-08-06T06:22:38Z</time>
      </trkpt>
      <trkpt lat="45.65399" lon="-1.01999">
        <ele>26.2</ele>
        <time>2023-08-06T06:22:47Z</time>
      </trkpt>
      <trkpt lat="45.65414" lon="-1.01996">
        <ele>26.2</ele>
        <time>2023-08-06T06:22:51Z</time>
      </trkpt>
      <trkpt lat="45.65416" lon="-1.01999">
        <ele>26.2</ele>
        <time>2023-08-06T06:22:52Z</time>
      </trkpt>
      <trkpt lat="45.65418" lon="-1.02003">
        <ele>26.2</ele>
        <time>2023-08-06T06:22:53Z</time>
      </trkpt>
      <trkpt lat="45.65423" lon="-1.02021">
        <ele>26.2</ele>
        <time>2023-08-06T06:22:56Z</time>
      </trkpt>
      <trkpt lat="45.65431" lon="-1.02051">
        <ele>26.8</ele>
        <time>2023-08-06T06:23:02Z</time>
      </trkpt>
      <trkpt lat="45.65435" lon="-1.02074">
        <ele>26.6</ele>
        <time>2023-08-06T06:23:06Z</time>
      </trkpt>
      <trkpt lat="45.65436" lon="-1.02089">
        <ele>26.6</ele>
        <time>2023-08-06T06:23:08Z</time>
      </trkpt>
      <trkpt lat="45.6544" lon="-1.02142">
        <ele>26.4</ele>
        <time>2023-08-06T06:23:15Z</time>
      </trkpt>
      <trkpt lat="45.65449" lon="-1.02185">
        <ele>25.8</ele>
        <time>2023-08-06T06:23:22Z</time>
      </trkpt>
      <trkpt lat="45.65459" lon="-1.02232">
        <ele>25.8</ele>
        <time>2023-08-06T06:23:29Z</time>
      </trkpt>
      <trkpt lat="45.65459" lon="-1.02244">
        <ele>25.8</ele>
        <time>2023-08-06T06:23:31Z</time>
      </trkpt>
      <trkpt lat="45.65455" lon="-1.02253">
        <ele>25.8</ele>
        <time>2023-08-06T06:23:33Z</time>
      </trkpt>
      <trkpt lat="45.65447" lon="-1.02257">
        <ele>25.6</ele>
        <time>2023-08-06T06:23:35Z</time>
      </trkpt>
      <trkpt lat="45.65437" lon="-1.02259">
        <ele>25.6</ele>
        <time>2023-08-06T06:23:37Z</time>
      </trkpt>
      <trkpt lat="45.65431" lon="-1.0226">
        <ele>25.4</ele>
        <time>2023-08-06T06:23:38Z</time>
      </trkpt>
      <trkpt lat="45.65405" lon="-1.02264">
        <ele>25.4</ele>
        <time>2023-08-06T06:23:43Z</time>
      </trkpt>
      <trkpt lat="45.65395" lon="-1.02267">
        <ele>25.4</ele>
        <time>2023-08-06T06:23:45Z</time>
      </trkpt>
      <trkpt lat="45.65375" lon="-1.02277">
        <ele>25.4</ele>
        <time>2023-08-06T06:23:50Z</time>
      </trkpt>
      <trkpt lat="45.65372" lon="-1.02284">
        <ele>25.2</ele>
        <time>2023-08-06T06:23:52Z</time>
      </trkpt>
      <trkpt lat="45.65372" lon="-1.02287">
        <ele>25.2</ele>
        <time>2023-08-06T06:23:53Z</time>
      </trkpt>
      <trkpt lat="45.65379" lon="-1.02316">
        <ele>25</ele>
        <time>2023-08-06T06:23:59Z</time>
      </trkpt>
      <trkpt lat="45.65382" lon="-1.0232">
        <ele>25.2</ele>
        <time>2023-08-06T06:24:00Z</time>
      </trkpt>
      <trkpt lat="45.65391" lon="-1.02321">
        <ele>25.2</ele>
        <time>2023-08-06T06:24:02Z</time>
      </trkpt>
      <trkpt lat="45.65423" lon="-1.02313">
        <ele>25.2</ele>
        <time>2023-08-06T06:24:09Z</time>
      </trkpt>
      <trkpt lat="45.65457" lon="-1.02306">
        <ele>25.4</ele>
        <time>2023-08-06T06:24:16Z</time>
      </trkpt>
      <trkpt lat="45.65484" lon="-1.02303">
        <ele>25.2</ele>
        <time>2023-08-06T06:24:22Z</time>
      </trkpt>
      <trkpt lat="45.65488" lon="-1.02304">
        <ele>25.4</ele>
        <time>2023-08-06T06:24:23Z</time>
      </trkpt>
      <trkpt lat="45.65492" lon="-1.02307">
        <ele>25.2</ele>
        <time>2023-08-06T06:24:24Z</time>
      </trkpt>
      <trkpt lat="45.65496" lon="-1.02314">
        <ele>25</ele>
        <time>2023-08-06T06:24:26Z</time>
      </trkpt>
      <trkpt lat="45.65506" lon="-1.02347">
        <ele>25</ele>
        <time>2023-08-06T06:24:32Z</time>
      </trkpt>
      <trkpt lat="45.65517" lon="-1.02391">
        <ele>25.4</ele>
        <time>2023-08-06T06:24:38Z</time>
      </trkpt>
      <trkpt lat="45.65528" lon="-1.02446">
        <ele>25.2</ele>
        <time>2023-08-06T06:24:45Z</time>
      </trkpt>
      <trkpt lat="45.65539" lon="-1.02491">
        <ele>25.4</ele>
        <time>2023-08-06T06:24:51Z</time>
      </trkpt>
      <trkpt lat="45.65548" lon="-1.02534">
        <ele>24.4</ele>
        <time>2023-08-06T06:24:57Z</time>
      </trkpt>
      <trkpt lat="45.65551" lon="-1.02546">
        <ele>24.4</ele>
        <time>2023-08-06T06:24:59Z</time>
      </trkpt>
      <trkpt lat="45.65555" lon="-1.02554">
        <ele>24.4</ele>
        <time>2023-08-06T06:25:01Z</time>
      </trkpt>
      <trkpt lat="45.65557" lon="-1.02556">
        <ele>24.4</ele>
        <time>2023-08-06T06:25:02Z</time>
      </trkpt>
      <trkpt lat="45.65576" lon="-1.02568">
        <ele>24.2</ele>
        <time>2023-08-06T06:25:07Z</time>
      </trkpt>
      <trkpt lat="45.65584" lon="-1.02573">
        <ele>24</ele>
        <time>2023-08-06T06:25:09Z</time>
      </trkpt>
      <trkpt lat="45.65589" lon="-1.02582">
        <ele>23.8</ele>
        <time>2023-08-06T06:25:11Z</time>
      </trkpt>
      <trkpt lat="45.65598" lon="-1.02597">
        <ele>23.8</ele>
        <time>2023-08-06T06:25:14Z</time>
      </trkpt>
      <trkpt lat="45.65605" lon="-1.02607">
        <ele>24</ele>
        <time>2023-08-06T06:25:16Z</time>
      </trkpt>
      <trkpt lat="45.65624" lon="-1.02644">
        <ele>24</ele>
        <time>2023-08-06T06:25:22Z</time>
      </trkpt>
      <trkpt lat="45.65636" lon="-1.02667">
        <ele>24.2</ele>
        <time>2023-08-06T06:25:26Z</time>
      </trkpt>
      <trkpt lat="45.65638" lon="-1.02673">
        <ele>24.2</ele>
        <time>2023-08-06T06:25:27Z</time>
      </trkpt>
      <trkpt lat="45.65639" lon="-1.02679">
        <ele>23.8</ele>
        <time>2023-08-06T06:25:28Z</time>
      </trkpt>
      <trkpt lat="45.65642" lon="-1.02692">
        <ele>23.4</ele>
        <time>2023-08-06T06:25:30Z</time>
      </trkpt>
      <trkpt lat="45.65643" lon="-1.02699">
        <ele>23.4</ele>
        <time>2023-08-06T06:25:31Z</time>
      </trkpt>
      <trkpt lat="45.65649" lon="-1.02722">
        <ele>23</ele>
        <time>2023-08-06T06:25:34Z</time>
      </trkpt>
      <trkpt lat="45.65653" lon="-1.02733">
        <ele>22.8</ele>
        <time>2023-08-06T06:25:36Z</time>
      </trkpt>
      <trkpt lat="45.65654" lon="-1.0275">
        <ele>22.6</ele>
        <time>2023-08-06T06:25:40Z</time>
      </trkpt>
      <trkpt lat="45.65652" lon="-1.02762">
        <ele>22.8</ele>
        <time>2023-08-06T06:25:43Z</time>
      </trkpt>
      <trkpt lat="45.65652" lon="-1.02773">
        <ele>22.8</ele>
        <time>2023-08-06T06:25:45Z</time>
      </trkpt>
      <trkpt lat="45.65653" lon="-1.02786">
        <ele>22.6</ele>
        <time>2023-08-06T06:25:47Z</time>
      </trkpt>
      <trkpt lat="45.65653" lon="-1.02794">
        <ele>22.4</ele>
        <time>2023-08-06T06:25:49Z</time>
      </trkpt>
      <trkpt lat="45.65652" lon="-1.02799">
        <ele>22.4</ele>
        <time>2023-08-06T06:25:50Z</time>
      </trkpt>
      <trkpt lat="45.65649" lon="-1.02806">
        <ele>22.2</ele>
        <time>2023-08-06T06:25:52Z</time>
      </trkpt>
      <trkpt lat="45.65646" lon="-1.02817">
        <ele>22</ele>
        <time>2023-08-06T06:25:54Z</time>
      </trkpt>
      <trkpt lat="45.65642" lon="-1.02826">
        <ele>21.8</ele>
        <time>2023-08-06T06:25:56Z</time>
      </trkpt>
      <trkpt lat="45.65635" lon="-1.02843">
        <ele>22</ele>
        <time>2023-08-06T06:26:00Z</time>
      </trkpt>
      <trkpt lat="45.65631" lon="-1.02851">
        <ele>21.8</ele>
        <time>2023-08-06T06:26:02Z</time>
      </trkpt>
      <trkpt lat="45.65627" lon="-1.0286">
        <ele>22</ele>
        <time>2023-08-06T06:26:05Z</time>
      </trkpt>
      <trkpt lat="45.65622" lon="-1.02868">
        <ele>22</ele>
        <time>2023-08-06T06:26:07Z</time>
      </trkpt>
      <trkpt lat="45.65615" lon="-1.02876">
        <ele>22</ele>
        <time>2023-08-06T06:26:09Z</time>
      </trkpt>
      <trkpt lat="45.65613" lon="-1.0288">
        <ele>22</ele>
        <time>2023-08-06T06:26:10Z</time>
      </trkpt>
      <trkpt lat="45.65607" lon="-1.0289">
        <ele>21.8</ele>
        <time>2023-08-06T06:26:12Z</time>
      </trkpt>
      <trkpt lat="45.65604" lon="-1.02896">
        <ele>21.6</ele>
        <time>2023-08-06T06:26:13Z</time>
      </trkpt>
      <trkpt lat="45.656" lon="-1.02902">
        <ele>21.6</ele>
        <time>2023-08-06T06:26:14Z</time>
      </trkpt>
      <trkpt lat="45.65593" lon="-1.02911">
        <ele>21.4</ele>
        <time>2023-08-06T06:26:17Z</time>
      </trkpt>
      <trkpt lat="45.65582" lon="-1.02926">
        <ele>21</ele>
        <time>2023-08-06T06:26:21Z</time>
      </trkpt>
      <trkpt lat="45.6558" lon="-1.0293">
        <ele>21</ele>
        <time>2023-08-06T06:26:22Z</time>
      </trkpt>
      <trkpt lat="45.65577" lon="-1.02934">
        <ele>20.6</ele>
        <time>2023-08-06T06:26:23Z</time>
      </trkpt>
      <trkpt lat="45.65568" lon="-1.02942">
        <ele>20.4</ele>
        <time>2023-08-06T06:26:25Z</time>
      </trkpt>
      <trkpt lat="45.65562" lon="-1.02945">
        <ele>20.2</ele>
        <time>2023-08-06T06:26:27Z</time>
      </trkpt>
      <trkpt lat="45.65559" lon="-1.0295">
        <ele>20.2</ele>
        <time>2023-08-06T06:26:29Z</time>
      </trkpt>
      <trkpt lat="45.65555" lon="-1.02951">
        <ele>20</ele>
        <time>2023-08-06T06:26:31Z</time>
      </trkpt>
      <trkpt lat="45.6555" lon="-1.02952">
        <ele>20</ele>
        <time>2023-08-06T06:26:33Z</time>
      </trkpt>
      <trkpt lat="45.65548" lon="-1.02952">
        <ele>20.2</ele>
        <time>2023-08-06T06:26:34Z</time>
      </trkpt>
      <trkpt lat="45.65537" lon="-1.02956">
        <ele>20.2</ele>
        <time>2023-08-06T06:26:37Z</time>
      </trkpt>
      <trkpt lat="45.65533" lon="-1.02963">
        <ele>20.4</ele>
        <time>2023-08-06T06:26:39Z</time>
      </trkpt>
      <trkpt lat="45.6553" lon="-1.02966">
        <ele>20.6</ele>
        <time>2023-08-06T06:26:40Z</time>
      </trkpt>
      <trkpt lat="45.65527" lon="-1.02967">
        <ele>20.8</ele>
        <time>2023-08-06T06:26:41Z</time>
      </trkpt>
      <trkpt lat="45.6552" lon="-1.02967">
        <ele>21</ele>
        <time>2023-08-06T06:26:43Z</time>
      </trkpt>
      <trkpt lat="45.65516" lon="-1.02965">
        <ele>21</ele>
        <time>2023-08-06T06:26:44Z</time>
      </trkpt>
      <trkpt lat="45.65511" lon="-1.02961">
        <ele>21.2</ele>
        <time>2023-08-06T06:26:46Z</time>
      </trkpt>
      <trkpt lat="45.6551" lon="-1.02958">
        <ele>21.2</ele>
        <time>2023-08-06T06:26:47Z</time>
      </trkpt>
      <trkpt lat="45.65509" lon="-1.02951">
        <ele>21.2</ele>
        <time>2023-08-06T06:26:49Z</time>
      </trkpt>
      <trkpt lat="45.65507" lon="-1.02943">
        <ele>21.4</ele>
        <time>2023-08-06T06:26:51Z</time>
      </trkpt>
      <trkpt lat="45.655" lon="-1.02931">
        <ele>21</ele>
        <time>2023-08-06T06:26:55Z</time>
      </trkpt>
      <trkpt lat="45.6549" lon="-1.02928">
        <ele>21</ele>
        <time>2023-08-06T06:26:58Z</time>
      </trkpt>
      <trkpt lat="45.65486" lon="-1.02928">
        <ele>21.2</ele>
        <time>2023-08-06T06:26:59Z</time>
      </trkpt>
      <trkpt lat="45.65484" lon="-1.02929">
        <ele>21.4</ele>
        <time>2023-08-06T06:27:00Z</time>
      </trkpt>
      <trkpt lat="45.65479" lon="-1.02932">
        <ele>21.6</ele>
        <time>2023-08-06T06:27:03Z</time>
      </trkpt>
      <trkpt lat="45.65467" lon="-1.02926">
        <ele>21.6</ele>
        <time>2023-08-06T06:27:07Z</time>
      </trkpt>
      <trkpt lat="45.65462" lon="-1.02931">
        <ele>21.8</ele>
        <time>2023-08-06T06:27:10Z</time>
      </trkpt>
      <trkpt lat="45.6545" lon="-1.02944">
        <ele>22</ele>
        <time>2023-08-06T06:27:15Z</time>
      </trkpt>
      <trkpt lat="45.65441" lon="-1.02944">
        <ele>22.4</ele>
        <time>2023-08-06T06:27:18Z</time>
      </trkpt>
      <trkpt lat="45.65435" lon="-1.02946">
        <ele>22.4</ele>
        <time>2023-08-06T06:27:20Z</time>
      </trkpt>
      <trkpt lat="45.65433" lon="-1.02946">
        <ele>22.4</ele>
        <time>2023-08-06T06:27:21Z</time>
      </trkpt>
      <trkpt lat="45.6543" lon="-1.02944">
        <ele>22.6</ele>
        <time>2023-08-06T06:27:23Z</time>
      </trkpt>
      <trkpt lat="45.65429" lon="-1.02941">
        <ele>22.6</ele>
        <time>2023-08-06T06:27:24Z</time>
      </trkpt>
      <trkpt lat="45.65428" lon="-1.02938">
        <ele>22.6</ele>
        <time>2023-08-06T06:27:25Z</time>
      </trkpt>
      <trkpt lat="45.65426" lon="-1.02921">
        <ele>22.8</ele>
        <time>2023-08-06T06:27:29Z</time>
      </trkpt>
      <trkpt lat="45.65424" lon="-1.02914">
        <ele>22.8</ele>
        <time>2023-08-06T06:27:31Z</time>
      </trkpt>
      <trkpt lat="45.65421" lon="-1.02908">
        <ele>22.8</ele>
        <time>2023-08-06T06:27:33Z</time>
      </trkpt>
      <trkpt lat="45.65418" lon="-1.02906">
        <ele>22.8</ele>
        <time>2023-08-06T06:27:34Z</time>
      </trkpt>
      <trkpt lat="45.65411" lon="-1.02906">
        <ele>22.6</ele>
        <time>2023-08-06T06:27:36Z</time>
      </trkpt>
      <trkpt lat="45.65404" lon="-1.02904">
        <ele>22.4</ele>
        <time>2023-08-06T06:27:38Z</time>
      </trkpt>
      <trkpt lat="45.65401" lon="-1.02904">
        <ele>22.4</ele>
        <time>2023-08-06T06:27:39Z</time>
      </trkpt>
      <trkpt lat="45.65398" lon="-1.02899">
        <ele>22.4</ele>
        <time>2023-08-06T06:27:41Z</time>
      </trkpt>
      <trkpt lat="45.65396" lon="-1.02882">
        <ele>23</ele>
        <time>2023-08-06T06:27:45Z</time>
      </trkpt>
      <trkpt lat="45.65388" lon="-1.02875">
        <ele>22.8</ele>
        <time>2023-08-06T06:27:49Z</time>
      </trkpt>
      <trkpt lat="45.65382" lon="-1.02867">
        <ele>22.6</ele>
        <time>2023-08-06T06:27:52Z</time>
      </trkpt>
      <trkpt lat="45.65376" lon="-1.02865">
        <ele>22.6</ele>
        <time>2023-08-06T06:27:55Z</time>
      </trkpt>
      <trkpt lat="45.65375" lon="-1.02863">
        <ele>22.6</ele>
        <time>2023-08-06T06:27:56Z</time>
      </trkpt>
      <trkpt lat="45.65373" lon="-1.02856">
        <ele>22.6</ele>
        <time>2023-08-06T06:27:58Z</time>
      </trkpt>
      <trkpt lat="45.65367" lon="-1.02841">
        <ele>23.2</ele>
        <time>2023-08-06T06:28:02Z</time>
      </trkpt>
      <trkpt lat="45.65363" lon="-1.02835">
        <ele>23</ele>
        <time>2023-08-06T06:28:04Z</time>
      </trkpt>
      <trkpt lat="45.65353" lon="-1.02824">
        <ele>23</ele>
        <time>2023-08-06T06:28:08Z</time>
      </trkpt>
      <trkpt lat="45.65352" lon="-1.02819">
        <ele>23</ele>
        <time>2023-08-06T06:28:09Z</time>
      </trkpt>
      <trkpt lat="45.65349" lon="-1.02815">
        <ele>23</ele>
        <time>2023-08-06T06:28:10Z</time>
      </trkpt>
      <trkpt lat="45.65345" lon="-1.02807">
        <ele>22.8</ele>
        <time>2023-08-06T06:28:12Z</time>
      </trkpt>
      <trkpt lat="45.65342" lon="-1.02803">
        <ele>22.8</ele>
        <time>2023-08-06T06:28:13Z</time>
      </trkpt>
      <trkpt lat="45.65341" lon="-1.02799">
        <ele>22.8</ele>
        <time>2023-08-06T06:28:14Z</time>
      </trkpt>
      <trkpt lat="45.65337" lon="-1.02793">
        <ele>22.8</ele>
        <time>2023-08-06T06:28:16Z</time>
      </trkpt>
      <trkpt lat="45.65332" lon="-1.02784">
        <ele>22.8</ele>
        <time>2023-08-06T06:28:18Z</time>
      </trkpt>
      <trkpt lat="45.65325" lon="-1.02772">
        <ele>22.8</ele>
        <time>2023-08-06T06:28:22Z</time>
      </trkpt>
      <trkpt lat="45.65324" lon="-1.0277">
        <ele>22.8</ele>
        <time>2023-08-06T06:28:23Z</time>
      </trkpt>
      <trkpt lat="45.65323" lon="-1.02766">
        <ele>22.8</ele>
        <time>2023-08-06T06:28:24Z</time>
      </trkpt>
      <trkpt lat="45.65322" lon="-1.02754">
        <ele>22.8</ele>
        <time>2023-08-06T06:28:27Z</time>
      </trkpt>
      <trkpt lat="45.65315" lon="-1.02735">
        <ele>23</ele>
        <time>2023-08-06T06:28:32Z</time>
      </trkpt>
      <trkpt lat="45.65309" lon="-1.02727">
        <ele>23</ele>
        <time>2023-08-06T06:28:35Z</time>
      </trkpt>
      <trkpt lat="45.65307" lon="-1.02725">
        <ele>23</ele>
        <time>2023-08-06T06:28:36Z</time>
      </trkpt>
      <trkpt lat="45.65296" lon="-1.02718">
        <ele>23</ele>
        <time>2023-08-06T06:28:40Z</time>
      </trkpt>
      <trkpt lat="45.65295" lon="-1.0272">
        <ele>23</ele>
        <time>2023-08-06T06:28:41Z</time>
      </trkpt>
      <trkpt lat="45.65294" lon="-1.0272">
        <ele>22.8</ele>
        <time>2023-08-06T06:28:42Z</time>
      </trkpt>
      <trkpt lat="45.65294" lon="-1.02722">
        <ele>22.6</ele>
        <time>2023-08-06T06:28:44Z</time>
      </trkpt>
      <trkpt lat="45.65295" lon="-1.02723">
        <ele>22.8</ele>
        <time>2023-08-06T06:28:45Z</time>
      </trkpt>
      <trkpt lat="45.65297" lon="-1.02726">
        <ele>22.8</ele>
        <time>2023-08-06T06:28:47Z</time>
      </trkpt>
      <trkpt lat="45.65298" lon="-1.02728">
        <ele>23</ele>
        <time>2023-08-06T06:28:49Z</time>
      </trkpt>
      <trkpt lat="45.65298" lon="-1.02729">
        <ele>22.8</ele>
        <time>2023-08-06T06:28:50Z</time>
      </trkpt>
      <trkpt lat="45.65298" lon="-1.02732">
        <ele>23</ele>
        <time>2023-08-06T06:28:51Z</time>
      </trkpt>
      <trkpt lat="45.65297" lon="-1.02746">
        <ele>22.8</ele>
        <time>2023-08-06T06:28:55Z</time>
      </trkpt>
      <trkpt lat="45.653" lon="-1.02763">
        <ele>22.4</ele>
        <time>2023-08-06T06:29:00Z</time>
      </trkpt>
      <trkpt lat="45.65306" lon="-1.02777">
        <ele>22.4</ele>
        <time>2023-08-06T06:29:05Z</time>
      </trkpt>
      <trkpt lat="45.65309" lon="-1.02784">
        <ele>22.4</ele>
        <time>2023-08-06T06:29:07Z</time>
      </trkpt>
      <trkpt lat="45.65313" lon="-1.02792">
        <ele>22.6</ele>
        <time>2023-08-06T06:29:09Z</time>
      </trkpt>
      <trkpt lat="45.65316" lon="-1.02796">
        <ele>22.6</ele>
        <time>2023-08-06T06:29:10Z</time>
      </trkpt>
      <trkpt lat="45.65317" lon="-1.028">
        <ele>22.6</ele>
        <time>2023-08-06T06:29:11Z</time>
      </trkpt>
      <trkpt lat="45.65319" lon="-1.0281">
        <ele>22.6</ele>
        <time>2023-08-06T06:29:13Z</time>
      </trkpt>
      <trkpt lat="45.65319" lon="-1.02816">
        <ele>22.6</ele>
        <time>2023-08-06T06:29:14Z</time>
      </trkpt>
      <trkpt lat="45.65318" lon="-1.02825">
        <ele>22.2</ele>
        <time>2023-08-06T06:29:16Z</time>
      </trkpt>
      <trkpt lat="45.65318" lon="-1.02831">
        <ele>22.2</ele>
        <time>2023-08-06T06:29:18Z</time>
      </trkpt>
      <trkpt lat="45.65319" lon="-1.02834">
        <ele>22.2</ele>
        <time>2023-08-06T06:29:19Z</time>
      </trkpt>
      <trkpt lat="45.65322" lon="-1.02845">
        <ele>22.2</ele>
        <time>2023-08-06T06:29:22Z</time>
      </trkpt>
      <trkpt lat="45.65324" lon="-1.02858">
        <ele>22.2</ele>
        <time>2023-08-06T06:29:25Z</time>
      </trkpt>
      <trkpt lat="45.65324" lon="-1.02863">
        <ele>22.2</ele>
        <time>2023-08-06T06:29:26Z</time>
      </trkpt>
      <trkpt lat="45.6532" lon="-1.02874">
        <ele>22.4</ele>
        <time>2023-08-06T06:29:28Z</time>
      </trkpt>
      <trkpt lat="45.65318" lon="-1.02877">
        <ele>22.4</ele>
        <time>2023-08-06T06:29:29Z</time>
      </trkpt>
      <trkpt lat="45.65315" lon="-1.02878">
        <ele>22.4</ele>
        <time>2023-08-06T06:29:30Z</time>
      </trkpt>
      <trkpt lat="45.65308" lon="-1.02881">
        <ele>22.6</ele>
        <time>2023-08-06T06:29:32Z</time>
      </trkpt>
      <trkpt lat="45.65301" lon="-1.02886">
        <ele>22.6</ele>
        <time>2023-08-06T06:29:34Z</time>
      </trkpt>
      <trkpt lat="45.65295" lon="-1.02891">
        <ele>22.4</ele>
        <time>2023-08-06T06:29:36Z</time>
      </trkpt>
      <trkpt lat="45.65289" lon="-1.02893">
        <ele>22</ele>
        <time>2023-08-06T06:29:38Z</time>
      </trkpt>
      <trkpt lat="45.65286" lon="-1.02896">
        <ele>22</ele>
        <time>2023-08-06T06:29:40Z</time>
      </trkpt>
      <trkpt lat="45.65285" lon="-1.02902">
        <ele>21.8</ele>
        <time>2023-08-06T06:29:42Z</time>
      </trkpt>
      <trkpt lat="45.65284" lon="-1.02922">
        <ele>21.4</ele>
        <time>2023-08-06T06:29:47Z</time>
      </trkpt>
      <trkpt lat="45.65286" lon="-1.02931">
        <ele>21.2</ele>
        <time>2023-08-06T06:29:50Z</time>
      </trkpt>
      <trkpt lat="45.65282" lon="-1.02942">
        <ele>21.2</ele>
        <time>2023-08-06T06:29:52Z</time>
      </trkpt>
      <trkpt lat="45.6528" lon="-1.02949">
        <ele>21.2</ele>
        <time>2023-08-06T06:29:53Z</time>
      </trkpt>
      <trkpt lat="45.65282" lon="-1.02958">
        <ele>21.4</ele>
        <time>2023-08-06T06:29:56Z</time>
      </trkpt>
      <trkpt lat="45.65276" lon="-1.0297">
        <ele>21.4</ele>
        <time>2023-08-06T06:29:59Z</time>
      </trkpt>
      <trkpt lat="45.65275" lon="-1.02972">
        <ele>21.2</ele>
        <time>2023-08-06T06:30:00Z</time>
      </trkpt>
      <trkpt lat="45.65272" lon="-1.02978">
        <ele>21.2</ele>
        <time>2023-08-06T06:30:02Z</time>
      </trkpt>
      <trkpt lat="45.65268" lon="-1.02984">
        <ele>21.2</ele>
        <time>2023-08-06T06:30:04Z</time>
      </trkpt>
      <trkpt lat="45.65265" lon="-1.02986">
        <ele>21.2</ele>
        <time>2023-08-06T06:30:06Z</time>
      </trkpt>
      <trkpt lat="45.65256" lon="-1.02996">
        <ele>21.2</ele>
        <time>2023-08-06T06:30:11Z</time>
      </trkpt>
      <trkpt lat="45.65255" lon="-1.02998">
        <ele>21.2</ele>
        <time>2023-08-06T06:30:12Z</time>
      </trkpt>
      <trkpt lat="45.65253" lon="-1.03009">
        <ele>21</ele>
        <time>2023-08-06T06:30:15Z</time>
      </trkpt>
      <trkpt lat="45.65255" lon="-1.03015">
        <ele>21</ele>
        <time>2023-08-06T06:30:17Z</time>
      </trkpt>
      <trkpt lat="45.65255" lon="-1.03018">
        <ele>21</ele>
        <time>2023-08-06T06:30:18Z</time>
      </trkpt>
      <trkpt lat="45.65253" lon="-1.03023">
        <ele>21</ele>
        <time>2023-08-06T06:30:20Z</time>
      </trkpt>
      <trkpt lat="45.65253" lon="-1.03026">
        <ele>20.8</ele>
        <time>2023-08-06T06:30:21Z</time>
      </trkpt>
      <trkpt lat="45.65258" lon="-1.03043">
        <ele>21.2</ele>
        <time>2023-08-06T06:30:26Z</time>
      </trkpt>
      <trkpt lat="45.65262" lon="-1.03069">
        <ele>20.8</ele>
        <time>2023-08-06T06:30:32Z</time>
      </trkpt>
      <trkpt lat="45.65269" lon="-1.03082">
        <ele>20.8</ele>
        <time>2023-08-06T06:30:38Z</time>
      </trkpt>
      <trkpt lat="45.65279" lon="-1.03075">
        <ele>21</ele>
        <time>2023-08-06T06:30:43Z</time>
      </trkpt>
      <trkpt lat="45.6528" lon="-1.03074">
        <ele>21</ele>
        <time>2023-08-06T06:30:44Z</time>
      </trkpt>
      <trkpt lat="45.6528" lon="-1.03069">
        <ele>20.8</ele>
        <time>2023-08-06T06:30:47Z</time>
      </trkpt>
      <trkpt lat="45.6528" lon="-1.03064">
        <ele>21</ele>
        <time>2023-08-06T06:30:49Z</time>
      </trkpt>
      <trkpt lat="45.65277" lon="-1.03062">
        <ele>21</ele>
        <time>2023-08-06T06:30:51Z</time>
      </trkpt>
      <trkpt lat="45.65272" lon="-1.03064">
        <ele>21</ele>
        <time>2023-08-06T06:30:56Z</time>
      </trkpt>
      <trkpt lat="45.65271" lon="-1.03063">
        <ele>21</ele>
        <time>2023-08-06T06:30:57Z</time>
      </trkpt>
      <trkpt lat="45.6527" lon="-1.03055">
        <ele>21</ele>
        <time>2023-08-06T06:31:00Z</time>
      </trkpt>
      <trkpt lat="45.65272" lon="-1.03045">
        <ele>21</ele>
        <time>2023-08-06T06:31:03Z</time>
      </trkpt>
      <trkpt lat="45.65273" lon="-1.03042">
        <ele>20.8</ele>
        <time>2023-08-06T06:31:04Z</time>
      </trkpt>
      <trkpt lat="45.6528" lon="-1.03033">
        <ele>21</ele>
        <time>2023-08-06T06:31:08Z</time>
      </trkpt>
      <trkpt lat="45.65282" lon="-1.03031">
        <ele>21</ele>
        <time>2023-08-06T06:31:09Z</time>
      </trkpt>
      <trkpt lat="45.6529" lon="-1.03021">
        <ele>21.2</ele>
        <time>2023-08-06T06:31:13Z</time>
      </trkpt>
      <trkpt lat="45.65292" lon="-1.03017">
        <ele>21.2</ele>
        <time>2023-08-06T06:31:14Z</time>
      </trkpt>
      <trkpt lat="45.65301" lon="-1.03005">
        <ele>21.4</ele>
        <time>2023-08-06T06:31:19Z</time>
      </trkpt>
      <trkpt lat="45.65309" lon="-1.02991">
        <ele>22.4</ele>
        <time>2023-08-06T06:31:23Z</time>
      </trkpt>
      <trkpt lat="45.6531" lon="-1.02986">
        <ele>22.4</ele>
        <time>2023-08-06T06:31:24Z</time>
      </trkpt>
      <trkpt lat="45.65312" lon="-1.0298">
        <ele>22.6</ele>
        <time>2023-08-06T06:31:25Z</time>
      </trkpt>
      <trkpt lat="45.65316" lon="-1.0297">
        <ele>22.6</ele>
        <time>2023-08-06T06:31:27Z</time>
      </trkpt>
      <trkpt lat="45.65318" lon="-1.02968">
        <ele>22.6</ele>
        <time>2023-08-06T06:31:28Z</time>
      </trkpt>
      <trkpt lat="45.65321" lon="-1.02966">
        <ele>22.2</ele>
        <time>2023-08-06T06:31:29Z</time>
      </trkpt>
      <trkpt lat="45.65329" lon="-1.02959">
        <ele>21.8</ele>
        <time>2023-08-06T06:31:32Z</time>
      </trkpt>
      <trkpt lat="45.65334" lon="-1.02949">
        <ele>21.8</ele>
        <time>2023-08-06T06:31:34Z</time>
      </trkpt>
      <trkpt lat="45.65337" lon="-1.02942">
        <ele>21.8</ele>
        <time>2023-08-06T06:31:36Z</time>
      </trkpt>
      <trkpt lat="45.6534" lon="-1.02937">
        <ele>21.6</ele>
        <time>2023-08-06T06:31:38Z</time>
      </trkpt>
      <trkpt lat="45.65342" lon="-1.02931">
        <ele>21.6</ele>
        <time>2023-08-06T06:31:40Z</time>
      </trkpt>
      <trkpt lat="45.65342" lon="-1.02928">
        <ele>21.8</ele>
        <time>2023-08-06T06:31:41Z</time>
      </trkpt>
      <trkpt lat="45.65343" lon="-1.02924">
        <ele>21.8</ele>
        <time>2023-08-06T06:31:42Z</time>
      </trkpt>
      <trkpt lat="45.65349" lon="-1.02918">
        <ele>21.8</ele>
        <time>2023-08-06T06:31:44Z</time>
      </trkpt>
      <trkpt lat="45.65359" lon="-1.02914">
        <ele>22</ele>
        <time>2023-08-06T06:31:47Z</time>
      </trkpt>
      <trkpt lat="45.65364" lon="-1.02915">
        <ele>22</ele>
        <time>2023-08-06T06:31:49Z</time>
      </trkpt>
      <trkpt lat="45.65373" lon="-1.0292">
        <ele>22</ele>
        <time>2023-08-06T06:31:53Z</time>
      </trkpt>
      <trkpt lat="45.65376" lon="-1.02923">
        <ele>22</ele>
        <time>2023-08-06T06:31:54Z</time>
      </trkpt>
      <trkpt lat="45.65378" lon="-1.02926">
        <ele>22</ele>
        <time>2023-08-06T06:31:55Z</time>
      </trkpt>
      <trkpt lat="45.65384" lon="-1.02936">
        <ele>22</ele>
        <time>2023-08-06T06:31:58Z</time>
      </trkpt>
      <trkpt lat="45.65388" lon="-1.02945">
        <ele>22</ele>
        <time>2023-08-06T06:32:00Z</time>
      </trkpt>
      <trkpt lat="45.65392" lon="-1.02957">
        <ele>21.6</ele>
        <time>2023-08-06T06:32:03Z</time>
      </trkpt>
      <trkpt lat="45.65396" lon="-1.02968">
        <ele>21.4</ele>
        <time>2023-08-06T06:32:06Z</time>
      </trkpt>
      <trkpt lat="45.654" lon="-1.02973">
        <ele>21.4</ele>
        <time>2023-08-06T06:32:08Z</time>
      </trkpt>
      <trkpt lat="45.65402" lon="-1.02983">
        <ele>21.6</ele>
        <time>2023-08-06T06:32:11Z</time>
      </trkpt>
      <trkpt lat="45.65404" lon="-1.02985">
        <ele>21.6</ele>
        <time>2023-08-06T06:32:12Z</time>
      </trkpt>
      <trkpt lat="45.65407" lon="-1.02985">
        <ele>21.6</ele>
        <time>2023-08-06T06:32:13Z</time>
      </trkpt>
      <trkpt lat="45.6541" lon="-1.02984">
        <ele>21.6</ele>
        <time>2023-08-06T06:32:15Z</time>
      </trkpt>
      <trkpt lat="45.65412" lon="-1.02984">
        <ele>21.4</ele>
        <time>2023-08-06T06:32:16Z</time>
      </trkpt>
      <trkpt lat="45.65416" lon="-1.02988">
        <ele>21.4</ele>
        <time>2023-08-06T06:32:18Z</time>
      </trkpt>
      <trkpt lat="45.65418" lon="-1.02992">
        <ele>21.4</ele>
        <time>2023-08-06T06:32:19Z</time>
      </trkpt>
      <trkpt lat="45.6542" lon="-1.02996">
        <ele>21.4</ele>
        <time>2023-08-06T06:32:20Z</time>
      </trkpt>
      <trkpt lat="45.65426" lon="-1.0301">
        <ele>21.4</ele>
        <time>2023-08-06T06:32:25Z</time>
      </trkpt>
      <trkpt lat="45.65427" lon="-1.03012">
        <ele>21.4</ele>
        <time>2023-08-06T06:32:26Z</time>
      </trkpt>
      <trkpt lat="45.65431" lon="-1.03029">
        <ele>21.2</ele>
        <time>2023-08-06T06:32:30Z</time>
      </trkpt>
      <trkpt lat="45.65429" lon="-1.03033">
        <ele>21.2</ele>
        <time>2023-08-06T06:32:31Z</time>
      </trkpt>
      <trkpt lat="45.65426" lon="-1.03044">
        <ele>21.2</ele>
        <time>2023-08-06T06:32:35Z</time>
      </trkpt>
      <trkpt lat="45.65425" lon="-1.03048">
        <ele>21.2</ele>
        <time>2023-08-06T06:32:36Z</time>
      </trkpt>
      <trkpt lat="45.65429" lon="-1.03066">
        <ele>21</ele>
        <time>2023-08-06T06:32:41Z</time>
      </trkpt>
      <trkpt lat="45.65431" lon="-1.03069">
        <ele>20.8</ele>
        <time>2023-08-06T06:32:42Z</time>
      </trkpt>
      <trkpt lat="45.65433" lon="-1.03074">
        <ele>20.6</ele>
        <time>2023-08-06T06:32:44Z</time>
      </trkpt>
      <trkpt lat="45.65435" lon="-1.03076">
        <ele>20.6</ele>
        <time>2023-08-06T06:32:45Z</time>
      </trkpt>
      <trkpt lat="45.65438" lon="-1.03081">
        <ele>20.4</ele>
        <time>2023-08-06T06:32:47Z</time>
      </trkpt>
      <trkpt lat="45.65441" lon="-1.03083">
        <ele>20.2</ele>
        <time>2023-08-06T06:32:48Z</time>
      </trkpt>
      <trkpt lat="45.65443" lon="-1.03083">
        <ele>20.2</ele>
        <time>2023-08-06T06:32:49Z</time>
      </trkpt>
      <trkpt lat="45.65444" lon="-1.03082">
        <ele>20.2</ele>
        <time>2023-08-06T06:32:50Z</time>
      </trkpt>
      <trkpt lat="45.65449" lon="-1.03076">
        <ele>20.4</ele>
        <time>2023-08-06T06:32:54Z</time>
      </trkpt>
      <trkpt lat="45.65451" lon="-1.03075">
        <ele>20.4</ele>
        <time>2023-08-06T06:32:55Z</time>
      </trkpt>
      <trkpt lat="45.65452" lon="-1.03072">
        <ele>20.2</ele>
        <time>2023-08-06T06:32:56Z</time>
      </trkpt>
      <trkpt lat="45.65455" lon="-1.0307">
        <ele>20.2</ele>
        <time>2023-08-06T06:32:58Z</time>
      </trkpt>
      <trkpt lat="45.65457" lon="-1.03069">
        <ele>20.2</ele>
        <time>2023-08-06T06:32:59Z</time>
      </trkpt>
      <trkpt lat="45.65464" lon="-1.03074">
        <ele>20.2</ele>
        <time>2023-08-06T06:33:02Z</time>
      </trkpt>
      <trkpt lat="45.65474" lon="-1.03084">
        <ele>20.2</ele>
        <time>2023-08-06T06:33:06Z</time>
      </trkpt>
      <trkpt lat="45.65476" lon="-1.03088">
        <ele>20.2</ele>
        <time>2023-08-06T06:33:07Z</time>
      </trkpt>
      <trkpt lat="45.65486" lon="-1.03099">
        <ele>19.8</ele>
        <time>2023-08-06T06:33:11Z</time>
      </trkpt>
      <trkpt lat="45.65492" lon="-1.03103">
        <ele>19.6</ele>
        <time>2023-08-06T06:33:13Z</time>
      </trkpt>
      <trkpt lat="45.65495" lon="-1.03104">
        <ele>19.6</ele>
        <time>2023-08-06T06:33:14Z</time>
      </trkpt>
      <trkpt lat="45.65501" lon="-1.03104">
        <ele>19</ele>
        <time>2023-08-06T06:33:16Z</time>
      </trkpt>
      <trkpt lat="45.65503" lon="-1.03102">
        <ele>18.8</ele>
        <time>2023-08-06T06:33:17Z</time>
      </trkpt>
      <trkpt lat="45.65511" lon="-1.03096">
        <ele>18.6</ele>
        <time>2023-08-06T06:33:19Z</time>
      </trkpt>
      <trkpt lat="45.65516" lon="-1.03087">
        <ele>18.2</ele>
        <time>2023-08-06T06:33:22Z</time>
      </trkpt>
      <trkpt lat="45.65518" lon="-1.03072">
        <ele>18.4</ele>
        <time>2023-08-06T06:33:26Z</time>
      </trkpt>
      <trkpt lat="45.65518" lon="-1.03068">
        <ele>18.4</ele>
        <time>2023-08-06T06:33:27Z</time>
      </trkpt>
      <trkpt lat="45.65518" lon="-1.03065">
        <ele>18.2</ele>
        <time>2023-08-06T06:33:28Z</time>
      </trkpt>
      <trkpt lat="45.6552" lon="-1.03059">
        <ele>18</ele>
        <time>2023-08-06T06:33:30Z</time>
      </trkpt>
      <trkpt lat="45.65521" lon="-1.03056">
        <ele>17.8</ele>
        <time>2023-08-06T06:33:31Z</time>
      </trkpt>
      <trkpt lat="45.6552" lon="-1.03044">
        <ele>18</ele>
        <time>2023-08-06T06:33:34Z</time>
      </trkpt>
      <trkpt lat="45.65521" lon="-1.03041">
        <ele>18.2</ele>
        <time>2023-08-06T06:33:35Z</time>
      </trkpt>
      <trkpt lat="45.65523" lon="-1.03036">
        <ele>18.4</ele>
        <time>2023-08-06T06:33:36Z</time>
      </trkpt>
      <trkpt lat="45.6553" lon="-1.03025">
        <ele>18.6</ele>
        <time>2023-08-06T06:33:39Z</time>
      </trkpt>
      <trkpt lat="45.65533" lon="-1.0302">
        <ele>18.6</ele>
        <time>2023-08-06T06:33:41Z</time>
      </trkpt>
      <trkpt lat="45.65535" lon="-1.03013">
        <ele>18.8</ele>
        <time>2023-08-06T06:33:43Z</time>
      </trkpt>
      <trkpt lat="45.65539" lon="-1.03005">
        <ele>18.8</ele>
        <time>2023-08-06T06:33:45Z</time>
      </trkpt>
      <trkpt lat="45.65543" lon="-1.03002">
        <ele>18.8</ele>
        <time>2023-08-06T06:33:47Z</time>
      </trkpt>
      <trkpt lat="45.65546" lon="-1.03005">
        <ele>19</ele>
        <time>2023-08-06T06:33:49Z</time>
      </trkpt>
      <trkpt lat="45.65547" lon="-1.03008">
        <ele>19.4</ele>
        <time>2023-08-06T06:33:50Z</time>
      </trkpt>
      <trkpt lat="45.6555" lon="-1.03014">
        <ele>19.6</ele>
        <time>2023-08-06T06:33:52Z</time>
      </trkpt>
      <trkpt lat="45.65557" lon="-1.03022">
        <ele>20</ele>
        <time>2023-08-06T06:33:55Z</time>
      </trkpt>
      <trkpt lat="45.65559" lon="-1.03025">
        <ele>20</ele>
        <time>2023-08-06T06:33:56Z</time>
      </trkpt>
      <trkpt lat="45.65567" lon="-1.03041">
        <ele>20</ele>
        <time>2023-08-06T06:34:01Z</time>
      </trkpt>
      <trkpt lat="45.65572" lon="-1.0305">
        <ele>20</ele>
        <time>2023-08-06T06:34:04Z</time>
      </trkpt>
      <trkpt lat="45.65577" lon="-1.03055">
        <ele>20</ele>
        <time>2023-08-06T06:34:06Z</time>
      </trkpt>
      <trkpt lat="45.65584" lon="-1.03066">
        <ele>20.4</ele>
        <time>2023-08-06T06:34:10Z</time>
      </trkpt>
      <trkpt lat="45.65587" lon="-1.03068">
        <ele>20.4</ele>
        <time>2023-08-06T06:34:11Z</time>
      </trkpt>
      <trkpt lat="45.6559" lon="-1.03068">
        <ele>20.4</ele>
        <time>2023-08-06T06:34:12Z</time>
      </trkpt>
      <trkpt lat="45.65599" lon="-1.03073">
        <ele>21</ele>
        <time>2023-08-06T06:34:17Z</time>
      </trkpt>
      <trkpt lat="45.65609" lon="-1.03064">
        <ele>21.2</ele>
        <time>2023-08-06T06:34:21Z</time>
      </trkpt>
      <trkpt lat="45.65611" lon="-1.03058">
        <ele>21.4</ele>
        <time>2023-08-06T06:34:23Z</time>
      </trkpt>
      <trkpt lat="45.6561" lon="-1.03049">
        <ele>21.2</ele>
        <time>2023-08-06T06:34:26Z</time>
      </trkpt>
      <trkpt lat="45.6562" lon="-1.03036">
        <ele>21.2</ele>
        <time>2023-08-06T06:34:30Z</time>
      </trkpt>
      <trkpt lat="45.6563" lon="-1.03031">
        <ele>21.2</ele>
        <time>2023-08-06T06:34:34Z</time>
      </trkpt>
      <trkpt lat="45.65636" lon="-1.0303">
        <ele>21.4</ele>
        <time>2023-08-06T06:34:37Z</time>
      </trkpt>
      <trkpt lat="45.65638" lon="-1.03025">
        <ele>21.6</ele>
        <time>2023-08-06T06:34:39Z</time>
      </trkpt>
      <trkpt lat="45.6564" lon="-1.03019">
        <ele>21.6</ele>
        <time>2023-08-06T06:34:41Z</time>
      </trkpt>
      <trkpt lat="45.65643" lon="-1.03013">
        <ele>21.8</ele>
        <time>2023-08-06T06:34:43Z</time>
      </trkpt>
      <trkpt lat="45.65642" lon="-1.03">
        <ele>22</ele>
        <time>2023-08-06T06:34:47Z</time>
      </trkpt>
      <trkpt lat="45.65641" lon="-1.02996">
        <ele>22</ele>
        <time>2023-08-06T06:34:48Z</time>
      </trkpt>
      <trkpt lat="45.65639" lon="-1.02979">
        <ele>22</ele>
        <time>2023-08-06T06:34:52Z</time>
      </trkpt>
      <trkpt lat="45.65638" lon="-1.02974">
        <ele>22</ele>
        <time>2023-08-06T06:34:53Z</time>
      </trkpt>
      <trkpt lat="45.65639" lon="-1.02966">
        <ele>21.8</ele>
        <time>2023-08-06T06:34:55Z</time>
      </trkpt>
      <trkpt lat="45.65641" lon="-1.02963">
        <ele>21.6</ele>
        <time>2023-08-06T06:34:56Z</time>
      </trkpt>
      <trkpt lat="45.65651" lon="-1.02946">
        <ele>21.8</ele>
        <time>2023-08-06T06:35:01Z</time>
      </trkpt>
      <trkpt lat="45.65661" lon="-1.02918">
        <ele>21.4</ele>
        <time>2023-08-06T06:35:06Z</time>
      </trkpt>
      <trkpt lat="45.65662" lon="-1.02913">
        <ele>21.6</ele>
        <time>2023-08-06T06:35:07Z</time>
      </trkpt>
      <trkpt lat="45.65663" lon="-1.02909">
        <ele>21.6</ele>
        <time>2023-08-06T06:35:08Z</time>
      </trkpt>
      <trkpt lat="45.6566" lon="-1.02902">
        <ele>21.4</ele>
        <time>2023-08-06T06:35:10Z</time>
      </trkpt>
      <trkpt lat="45.65659" lon="-1.02892">
        <ele>21.6</ele>
        <time>2023-08-06T06:35:12Z</time>
      </trkpt>
      <trkpt lat="45.6566" lon="-1.02883">
        <ele>21.2</ele>
        <time>2023-08-06T06:35:14Z</time>
      </trkpt>
      <trkpt lat="45.65663" lon="-1.02874">
        <ele>21</ele>
        <time>2023-08-06T06:35:16Z</time>
      </trkpt>
      <trkpt lat="45.65664" lon="-1.02861">
        <ele>21.2</ele>
        <time>2023-08-06T06:35:19Z</time>
      </trkpt>
      <trkpt lat="45.65667" lon="-1.02846">
        <ele>21.4</ele>
        <time>2023-08-06T06:35:22Z</time>
      </trkpt>
      <trkpt lat="45.65672" lon="-1.02841">
        <ele>21.4</ele>
        <time>2023-08-06T06:35:24Z</time>
      </trkpt>
      <trkpt lat="45.65682" lon="-1.02846">
        <ele>21.8</ele>
        <time>2023-08-06T06:35:29Z</time>
      </trkpt>
      <trkpt lat="45.65691" lon="-1.02857">
        <ele>21.4</ele>
        <time>2023-08-06T06:35:35Z</time>
      </trkpt>
      <trkpt lat="45.65702" lon="-1.0287">
        <ele>21.6</ele>
        <time>2023-08-06T06:35:42Z</time>
      </trkpt>
      <trkpt lat="45.65704" lon="-1.02875">
        <ele>21.8</ele>
        <time>2023-08-06T06:35:44Z</time>
      </trkpt>
      <trkpt lat="45.65706" lon="-1.02881">
        <ele>22</ele>
        <time>2023-08-06T06:35:46Z</time>
      </trkpt>
      <trkpt lat="45.65705" lon="-1.02886">
        <ele>22.2</ele>
        <time>2023-08-06T06:35:48Z</time>
      </trkpt>
      <trkpt lat="45.65703" lon="-1.02891">
        <ele>22.2</ele>
        <time>2023-08-06T06:35:50Z</time>
      </trkpt>
      <trkpt lat="45.65703" lon="-1.02902">
        <ele>22.2</ele>
        <time>2023-08-06T06:35:53Z</time>
      </trkpt>
      <trkpt lat="45.65701" lon="-1.02907">
        <ele>22.2</ele>
        <time>2023-08-06T06:35:54Z</time>
      </trkpt>
      <trkpt lat="45.65697" lon="-1.02912">
        <ele>22.2</ele>
        <time>2023-08-06T06:35:55Z</time>
      </trkpt>
      <trkpt lat="45.65693" lon="-1.02917">
        <ele>22.2</ele>
        <time>2023-08-06T06:35:57Z</time>
      </trkpt>
      <trkpt lat="45.65691" lon="-1.02918">
        <ele>22.2</ele>
        <time>2023-08-06T06:35:58Z</time>
      </trkpt>
      <trkpt lat="45.6569" lon="-1.02921">
        <ele>22.2</ele>
        <time>2023-08-06T06:35:59Z</time>
      </trkpt>
      <trkpt lat="45.65691" lon="-1.02932">
        <ele>22.4</ele>
        <time>2023-08-06T06:36:02Z</time>
      </trkpt>
      <trkpt lat="45.65693" lon="-1.02954">
        <ele>22.4</ele>
        <time>2023-08-06T06:36:08Z</time>
      </trkpt>
      <trkpt lat="45.65693" lon="-1.02966">
        <ele>22</ele>
        <time>2023-08-06T06:36:11Z</time>
      </trkpt>
      <trkpt lat="45.65693" lon="-1.0297">
        <ele>22</ele>
        <time>2023-08-06T06:36:12Z</time>
      </trkpt>
      <trkpt lat="45.65693" lon="-1.02978">
        <ele>22.2</ele>
        <time>2023-08-06T06:36:14Z</time>
      </trkpt>
      <trkpt lat="45.6569" lon="-1.02988">
        <ele>22.4</ele>
        <time>2023-08-06T06:36:16Z</time>
      </trkpt>
      <trkpt lat="45.65688" lon="-1.02992">
        <ele>22.4</ele>
        <time>2023-08-06T06:36:17Z</time>
      </trkpt>
      <trkpt lat="45.65687" lon="-1.02995">
        <ele>22.4</ele>
        <time>2023-08-06T06:36:18Z</time>
      </trkpt>
      <trkpt lat="45.65683" lon="-1.0301">
        <ele>22</ele>
        <time>2023-08-06T06:36:22Z</time>
      </trkpt>
      <trkpt lat="45.65681" lon="-1.03023">
        <ele>21.8</ele>
        <time>2023-08-06T06:36:25Z</time>
      </trkpt>
      <trkpt lat="45.65675" lon="-1.03028">
        <ele>21.8</ele>
        <time>2023-08-06T06:36:27Z</time>
      </trkpt>
      <trkpt lat="45.65671" lon="-1.03033">
        <ele>21.4</ele>
        <time>2023-08-06T06:36:29Z</time>
      </trkpt>
      <trkpt lat="45.6567" lon="-1.03041">
        <ele>21.4</ele>
        <time>2023-08-06T06:36:31Z</time>
      </trkpt>
      <trkpt lat="45.65669" lon="-1.03045">
        <ele>21.4</ele>
        <time>2023-08-06T06:36:32Z</time>
      </trkpt>
      <trkpt lat="45.65664" lon="-1.03056">
        <ele>21.6</ele>
        <time>2023-08-06T06:36:35Z</time>
      </trkpt>
      <trkpt lat="45.65663" lon="-1.0306">
        <ele>21.6</ele>
        <time>2023-08-06T06:36:36Z</time>
      </trkpt>
      <trkpt lat="45.65663" lon="-1.03062">
        <ele>21.4</ele>
        <time>2023-08-06T06:36:37Z</time>
      </trkpt>
      <trkpt lat="45.6566" lon="-1.0307">
        <ele>21</ele>
        <time>2023-08-06T06:36:39Z</time>
      </trkpt>
      <trkpt lat="45.65659" lon="-1.03076">
        <ele>21</ele>
        <time>2023-08-06T06:36:40Z</time>
      </trkpt>
      <trkpt lat="45.65657" lon="-1.03081">
        <ele>21</ele>
        <time>2023-08-06T06:36:41Z</time>
      </trkpt>
      <trkpt lat="45.65653" lon="-1.03093">
        <ele>20.8</ele>
        <time>2023-08-06T06:36:43Z</time>
      </trkpt>
      <trkpt lat="45.65651" lon="-1.03098">
        <ele>20.8</ele>
        <time>2023-08-06T06:36:44Z</time>
      </trkpt>
      <trkpt lat="45.65644" lon="-1.03119">
        <ele>20.4</ele>
        <time>2023-08-06T06:36:49Z</time>
      </trkpt>
      <trkpt lat="45.65643" lon="-1.03122">
        <ele>20.2</ele>
        <time>2023-08-06T06:36:50Z</time>
      </trkpt>
      <trkpt lat="45.65638" lon="-1.03134">
        <ele>20</ele>
        <time>2023-08-06T06:36:53Z</time>
      </trkpt>
      <trkpt lat="45.65634" lon="-1.03145">
        <ele>20</ele>
        <time>2023-08-06T06:36:55Z</time>
      </trkpt>
      <trkpt lat="45.6563" lon="-1.03172">
        <ele>20</ele>
        <time>2023-08-06T06:37:00Z</time>
      </trkpt>
      <trkpt lat="45.6562" lon="-1.03179">
        <ele>19.8</ele>
        <time>2023-08-06T06:37:04Z</time>
      </trkpt>
      <trkpt lat="45.65612" lon="-1.03181">
        <ele>19</ele>
        <time>2023-08-06T06:37:07Z</time>
      </trkpt>
      <trkpt lat="45.65605" lon="-1.03182">
        <ele>18.8</ele>
        <time>2023-08-06T06:37:09Z</time>
      </trkpt>
      <trkpt lat="45.65601" lon="-1.03182">
        <ele>18.6</ele>
        <time>2023-08-06T06:37:10Z</time>
      </trkpt>
      <trkpt lat="45.65596" lon="-1.03182">
        <ele>18.4</ele>
        <time>2023-08-06T06:37:11Z</time>
      </trkpt>
      <trkpt lat="45.65593" lon="-1.03181">
        <ele>17.8</ele>
        <time>2023-08-06T06:37:12Z</time>
      </trkpt>
      <trkpt lat="45.6559" lon="-1.03182">
        <ele>17.4</ele>
        <time>2023-08-06T06:37:13Z</time>
      </trkpt>
      <trkpt lat="45.65587" lon="-1.03184">
        <ele>17.2</ele>
        <time>2023-08-06T06:37:14Z</time>
      </trkpt>
      <trkpt lat="45.65586" lon="-1.03187">
        <ele>17</ele>
        <time>2023-08-06T06:37:15Z</time>
      </trkpt>
      <trkpt lat="45.65585" lon="-1.03193">
        <ele>16.8</ele>
        <time>2023-08-06T06:37:17Z</time>
      </trkpt>
      <trkpt lat="45.65585" lon="-1.03197">
        <ele>16.8</ele>
        <time>2023-08-06T06:37:18Z</time>
      </trkpt>
      <trkpt lat="45.65583" lon="-1.03209">
        <ele>16.4</ele>
        <time>2023-08-06T06:37:21Z</time>
      </trkpt>
      <trkpt lat="45.65585" lon="-1.03217">
        <ele>16.8</ele>
        <time>2023-08-06T06:37:23Z</time>
      </trkpt>
      <trkpt lat="45.65585" lon="-1.03222">
        <ele>16.8</ele>
        <time>2023-08-06T06:37:24Z</time>
      </trkpt>
      <trkpt lat="45.65587" lon="-1.03236">
        <ele>17</ele>
        <time>2023-08-06T06:37:27Z</time>
      </trkpt>
      <trkpt lat="45.65589" lon="-1.0324">
        <ele>17</ele>
        <time>2023-08-06T06:37:28Z</time>
      </trkpt>
      <trkpt lat="45.6559" lon="-1.03247">
        <ele>16.8</ele>
        <time>2023-08-06T06:37:29Z</time>
      </trkpt>
      <trkpt lat="45.65595" lon="-1.03251">
        <ele>17.2</ele>
        <time>2023-08-06T06:37:32Z</time>
      </trkpt>
      <trkpt lat="45.65602" lon="-1.03267">
        <ele>17.8</ele>
        <time>2023-08-06T06:37:37Z</time>
      </trkpt>
      <trkpt lat="45.65603" lon="-1.03271">
        <ele>18</ele>
        <time>2023-08-06T06:37:38Z</time>
      </trkpt>
      <trkpt lat="45.65604" lon="-1.03275">
        <ele>18</ele>
        <time>2023-08-06T06:37:39Z</time>
      </trkpt>
      <trkpt lat="45.65608" lon="-1.03285">
        <ele>18.2</ele>
        <time>2023-08-06T06:37:42Z</time>
      </trkpt>
      <trkpt lat="45.65607" lon="-1.03298">
        <ele>18.4</ele>
        <time>2023-08-06T06:37:45Z</time>
      </trkpt>
      <trkpt lat="45.65606" lon="-1.03307">
        <ele>18.6</ele>
        <time>2023-08-06T06:37:47Z</time>
      </trkpt>
      <trkpt lat="45.65607" lon="-1.03316">
        <ele>19</ele>
        <time>2023-08-06T06:37:49Z</time>
      </trkpt>
      <trkpt lat="45.65609" lon="-1.03319">
        <ele>19.2</ele>
        <time>2023-08-06T06:37:50Z</time>
      </trkpt>
      <trkpt lat="45.65608" lon="-1.03329">
        <ele>19.4</ele>
        <time>2023-08-06T06:37:52Z</time>
      </trkpt>
      <trkpt lat="45.65607" lon="-1.03349">
        <ele>19.2</ele>
        <time>2023-08-06T06:37:56Z</time>
      </trkpt>
      <trkpt lat="45.65607" lon="-1.03355">
        <ele>19.2</ele>
        <time>2023-08-06T06:37:57Z</time>
      </trkpt>
      <trkpt lat="45.65608" lon="-1.03358">
        <ele>19.2</ele>
        <time>2023-08-06T06:37:58Z</time>
      </trkpt>
      <trkpt lat="45.65614" lon="-1.03376">
        <ele>18.8</ele>
        <time>2023-08-06T06:38:03Z</time>
      </trkpt>
      <trkpt lat="45.65622" lon="-1.0339">
        <ele>19</ele>
        <time>2023-08-06T06:38:08Z</time>
      </trkpt>
      <trkpt lat="45.65625" lon="-1.03395">
        <ele>19</ele>
        <time>2023-08-06T06:38:09Z</time>
      </trkpt>
      <trkpt lat="45.65631" lon="-1.03407">
        <ele>18.8</ele>
        <time>2023-08-06T06:38:12Z</time>
      </trkpt>
      <trkpt lat="45.65633" lon="-1.03413">
        <ele>18.6</ele>
        <time>2023-08-06T06:38:13Z</time>
      </trkpt>
      <trkpt lat="45.65635" lon="-1.03418">
        <ele>18.6</ele>
        <time>2023-08-06T06:38:14Z</time>
      </trkpt>
      <trkpt lat="45.65638" lon="-1.03424">
        <ele>18.4</ele>
        <time>2023-08-06T06:38:16Z</time>
      </trkpt>
      <trkpt lat="45.65641" lon="-1.03427">
        <ele>18.4</ele>
        <time>2023-08-06T06:38:17Z</time>
      </trkpt>
      <trkpt lat="45.65643" lon="-1.03431">
        <ele>18.6</ele>
        <time>2023-08-06T06:38:18Z</time>
      </trkpt>
      <trkpt lat="45.65651" lon="-1.03444">
        <ele>18.4</ele>
        <time>2023-08-06T06:38:21Z</time>
      </trkpt>
      <trkpt lat="45.65657" lon="-1.03458">
        <ele>18</ele>
        <time>2023-08-06T06:38:25Z</time>
      </trkpt>
      <trkpt lat="45.65655" lon="-1.03466">
        <ele>17.8</ele>
        <time>2023-08-06T06:38:27Z</time>
      </trkpt>
      <trkpt lat="45.65656" lon="-1.0347">
        <ele>17.8</ele>
        <time>2023-08-06T06:38:28Z</time>
      </trkpt>
      <trkpt lat="45.65662" lon="-1.03485">
        <ele>17.6</ele>
        <time>2023-08-06T06:38:31Z</time>
      </trkpt>
      <trkpt lat="45.65662" lon="-1.03492">
        <ele>17.4</ele>
        <time>2023-08-06T06:38:32Z</time>
      </trkpt>
      <trkpt lat="45.65663" lon="-1.03499">
        <ele>17.2</ele>
        <time>2023-08-06T06:38:34Z</time>
      </trkpt>
      <trkpt lat="45.65666" lon="-1.03508">
        <ele>17</ele>
        <time>2023-08-06T06:38:36Z</time>
      </trkpt>
      <trkpt lat="45.65667" lon="-1.03512">
        <ele>17</ele>
        <time>2023-08-06T06:38:37Z</time>
      </trkpt>
      <trkpt lat="45.65672" lon="-1.03532">
        <ele>16.8</ele>
        <time>2023-08-06T06:38:42Z</time>
      </trkpt>
      <trkpt lat="45.65671" lon="-1.03541">
        <ele>16.6</ele>
        <time>2023-08-06T06:38:44Z</time>
      </trkpt>
      <trkpt lat="45.65667" lon="-1.03551">
        <ele>16.2</ele>
        <time>2023-08-06T06:38:46Z</time>
      </trkpt>
      <trkpt lat="45.65667" lon="-1.03554">
        <ele>16.2</ele>
        <time>2023-08-06T06:38:47Z</time>
      </trkpt>
      <trkpt lat="45.65667" lon="-1.03563">
        <ele>16</ele>
        <time>2023-08-06T06:38:49Z</time>
      </trkpt>
      <trkpt lat="45.65667" lon="-1.03567">
        <ele>15.8</ele>
        <time>2023-08-06T06:38:50Z</time>
      </trkpt>
      <trkpt lat="45.65666" lon="-1.03575">
        <ele>15.8</ele>
        <time>2023-08-06T06:38:52Z</time>
      </trkpt>
      <trkpt lat="45.65664" lon="-1.03578">
        <ele>15.6</ele>
        <time>2023-08-06T06:38:53Z</time>
      </trkpt>
      <trkpt lat="45.65662" lon="-1.03583">
        <ele>15</ele>
        <time>2023-08-06T06:38:55Z</time>
      </trkpt>
      <trkpt lat="45.65658" lon="-1.0359">
        <ele>14.8</ele>
        <time>2023-08-06T06:38:57Z</time>
      </trkpt>
      <trkpt lat="45.65655" lon="-1.03593">
        <ele>14.4</ele>
        <time>2023-08-06T06:38:58Z</time>
      </trkpt>
      <trkpt lat="45.65651" lon="-1.03599">
        <ele>14</ele>
        <time>2023-08-06T06:39:01Z</time>
      </trkpt>
      <trkpt lat="45.6565" lon="-1.03604">
        <ele>13.6</ele>
        <time>2023-08-06T06:39:03Z</time>
      </trkpt>
      <trkpt lat="45.65649" lon="-1.03622">
        <ele>14.4</ele>
        <time>2023-08-06T06:39:08Z</time>
      </trkpt>
      <trkpt lat="45.65651" lon="-1.03639">
        <ele>14</ele>
        <time>2023-08-06T06:39:13Z</time>
      </trkpt>
      <trkpt lat="45.6565" lon="-1.03644">
        <ele>14</ele>
        <time>2023-08-06T06:39:14Z</time>
      </trkpt>
      <trkpt lat="45.65654" lon="-1.03668">
        <ele>13.4</ele>
        <time>2023-08-06T06:39:20Z</time>
      </trkpt>
      <trkpt lat="45.65657" lon="-1.03689">
        <ele>13.2</ele>
        <time>2023-08-06T06:39:26Z</time>
      </trkpt>
      <trkpt lat="45.6566" lon="-1.0371">
        <ele>13.4</ele>
        <time>2023-08-06T06:39:31Z</time>
      </trkpt>
      <trkpt lat="45.65666" lon="-1.03731">
        <ele>14.8</ele>
        <time>2023-08-06T06:39:37Z</time>
      </trkpt>
      <trkpt lat="45.65669" lon="-1.03736">
        <ele>15</ele>
        <time>2023-08-06T06:39:39Z</time>
      </trkpt>
      <trkpt lat="45.65673" lon="-1.03748">
        <ele>16</ele>
        <time>2023-08-06T06:39:42Z</time>
      </trkpt>
      <trkpt lat="45.65677" lon="-1.03764">
        <ele>16.4</ele>
        <time>2023-08-06T06:39:47Z</time>
      </trkpt>
      <trkpt lat="45.65676" lon="-1.03765">
        <ele>16.4</ele>
        <time>2023-08-06T06:39:48Z</time>
      </trkpt>
      <trkpt lat="45.6567" lon="-1.03774">
        <ele>15.8</ele>
        <time>2023-08-06T06:39:52Z</time>
      </trkpt>
      <trkpt lat="45.6567" lon="-1.03778">
        <ele>15.6</ele>
        <time>2023-08-06T06:39:54Z</time>
      </trkpt>
      <trkpt lat="45.65673" lon="-1.03782">
        <ele>15.8</ele>
        <time>2023-08-06T06:39:56Z</time>
      </trkpt>
      <trkpt lat="45.65677" lon="-1.03795">
        <ele>16.2</ele>
        <time>2023-08-06T06:40:00Z</time>
      </trkpt>
      <trkpt lat="45.65678" lon="-1.03795">
        <ele>16.2</ele>
        <time>2023-08-06T06:40:01Z</time>
      </trkpt>
      <trkpt lat="45.65682" lon="-1.03792">
        <ele>16.6</ele>
        <time>2023-08-06T06:40:04Z</time>
      </trkpt>
      <trkpt lat="45.65693" lon="-1.03793">
        <ele>17</ele>
        <time>2023-08-06T06:40:09Z</time>
      </trkpt>
      <trkpt lat="45.65695" lon="-1.03793">
        <ele>17</ele>
        <time>2023-08-06T06:40:10Z</time>
      </trkpt>
      <trkpt lat="45.65697" lon="-1.03794">
        <ele>17</ele>
        <time>2023-08-06T06:40:11Z</time>
      </trkpt>
      <trkpt lat="45.65703" lon="-1.03801">
        <ele>17.2</ele>
        <time>2023-08-06T06:40:14Z</time>
      </trkpt>
      <trkpt lat="45.65708" lon="-1.03809">
        <ele>18</ele>
        <time>2023-08-06T06:40:16Z</time>
      </trkpt>
      <trkpt lat="45.65715" lon="-1.03824">
        <ele>18.4</ele>
        <time>2023-08-06T06:40:20Z</time>
      </trkpt>
      <trkpt lat="45.65718" lon="-1.03829">
        <ele>18.4</ele>
        <time>2023-08-06T06:40:22Z</time>
      </trkpt>
      <trkpt lat="45.65722" lon="-1.03833">
        <ele>18.4</ele>
        <time>2023-08-06T06:40:24Z</time>
      </trkpt>
      <trkpt lat="45.65725" lon="-1.03835">
        <ele>18.4</ele>
        <time>2023-08-06T06:40:25Z</time>
      </trkpt>
      <trkpt lat="45.65736" lon="-1.03841">
        <ele>18.6</ele>
        <time>2023-08-06T06:40:28Z</time>
      </trkpt>
      <trkpt lat="45.6575" lon="-1.03843">
        <ele>18.6</ele>
        <time>2023-08-06T06:40:31Z</time>
      </trkpt>
      <trkpt lat="45.65763" lon="-1.03843">
        <ele>18.4</ele>
        <time>2023-08-06T06:40:34Z</time>
      </trkpt>
      <trkpt lat="45.65777" lon="-1.03842">
        <ele>18.4</ele>
        <time>2023-08-06T06:40:37Z</time>
      </trkpt>
      <trkpt lat="45.65786" lon="-1.03834">
        <ele>19</ele>
        <time>2023-08-06T06:40:40Z</time>
      </trkpt>
      <trkpt lat="45.65789" lon="-1.03831">
        <ele>19.2</ele>
        <time>2023-08-06T06:40:41Z</time>
      </trkpt>
      <trkpt lat="45.65791" lon="-1.03823">
        <ele>19.2</ele>
        <time>2023-08-06T06:40:43Z</time>
      </trkpt>
      <trkpt lat="45.65792" lon="-1.03818">
        <ele>19.2</ele>
        <time>2023-08-06T06:40:44Z</time>
      </trkpt>
      <trkpt lat="45.65791" lon="-1.03814">
        <ele>19.2</ele>
        <time>2023-08-06T06:40:45Z</time>
      </trkpt>
      <trkpt lat="45.65789" lon="-1.03804">
        <ele>19</ele>
        <time>2023-08-06T06:40:47Z</time>
      </trkpt>
      <trkpt lat="45.65786" lon="-1.03797">
        <ele>19</ele>
        <time>2023-08-06T06:40:49Z</time>
      </trkpt>
      <trkpt lat="45.65786" lon="-1.03791">
        <ele>18.6</ele>
        <time>2023-08-06T06:40:51Z</time>
      </trkpt>
      <trkpt lat="45.6579" lon="-1.03784">
        <ele>18.6</ele>
        <time>2023-08-06T06:40:53Z</time>
      </trkpt>
      <trkpt lat="45.65795" lon="-1.03776">
        <ele>18.6</ele>
        <time>2023-08-06T06:40:55Z</time>
      </trkpt>
      <trkpt lat="45.65801" lon="-1.03767">
        <ele>18.8</ele>
        <time>2023-08-06T06:40:57Z</time>
      </trkpt>
      <trkpt lat="45.65804" lon="-1.03766">
        <ele>18.8</ele>
        <time>2023-08-06T06:40:58Z</time>
      </trkpt>
      <trkpt lat="45.65807" lon="-1.03764">
        <ele>18.8</ele>
        <time>2023-08-06T06:40:59Z</time>
      </trkpt>
      <trkpt lat="45.65813" lon="-1.03757">
        <ele>19</ele>
        <time>2023-08-06T06:41:01Z</time>
      </trkpt>
      <trkpt lat="45.65816" lon="-1.03752">
        <ele>19</ele>
        <time>2023-08-06T06:41:02Z</time>
      </trkpt>
      <trkpt lat="45.65827" lon="-1.03734">
        <ele>19</ele>
        <time>2023-08-06T06:41:06Z</time>
      </trkpt>
      <trkpt lat="45.6583" lon="-1.03731">
        <ele>19</ele>
        <time>2023-08-06T06:41:07Z</time>
      </trkpt>
      <trkpt lat="45.65835" lon="-1.03725">
        <ele>18.8</ele>
        <time>2023-08-06T06:41:09Z</time>
      </trkpt>
      <trkpt lat="45.65843" lon="-1.03719">
        <ele>18.8</ele>
        <time>2023-08-06T06:41:12Z</time>
      </trkpt>
      <trkpt lat="45.65855" lon="-1.03715">
        <ele>19</ele>
        <time>2023-08-06T06:41:17Z</time>
      </trkpt>
      <trkpt lat="45.65866" lon="-1.03722">
        <ele>19</ele>
        <time>2023-08-06T06:41:22Z</time>
      </trkpt>
      <trkpt lat="45.65884" lon="-1.03737">
        <ele>19</ele>
        <time>2023-08-06T06:41:28Z</time>
      </trkpt>
      <trkpt lat="45.65894" lon="-1.03748">
        <ele>19.4</ele>
        <time>2023-08-06T06:41:33Z</time>
      </trkpt>
      <trkpt lat="45.65895" lon="-1.0375">
        <ele>19.6</ele>
        <time>2023-08-06T06:41:34Z</time>
      </trkpt>
      <trkpt lat="45.65897" lon="-1.03756">
        <ele>19.8</ele>
        <time>2023-08-06T06:41:36Z</time>
      </trkpt>
      <trkpt lat="45.65898" lon="-1.03759">
        <ele>19.8</ele>
        <time>2023-08-06T06:41:37Z</time>
      </trkpt>
      <trkpt lat="45.65898" lon="-1.03768">
        <ele>19.8</ele>
        <time>2023-08-06T06:41:39Z</time>
      </trkpt>
      <trkpt lat="45.65898" lon="-1.03777">
        <ele>20</ele>
        <time>2023-08-06T06:41:41Z</time>
      </trkpt>
      <trkpt lat="45.659" lon="-1.0378">
        <ele>19.8</ele>
        <time>2023-08-06T06:41:42Z</time>
      </trkpt>
      <trkpt lat="45.65904" lon="-1.03791">
        <ele>19.8</ele>
        <time>2023-08-06T06:41:45Z</time>
      </trkpt>
      <trkpt lat="45.65904" lon="-1.03797">
        <ele>19.8</ele>
        <time>2023-08-06T06:41:47Z</time>
      </trkpt>
      <trkpt lat="45.65904" lon="-1.03801">
        <ele>19.6</ele>
        <time>2023-08-06T06:41:48Z</time>
      </trkpt>
      <trkpt lat="45.65904" lon="-1.03806">
        <ele>19.6</ele>
        <time>2023-08-06T06:41:49Z</time>
      </trkpt>
      <trkpt lat="45.65905" lon="-1.03819">
        <ele>19.6</ele>
        <time>2023-08-06T06:41:52Z</time>
      </trkpt>
      <trkpt lat="45.65904" lon="-1.03825">
        <ele>19.6</ele>
        <time>2023-08-06T06:41:53Z</time>
      </trkpt>
      <trkpt lat="45.65903" lon="-1.03831">
        <ele>19.6</ele>
        <time>2023-08-06T06:41:54Z</time>
      </trkpt>
      <trkpt lat="45.65901" lon="-1.0384">
        <ele>19.6</ele>
        <time>2023-08-06T06:41:56Z</time>
      </trkpt>
      <trkpt lat="45.65901" lon="-1.0385">
        <ele>19.6</ele>
        <time>2023-08-06T06:41:58Z</time>
      </trkpt>
      <trkpt lat="45.65904" lon="-1.03857">
        <ele>19.4</ele>
        <time>2023-08-06T06:42:00Z</time>
      </trkpt>
      <trkpt lat="45.65908" lon="-1.03867">
        <ele>19.2</ele>
        <time>2023-08-06T06:42:03Z</time>
      </trkpt>
      <trkpt lat="45.6591" lon="-1.0387">
        <ele>19.2</ele>
        <time>2023-08-06T06:42:04Z</time>
      </trkpt>
      <trkpt lat="45.65914" lon="-1.03878">
        <ele>19.2</ele>
        <time>2023-08-06T06:42:06Z</time>
      </trkpt>
      <trkpt lat="45.65917" lon="-1.03892">
        <ele>19.2</ele>
        <time>2023-08-06T06:42:09Z</time>
      </trkpt>
      <trkpt lat="45.65918" lon="-1.03896">
        <ele>19.2</ele>
        <time>2023-08-06T06:42:10Z</time>
      </trkpt>
      <trkpt lat="45.65923" lon="-1.03912">
        <ele>19.2</ele>
        <time>2023-08-06T06:42:13Z</time>
      </trkpt>
      <trkpt lat="45.65927" lon="-1.03919">
        <ele>19.2</ele>
        <time>2023-08-06T06:42:15Z</time>
      </trkpt>
      <trkpt lat="45.65932" lon="-1.03925">
        <ele>19.4</ele>
        <time>2023-08-06T06:42:17Z</time>
      </trkpt>
      <trkpt lat="45.65939" lon="-1.03926">
        <ele>19.4</ele>
        <time>2023-08-06T06:42:19Z</time>
      </trkpt>
      <trkpt lat="45.65946" lon="-1.03923">
        <ele>19.4</ele>
        <time>2023-08-06T06:42:21Z</time>
      </trkpt>
      <trkpt lat="45.65949" lon="-1.03924">
        <ele>19.4</ele>
        <time>2023-08-06T06:42:22Z</time>
      </trkpt>
      <trkpt lat="45.65955" lon="-1.03928">
        <ele>19.2</ele>
        <time>2023-08-06T06:42:24Z</time>
      </trkpt>
      <trkpt lat="45.65961" lon="-1.03933">
        <ele>19.2</ele>
        <time>2023-08-06T06:42:26Z</time>
      </trkpt>
      <trkpt lat="45.65971" lon="-1.03946">
        <ele>19</ele>
        <time>2023-08-06T06:42:30Z</time>
      </trkpt>
      <trkpt lat="45.65975" lon="-1.03956">
        <ele>18.8</ele>
        <time>2023-08-06T06:42:34Z</time>
      </trkpt>
      <trkpt lat="45.65976" lon="-1.0396">
        <ele>18.8</ele>
        <time>2023-08-06T06:42:36Z</time>
      </trkpt>
      <trkpt lat="45.65977" lon="-1.03965">
        <ele>18.8</ele>
        <time>2023-08-06T06:42:38Z</time>
      </trkpt>
      <trkpt lat="45.65984" lon="-1.03978">
        <ele>18.8</ele>
        <time>2023-08-06T06:42:41Z</time>
      </trkpt>
      <trkpt lat="45.65986" lon="-1.03987">
        <ele>18.6</ele>
        <time>2023-08-06T06:42:43Z</time>
      </trkpt>
      <trkpt lat="45.65991" lon="-1.03996">
        <ele>18.4</ele>
        <time>2023-08-06T06:42:45Z</time>
      </trkpt>
      <trkpt lat="45.65991" lon="-1.04001">
        <ele>18.4</ele>
        <time>2023-08-06T06:42:46Z</time>
      </trkpt>
      <trkpt lat="45.65989" lon="-1.04011">
        <ele>18.6</ele>
        <time>2023-08-06T06:42:49Z</time>
      </trkpt>
      <trkpt lat="45.65989" lon="-1.04026">
        <ele>18.8</ele>
        <time>2023-08-06T06:42:52Z</time>
      </trkpt>
      <trkpt lat="45.6599" lon="-1.04031">
        <ele>18.8</ele>
        <time>2023-08-06T06:42:53Z</time>
      </trkpt>
      <trkpt lat="45.65995" lon="-1.04047">
        <ele>18.8</ele>
        <time>2023-08-06T06:42:56Z</time>
      </trkpt>
      <trkpt lat="45.65996" lon="-1.04057">
        <ele>18.8</ele>
        <time>2023-08-06T06:42:58Z</time>
      </trkpt>
      <trkpt lat="45.65995" lon="-1.04063">
        <ele>18.8</ele>
        <time>2023-08-06T06:42:59Z</time>
      </trkpt>
      <trkpt lat="45.65994" lon="-1.0407">
        <ele>18.8</ele>
        <time>2023-08-06T06:43:01Z</time>
      </trkpt>
      <trkpt lat="45.65992" lon="-1.04081">
        <ele>18.8</ele>
        <time>2023-08-06T06:43:03Z</time>
      </trkpt>
      <trkpt lat="45.65993" lon="-1.04091">
        <ele>18.8</ele>
        <time>2023-08-06T06:43:05Z</time>
      </trkpt>
      <trkpt lat="45.65995" lon="-1.04101">
        <ele>18.8</ele>
        <time>2023-08-06T06:43:07Z</time>
      </trkpt>
      <trkpt lat="45.65997" lon="-1.0411">
        <ele>18.8</ele>
        <time>2023-08-06T06:43:09Z</time>
      </trkpt>
      <trkpt lat="45.65997" lon="-1.0412">
        <ele>18.6</ele>
        <time>2023-08-06T06:43:11Z</time>
      </trkpt>
      <trkpt lat="45.65999" lon="-1.04138">
        <ele>18.2</ele>
        <time>2023-08-06T06:43:14Z</time>
      </trkpt>
      <trkpt lat="45.66001" lon="-1.04143">
        <ele>18.2</ele>
        <time>2023-08-06T06:43:15Z</time>
      </trkpt>
      <trkpt lat="45.66002" lon="-1.04148">
        <ele>18</ele>
        <time>2023-08-06T06:43:16Z</time>
      </trkpt>
      <trkpt lat="45.66008" lon="-1.04169">
        <ele>17.2</ele>
        <time>2023-08-06T06:43:21Z</time>
      </trkpt>
      <trkpt lat="45.6601" lon="-1.04189">
        <ele>17.2</ele>
        <time>2023-08-06T06:43:25Z</time>
      </trkpt>
      <trkpt lat="45.66011" lon="-1.0421">
        <ele>17.4</ele>
        <time>2023-08-06T06:43:29Z</time>
      </trkpt>
      <trkpt lat="45.66009" lon="-1.04214">
        <ele>17.4</ele>
        <time>2023-08-06T06:43:30Z</time>
      </trkpt>
      <trkpt lat="45.66003" lon="-1.04227">
        <ele>17.6</ele>
        <time>2023-08-06T06:43:34Z</time>
      </trkpt>
      <trkpt lat="45.66001" lon="-1.04235">
        <ele>17.8</ele>
        <time>2023-08-06T06:43:36Z</time>
      </trkpt>
      <trkpt lat="45.65995" lon="-1.04243">
        <ele>17.8</ele>
        <time>2023-08-06T06:43:39Z</time>
      </trkpt>
      <trkpt lat="45.65993" lon="-1.04254">
        <ele>18.2</ele>
        <time>2023-08-06T06:43:43Z</time>
      </trkpt>
      <trkpt lat="45.65993" lon="-1.0426">
        <ele>18.4</ele>
        <time>2023-08-06T06:43:45Z</time>
      </trkpt>
      <trkpt lat="45.65993" lon="-1.04271">
        <ele>18.4</ele>
        <time>2023-08-06T06:43:48Z</time>
      </trkpt>
      <trkpt lat="45.65994" lon="-1.04274">
        <ele>18.4</ele>
        <time>2023-08-06T06:43:49Z</time>
      </trkpt>
      <trkpt lat="45.65998" lon="-1.04287">
        <ele>18.4</ele>
        <time>2023-08-06T06:43:52Z</time>
      </trkpt>
      <trkpt lat="45.65998" lon="-1.04291">
        <ele>18.6</ele>
        <time>2023-08-06T06:43:53Z</time>
      </trkpt>
      <trkpt lat="45.65995" lon="-1.04301">
        <ele>18.6</ele>
        <time>2023-08-06T06:43:56Z</time>
      </trkpt>
      <trkpt lat="45.65993" lon="-1.04304">
        <ele>18.6</ele>
        <time>2023-08-06T06:43:57Z</time>
      </trkpt>
      <trkpt lat="45.6599" lon="-1.04313">
        <ele>18.6</ele>
        <time>2023-08-06T06:44:01Z</time>
      </trkpt>
      <trkpt lat="45.65983" lon="-1.04317">
        <ele>18.6</ele>
        <time>2023-08-06T06:44:04Z</time>
      </trkpt>
      <trkpt lat="45.65972" lon="-1.04326">
        <ele>18.6</ele>
        <time>2023-08-06T06:44:10Z</time>
      </trkpt>
      <trkpt lat="45.65959" lon="-1.04336">
        <ele>18.4</ele>
        <time>2023-08-06T06:44:15Z</time>
      </trkpt>
      <trkpt lat="45.65957" lon="-1.04336">
        <ele>18.4</ele>
        <time>2023-08-06T06:44:16Z</time>
      </trkpt>
      <trkpt lat="45.65951" lon="-1.04337">
        <ele>18.6</ele>
        <time>2023-08-06T06:44:19Z</time>
      </trkpt>
      <trkpt lat="45.65949" lon="-1.0434">
        <ele>18.6</ele>
        <time>2023-08-06T06:44:21Z</time>
      </trkpt>
      <trkpt lat="45.65947" lon="-1.04345">
        <ele>18.6</ele>
        <time>2023-08-06T06:44:23Z</time>
      </trkpt>
      <trkpt lat="45.65946" lon="-1.04354">
        <ele>18.4</ele>
        <time>2023-08-06T06:44:26Z</time>
      </trkpt>
      <trkpt lat="45.65944" lon="-1.04357">
        <ele>18.4</ele>
        <time>2023-08-06T06:44:27Z</time>
      </trkpt>
      <trkpt lat="45.65937" lon="-1.04354">
        <ele>18.4</ele>
        <time>2023-08-06T06:44:30Z</time>
      </trkpt>
      <trkpt lat="45.65932" lon="-1.04348">
        <ele>18.6</ele>
        <time>2023-08-06T06:44:33Z</time>
      </trkpt>
      <trkpt lat="45.65927" lon="-1.04346">
        <ele>18.6</ele>
        <time>2023-08-06T06:44:35Z</time>
      </trkpt>
      <trkpt lat="45.65925" lon="-1.04346">
        <ele>18.6</ele>
        <time>2023-08-06T06:44:36Z</time>
      </trkpt>
      <trkpt lat="45.65918" lon="-1.0435">
        <ele>18.2</ele>
        <time>2023-08-06T06:44:39Z</time>
      </trkpt>
      <trkpt lat="45.65907" lon="-1.04351">
        <ele>17.8</ele>
        <time>2023-08-06T06:44:44Z</time>
      </trkpt>
      <trkpt lat="45.65895" lon="-1.04343">
        <ele>18</ele>
        <time>2023-08-06T06:44:50Z</time>
      </trkpt>
      <trkpt lat="45.6589" lon="-1.04337">
        <ele>18.2</ele>
        <time>2023-08-06T06:44:53Z</time>
      </trkpt>
      <trkpt lat="45.65886" lon="-1.04337">
        <ele>18.2</ele>
        <time>2023-08-06T06:44:55Z</time>
      </trkpt>
      <trkpt lat="45.65883" lon="-1.04336">
        <ele>18.2</ele>
        <time>2023-08-06T06:44:57Z</time>
      </trkpt>
      <trkpt lat="45.65882" lon="-1.04332">
        <ele>18.2</ele>
        <time>2023-08-06T06:44:59Z</time>
      </trkpt>
      <trkpt lat="45.65883" lon="-1.04331">
        <ele>18</ele>
        <time>2023-08-06T06:45:00Z</time>
      </trkpt>
      <trkpt lat="45.65883" lon="-1.04328">
        <ele>18</ele>
        <time>2023-08-06T06:45:01Z</time>
      </trkpt>
      <trkpt lat="45.65882" lon="-1.0432">
        <ele>18</ele>
        <time>2023-08-06T06:45:03Z</time>
      </trkpt>
      <trkpt lat="45.65881" lon="-1.04316">
        <ele>18</ele>
        <time>2023-08-06T06:45:04Z</time>
      </trkpt>
      <trkpt lat="45.65881" lon="-1.04311">
        <ele>18</ele>
        <time>2023-08-06T06:45:05Z</time>
      </trkpt>
      <trkpt lat="45.65883" lon="-1.04299">
        <ele>18.4</ele>
        <time>2023-08-06T06:45:08Z</time>
      </trkpt>
      <trkpt lat="45.65875" lon="-1.04278">
        <ele>18.2</ele>
        <time>2023-08-06T06:45:13Z</time>
      </trkpt>
      <trkpt lat="45.65868" lon="-1.04268">
        <ele>18</ele>
        <time>2023-08-06T06:45:17Z</time>
      </trkpt>
      <trkpt lat="45.65856" lon="-1.04263">
        <ele>18</ele>
        <time>2023-08-06T06:45:21Z</time>
      </trkpt>
      <trkpt lat="45.65842" lon="-1.04262">
        <ele>18</ele>
        <time>2023-08-06T06:45:26Z</time>
      </trkpt>
      <trkpt lat="45.65827" lon="-1.04262">
        <ele>17.6</ele>
        <time>2023-08-06T06:45:31Z</time>
      </trkpt>
      <trkpt lat="45.65814" lon="-1.04256">
        <ele>17</ele>
        <time>2023-08-06T06:45:36Z</time>
      </trkpt>
      <trkpt lat="45.65795" lon="-1.0425">
        <ele>17</ele>
        <time>2023-08-06T06:45:42Z</time>
      </trkpt>
      <trkpt lat="45.65791" lon="-1.04249">
        <ele>17</ele>
        <time>2023-08-06T06:45:43Z</time>
      </trkpt>
      <trkpt lat="45.65787" lon="-1.04249">
        <ele>17</ele>
        <time>2023-08-06T06:45:44Z</time>
      </trkpt>
      <trkpt lat="45.65778" lon="-1.04246">
        <ele>16.6</ele>
        <time>2023-08-06T06:45:47Z</time>
      </trkpt>
      <trkpt lat="45.65764" lon="-1.04241">
        <ele>16</ele>
        <time>2023-08-06T06:45:52Z</time>
      </trkpt>
      <trkpt lat="45.65762" lon="-1.04242">
        <ele>16</ele>
        <time>2023-08-06T06:45:53Z</time>
      </trkpt>
      <trkpt lat="45.65761" lon="-1.04244">
        <ele>16</ele>
        <time>2023-08-06T06:45:54Z</time>
      </trkpt>
      <trkpt lat="45.6576" lon="-1.04246">
        <ele>15.8</ele>
        <time>2023-08-06T06:45:55Z</time>
      </trkpt>
      <trkpt lat="45.6576" lon="-1.04249">
        <ele>15.8</ele>
        <time>2023-08-06T06:45:56Z</time>
      </trkpt>
      <trkpt lat="45.65755" lon="-1.04261">
        <ele>15.4</ele>
        <time>2023-08-06T06:46:01Z</time>
      </trkpt>
      <trkpt lat="45.65752" lon="-1.04266">
        <ele>15.2</ele>
        <time>2023-08-06T06:46:03Z</time>
      </trkpt>
      <trkpt lat="45.65747" lon="-1.04276">
        <ele>15</ele>
        <time>2023-08-06T06:46:06Z</time>
      </trkpt>
      <trkpt lat="45.65746" lon="-1.0428">
        <ele>14.8</ele>
        <time>2023-08-06T06:46:07Z</time>
      </trkpt>
      <trkpt lat="45.65744" lon="-1.04284">
        <ele>14.6</ele>
        <time>2023-08-06T06:46:08Z</time>
      </trkpt>
      <trkpt lat="45.65741" lon="-1.0429">
        <ele>14</ele>
        <time>2023-08-06T06:46:10Z</time>
      </trkpt>
      <trkpt lat="45.65741" lon="-1.04293">
        <ele>14</ele>
        <time>2023-08-06T06:46:11Z</time>
      </trkpt>
      <trkpt lat="45.65741" lon="-1.04296">
        <ele>13.8</ele>
        <time>2023-08-06T06:46:12Z</time>
      </trkpt>
      <trkpt lat="45.65742" lon="-1.043">
        <ele>13.6</ele>
        <time>2023-08-06T06:46:13Z</time>
      </trkpt>
      <trkpt lat="45.65743" lon="-1.04309">
        <ele>13.6</ele>
        <time>2023-08-06T06:46:16Z</time>
      </trkpt>
      <trkpt lat="45.65745" lon="-1.04337">
        <ele>14</ele>
        <time>2023-08-06T06:46:21Z</time>
      </trkpt>
      <trkpt lat="45.65753" lon="-1.04355">
        <ele>14.4</ele>
        <time>2023-08-06T06:46:26Z</time>
      </trkpt>
      <trkpt lat="45.6576" lon="-1.04368">
        <ele>14.2</ele>
        <time>2023-08-06T06:46:31Z</time>
      </trkpt>
      <trkpt lat="45.65766" lon="-1.04395">
        <ele>12.6</ele>
        <time>2023-08-06T06:46:38Z</time>
      </trkpt>
      <trkpt lat="45.65763" lon="-1.04401">
        <ele>12.2</ele>
        <time>2023-08-06T06:46:40Z</time>
      </trkpt>
      <trkpt lat="45.65759" lon="-1.04405">
        <ele>12.4</ele>
        <time>2023-08-06T06:46:43Z</time>
      </trkpt>
      <trkpt lat="45.65754" lon="-1.0441">
        <ele>12.6</ele>
        <time>2023-08-06T06:46:47Z</time>
      </trkpt>
      <trkpt lat="45.65753" lon="-1.04412">
        <ele>12.6</ele>
        <time>2023-08-06T06:46:48Z</time>
      </trkpt>
      <trkpt lat="45.65753" lon="-1.04414">
        <ele>12.6</ele>
        <time>2023-08-06T06:46:49Z</time>
      </trkpt>
      <trkpt lat="45.65753" lon="-1.0442">
        <ele>12.2</ele>
        <time>2023-08-06T06:46:52Z</time>
      </trkpt>
      <trkpt lat="45.65754" lon="-1.04423">
        <ele>12</ele>
        <time>2023-08-06T06:46:53Z</time>
      </trkpt>
      <trkpt lat="45.65755" lon="-1.04431">
        <ele>11.4</ele>
        <time>2023-08-06T06:46:56Z</time>
      </trkpt>
      <trkpt lat="45.65754" lon="-1.04434">
        <ele>11.4</ele>
        <time>2023-08-06T06:46:57Z</time>
      </trkpt>
      <trkpt lat="45.65739" lon="-1.04439">
        <ele>10.8</ele>
        <time>2023-08-06T06:47:01Z</time>
      </trkpt>
      <trkpt lat="45.6573" lon="-1.04439">
        <ele>10.4</ele>
        <time>2023-08-06T06:47:03Z</time>
      </trkpt>
      <trkpt lat="45.65714" lon="-1.04437">
        <ele>10.2</ele>
        <time>2023-08-06T06:47:06Z</time>
      </trkpt>
      <trkpt lat="45.65688" lon="-1.04433">
        <ele>9.2</ele>
        <time>2023-08-06T06:47:10Z</time>
      </trkpt>
      <trkpt lat="45.6568" lon="-1.04433">
        <ele>8.6</ele>
        <time>2023-08-06T06:47:11Z</time>
      </trkpt>
      <trkpt lat="45.65637" lon="-1.04434">
        <ele>8.2</ele>
        <time>2023-08-06T06:47:16Z</time>
      </trkpt>
      <trkpt lat="45.65625" lon="-1.04434">
        <ele>8.4</ele>
        <time>2023-08-06T06:47:18Z</time>
      </trkpt>
      <trkpt lat="45.65621" lon="-1.04435">
        <ele>8.6</ele>
        <time>2023-08-06T06:47:19Z</time>
      </trkpt>
      <trkpt lat="45.65616" lon="-1.04435">
        <ele>8.2</ele>
        <time>2023-08-06T06:47:21Z</time>
      </trkpt>
      <trkpt lat="45.65615" lon="-1.04434">
        <ele>8.2</ele>
        <time>2023-08-06T06:47:22Z</time>
      </trkpt>
      <trkpt lat="45.65616" lon="-1.04433">
        <ele>8.2</ele>
        <time>2023-08-06T06:47:24Z</time>
      </trkpt>
      <trkpt lat="45.6562" lon="-1.04435">
        <ele>8.2</ele>
        <time>2023-08-06T06:47:26Z</time>
      </trkpt>
      <trkpt lat="45.65633" lon="-1.04442">
        <ele>8.2</ele>
        <time>2023-08-06T06:47:31Z</time>
      </trkpt>
      <trkpt lat="45.65634" lon="-1.04452">
        <ele>8.2</ele>
        <time>2023-08-06T06:47:33Z</time>
      </trkpt>
      <trkpt lat="45.65633" lon="-1.04457">
        <ele>8</ele>
        <time>2023-08-06T06:47:34Z</time>
      </trkpt>
      <trkpt lat="45.65631" lon="-1.04491">
        <ele>7.8</ele>
        <time>2023-08-06T06:47:40Z</time>
      </trkpt>
      <trkpt lat="45.65633" lon="-1.04496">
        <ele>7.8</ele>
        <time>2023-08-06T06:47:41Z</time>
      </trkpt>
      <trkpt lat="45.65644" lon="-1.04515">
        <ele>8</ele>
        <time>2023-08-06T06:47:45Z</time>
      </trkpt>
      <trkpt lat="45.65653" lon="-1.04536">
        <ele>7.6</ele>
        <time>2023-08-06T06:47:49Z</time>
      </trkpt>
      <trkpt lat="45.65657" lon="-1.04548">
        <ele>7.4</ele>
        <time>2023-08-06T06:47:51Z</time>
      </trkpt>
      <trkpt lat="45.65669" lon="-1.04589">
        <ele>7.4</ele>
        <time>2023-08-06T06:47:57Z</time>
      </trkpt>
      <trkpt lat="45.65679" lon="-1.04633">
        <ele>7.2</ele>
        <time>2023-08-06T06:48:03Z</time>
      </trkpt>
      <trkpt lat="45.65683" lon="-1.04643">
        <ele>7</ele>
        <time>2023-08-06T06:48:05Z</time>
      </trkpt>
      <trkpt lat="45.65684" lon="-1.04648">
        <ele>7</ele>
        <time>2023-08-06T06:48:06Z</time>
      </trkpt>
      <trkpt lat="45.65688" lon="-1.04657">
        <ele>6.6</ele>
        <time>2023-08-06T06:48:08Z</time>
      </trkpt>
      <trkpt lat="45.65696" lon="-1.04683">
        <ele>7</ele>
        <time>2023-08-06T06:48:13Z</time>
      </trkpt>
      <trkpt lat="45.657" lon="-1.047">
        <ele>6.6</ele>
        <time>2023-08-06T06:48:18Z</time>
      </trkpt>
      <trkpt lat="45.65701" lon="-1.04705">
        <ele>6.4</ele>
        <time>2023-08-06T06:48:20Z</time>
      </trkpt>
      <trkpt lat="45.65701" lon="-1.04713">
        <ele>6.6</ele>
        <time>2023-08-06T06:48:23Z</time>
      </trkpt>
      <trkpt lat="45.65698" lon="-1.04716">
        <ele>6.8</ele>
        <time>2023-08-06T06:48:24Z</time>
      </trkpt>
      <trkpt lat="45.65694" lon="-1.04721">
        <ele>7.2</ele>
        <time>2023-08-06T06:48:27Z</time>
      </trkpt>
      <trkpt lat="45.65688" lon="-1.04735">
        <ele>8</ele>
        <time>2023-08-06T06:48:32Z</time>
      </trkpt>
      <trkpt lat="45.65688" lon="-1.04737">
        <ele>8.2</ele>
        <time>2023-08-06T06:48:33Z</time>
      </trkpt>
      <trkpt lat="45.65688" lon="-1.04741">
        <ele>8</ele>
        <time>2023-08-06T06:48:34Z</time>
      </trkpt>
      <trkpt lat="45.65689" lon="-1.04753">
        <ele>7.6</ele>
        <time>2023-08-06T06:48:38Z</time>
      </trkpt>
      <trkpt lat="45.65689" lon="-1.04756">
        <ele>7.4</ele>
        <time>2023-08-06T06:48:39Z</time>
      </trkpt>
      <trkpt lat="45.6569" lon="-1.04761">
        <ele>7</ele>
        <time>2023-08-06T06:48:41Z</time>
      </trkpt>
      <trkpt lat="45.65687" lon="-1.04771">
        <ele>7</ele>
        <time>2023-08-06T06:48:44Z</time>
      </trkpt>
      <trkpt lat="45.65685" lon="-1.04773">
        <ele>7</ele>
        <time>2023-08-06T06:48:45Z</time>
      </trkpt>
      <trkpt lat="45.65678" lon="-1.04775">
        <ele>7.6</ele>
        <time>2023-08-06T06:48:48Z</time>
      </trkpt>
      <trkpt lat="45.65666" lon="-1.04775">
        <ele>8.2</ele>
        <time>2023-08-06T06:48:53Z</time>
      </trkpt>
      <trkpt lat="45.65656" lon="-1.04782">
        <ele>8.8</ele>
        <time>2023-08-06T06:48:57Z</time>
      </trkpt>
      <trkpt lat="45.65654" lon="-1.04785">
        <ele>8.8</ele>
        <time>2023-08-06T06:48:58Z</time>
      </trkpt>
      <trkpt lat="45.6565" lon="-1.04791">
        <ele>8.6</ele>
        <time>2023-08-06T06:49:00Z</time>
      </trkpt>
      <trkpt lat="45.65642" lon="-1.04797">
        <ele>8.2</ele>
        <time>2023-08-06T06:49:03Z</time>
      </trkpt>
      <trkpt lat="45.65641" lon="-1.04799">
        <ele>8.2</ele>
        <time>2023-08-06T06:49:04Z</time>
      </trkpt>
      <trkpt lat="45.65635" lon="-1.0481">
        <ele>8.2</ele>
        <time>2023-08-06T06:49:08Z</time>
      </trkpt>
      <trkpt lat="45.65622" lon="-1.04818">
        <ele>8.8</ele>
        <time>2023-08-06T06:49:13Z</time>
      </trkpt>
      <trkpt lat="45.65618" lon="-1.04829">
        <ele>9.2</ele>
        <time>2023-08-06T06:49:17Z</time>
      </trkpt>
      <trkpt lat="45.65617" lon="-1.04832">
        <ele>9.6</ele>
        <time>2023-08-06T06:49:18Z</time>
      </trkpt>
      <trkpt lat="45.65618" lon="-1.04845">
        <ele>10.4</ele>
        <time>2023-08-06T06:49:22Z</time>
      </trkpt>
      <trkpt lat="45.6562" lon="-1.04849">
        <ele>10.4</ele>
        <time>2023-08-06T06:49:23Z</time>
      </trkpt>
      <trkpt lat="45.65618" lon="-1.04858">
        <ele>10.4</ele>
        <time>2023-08-06T06:49:25Z</time>
      </trkpt>
      <trkpt lat="45.65613" lon="-1.04861">
        <ele>10.4</ele>
        <time>2023-08-06T06:49:27Z</time>
      </trkpt>
      <trkpt lat="45.65603" lon="-1.04866">
        <ele>10.8</ele>
        <time>2023-08-06T06:49:31Z</time>
      </trkpt>
      <trkpt lat="45.65602" lon="-1.04871">
        <ele>10.8</ele>
        <time>2023-08-06T06:49:33Z</time>
      </trkpt>
      <trkpt lat="45.65599" lon="-1.04877">
        <ele>10.8</ele>
        <time>2023-08-06T06:49:35Z</time>
      </trkpt>
      <trkpt lat="45.65584" lon="-1.04887">
        <ele>11</ele>
        <time>2023-08-06T06:49:40Z</time>
      </trkpt>
      <trkpt lat="45.65582" lon="-1.04888">
        <ele>11.4</ele>
        <time>2023-08-06T06:49:42Z</time>
      </trkpt>
      <trkpt lat="45.65581" lon="-1.04886">
        <ele>11.4</ele>
        <time>2023-08-06T06:49:43Z</time>
      </trkpt>
      <trkpt lat="45.6558" lon="-1.04884">
        <ele>11.2</ele>
        <time>2023-08-06T06:49:44Z</time>
      </trkpt>
      <trkpt lat="45.65576" lon="-1.04873">
        <ele>11</ele>
        <time>2023-08-06T06:49:50Z</time>
      </trkpt>
      <trkpt lat="45.65573" lon="-1.04871">
        <ele>11</ele>
        <time>2023-08-06T06:49:52Z</time>
      </trkpt>
      <trkpt lat="45.65571" lon="-1.04864">
        <ele>10.6</ele>
        <time>2023-08-06T06:49:55Z</time>
      </trkpt>
      <trkpt lat="45.6557" lon="-1.04857">
        <ele>10.4</ele>
        <time>2023-08-06T06:49:57Z</time>
      </trkpt>
      <trkpt lat="45.6557" lon="-1.04854">
        <ele>10.4</ele>
        <time>2023-08-06T06:49:58Z</time>
      </trkpt>
      <trkpt lat="45.65571" lon="-1.0485">
        <ele>10.2</ele>
        <time>2023-08-06T06:49:59Z</time>
      </trkpt>
      <trkpt lat="45.65573" lon="-1.04847">
        <ele>10.2</ele>
        <time>2023-08-06T06:50:00Z</time>
      </trkpt>
      <trkpt lat="45.65575" lon="-1.04845">
        <ele>10.2</ele>
        <time>2023-08-06T06:50:01Z</time>
      </trkpt>
      <trkpt lat="45.65577" lon="-1.04842">
        <ele>10.2</ele>
        <time>2023-08-06T06:50:03Z</time>
      </trkpt>
      <trkpt lat="45.65579" lon="-1.04837">
        <ele>10</ele>
        <time>2023-08-06T06:50:05Z</time>
      </trkpt>
      <trkpt lat="45.65581" lon="-1.04831">
        <ele>9.8</ele>
        <time>2023-08-06T06:50:07Z</time>
      </trkpt>
      <trkpt lat="45.65583" lon="-1.04822">
        <ele>9.6</ele>
        <time>2023-08-06T06:50:09Z</time>
      </trkpt>
      <trkpt lat="45.65584" lon="-1.04818">
        <ele>9.6</ele>
        <time>2023-08-06T06:50:10Z</time>
      </trkpt>
      <trkpt lat="45.65586" lon="-1.04813">
        <ele>9.6</ele>
        <time>2023-08-06T06:50:11Z</time>
      </trkpt>
      <trkpt lat="45.65586" lon="-1.04805">
        <ele>9.4</ele>
        <time>2023-08-06T06:50:13Z</time>
      </trkpt>
      <trkpt lat="45.65585" lon="-1.04802">
        <ele>9.4</ele>
        <time>2023-08-06T06:50:14Z</time>
      </trkpt>
      <trkpt lat="45.65581" lon="-1.04797">
        <ele>9.6</ele>
        <time>2023-08-06T06:50:16Z</time>
      </trkpt>
      <trkpt lat="45.65575" lon="-1.04791">
        <ele>9.4</ele>
        <time>2023-08-06T06:50:19Z</time>
      </trkpt>
      <trkpt lat="45.65571" lon="-1.04788">
        <ele>9.6</ele>
        <time>2023-08-06T06:50:21Z</time>
      </trkpt>
      <trkpt lat="45.65569" lon="-1.0479">
        <ele>9.4</ele>
        <time>2023-08-06T06:50:23Z</time>
      </trkpt>
      <trkpt lat="45.65567" lon="-1.04794">
        <ele>9.4</ele>
        <time>2023-08-06T06:50:25Z</time>
      </trkpt>
      <trkpt lat="45.65566" lon="-1.04794">
        <ele>9.2</ele>
        <time>2023-08-06T06:50:26Z</time>
      </trkpt>
      <trkpt lat="45.65564" lon="-1.04796">
        <ele>9.2</ele>
        <time>2023-08-06T06:50:27Z</time>
      </trkpt>
      <trkpt lat="45.65563" lon="-1.04803">
        <ele>9.4</ele>
        <time>2023-08-06T06:50:31Z</time>
      </trkpt>
      <trkpt lat="45.65562" lon="-1.04804">
        <ele>9.6</ele>
        <time>2023-08-06T06:50:32Z</time>
      </trkpt>
      <trkpt lat="45.65558" lon="-1.04806">
        <ele>10.4</ele>
        <time>2023-08-06T06:50:34Z</time>
      </trkpt>
      <trkpt lat="45.65554" lon="-1.04808">
        <ele>10.6</ele>
        <time>2023-08-06T06:50:36Z</time>
      </trkpt>
      <trkpt lat="45.65554" lon="-1.0481">
        <ele>10.6</ele>
        <time>2023-08-06T06:50:37Z</time>
      </trkpt>
      <trkpt lat="45.65553" lon="-1.04812">
        <ele>10.6</ele>
        <time>2023-08-06T06:50:38Z</time>
      </trkpt>
      <trkpt lat="45.65545" lon="-1.04816">
        <ele>10.6</ele>
        <time>2023-08-06T06:50:41Z</time>
      </trkpt>
      <trkpt lat="45.65538" lon="-1.04818">
        <ele>11.2</ele>
        <time>2023-08-06T06:50:43Z</time>
      </trkpt>
      <trkpt lat="45.65532" lon="-1.04817">
        <ele>11.4</ele>
        <time>2023-08-06T06:50:45Z</time>
      </trkpt>
      <trkpt lat="45.65526" lon="-1.04817">
        <ele>11.4</ele>
        <time>2023-08-06T06:50:47Z</time>
      </trkpt>
      <trkpt lat="45.65522" lon="-1.04822">
        <ele>11.4</ele>
        <time>2023-08-06T06:50:51Z</time>
      </trkpt>
      <trkpt lat="45.6552" lon="-1.04826">
        <ele>11.4</ele>
        <time>2023-08-06T06:50:53Z</time>
      </trkpt>
      <trkpt lat="45.65519" lon="-1.04835">
        <ele>11.6</ele>
        <time>2023-08-06T06:50:57Z</time>
      </trkpt>
      <trkpt lat="45.6552" lon="-1.04848">
        <ele>11.4</ele>
        <time>2023-08-06T06:51:05Z</time>
      </trkpt>
      <trkpt lat="45.65521" lon="-1.04852">
        <ele>11.4</ele>
        <time>2023-08-06T06:51:07Z</time>
      </trkpt>
      <trkpt lat="45.65524" lon="-1.0486">
        <ele>11.8</ele>
        <time>2023-08-06T06:51:11Z</time>
      </trkpt>
      <trkpt lat="45.65533" lon="-1.04883">
        <ele>11.8</ele>
        <time>2023-08-06T06:51:18Z</time>
      </trkpt>
      <trkpt lat="45.65537" lon="-1.04889">
        <ele>11.8</ele>
        <time>2023-08-06T06:51:20Z</time>
      </trkpt>
      <trkpt lat="45.65546" lon="-1.04906">
        <ele>12</ele>
        <time>2023-08-06T06:51:24Z</time>
      </trkpt>
      <trkpt lat="45.65567" lon="-1.04944">
        <ele>11.8</ele>
        <time>2023-08-06T06:51:31Z</time>
      </trkpt>
      <trkpt lat="45.65572" lon="-1.04952">
        <ele>11.8</ele>
        <time>2023-08-06T06:51:32Z</time>
      </trkpt>
      <trkpt lat="45.65578" lon="-1.04961">
        <ele>11.8</ele>
        <time>2023-08-06T06:51:34Z</time>
      </trkpt>
      <trkpt lat="45.65582" lon="-1.04962">
        <ele>11.8</ele>
        <time>2023-08-06T06:51:35Z</time>
      </trkpt>
      <trkpt lat="45.65585" lon="-1.0496">
        <ele>11.8</ele>
        <time>2023-08-06T06:51:36Z</time>
      </trkpt>
      <trkpt lat="45.65593" lon="-1.04953">
        <ele>11.8</ele>
        <time>2023-08-06T06:51:39Z</time>
      </trkpt>
      <trkpt lat="45.65614" lon="-1.04934">
        <ele>11.4</ele>
        <time>2023-08-06T06:51:44Z</time>
      </trkpt>
      <trkpt lat="45.65634" lon="-1.04912">
        <ele>10.2</ele>
        <time>2023-08-06T06:51:50Z</time>
      </trkpt>
      <trkpt lat="45.65641" lon="-1.04903">
        <ele>9.6</ele>
        <time>2023-08-06T06:51:52Z</time>
      </trkpt>
      <trkpt lat="45.6565" lon="-1.04895">
        <ele>9.2</ele>
        <time>2023-08-06T06:51:54Z</time>
      </trkpt>
      <trkpt lat="45.6566" lon="-1.0489">
        <ele>8.8</ele>
        <time>2023-08-06T06:51:56Z</time>
      </trkpt>
      <trkpt lat="45.6567" lon="-1.04886">
        <ele>8.8</ele>
        <time>2023-08-06T06:51:58Z</time>
      </trkpt>
      <trkpt lat="45.65675" lon="-1.04884">
        <ele>8.6</ele>
        <time>2023-08-06T06:51:59Z</time>
      </trkpt>
      <trkpt lat="45.65683" lon="-1.04876">
        <ele>8.4</ele>
        <time>2023-08-06T06:52:01Z</time>
      </trkpt>
      <trkpt lat="45.65685" lon="-1.04872">
        <ele>8</ele>
        <time>2023-08-06T06:52:02Z</time>
      </trkpt>
      <trkpt lat="45.65687" lon="-1.04866">
        <ele>7.4</ele>
        <time>2023-08-06T06:52:03Z</time>
      </trkpt>
      <trkpt lat="45.65688" lon="-1.04856">
        <ele>6.8</ele>
        <time>2023-08-06T06:52:05Z</time>
      </trkpt>
      <trkpt lat="45.6569" lon="-1.04851">
        <ele>6.6</ele>
        <time>2023-08-06T06:52:06Z</time>
      </trkpt>
      <trkpt lat="45.65692" lon="-1.04845">
        <ele>6.4</ele>
        <time>2023-08-06T06:52:08Z</time>
      </trkpt>
      <trkpt lat="45.65696" lon="-1.04843">
        <ele>6.2</ele>
        <time>2023-08-06T06:52:10Z</time>
      </trkpt>
      <trkpt lat="45.6571" lon="-1.04842">
        <ele>6.4</ele>
        <time>2023-08-06T06:52:14Z</time>
      </trkpt>
      <trkpt lat="45.65715" lon="-1.04844">
        <ele>6.2</ele>
        <time>2023-08-06T06:52:15Z</time>
      </trkpt>
      <trkpt lat="45.65731" lon="-1.04856">
        <ele>6</ele>
        <time>2023-08-06T06:52:18Z</time>
      </trkpt>
      <trkpt lat="45.65765" lon="-1.04895">
        <ele>6.4</ele>
        <time>2023-08-06T06:52:25Z</time>
      </trkpt>
      <trkpt lat="45.65793" lon="-1.04925">
        <ele>5.8</ele>
        <time>2023-08-06T06:52:31Z</time>
      </trkpt>
      <trkpt lat="45.65828" lon="-1.04953">
        <ele>5.8</ele>
        <time>2023-08-06T06:52:37Z</time>
      </trkpt>
      <trkpt lat="45.65833" lon="-1.04958">
        <ele>5.8</ele>
        <time>2023-08-06T06:52:38Z</time>
      </trkpt>
      <trkpt lat="45.6584" lon="-1.04968">
        <ele>5.6</ele>
        <time>2023-08-06T06:52:40Z</time>
      </trkpt>
      <trkpt lat="45.65846" lon="-1.04979">
        <ele>5.2</ele>
        <time>2023-08-06T06:52:42Z</time>
      </trkpt>
      <trkpt lat="45.65854" lon="-1.04999">
        <ele>5.2</ele>
        <time>2023-08-06T06:52:46Z</time>
      </trkpt>
      <trkpt lat="45.65855" lon="-1.05003">
        <ele>5.2</ele>
        <time>2023-08-06T06:52:47Z</time>
      </trkpt>
      <trkpt lat="45.65854" lon="-1.05007">
        <ele>5.4</ele>
        <time>2023-08-06T06:52:48Z</time>
      </trkpt>
      <trkpt lat="45.65852" lon="-1.0501">
        <ele>5.6</ele>
        <time>2023-08-06T06:52:50Z</time>
      </trkpt>
      <trkpt lat="45.6585" lon="-1.05013">
        <ele>6.2</ele>
        <time>2023-08-06T06:52:52Z</time>
      </trkpt>
      <trkpt lat="45.65848" lon="-1.05015">
        <ele>6.6</ele>
        <time>2023-08-06T06:52:54Z</time>
      </trkpt>
      <trkpt lat="45.65846" lon="-1.05017">
        <ele>6.6</ele>
        <time>2023-08-06T06:52:55Z</time>
      </trkpt>
      <trkpt lat="45.65844" lon="-1.0502">
        <ele>6.8</ele>
        <time>2023-08-06T06:52:56Z</time>
      </trkpt>
      <trkpt lat="45.65841" lon="-1.05022">
        <ele>7.2</ele>
        <time>2023-08-06T06:52:57Z</time>
      </trkpt>
      <trkpt lat="45.65834" lon="-1.05026">
        <ele>8.2</ele>
        <time>2023-08-06T06:53:00Z</time>
      </trkpt>
      <trkpt lat="45.65825" lon="-1.05025">
        <ele>9</ele>
        <time>2023-08-06T06:53:05Z</time>
      </trkpt>
      <trkpt lat="45.65824" lon="-1.05025">
        <ele>9</ele>
        <time>2023-08-06T06:53:06Z</time>
      </trkpt>
      <trkpt lat="45.65822" lon="-1.0503">
        <ele>9.2</ele>
        <time>2023-08-06T06:53:09Z</time>
      </trkpt>
      <trkpt lat="45.65821" lon="-1.05032">
        <ele>9.4</ele>
        <time>2023-08-06T06:53:10Z</time>
      </trkpt>
      <trkpt lat="45.6582" lon="-1.05034">
        <ele>9.6</ele>
        <time>2023-08-06T06:53:11Z</time>
      </trkpt>
      <trkpt lat="45.65812" lon="-1.05041">
        <ele>9.8</ele>
        <time>2023-08-06T06:53:14Z</time>
      </trkpt>
      <trkpt lat="45.65805" lon="-1.05042">
        <ele>10.4</ele>
        <time>2023-08-06T06:53:16Z</time>
      </trkpt>
      <trkpt lat="45.65801" lon="-1.05039">
        <ele>10.6</ele>
        <time>2023-08-06T06:53:18Z</time>
      </trkpt>
      <trkpt lat="45.65797" lon="-1.05028">
        <ele>10.4</ele>
        <time>2023-08-06T06:53:23Z</time>
      </trkpt>
      <trkpt lat="45.65802" lon="-1.05018">
        <ele>9.6</ele>
        <time>2023-08-06T06:53:27Z</time>
      </trkpt>
      <trkpt lat="45.65807" lon="-1.05011">
        <ele>9.4</ele>
        <time>2023-08-06T06:53:30Z</time>
      </trkpt>
      <trkpt lat="45.65808" lon="-1.05009">
        <ele>9.2</ele>
        <time>2023-08-06T06:53:31Z</time>
      </trkpt>
      <trkpt lat="45.6581" lon="-1.05007">
        <ele>9.2</ele>
        <time>2023-08-06T06:53:32Z</time>
      </trkpt>
      <trkpt lat="45.65812" lon="-1.05004">
        <ele>8.8</ele>
        <time>2023-08-06T06:53:33Z</time>
      </trkpt>
      <trkpt lat="45.65812" lon="-1.05">
        <ele>8.2</ele>
        <time>2023-08-06T06:53:35Z</time>
      </trkpt>
      <trkpt lat="45.65808" lon="-1.04996">
        <ele>7.6</ele>
        <time>2023-08-06T06:53:37Z</time>
      </trkpt>
      <trkpt lat="45.65801" lon="-1.04993">
        <ele>7</ele>
        <time>2023-08-06T06:53:40Z</time>
      </trkpt>
      <trkpt lat="45.65797" lon="-1.04994">
        <ele>7.4</ele>
        <time>2023-08-06T06:53:42Z</time>
      </trkpt>
      <trkpt lat="45.65793" lon="-1.04994">
        <ele>7.6</ele>
        <time>2023-08-06T06:53:44Z</time>
      </trkpt>
      <trkpt lat="45.65789" lon="-1.04992">
        <ele>8</ele>
        <time>2023-08-06T06:53:46Z</time>
      </trkpt>
      <trkpt lat="45.65788" lon="-1.04991">
        <ele>8.2</ele>
        <time>2023-08-06T06:53:47Z</time>
      </trkpt>
      <trkpt lat="45.65787" lon="-1.04987">
        <ele>8.6</ele>
        <time>2023-08-06T06:53:49Z</time>
      </trkpt>
      <trkpt lat="45.65787" lon="-1.0498">
        <ele>8.4</ele>
        <time>2023-08-06T06:53:51Z</time>
      </trkpt>
      <trkpt lat="45.65788" lon="-1.04968">
        <ele>7.4</ele>
        <time>2023-08-06T06:53:55Z</time>
      </trkpt>
      <trkpt lat="45.65787" lon="-1.04966">
        <ele>7.2</ele>
        <time>2023-08-06T06:53:56Z</time>
      </trkpt>
      <trkpt lat="45.65786" lon="-1.04964">
        <ele>6.8</ele>
        <time>2023-08-06T06:53:57Z</time>
      </trkpt>
      <trkpt lat="45.65782" lon="-1.04961">
        <ele>6.6</ele>
        <time>2023-08-06T06:54:00Z</time>
      </trkpt>
      <trkpt lat="45.65781" lon="-1.04961">
        <ele>7.2</ele>
        <time>2023-08-06T06:54:01Z</time>
      </trkpt>
      <trkpt lat="45.6578" lon="-1.04963">
        <ele>7.6</ele>
        <time>2023-08-06T06:54:02Z</time>
      </trkpt>
      <trkpt lat="45.6578" lon="-1.04969">
        <ele>8.4</ele>
        <time>2023-08-06T06:54:06Z</time>
      </trkpt>
      <trkpt lat="45.65777" lon="-1.04975">
        <ele>8.8</ele>
        <time>2023-08-06T06:54:09Z</time>
      </trkpt>
      <trkpt lat="45.65775" lon="-1.04978">
        <ele>9</ele>
        <time>2023-08-06T06:54:11Z</time>
      </trkpt>
      <trkpt lat="45.65775" lon="-1.0498">
        <ele>9.2</ele>
        <time>2023-08-06T06:54:13Z</time>
      </trkpt>
      <trkpt lat="45.65775" lon="-1.04982">
        <ele>9.2</ele>
        <time>2023-08-06T06:54:15Z</time>
      </trkpt>
      <trkpt lat="45.65772" lon="-1.04985">
        <ele>9.2</ele>
        <time>2023-08-06T06:54:16Z</time>
      </trkpt>
      <trkpt lat="45.6577" lon="-1.04987">
        <ele>9.4</ele>
        <time>2023-08-06T06:54:17Z</time>
      </trkpt>
      <trkpt lat="45.65767" lon="-1.04988">
        <ele>9.4</ele>
        <time>2023-08-06T06:54:18Z</time>
      </trkpt>
      <trkpt lat="45.65764" lon="-1.04987">
        <ele>9.6</ele>
        <time>2023-08-06T06:54:20Z</time>
      </trkpt>
      <trkpt lat="45.65762" lon="-1.04986">
        <ele>9.6</ele>
        <time>2023-08-06T06:54:21Z</time>
      </trkpt>
      <trkpt lat="45.65754" lon="-1.04977">
        <ele>9.6</ele>
        <time>2023-08-06T06:54:26Z</time>
      </trkpt>
      <trkpt lat="45.65751" lon="-1.04976">
        <ele>9.6</ele>
        <time>2023-08-06T06:54:27Z</time>
      </trkpt>
      <trkpt lat="45.65749" lon="-1.04977">
        <ele>9.6</ele>
        <time>2023-08-06T06:54:28Z</time>
      </trkpt>
      <trkpt lat="45.65747" lon="-1.04983">
        <ele>9.4</ele>
        <time>2023-08-06T06:54:31Z</time>
      </trkpt>
      <trkpt lat="45.65744" lon="-1.04987">
        <ele>9.4</ele>
        <time>2023-08-06T06:54:33Z</time>
      </trkpt>
      <trkpt lat="45.65738" lon="-1.04988">
        <ele>9.8</ele>
        <time>2023-08-06T06:54:35Z</time>
      </trkpt>
      <trkpt lat="45.65725" lon="-1.04989">
        <ele>10.4</ele>
        <time>2023-08-06T06:54:39Z</time>
      </trkpt>
      <trkpt lat="45.6572" lon="-1.04992">
        <ele>10.6</ele>
        <time>2023-08-06T06:54:41Z</time>
      </trkpt>
      <trkpt lat="45.65718" lon="-1.04996">
        <ele>10.8</ele>
        <time>2023-08-06T06:54:43Z</time>
      </trkpt>
      <trkpt lat="45.65717" lon="-1.05">
        <ele>10.8</ele>
        <time>2023-08-06T06:54:45Z</time>
      </trkpt>
      <trkpt lat="45.65718" lon="-1.05014">
        <ele>11</ele>
        <time>2023-08-06T06:54:49Z</time>
      </trkpt>
      <trkpt lat="45.6572" lon="-1.05021">
        <ele>11.2</ele>
        <time>2023-08-06T06:54:51Z</time>
      </trkpt>
      <trkpt lat="45.65721" lon="-1.05031">
        <ele>11.6</ele>
        <time>2023-08-06T06:54:54Z</time>
      </trkpt>
      <trkpt lat="45.65722" lon="-1.05038">
        <ele>11.6</ele>
        <time>2023-08-06T06:54:57Z</time>
      </trkpt>
      <trkpt lat="45.65723" lon="-1.05038">
        <ele>11.6</ele>
        <time>2023-08-06T06:54:59Z</time>
      </trkpt>
      <trkpt lat="45.65721" lon="-1.05035">
        <ele>11.4</ele>
        <time>2023-08-06T06:55:01Z</time>
      </trkpt>
      <trkpt lat="45.6572" lon="-1.05031">
        <ele>11.4</ele>
        <time>2023-08-06T06:55:04Z</time>
      </trkpt>
      <trkpt lat="45.65722" lon="-1.05027">
        <ele>11</ele>
        <time>2023-08-06T06:55:06Z</time>
      </trkpt>
      <trkpt lat="45.65728" lon="-1.05022">
        <ele>10.8</ele>
        <time>2023-08-06T06:55:09Z</time>
      </trkpt>
      <trkpt lat="45.65732" lon="-1.05016">
        <ele>10.6</ele>
        <time>2023-08-06T06:55:12Z</time>
      </trkpt>
      <trkpt lat="45.65735" lon="-1.05017">
        <ele>10.4</ele>
        <time>2023-08-06T06:55:14Z</time>
      </trkpt>
      <trkpt lat="45.65739" lon="-1.05021">
        <ele>10.2</ele>
        <time>2023-08-06T06:55:17Z</time>
      </trkpt>
      <trkpt lat="45.65753" lon="-1.05035">
        <ele>10.6</ele>
        <time>2023-08-06T06:55:24Z</time>
      </trkpt>
      <trkpt lat="45.65761" lon="-1.05047">
        <ele>10.8</ele>
        <time>2023-08-06T06:55:29Z</time>
      </trkpt>
      <trkpt lat="45.6577" lon="-1.05057">
        <ele>10.8</ele>
        <time>2023-08-06T06:55:34Z</time>
      </trkpt>
      <trkpt lat="45.65785" lon="-1.05061">
        <ele>10.2</ele>
        <time>2023-08-06T06:55:39Z</time>
      </trkpt>
      <trkpt lat="45.65798" lon="-1.05068">
        <ele>9.6</ele>
        <time>2023-08-06T06:55:44Z</time>
      </trkpt>
      <trkpt lat="45.658" lon="-1.05071">
        <ele>9.4</ele>
        <time>2023-08-06T06:55:45Z</time>
      </trkpt>
      <trkpt lat="45.65804" lon="-1.05074">
        <ele>9.4</ele>
        <time>2023-08-06T06:55:47Z</time>
      </trkpt>
      <trkpt lat="45.65806" lon="-1.05081">
        <ele>9.2</ele>
        <time>2023-08-06T06:55:49Z</time>
      </trkpt>
      <trkpt lat="45.65816" lon="-1.05101">
        <ele>9.4</ele>
        <time>2023-08-06T06:55:55Z</time>
      </trkpt>
      <trkpt lat="45.65823" lon="-1.05114">
        <ele>9</ele>
        <time>2023-08-06T06:56:00Z</time>
      </trkpt>
      <trkpt lat="45.65824" lon="-1.05117">
        <ele>9</ele>
        <time>2023-08-06T06:56:01Z</time>
      </trkpt>
      <trkpt lat="45.65825" lon="-1.05135">
        <ele>9.6</ele>
        <time>2023-08-06T06:56:06Z</time>
      </trkpt>
      <trkpt lat="45.65827" lon="-1.05154">
        <ele>9.8</ele>
        <time>2023-08-06T06:56:11Z</time>
      </trkpt>
      <trkpt lat="45.65835" lon="-1.05167">
        <ele>9.8</ele>
        <time>2023-08-06T06:56:16Z</time>
      </trkpt>
      <trkpt lat="45.65836" lon="-1.05172">
        <ele>9.8</ele>
        <time>2023-08-06T06:56:17Z</time>
      </trkpt>
      <trkpt lat="45.65841" lon="-1.0519">
        <ele>9.2</ele>
        <time>2023-08-06T06:56:21Z</time>
      </trkpt>
      <trkpt lat="45.6584" lon="-1.05196">
        <ele>9</ele>
        <time>2023-08-06T06:56:22Z</time>
      </trkpt>
      <trkpt lat="45.65837" lon="-1.05223">
        <ele>9.4</ele>
        <time>2023-08-06T06:56:28Z</time>
      </trkpt>
      <trkpt lat="45.65834" lon="-1.0523">
        <ele>9.2</ele>
        <time>2023-08-06T06:56:30Z</time>
      </trkpt>
      <trkpt lat="45.65833" lon="-1.05238">
        <ele>8.8</ele>
        <time>2023-08-06T06:56:32Z</time>
      </trkpt>
      <trkpt lat="45.6583" lon="-1.05255">
        <ele>8.6</ele>
        <time>2023-08-06T06:56:37Z</time>
      </trkpt>
      <trkpt lat="45.65825" lon="-1.05262">
        <ele>8.4</ele>
        <time>2023-08-06T06:56:40Z</time>
      </trkpt>
      <trkpt lat="45.65822" lon="-1.05266">
        <ele>8.4</ele>
        <time>2023-08-06T06:56:42Z</time>
      </trkpt>
      <trkpt lat="45.65819" lon="-1.0527">
        <ele>8.4</ele>
        <time>2023-08-06T06:56:44Z</time>
      </trkpt>
      <trkpt lat="45.65811" lon="-1.05273">
        <ele>8.6</ele>
        <time>2023-08-06T06:56:47Z</time>
      </trkpt>
      <trkpt lat="45.65809" lon="-1.05273">
        <ele>8.6</ele>
        <time>2023-08-06T06:56:48Z</time>
      </trkpt>
      <trkpt lat="45.65806" lon="-1.0528">
        <ele>8.6</ele>
        <time>2023-08-06T06:56:51Z</time>
      </trkpt>
      <trkpt lat="45.65806" lon="-1.05283">
        <ele>8.8</ele>
        <time>2023-08-06T06:56:52Z</time>
      </trkpt>
      <trkpt lat="45.65807" lon="-1.0529">
        <ele>8.6</ele>
        <time>2023-08-06T06:56:54Z</time>
      </trkpt>
      <trkpt lat="45.65807" lon="-1.05294">
        <ele>8.4</ele>
        <time>2023-08-06T06:56:55Z</time>
      </trkpt>
      <trkpt lat="45.65808" lon="-1.05302">
        <ele>7.8</ele>
        <time>2023-08-06T06:56:58Z</time>
      </trkpt>
      <trkpt lat="45.6581" lon="-1.05308">
        <ele>7.4</ele>
        <time>2023-08-06T06:57:00Z</time>
      </trkpt>
      <trkpt lat="45.65811" lon="-1.0531">
        <ele>7</ele>
        <time>2023-08-06T06:57:01Z</time>
      </trkpt>
      <trkpt lat="45.65815" lon="-1.05315">
        <ele>6.8</ele>
        <time>2023-08-06T06:57:03Z</time>
      </trkpt>
      <trkpt lat="45.65819" lon="-1.05317">
        <ele>6.4</ele>
        <time>2023-08-06T06:57:05Z</time>
      </trkpt>
      <trkpt lat="45.6582" lon="-1.05317">
        <ele>6.2</ele>
        <time>2023-08-06T06:57:06Z</time>
      </trkpt>
      <trkpt lat="45.65829" lon="-1.05324">
        <ele>6.2</ele>
        <time>2023-08-06T06:57:10Z</time>
      </trkpt>
      <trkpt lat="45.65833" lon="-1.05327">
        <ele>5.6</ele>
        <time>2023-08-06T06:57:12Z</time>
      </trkpt>
      <trkpt lat="45.65838" lon="-1.05329">
        <ele>5.2</ele>
        <time>2023-08-06T06:57:14Z</time>
      </trkpt>
      <trkpt lat="45.65839" lon="-1.05328">
        <ele>5.2</ele>
        <time>2023-08-06T06:57:15Z</time>
      </trkpt>
      <trkpt lat="45.65842" lon="-1.05327">
        <ele>4.8</ele>
        <time>2023-08-06T06:57:17Z</time>
      </trkpt>
      <trkpt lat="45.65844" lon="-1.05321">
        <ele>5.4</ele>
        <time>2023-08-06T06:57:20Z</time>
      </trkpt>
      <trkpt lat="45.65849" lon="-1.05316">
        <ele>6</ele>
        <time>2023-08-06T06:57:23Z</time>
      </trkpt>
      <trkpt lat="45.65851" lon="-1.05313">
        <ele>6</ele>
        <time>2023-08-06T06:57:24Z</time>
      </trkpt>
      <trkpt lat="45.65857" lon="-1.05305">
        <ele>6</ele>
        <time>2023-08-06T06:57:28Z</time>
      </trkpt>
      <trkpt lat="45.65859" lon="-1.05304">
        <ele>6</ele>
        <time>2023-08-06T06:57:29Z</time>
      </trkpt>
      <trkpt lat="45.65861" lon="-1.05303">
        <ele>5.8</ele>
        <time>2023-08-06T06:57:30Z</time>
      </trkpt>
      <trkpt lat="45.65862" lon="-1.053">
        <ele>5.8</ele>
        <time>2023-08-06T06:57:32Z</time>
      </trkpt>
      <trkpt lat="45.65862" lon="-1.05298">
        <ele>5.8</ele>
        <time>2023-08-06T06:57:33Z</time>
      </trkpt>
      <trkpt lat="45.65864" lon="-1.05296">
        <ele>5.8</ele>
        <time>2023-08-06T06:57:34Z</time>
      </trkpt>
      <trkpt lat="45.65869" lon="-1.05288">
        <ele>5.4</ele>
        <time>2023-08-06T06:57:37Z</time>
      </trkpt>
      <trkpt lat="45.65868" lon="-1.05283">
        <ele>5.4</ele>
        <time>2023-08-06T06:57:39Z</time>
      </trkpt>
      <trkpt lat="45.65866" lon="-1.05282">
        <ele>5.6</ele>
        <time>2023-08-06T06:57:41Z</time>
      </trkpt>
      <trkpt lat="45.65857" lon="-1.05286">
        <ele>6.6</ele>
        <time>2023-08-06T06:57:47Z</time>
      </trkpt>
      <trkpt lat="45.65854" lon="-1.05284">
        <ele>7</ele>
        <time>2023-08-06T06:57:49Z</time>
      </trkpt>
      <trkpt lat="45.65851" lon="-1.05283">
        <ele>7.2</ele>
        <time>2023-08-06T06:57:51Z</time>
      </trkpt>
      <trkpt lat="45.6585" lon="-1.05284">
        <ele>7.4</ele>
        <time>2023-08-06T06:57:52Z</time>
      </trkpt>
      <trkpt lat="45.65849" lon="-1.05288">
        <ele>7.4</ele>
        <time>2023-08-06T06:57:54Z</time>
      </trkpt>
      <trkpt lat="45.65848" lon="-1.05291">
        <ele>7.4</ele>
        <time>2023-08-06T06:57:55Z</time>
      </trkpt>
      <trkpt lat="45.65849" lon="-1.05297">
        <ele>7.2</ele>
        <time>2023-08-06T06:57:58Z</time>
      </trkpt>
      <trkpt lat="45.65846" lon="-1.053">
        <ele>7.2</ele>
        <time>2023-08-06T06:58:00Z</time>
      </trkpt>
      <trkpt lat="45.65835" lon="-1.05298">
        <ele>7.2</ele>
        <time>2023-08-06T06:58:05Z</time>
      </trkpt>
      <trkpt lat="45.65834" lon="-1.05296">
        <ele>7.6</ele>
        <time>2023-08-06T06:58:06Z</time>
      </trkpt>
      <trkpt lat="45.65833" lon="-1.05295">
        <ele>7.8</ele>
        <time>2023-08-06T06:58:07Z</time>
      </trkpt>
      <trkpt lat="45.65833" lon="-1.05292">
        <ele>8</ele>
        <time>2023-08-06T06:58:09Z</time>
      </trkpt>
      <trkpt lat="45.65833" lon="-1.05291">
        <ele>8.2</ele>
        <time>2023-08-06T06:58:10Z</time>
      </trkpt>
      <trkpt lat="45.65836" lon="-1.05286">
        <ele>8.2</ele>
        <time>2023-08-06T06:58:13Z</time>
      </trkpt>
      <trkpt lat="45.65836" lon="-1.05283">
        <ele>8</ele>
        <time>2023-08-06T06:58:14Z</time>
      </trkpt>
      <trkpt lat="45.65837" lon="-1.05278">
        <ele>8.2</ele>
        <time>2023-08-06T06:58:16Z</time>
      </trkpt>
      <trkpt lat="45.65839" lon="-1.05271">
        <ele>8.6</ele>
        <time>2023-08-06T06:58:19Z</time>
      </trkpt>
      <trkpt lat="45.65843" lon="-1.05253">
        <ele>8.8</ele>
        <time>2023-08-06T06:58:26Z</time>
      </trkpt>
      <trkpt lat="45.65839" lon="-1.05233">
        <ele>8.4</ele>
        <time>2023-08-06T06:58:32Z</time>
      </trkpt>
      <trkpt lat="45.65839" lon="-1.05216">
        <ele>8.8</ele>
        <time>2023-08-06T06:58:37Z</time>
      </trkpt>
      <trkpt lat="45.65841" lon="-1.05197">
        <ele>8.2</ele>
        <time>2023-08-06T06:58:42Z</time>
      </trkpt>
      <trkpt lat="45.6584" lon="-1.05193">
        <ele>8.2</ele>
        <time>2023-08-06T06:58:43Z</time>
      </trkpt>
      <trkpt lat="45.65839" lon="-1.05188">
        <ele>8.2</ele>
        <time>2023-08-06T06:58:45Z</time>
      </trkpt>
      <trkpt lat="45.6584" lon="-1.05177">
        <ele>8.2</ele>
        <time>2023-08-06T06:58:48Z</time>
      </trkpt>
      <trkpt lat="45.65841" lon="-1.05162">
        <ele>8.4</ele>
        <time>2023-08-06T06:58:52Z</time>
      </trkpt>
      <trkpt lat="45.65839" lon="-1.05153">
        <ele>8.2</ele>
        <time>2023-08-06T06:58:54Z</time>
      </trkpt>
      <trkpt lat="45.65836" lon="-1.05136">
        <ele>8.2</ele>
        <time>2023-08-06T06:58:59Z</time>
      </trkpt>
      <trkpt lat="45.65835" lon="-1.05128">
        <ele>8.2</ele>
        <time>2023-08-06T06:59:01Z</time>
      </trkpt>
      <trkpt lat="45.65838" lon="-1.05119">
        <ele>8.2</ele>
        <time>2023-08-06T06:59:04Z</time>
      </trkpt>
      <trkpt lat="45.65838" lon="-1.05113">
        <ele>8.2</ele>
        <time>2023-08-06T06:59:06Z</time>
      </trkpt>
      <trkpt lat="45.65839" lon="-1.05107">
        <ele>8</ele>
        <time>2023-08-06T06:59:08Z</time>
      </trkpt>
      <trkpt lat="45.65846" lon="-1.05105">
        <ele>7.8</ele>
        <time>2023-08-06T06:59:12Z</time>
      </trkpt>
      <trkpt lat="45.65853" lon="-1.05105">
        <ele>7</ele>
        <time>2023-08-06T06:59:17Z</time>
      </trkpt>
      <trkpt lat="45.65858" lon="-1.05105">
        <ele>6.8</ele>
        <time>2023-08-06T06:59:20Z</time>
      </trkpt>
      <trkpt lat="45.65859" lon="-1.05104">
        <ele>6</ele>
        <time>2023-08-06T06:59:21Z</time>
      </trkpt>
      <trkpt lat="45.65863" lon="-1.05101">
        <ele>6</ele>
        <time>2023-08-06T06:59:23Z</time>
      </trkpt>
      <trkpt lat="45.65865" lon="-1.05101">
        <ele>5.6</ele>
        <time>2023-08-06T06:59:24Z</time>
      </trkpt>
      <trkpt lat="45.65868" lon="-1.05101">
        <ele>5.4</ele>
        <time>2023-08-06T06:59:25Z</time>
      </trkpt>
      <trkpt lat="45.65873" lon="-1.05106">
        <ele>5</ele>
        <time>2023-08-06T06:59:27Z</time>
      </trkpt>
      <trkpt lat="45.65879" lon="-1.05124">
        <ele>4.8</ele>
        <time>2023-08-06T06:59:31Z</time>
      </trkpt>
      <trkpt lat="45.6588" lon="-1.05129">
        <ele>4.8</ele>
        <time>2023-08-06T06:59:32Z</time>
      </trkpt>
      <trkpt lat="45.65884" lon="-1.05139">
        <ele>4.8</ele>
        <time>2023-08-06T06:59:34Z</time>
      </trkpt>
      <trkpt lat="45.65887" lon="-1.05157">
        <ele>4.6</ele>
        <time>2023-08-06T06:59:37Z</time>
      </trkpt>
      <trkpt lat="45.65889" lon="-1.05163">
        <ele>4.6</ele>
        <time>2023-08-06T06:59:38Z</time>
      </trkpt>
      <trkpt lat="45.65897" lon="-1.05175">
        <ele>4.8</ele>
        <time>2023-08-06T06:59:40Z</time>
      </trkpt>
      <trkpt lat="45.65901" lon="-1.0518">
        <ele>4.8</ele>
        <time>2023-08-06T06:59:41Z</time>
      </trkpt>
      <trkpt lat="45.65909" lon="-1.05193">
        <ele>4.6</ele>
        <time>2023-08-06T06:59:43Z</time>
      </trkpt>
      <trkpt lat="45.65912" lon="-1.05208">
        <ele>4.2</ele>
        <time>2023-08-06T06:59:45Z</time>
      </trkpt>
      <trkpt lat="45.65911" lon="-1.05223">
        <ele>4</ele>
        <time>2023-08-06T06:59:47Z</time>
      </trkpt>
      <trkpt lat="45.65909" lon="-1.05231">
        <ele>4</ele>
        <time>2023-08-06T06:59:48Z</time>
      </trkpt>
      <trkpt lat="45.6591" lon="-1.0524">
        <ele>4</ele>
        <time>2023-08-06T06:59:49Z</time>
      </trkpt>
      <trkpt lat="45.65914" lon="-1.05255">
        <ele>4.6</ele>
        <time>2023-08-06T06:59:51Z</time>
      </trkpt>
      <trkpt lat="45.65926" lon="-1.05294">
        <ele>5.6</ele>
        <time>2023-08-06T06:59:56Z</time>
      </trkpt>
      <trkpt lat="45.6593" lon="-1.05313">
        <ele>5.6</ele>
        <time>2023-08-06T06:59:58Z</time>
      </trkpt>
      <trkpt lat="45.65941" lon="-1.05336">
        <ele>6</ele>
        <time>2023-08-06T07:00:01Z</time>
      </trkpt>
      <trkpt lat="45.65954" lon="-1.05361">
        <ele>6.8</ele>
        <time>2023-08-06T07:00:05Z</time>
      </trkpt>
      <trkpt lat="45.65961" lon="-1.05371">
        <ele>7.2</ele>
        <time>2023-08-06T07:00:07Z</time>
      </trkpt>
      <trkpt lat="45.65972" lon="-1.05387">
        <ele>8</ele>
        <time>2023-08-06T07:00:10Z</time>
      </trkpt>
      <trkpt lat="45.65983" lon="-1.05403">
        <ele>8.8</ele>
        <time>2023-08-06T07:00:13Z</time>
      </trkpt>
      <trkpt lat="45.65987" lon="-1.05409">
        <ele>9</ele>
        <time>2023-08-06T07:00:14Z</time>
      </trkpt>
      <trkpt lat="45.66002" lon="-1.05444">
        <ele>9.8</ele>
        <time>2023-08-06T07:00:19Z</time>
      </trkpt>
      <trkpt lat="45.66005" lon="-1.05467">
        <ele>10</ele>
        <time>2023-08-06T07:00:22Z</time>
      </trkpt>
      <trkpt lat="45.66004" lon="-1.05482">
        <ele>10</ele>
        <time>2023-08-06T07:00:24Z</time>
      </trkpt>
      <trkpt lat="45.66003" lon="-1.05488">
        <ele>10.2</ele>
        <time>2023-08-06T07:00:25Z</time>
      </trkpt>
      <trkpt lat="45.65999" lon="-1.05498">
        <ele>10.8</ele>
        <time>2023-08-06T07:00:27Z</time>
      </trkpt>
      <trkpt lat="45.65996" lon="-1.05505">
        <ele>11</ele>
        <time>2023-08-06T07:00:28Z</time>
      </trkpt>
      <trkpt lat="45.65993" lon="-1.05511">
        <ele>11</ele>
        <time>2023-08-06T07:00:29Z</time>
      </trkpt>
      <trkpt lat="45.65982" lon="-1.05526">
        <ele>11.2</ele>
        <time>2023-08-06T07:00:32Z</time>
      </trkpt>
      <trkpt lat="45.65976" lon="-1.05536">
        <ele>11.2</ele>
        <time>2023-08-06T07:00:34Z</time>
      </trkpt>
      <trkpt lat="45.6597" lon="-1.0555">
        <ele>10.8</ele>
        <time>2023-08-06T07:00:36Z</time>
      </trkpt>
      <trkpt lat="45.65967" lon="-1.05564">
        <ele>11</ele>
        <time>2023-08-06T07:00:38Z</time>
      </trkpt>
      <trkpt lat="45.65964" lon="-1.0558">
        <ele>11.4</ele>
        <time>2023-08-06T07:00:40Z</time>
      </trkpt>
      <trkpt lat="45.65962" lon="-1.05603">
        <ele>11.6</ele>
        <time>2023-08-06T07:00:43Z</time>
      </trkpt>
      <trkpt lat="45.65965" lon="-1.05617">
        <ele>11.6</ele>
        <time>2023-08-06T07:00:45Z</time>
      </trkpt>
      <trkpt lat="45.65969" lon="-1.05632">
        <ele>11.6</ele>
        <time>2023-08-06T07:00:47Z</time>
      </trkpt>
      <trkpt lat="45.6597" lon="-1.05648">
        <ele>11.4</ele>
        <time>2023-08-06T07:00:49Z</time>
      </trkpt>
      <trkpt lat="45.65967" lon="-1.05655">
        <ele>11.2</ele>
        <time>2023-08-06T07:00:50Z</time>
      </trkpt>
      <trkpt lat="45.65964" lon="-1.05662">
        <ele>11.4</ele>
        <time>2023-08-06T07:00:51Z</time>
      </trkpt>
      <trkpt lat="45.65955" lon="-1.05674">
        <ele>11.6</ele>
        <time>2023-08-06T07:00:53Z</time>
      </trkpt>
      <trkpt lat="45.65952" lon="-1.0568">
        <ele>11.6</ele>
        <time>2023-08-06T07:00:54Z</time>
      </trkpt>
      <trkpt lat="45.6595" lon="-1.05688">
        <ele>11.6</ele>
        <time>2023-08-06T07:00:55Z</time>
      </trkpt>
      <trkpt lat="45.65951" lon="-1.05701">
        <ele>11.6</ele>
        <time>2023-08-06T07:00:57Z</time>
      </trkpt>
      <trkpt lat="45.65963" lon="-1.05731">
        <ele>11.8</ele>
        <time>2023-08-06T07:01:02Z</time>
      </trkpt>
      <trkpt lat="45.65979" lon="-1.05772">
        <ele>11.6</ele>
        <time>2023-08-06T07:01:08Z</time>
      </trkpt>
      <trkpt lat="45.65989" lon="-1.058">
        <ele>11.4</ele>
        <time>2023-08-06T07:01:12Z</time>
      </trkpt>
      <trkpt lat="45.66003" lon="-1.05842">
        <ele>11.8</ele>
        <time>2023-08-06T07:01:18Z</time>
      </trkpt>
      <trkpt lat="45.66009" lon="-1.05865">
        <ele>11.8</ele>
        <time>2023-08-06T07:01:21Z</time>
      </trkpt>
      <trkpt lat="45.66008" lon="-1.05881">
        <ele>11.8</ele>
        <time>2023-08-06T07:01:23Z</time>
      </trkpt>
      <trkpt lat="45.66001" lon="-1.05893">
        <ele>11.8</ele>
        <time>2023-08-06T07:01:25Z</time>
      </trkpt>
      <trkpt lat="45.65996" lon="-1.05898">
        <ele>11.6</ele>
        <time>2023-08-06T07:01:26Z</time>
      </trkpt>
      <trkpt lat="45.65965" lon="-1.05927">
        <ele>12</ele>
        <time>2023-08-06T07:01:33Z</time>
      </trkpt>
      <trkpt lat="45.65959" lon="-1.05935">
        <ele>12</ele>
        <time>2023-08-06T07:01:35Z</time>
      </trkpt>
      <trkpt lat="45.65955" lon="-1.05945">
        <ele>12</ele>
        <time>2023-08-06T07:01:37Z</time>
      </trkpt>
      <trkpt lat="45.65957" lon="-1.05957">
        <ele>12</ele>
        <time>2023-08-06T07:01:39Z</time>
      </trkpt>
      <trkpt lat="45.6596" lon="-1.05963">
        <ele>12.2</ele>
        <time>2023-08-06T07:01:40Z</time>
      </trkpt>
      <trkpt lat="45.65968" lon="-1.05973">
        <ele>12.8</ele>
        <time>2023-08-06T07:01:41Z</time>
      </trkpt>
      <trkpt lat="45.65977" lon="-1.05982">
        <ele>13.2</ele>
        <time>2023-08-06T07:01:44Z</time>
      </trkpt>
      <trkpt lat="45.65992" lon="-1.05996">
        <ele>13.4</ele>
        <time>2023-08-06T07:01:47Z</time>
      </trkpt>
      <trkpt lat="45.66021" lon="-1.06022">
        <ele>13.4</ele>
        <time>2023-08-06T07:01:53Z</time>
      </trkpt>
      <trkpt lat="45.66042" lon="-1.06036">
        <ele>13.2</ele>
        <time>2023-08-06T07:01:57Z</time>
      </trkpt>
      <trkpt lat="45.66053" lon="-1.0604">
        <ele>13</ele>
        <time>2023-08-06T07:01:59Z</time>
      </trkpt>
      <trkpt lat="45.66059" lon="-1.06041">
        <ele>13</ele>
        <time>2023-08-06T07:02:00Z</time>
      </trkpt>
      <trkpt lat="45.66084" lon="-1.0604">
        <ele>12.6</ele>
        <time>2023-08-06T07:02:04Z</time>
      </trkpt>
      <trkpt lat="45.6609" lon="-1.06038">
        <ele>12.4</ele>
        <time>2023-08-06T07:02:05Z</time>
      </trkpt>
      <trkpt lat="45.66104" lon="-1.06035">
        <ele>11.8</ele>
        <time>2023-08-06T07:02:07Z</time>
      </trkpt>
      <trkpt lat="45.66117" lon="-1.06027">
        <ele>11.2</ele>
        <time>2023-08-06T07:02:09Z</time>
      </trkpt>
      <trkpt lat="45.66141" lon="-1.06004">
        <ele>10</ele>
        <time>2023-08-06T07:02:13Z</time>
      </trkpt>
      <trkpt lat="45.66147" lon="-1.05997">
        <ele>10</ele>
        <time>2023-08-06T07:02:14Z</time>
      </trkpt>
      <trkpt lat="45.66175" lon="-1.05974">
        <ele>8.8</ele>
        <time>2023-08-06T07:02:18Z</time>
      </trkpt>
      <trkpt lat="45.6619" lon="-1.05965">
        <ele>8.2</ele>
        <time>2023-08-06T07:02:20Z</time>
      </trkpt>
      <trkpt lat="45.66206" lon="-1.05957">
        <ele>7.6</ele>
        <time>2023-08-06T07:02:22Z</time>
      </trkpt>
      <trkpt lat="45.66229" lon="-1.05949">
        <ele>6.4</ele>
        <time>2023-08-06T07:02:25Z</time>
      </trkpt>
      <trkpt lat="45.66258" lon="-1.05947">
        <ele>4.4</ele>
        <time>2023-08-06T07:02:29Z</time>
      </trkpt>
      <trkpt lat="45.66264" lon="-1.05948">
        <ele>3.8</ele>
        <time>2023-08-06T07:02:30Z</time>
      </trkpt>
      <trkpt lat="45.66269" lon="-1.05949">
        <ele>3.2</ele>
        <time>2023-08-06T07:02:31Z</time>
      </trkpt>
      <trkpt lat="45.66277" lon="-1.0595">
        <ele>2</ele>
        <time>2023-08-06T07:02:33Z</time>
      </trkpt>
      <trkpt lat="45.66282" lon="-1.0595">
        <ele>1.6</ele>
        <time>2023-08-06T07:02:34Z</time>
      </trkpt>
      <trkpt lat="45.66286" lon="-1.05948">
        <ele>1.2</ele>
        <time>2023-08-06T07:02:35Z</time>
      </trkpt>
      <trkpt lat="45.6629" lon="-1.05947">
        <ele>0.8</ele>
        <time>2023-08-06T07:02:36Z</time>
      </trkpt>
      <trkpt lat="45.66298" lon="-1.05944">
        <ele>10.3</ele>
        <time>2023-08-06T07:02:38Z</time>
      </trkpt>
      <trkpt lat="45.66301" lon="-1.05941">
        <ele>-0.2</ele>
        <time>2023-08-06T07:02:39Z</time>
      </trkpt>
      <trkpt lat="45.66304" lon="-1.05938">
        <ele>-0.4</ele>
        <time>2023-08-06T07:02:40Z</time>
      </trkpt>
      <trkpt lat="45.66306" lon="-1.05933">
        <ele>-0.8</ele>
        <time>2023-08-06T07:02:42Z</time>
      </trkpt>
      <trkpt lat="45.66306" lon="-1.05931">
        <ele>-1</ele>
        <time>2023-08-06T07:02:43Z</time>
      </trkpt>
      <trkpt lat="45.66306" lon="-1.05913">
        <ele>-0.8</ele>
        <time>2023-08-06T07:02:47Z</time>
      </trkpt>
      <trkpt lat="45.663" lon="-1.0586">
        <ele>-1.2</ele>
        <time>2023-08-06T07:02:55Z</time>
      </trkpt>
      <trkpt lat="45.66297" lon="-1.05847">
        <ele>-1.2</ele>
        <time>2023-08-06T07:02:57Z</time>
      </trkpt>
      <trkpt lat="45.66296" lon="-1.0584">
        <ele>-1.2</ele>
        <time>2023-08-06T07:02:58Z</time>
      </trkpt>
      <trkpt lat="45.66291" lon="-1.05828">
        <ele>-1.2</ele>
        <time>2023-08-06T07:03:00Z</time>
      </trkpt>
      <trkpt lat="45.66287" lon="-1.05822">
        <ele>-1.2</ele>
        <time>2023-08-06T07:03:01Z</time>
      </trkpt>
      <trkpt lat="45.66275" lon="-1.05804">
        <ele>-0.6</ele>
        <time>2023-08-06T07:03:04Z</time>
      </trkpt>
      <trkpt lat="45.66264" lon="-1.05784">
        <ele>-0.2</ele>
        <time>2023-08-06T07:03:07Z</time>
      </trkpt>
      <trkpt lat="45.6626" lon="-1.05777">
        <ele>-0.2</ele>
        <time>2023-08-06T07:03:08Z</time>
      </trkpt>
      <trkpt lat="45.66242" lon="-1.05742">
        <ele>-0.6</ele>
        <time>2023-08-06T07:03:14Z</time>
      </trkpt>
      <trkpt lat="45.66239" lon="-1.05736">
        <ele>-0.4</ele>
        <time>2023-08-06T07:03:15Z</time>
      </trkpt>
      <trkpt lat="45.66235" lon="-1.05715">
        <ele>10.4</ele>
        <time>2023-08-06T07:03:18Z</time>
      </trkpt>
      <trkpt lat="45.66234" lon="-1.05709">
        <ele>10.4</ele>
        <time>2023-08-06T07:03:19Z</time>
      </trkpt>
      <trkpt lat="45.66233" lon="-1.05696">
        <ele>-0.2</ele>
        <time>2023-08-06T07:03:21Z</time>
      </trkpt>
      <trkpt lat="45.66234" lon="-1.05683">
        <ele>-0.4</ele>
        <time>2023-08-06T07:03:23Z</time>
      </trkpt>
      <trkpt lat="45.66234" lon="-1.05676">
        <ele>-0.4</ele>
        <time>2023-08-06T07:03:24Z</time>
      </trkpt>
      <trkpt lat="45.66236" lon="-1.05642">
        <ele>-0.4</ele>
        <time>2023-08-06T07:03:29Z</time>
      </trkpt>
      <trkpt lat="45.66235" lon="-1.05602">
        <ele>-0.4</ele>
        <time>2023-08-06T07:03:35Z</time>
      </trkpt>
      <trkpt lat="45.66234" lon="-1.05596">
        <ele>-0.4</ele>
        <time>2023-08-06T07:03:36Z</time>
      </trkpt>
      <trkpt lat="45.66228" lon="-1.05556">
        <ele>-0.6</ele>
        <time>2023-08-06T07:03:42Z</time>
      </trkpt>
      <trkpt lat="45.66227" lon="-1.05549">
        <ele>-0.4</ele>
        <time>2023-08-06T07:03:43Z</time>
      </trkpt>
      <trkpt lat="45.66224" lon="-1.05517">
        <ele>10.9</ele>
        <time>2023-08-06T07:03:48Z</time>
      </trkpt>
      <trkpt lat="45.66225" lon="-1.05497">
        <ele>0.2</ele>
        <time>2023-08-06T07:03:51Z</time>
      </trkpt>
      <trkpt lat="45.66227" lon="-1.05478">
        <ele>10.7</ele>
        <time>2023-08-06T07:03:54Z</time>
      </trkpt>
      <trkpt lat="45.66228" lon="-1.05471">
        <ele>-0.2</ele>
        <time>2023-08-06T07:03:55Z</time>
      </trkpt>
      <trkpt lat="45.66232" lon="-1.05438">
        <ele>-0.2</ele>
        <time>2023-08-06T07:04:00Z</time>
      </trkpt>
      <trkpt lat="45.66235" lon="-1.05426">
        <ele>0.2</ele>
        <time>2023-08-06T07:04:02Z</time>
      </trkpt>
      <trkpt lat="45.66238" lon="-1.05415">
        <ele>0.6</ele>
        <time>2023-08-06T07:04:04Z</time>
      </trkpt>
      <trkpt lat="45.66239" lon="-1.05405">
        <ele>0.8</ele>
        <time>2023-08-06T07:04:06Z</time>
      </trkpt>
      <trkpt lat="45.66239" lon="-1.05401">
        <ele>0.8</ele>
        <time>2023-08-06T07:04:07Z</time>
      </trkpt>
      <trkpt lat="45.66241" lon="-1.05388">
        <ele>-0.4</ele>
        <time>2023-08-06T07:04:10Z</time>
      </trkpt>
      <trkpt lat="45.66242" lon="-1.05376">
        <ele>-0.4</ele>
        <time>2023-08-06T07:04:13Z</time>
      </trkpt>
      <trkpt lat="45.66242" lon="-1.05368">
        <ele>-0.4</ele>
        <time>2023-08-06T07:04:15Z</time>
      </trkpt>
      <trkpt lat="45.66243" lon="-1.05353">
        <ele>-0.2</ele>
        <time>2023-08-06T07:04:18Z</time>
      </trkpt>
      <trkpt lat="45.66243" lon="-1.05341">
        <ele>10.3</ele>
        <time>2023-08-06T07:04:20Z</time>
      </trkpt>
      <trkpt lat="45.66245" lon="-1.05326">
        <ele>10.2</ele>
        <time>2023-08-06T07:04:22Z</time>
      </trkpt>
      <trkpt lat="45.66247" lon="-1.05319">
        <ele>10.1</ele>
        <time>2023-08-06T07:04:23Z</time>
      </trkpt>
      <trkpt lat="45.6625" lon="-1.05298">
        <ele>-0.2</ele>
        <time>2023-08-06T07:04:26Z</time>
      </trkpt>
      <trkpt lat="45.66251" lon="-1.05283">
        <ele>-0.2</ele>
        <time>2023-08-06T07:04:28Z</time>
      </trkpt>
      <trkpt lat="45.66253" lon="-1.05276">
        <ele>-0.4</ele>
        <time>2023-08-06T07:04:29Z</time>
      </trkpt>
      <trkpt lat="45.66256" lon="-1.05254">
        <ele>-0.8</ele>
        <time>2023-08-06T07:04:32Z</time>
      </trkpt>
      <trkpt lat="45.66256" lon="-1.05247">
        <ele>-0.2</ele>
        <time>2023-08-06T07:04:33Z</time>
      </trkpt>
      <trkpt lat="45.66257" lon="-1.05228">
        <ele>0.8</ele>
        <time>2023-08-06T07:04:36Z</time>
      </trkpt>
      <trkpt lat="45.66259" lon="-1.05209">
        <ele>1.8</ele>
        <time>2023-08-06T07:04:40Z</time>
      </trkpt>
      <trkpt lat="45.66261" lon="-1.05192">
        <ele>3</ele>
        <time>2023-08-06T07:04:44Z</time>
      </trkpt>
      <trkpt lat="45.66262" lon="-1.05184">
        <ele>4.4</ele>
        <time>2023-08-06T07:04:46Z</time>
      </trkpt>
      <trkpt lat="45.66263" lon="-1.05166">
        <ele>5.6</ele>
        <time>2023-08-06T07:04:50Z</time>
      </trkpt>
      <trkpt lat="45.66263" lon="-1.05162">
        <ele>6.2</ele>
        <time>2023-08-06T07:04:51Z</time>
      </trkpt>
      <trkpt lat="45.66264" lon="-1.05153">
        <ele>6.6</ele>
        <time>2023-08-06T07:04:53Z</time>
      </trkpt>
      <trkpt lat="45.66263" lon="-1.0514">
        <ele>7.8</ele>
        <time>2023-08-06T07:04:56Z</time>
      </trkpt>
      <trkpt lat="45.66263" lon="-1.05127">
        <ele>8.6</ele>
        <time>2023-08-06T07:04:59Z</time>
      </trkpt>
      <trkpt lat="45.66262" lon="-1.05122">
        <ele>8.8</ele>
        <time>2023-08-06T07:05:00Z</time>
      </trkpt>
      <trkpt lat="45.66262" lon="-1.05118">
        <ele>9</ele>
        <time>2023-08-06T07:05:01Z</time>
      </trkpt>
      <trkpt lat="45.66261" lon="-1.05092">
        <ele>9.8</ele>
        <time>2023-08-06T07:05:06Z</time>
      </trkpt>
      <trkpt lat="45.66261" lon="-1.05087">
        <ele>9.8</ele>
        <time>2023-08-06T07:05:07Z</time>
      </trkpt>
      <trkpt lat="45.66257" lon="-1.05068">
        <ele>10.4</ele>
        <time>2023-08-06T07:05:12Z</time>
      </trkpt>
      <trkpt lat="45.6625" lon="-1.05069">
        <ele>10.6</ele>
        <time>2023-08-06T07:05:15Z</time>
      </trkpt>
      <trkpt lat="45.66249" lon="-1.0507">
        <ele>10.6</ele>
        <time>2023-08-06T07:05:16Z</time>
      </trkpt>
      <trkpt lat="45.66248" lon="-1.05073">
        <ele>10.8</ele>
        <time>2023-08-06T07:05:17Z</time>
      </trkpt>
      <trkpt lat="45.66247" lon="-1.05087">
        <ele>10.6</ele>
        <time>2023-08-06T07:05:21Z</time>
      </trkpt>
      <trkpt lat="45.66247" lon="-1.05096">
        <ele>10.6</ele>
        <time>2023-08-06T07:05:24Z</time>
      </trkpt>
      <trkpt lat="45.66245" lon="-1.05098">
        <ele>10.4</ele>
        <time>2023-08-06T07:05:25Z</time>
      </trkpt>
      <trkpt lat="45.66244" lon="-1.05098">
        <ele>10.4</ele>
        <time>2023-08-06T07:05:26Z</time>
      </trkpt>
      <trkpt lat="45.66238" lon="-1.05097">
        <ele>10.6</ele>
        <time>2023-08-06T07:05:29Z</time>
      </trkpt>
      <trkpt lat="45.66237" lon="-1.05098">
        <ele>10.6</ele>
        <time>2023-08-06T07:05:30Z</time>
      </trkpt>
      <trkpt lat="45.66231" lon="-1.05101">
        <ele>10.6</ele>
        <time>2023-08-06T07:05:33Z</time>
      </trkpt>
      <trkpt lat="45.66227" lon="-1.051">
        <ele>10.6</ele>
        <time>2023-08-06T07:05:35Z</time>
      </trkpt>
      <trkpt lat="45.66225" lon="-1.051">
        <ele>10.4</ele>
        <time>2023-08-06T07:05:36Z</time>
      </trkpt>
      <trkpt lat="45.66219" lon="-1.05104">
        <ele>10.4</ele>
        <time>2023-08-06T07:05:39Z</time>
      </trkpt>
      <trkpt lat="45.66213" lon="-1.05108">
        <ele>10.4</ele>
        <time>2023-08-06T07:05:41Z</time>
      </trkpt>
      <trkpt lat="45.66208" lon="-1.05109">
        <ele>9.8</ele>
        <time>2023-08-06T07:05:43Z</time>
      </trkpt>
      <trkpt lat="45.66207" lon="-1.05108">
        <ele>9.6</ele>
        <time>2023-08-06T07:05:44Z</time>
      </trkpt>
      <trkpt lat="45.66203" lon="-1.05106">
        <ele>9.2</ele>
        <time>2023-08-06T07:05:46Z</time>
      </trkpt>
      <trkpt lat="45.66197" lon="-1.05102">
        <ele>8.8</ele>
        <time>2023-08-06T07:05:48Z</time>
      </trkpt>
      <trkpt lat="45.66182" lon="-1.05087">
        <ele>9.8</ele>
        <time>2023-08-06T07:05:54Z</time>
      </trkpt>
      <trkpt lat="45.66177" lon="-1.0507">
        <ele>11</ele>
        <time>2023-08-06T07:05:59Z</time>
      </trkpt>
      <trkpt lat="45.66176" lon="-1.05067">
        <ele>11.2</ele>
        <time>2023-08-06T07:06:00Z</time>
      </trkpt>
      <trkpt lat="45.66167" lon="-1.05056">
        <ele>12</ele>
        <time>2023-08-06T07:06:04Z</time>
      </trkpt>
      <trkpt lat="45.66165" lon="-1.05054">
        <ele>12</ele>
        <time>2023-08-06T07:06:05Z</time>
      </trkpt>
      <trkpt lat="45.66153" lon="-1.05059">
        <ele>12</ele>
        <time>2023-08-06T07:06:09Z</time>
      </trkpt>
      <trkpt lat="45.6615" lon="-1.0506">
        <ele>12</ele>
        <time>2023-08-06T07:06:10Z</time>
      </trkpt>
      <trkpt lat="45.66143" lon="-1.05059">
        <ele>11.8</ele>
        <time>2023-08-06T07:06:12Z</time>
      </trkpt>
      <trkpt lat="45.66141" lon="-1.05057">
        <ele>11.8</ele>
        <time>2023-08-06T07:06:13Z</time>
      </trkpt>
      <trkpt lat="45.66138" lon="-1.0505">
        <ele>12</ele>
        <time>2023-08-06T07:06:17Z</time>
      </trkpt>
      <trkpt lat="45.66137" lon="-1.0505">
        <ele>12</ele>
        <time>2023-08-06T07:06:18Z</time>
      </trkpt>
      <trkpt lat="45.66128" lon="-1.05044">
        <ele>12.2</ele>
        <time>2023-08-06T07:06:22Z</time>
      </trkpt>
      <trkpt lat="45.66123" lon="-1.0504">
        <ele>12.4</ele>
        <time>2023-08-06T07:06:24Z</time>
      </trkpt>
      <trkpt lat="45.66117" lon="-1.05042">
        <ele>12.6</ele>
        <time>2023-08-06T07:06:26Z</time>
      </trkpt>
      <trkpt lat="45.66106" lon="-1.05045">
        <ele>12.2</ele>
        <time>2023-08-06T07:06:30Z</time>
      </trkpt>
      <trkpt lat="45.66104" lon="-1.05045">
        <ele>12</ele>
        <time>2023-08-06T07:06:31Z</time>
      </trkpt>
      <trkpt lat="45.66093" lon="-1.05053">
        <ele>11.4</ele>
        <time>2023-08-06T07:06:36Z</time>
      </trkpt>
      <trkpt lat="45.6609" lon="-1.05054">
        <ele>11.2</ele>
        <time>2023-08-06T07:06:37Z</time>
      </trkpt>
      <trkpt lat="45.66085" lon="-1.05052">
        <ele>9.8</ele>
        <time>2023-08-06T07:06:38Z</time>
      </trkpt>
      <trkpt lat="45.66085" lon="-1.05052">
        <ele>9.8</ele>
        <time>2023-08-06T07:06:39Z</time>
      </trkpt>
      <trkpt lat="45.66082" lon="-1.05052">
        <ele>9.6</ele>
        <time>2023-08-06T07:06:40Z</time>
      </trkpt>
      <trkpt lat="45.66073" lon="-1.05053">
        <ele>9.2</ele>
        <time>2023-08-06T07:06:43Z</time>
      </trkpt>
      <trkpt lat="45.66067" lon="-1.05052">
        <ele>9.2</ele>
        <time>2023-08-06T07:06:45Z</time>
      </trkpt>
      <trkpt lat="45.66065" lon="-1.05048">
        <ele>9.4</ele>
        <time>2023-08-06T07:06:47Z</time>
      </trkpt>
      <trkpt lat="45.66062" lon="-1.05046">
        <ele>9.8</ele>
        <time>2023-08-06T07:06:49Z</time>
      </trkpt>
      <trkpt lat="45.66054" lon="-1.05043">
        <ele>10.6</ele>
        <time>2023-08-06T07:06:52Z</time>
      </trkpt>
      <trkpt lat="45.66035" lon="-1.0504">
        <ele>10.8</ele>
        <time>2023-08-06T07:06:58Z</time>
      </trkpt>
      <trkpt lat="45.66031" lon="-1.05039">
        <ele>10.8</ele>
        <time>2023-08-06T07:06:59Z</time>
      </trkpt>
      <trkpt lat="45.66025" lon="-1.05038">
        <ele>11</ele>
        <time>2023-08-06T07:07:01Z</time>
      </trkpt>
      <trkpt lat="45.66023" lon="-1.05036">
        <ele>11</ele>
        <time>2023-08-06T07:07:02Z</time>
      </trkpt>
      <trkpt lat="45.66022" lon="-1.05033">
        <ele>11.2</ele>
        <time>2023-08-06T07:07:03Z</time>
      </trkpt>
      <trkpt lat="45.66021" lon="-1.05025">
        <ele>11.6</ele>
        <time>2023-08-06T07:07:06Z</time>
      </trkpt>
      <trkpt lat="45.66018" lon="-1.05011">
        <ele>12</ele>
        <time>2023-08-06T07:07:10Z</time>
      </trkpt>
      <trkpt lat="45.66017" lon="-1.05004">
        <ele>12.2</ele>
        <time>2023-08-06T07:07:12Z</time>
      </trkpt>
      <trkpt lat="45.66015" lon="-1.04999">
        <ele>12.4</ele>
        <time>2023-08-06T07:07:14Z</time>
      </trkpt>
      <trkpt lat="45.66011" lon="-1.04995">
        <ele>12.4</ele>
        <time>2023-08-06T07:07:16Z</time>
      </trkpt>
      <trkpt lat="45.66005" lon="-1.04983">
        <ele>12.4</ele>
        <time>2023-08-06T07:07:21Z</time>
      </trkpt>
      <trkpt lat="45.65989" lon="-1.04975">
        <ele>12.2</ele>
        <time>2023-08-06T07:07:26Z</time>
      </trkpt>
      <trkpt lat="45.65982" lon="-1.04973">
        <ele>12</ele>
        <time>2023-08-06T07:07:28Z</time>
      </trkpt>
      <trkpt lat="45.65968" lon="-1.04966">
        <ele>11.4</ele>
        <time>2023-08-06T07:07:32Z</time>
      </trkpt>
      <trkpt lat="45.65965" lon="-1.04964">
        <ele>11.2</ele>
        <time>2023-08-06T07:07:33Z</time>
      </trkpt>
      <trkpt lat="45.65963" lon="-1.04961">
        <ele>11</ele>
        <time>2023-08-06T07:07:34Z</time>
      </trkpt>
      <trkpt lat="45.65956" lon="-1.04954">
        <ele>10.6</ele>
        <time>2023-08-06T07:07:37Z</time>
      </trkpt>
      <trkpt lat="45.65951" lon="-1.04945">
        <ele>10.4</ele>
        <time>2023-08-06T07:07:41Z</time>
      </trkpt>
      <trkpt lat="45.65944" lon="-1.04938">
        <ele>10</ele>
        <time>2023-08-06T07:07:45Z</time>
      </trkpt>
      <trkpt lat="45.65943" lon="-1.04939">
        <ele>9.8</ele>
        <time>2023-08-06T07:07:46Z</time>
      </trkpt>
      <trkpt lat="45.65943" lon="-1.04939">
        <ele>9.8</ele>
        <time>2023-08-06T07:07:47Z</time>
      </trkpt>
      <trkpt lat="45.65943" lon="-1.04941">
        <ele>9.6</ele>
        <time>2023-08-06T07:07:49Z</time>
      </trkpt>
      <trkpt lat="45.65943" lon="-1.04943">
        <ele>9.6</ele>
        <time>2023-08-06T07:07:52Z</time>
      </trkpt>
      <trkpt lat="45.65946" lon="-1.04951">
        <ele>9</ele>
        <time>2023-08-06T07:07:56Z</time>
      </trkpt>
      <trkpt lat="45.65949" lon="-1.04955">
        <ele>9</ele>
        <time>2023-08-06T07:07:58Z</time>
      </trkpt>
      <trkpt lat="45.65953" lon="-1.04967">
        <ele>9.2</ele>
        <time>2023-08-06T07:08:04Z</time>
      </trkpt>
      <trkpt lat="45.65959" lon="-1.0498">
        <ele>9.2</ele>
        <time>2023-08-06T07:08:08Z</time>
      </trkpt>
      <trkpt lat="45.65962" lon="-1.04993">
        <ele>8.8</ele>
        <time>2023-08-06T07:08:12Z</time>
      </trkpt>
      <trkpt lat="45.65964" lon="-1.04995">
        <ele>8.6</ele>
        <time>2023-08-06T07:08:13Z</time>
      </trkpt>
      <trkpt lat="45.65971" lon="-1.05001">
        <ele>8.6</ele>
        <time>2023-08-06T07:08:16Z</time>
      </trkpt>
      <trkpt lat="45.65973" lon="-1.05007">
        <ele>8.6</ele>
        <time>2023-08-06T07:08:18Z</time>
      </trkpt>
      <trkpt lat="45.65967" lon="-1.05014">
        <ele>8</ele>
        <time>2023-08-06T07:08:21Z</time>
      </trkpt>
      <trkpt lat="45.65965" lon="-1.05016">
        <ele>7.8</ele>
        <time>2023-08-06T07:08:22Z</time>
      </trkpt>
      <trkpt lat="45.65956" lon="-1.05016">
        <ele>6.8</ele>
        <time>2023-08-06T07:08:26Z</time>
      </trkpt>
      <trkpt lat="45.65955" lon="-1.05014">
        <ele>6.6</ele>
        <time>2023-08-06T07:08:27Z</time>
      </trkpt>
      <trkpt lat="45.65952" lon="-1.05006">
        <ele>6.4</ele>
        <time>2023-08-06T07:08:30Z</time>
      </trkpt>
      <trkpt lat="45.65947" lon="-1.04995">
        <ele>7</ele>
        <time>2023-08-06T07:08:35Z</time>
      </trkpt>
      <trkpt lat="45.65939" lon="-1.0499">
        <ele>6.8</ele>
        <time>2023-08-06T07:08:40Z</time>
      </trkpt>
      <trkpt lat="45.65938" lon="-1.04989">
        <ele>6.8</ele>
        <time>2023-08-06T07:08:41Z</time>
      </trkpt>
      <trkpt lat="45.65937" lon="-1.04982">
        <ele>6.8</ele>
        <time>2023-08-06T07:08:44Z</time>
      </trkpt>
      <trkpt lat="45.65937" lon="-1.04981">
        <ele>6.8</ele>
        <time>2023-08-06T07:08:45Z</time>
      </trkpt>
      <trkpt lat="45.65936" lon="-1.04979">
        <ele>7</ele>
        <time>2023-08-06T07:08:46Z</time>
      </trkpt>
      <trkpt lat="45.65927" lon="-1.04977">
        <ele>7</ele>
        <time>2023-08-06T07:08:49Z</time>
      </trkpt>
      <trkpt lat="45.65923" lon="-1.04975">
        <ele>7</ele>
        <time>2023-08-06T07:08:51Z</time>
      </trkpt>
      <trkpt lat="45.65922" lon="-1.0497">
        <ele>6.8</ele>
        <time>2023-08-06T07:08:53Z</time>
      </trkpt>
      <trkpt lat="45.65923" lon="-1.04962">
        <ele>6.8</ele>
        <time>2023-08-06T07:08:57Z</time>
      </trkpt>
      <trkpt lat="45.6592" lon="-1.04959">
        <ele>7.2</ele>
        <time>2023-08-06T07:08:59Z</time>
      </trkpt>
      <trkpt lat="45.65918" lon="-1.04957">
        <ele>7.4</ele>
        <time>2023-08-06T07:09:00Z</time>
      </trkpt>
      <trkpt lat="45.65914" lon="-1.04956">
        <ele>7.2</ele>
        <time>2023-08-06T07:09:02Z</time>
      </trkpt>
      <trkpt lat="45.65913" lon="-1.04956">
        <ele>7</ele>
        <time>2023-08-06T07:09:03Z</time>
      </trkpt>
      <trkpt lat="45.65911" lon="-1.04956">
        <ele>6.6</ele>
        <time>2023-08-06T07:09:04Z</time>
      </trkpt>
      <trkpt lat="45.65904" lon="-1.04956">
        <ele>5.8</ele>
        <time>2023-08-06T07:09:07Z</time>
      </trkpt>
      <trkpt lat="45.65901" lon="-1.04956">
        <ele>5.6</ele>
        <time>2023-08-06T07:09:08Z</time>
      </trkpt>
      <trkpt lat="45.65898" lon="-1.04955">
        <ele>5.2</ele>
        <time>2023-08-06T07:09:09Z</time>
      </trkpt>
      <trkpt lat="45.65893" lon="-1.04947">
        <ele>4.6</ele>
        <time>2023-08-06T07:09:12Z</time>
      </trkpt>
      <trkpt lat="45.65896" lon="-1.04942">
        <ele>4.6</ele>
        <time>2023-08-06T07:09:16Z</time>
      </trkpt>
      <trkpt lat="45.65899" lon="-1.04938">
        <ele>5.2</ele>
        <time>2023-08-06T07:09:19Z</time>
      </trkpt>
      <trkpt lat="45.659" lon="-1.04936">
        <ele>5.6</ele>
        <time>2023-08-06T07:09:20Z</time>
      </trkpt>
      <trkpt lat="45.659" lon="-1.04933">
        <ele>6.2</ele>
        <time>2023-08-06T07:09:22Z</time>
      </trkpt>
      <trkpt lat="45.65899" lon="-1.04929">
        <ele>6.6</ele>
        <time>2023-08-06T07:09:24Z</time>
      </trkpt>
      <trkpt lat="45.65895" lon="-1.04924">
        <ele>6.8</ele>
        <time>2023-08-06T07:09:26Z</time>
      </trkpt>
      <trkpt lat="45.65888" lon="-1.04913">
        <ele>6.2</ele>
        <time>2023-08-06T07:09:31Z</time>
      </trkpt>
      <trkpt lat="45.65885" lon="-1.04911">
        <ele>5.8</ele>
        <time>2023-08-06T07:09:33Z</time>
      </trkpt>
      <trkpt lat="45.65884" lon="-1.04906">
        <ele>5.6</ele>
        <time>2023-08-06T07:09:35Z</time>
      </trkpt>
      <trkpt lat="45.65884" lon="-1.04903">
        <ele>5.6</ele>
        <time>2023-08-06T07:09:36Z</time>
      </trkpt>
      <trkpt lat="45.65884" lon="-1.04892">
        <ele>6</ele>
        <time>2023-08-06T07:09:39Z</time>
      </trkpt>
      <trkpt lat="45.65883" lon="-1.04877">
        <ele>6.6</ele>
        <time>2023-08-06T07:09:43Z</time>
      </trkpt>
      <trkpt lat="45.65883" lon="-1.04874">
        <ele>6.8</ele>
        <time>2023-08-06T07:09:44Z</time>
      </trkpt>
      <trkpt lat="45.65885" lon="-1.04865">
        <ele>7.4</ele>
        <time>2023-08-06T07:09:46Z</time>
      </trkpt>
      <trkpt lat="45.65887" lon="-1.04863">
        <ele>7.8</ele>
        <time>2023-08-06T07:09:47Z</time>
      </trkpt>
      <trkpt lat="45.6589" lon="-1.04854">
        <ele>8.4</ele>
        <time>2023-08-06T07:09:49Z</time>
      </trkpt>
      <trkpt lat="45.65893" lon="-1.04851">
        <ele>8.8</ele>
        <time>2023-08-06T07:09:50Z</time>
      </trkpt>
      <trkpt lat="45.65895" lon="-1.04849">
        <ele>9.6</ele>
        <time>2023-08-06T07:09:52Z</time>
      </trkpt>
      <trkpt lat="45.65896" lon="-1.04847">
        <ele>10</ele>
        <time>2023-08-06T07:09:53Z</time>
      </trkpt>
      <trkpt lat="45.659" lon="-1.04841">
        <ele>10.2</ele>
        <time>2023-08-06T07:09:56Z</time>
      </trkpt>
      <trkpt lat="45.65901" lon="-1.04833">
        <ele>10.6</ele>
        <time>2023-08-06T07:09:59Z</time>
      </trkpt>
      <trkpt lat="45.65899" lon="-1.04816">
        <ele>11.4</ele>
        <time>2023-08-06T07:10:05Z</time>
      </trkpt>
      <trkpt lat="45.65893" lon="-1.04798">
        <ele>11.8</ele>
        <time>2023-08-06T07:10:10Z</time>
      </trkpt>
      <trkpt lat="45.65895" lon="-1.04778">
        <ele>12.2</ele>
        <time>2023-08-06T07:10:14Z</time>
      </trkpt>
      <trkpt lat="45.65893" lon="-1.04763">
        <ele>12.4</ele>
        <time>2023-08-06T07:10:17Z</time>
      </trkpt>
      <trkpt lat="45.65893" lon="-1.04758">
        <ele>12.4</ele>
        <time>2023-08-06T07:10:18Z</time>
      </trkpt>
      <trkpt lat="45.65893" lon="-1.04748">
        <ele>12.4</ele>
        <time>2023-08-06T07:10:21Z</time>
      </trkpt>
      <trkpt lat="45.65891" lon="-1.0474">
        <ele>12.4</ele>
        <time>2023-08-06T07:10:23Z</time>
      </trkpt>
      <trkpt lat="45.65887" lon="-1.04726">
        <ele>12.6</ele>
        <time>2023-08-06T07:10:26Z</time>
      </trkpt>
      <trkpt lat="45.65883" lon="-1.04719">
        <ele>12.8</ele>
        <time>2023-08-06T07:10:28Z</time>
      </trkpt>
      <trkpt lat="45.65878" lon="-1.04692">
        <ele>13</ele>
        <time>2023-08-06T07:10:33Z</time>
      </trkpt>
      <trkpt lat="45.65867" lon="-1.0466">
        <ele>12.8</ele>
        <time>2023-08-06T07:10:39Z</time>
      </trkpt>
      <trkpt lat="45.65863" lon="-1.04647">
        <ele>12.6</ele>
        <time>2023-08-06T07:10:42Z</time>
      </trkpt>
      <trkpt lat="45.65863" lon="-1.04644">
        <ele>12.6</ele>
        <time>2023-08-06T07:10:43Z</time>
      </trkpt>
      <trkpt lat="45.6587" lon="-1.04635">
        <ele>12.6</ele>
        <time>2023-08-06T07:10:47Z</time>
      </trkpt>
      <trkpt lat="45.65888" lon="-1.04621">
        <ele>13.4</ele>
        <time>2023-08-06T07:10:54Z</time>
      </trkpt>
      <trkpt lat="45.65905" lon="-1.04617">
        <ele>13.8</ele>
        <time>2023-08-06T07:11:00Z</time>
      </trkpt>
      <trkpt lat="45.65919" lon="-1.04626">
        <ele>14</ele>
        <time>2023-08-06T07:11:04Z</time>
      </trkpt>
      <trkpt lat="45.65941" lon="-1.04646">
        <ele>14.2</ele>
        <time>2023-08-06T07:11:10Z</time>
      </trkpt>
      <trkpt lat="45.65964" lon="-1.04671">
        <ele>14.2</ele>
        <time>2023-08-06T07:11:16Z</time>
      </trkpt>
      <trkpt lat="45.65983" lon="-1.04693">
        <ele>14</ele>
        <time>2023-08-06T07:11:22Z</time>
      </trkpt>
      <trkpt lat="45.65996" lon="-1.04707">
        <ele>14.4</ele>
        <time>2023-08-06T07:11:25Z</time>
      </trkpt>
      <trkpt lat="45.66006" lon="-1.04718">
        <ele>14.4</ele>
        <time>2023-08-06T07:11:27Z</time>
      </trkpt>
      <trkpt lat="45.66024" lon="-1.04741">
        <ele>14</ele>
        <time>2023-08-06T07:11:32Z</time>
      </trkpt>
      <trkpt lat="45.66028" lon="-1.04744">
        <ele>13.8</ele>
        <time>2023-08-06T07:11:33Z</time>
      </trkpt>
      <trkpt lat="45.66033" lon="-1.04746">
        <ele>13.8</ele>
        <time>2023-08-06T07:11:34Z</time>
      </trkpt>
      <trkpt lat="45.66055" lon="-1.04757">
        <ele>13.4</ele>
        <time>2023-08-06T07:11:38Z</time>
      </trkpt>
      <trkpt lat="45.66059" lon="-1.04759">
        <ele>13.2</ele>
        <time>2023-08-06T07:11:39Z</time>
      </trkpt>
      <trkpt lat="45.66064" lon="-1.04763">
        <ele>13.2</ele>
        <time>2023-08-06T07:11:40Z</time>
      </trkpt>
      <trkpt lat="45.66075" lon="-1.04768">
        <ele>13</ele>
        <time>2023-08-06T07:11:42Z</time>
      </trkpt>
      <trkpt lat="45.6608" lon="-1.04768">
        <ele>13</ele>
        <time>2023-08-06T07:11:44Z</time>
      </trkpt>
      <trkpt lat="45.66082" lon="-1.04765">
        <ele>13</ele>
        <time>2023-08-06T07:11:45Z</time>
      </trkpt>
      <trkpt lat="45.66083" lon="-1.04755">
        <ele>13.2</ele>
        <time>2023-08-06T07:11:48Z</time>
      </trkpt>
      <trkpt lat="45.66082" lon="-1.04749">
        <ele>13.6</ele>
        <time>2023-08-06T07:11:50Z</time>
      </trkpt>
      <trkpt lat="45.66081" lon="-1.04738">
        <ele>13.6</ele>
        <time>2023-08-06T07:11:53Z</time>
      </trkpt>
      <trkpt lat="45.66079" lon="-1.04734">
        <ele>13.6</ele>
        <time>2023-08-06T07:11:54Z</time>
      </trkpt>
      <trkpt lat="45.6607" lon="-1.04723">
        <ele>13.6</ele>
        <time>2023-08-06T07:11:58Z</time>
      </trkpt>
      <trkpt lat="45.66067" lon="-1.0472">
        <ele>13.8</ele>
        <time>2023-08-06T07:11:59Z</time>
      </trkpt>
      <trkpt lat="45.66065" lon="-1.04717">
        <ele>14</ele>
        <time>2023-08-06T07:12:00Z</time>
      </trkpt>
      <trkpt lat="45.66052" lon="-1.04711">
        <ele>14.2</ele>
        <time>2023-08-06T07:12:04Z</time>
      </trkpt>
      <trkpt lat="45.66048" lon="-1.04709">
        <ele>14.2</ele>
        <time>2023-08-06T07:12:05Z</time>
      </trkpt>
      <trkpt lat="45.66041" lon="-1.04704">
        <ele>14.2</ele>
        <time>2023-08-06T07:12:07Z</time>
      </trkpt>
      <trkpt lat="45.66036" lon="-1.04697">
        <ele>14.4</ele>
        <time>2023-08-06T07:12:09Z</time>
      </trkpt>
      <trkpt lat="45.66028" lon="-1.04683">
        <ele>14.6</ele>
        <time>2023-08-06T07:12:13Z</time>
      </trkpt>
      <trkpt lat="45.66027" lon="-1.04678">
        <ele>14.8</ele>
        <time>2023-08-06T07:12:14Z</time>
      </trkpt>
      <trkpt lat="45.66026" lon="-1.04669">
        <ele>14.8</ele>
        <time>2023-08-06T07:12:16Z</time>
      </trkpt>
      <trkpt lat="45.66022" lon="-1.04664">
        <ele>14.8</ele>
        <time>2023-08-06T07:12:18Z</time>
      </trkpt>
      <trkpt lat="45.66013" lon="-1.04663">
        <ele>15.2</ele>
        <time>2023-08-06T07:12:21Z</time>
      </trkpt>
      <trkpt lat="45.6601" lon="-1.04662">
        <ele>15.2</ele>
        <time>2023-08-06T07:12:22Z</time>
      </trkpt>
      <trkpt lat="45.66008" lon="-1.04659">
        <ele>15.2</ele>
        <time>2023-08-06T07:12:23Z</time>
      </trkpt>
      <trkpt lat="45.66007" lon="-1.04656">
        <ele>15.4</ele>
        <time>2023-08-06T07:12:24Z</time>
      </trkpt>
      <trkpt lat="45.66005" lon="-1.04648">
        <ele>15.4</ele>
        <time>2023-08-06T07:12:26Z</time>
      </trkpt>
      <trkpt lat="45.66004" lon="-1.04643">
        <ele>15.4</ele>
        <time>2023-08-06T07:12:27Z</time>
      </trkpt>
      <trkpt lat="45.66" lon="-1.04632">
        <ele>15</ele>
        <time>2023-08-06T07:12:30Z</time>
      </trkpt>
      <trkpt lat="45.65999" lon="-1.04628">
        <ele>15</ele>
        <time>2023-08-06T07:12:31Z</time>
      </trkpt>
      <trkpt lat="45.65999" lon="-1.04618">
        <ele>15</ele>
        <time>2023-08-06T07:12:33Z</time>
      </trkpt>
      <trkpt lat="45.66" lon="-1.04612">
        <ele>15.2</ele>
        <time>2023-08-06T07:12:34Z</time>
      </trkpt>
      <trkpt lat="45.66" lon="-1.04607">
        <ele>15.2</ele>
        <time>2023-08-06T07:12:35Z</time>
      </trkpt>
      <trkpt lat="45.66003" lon="-1.04592">
        <ele>15.2</ele>
        <time>2023-08-06T07:12:38Z</time>
      </trkpt>
      <trkpt lat="45.66004" lon="-1.04588">
        <ele>15.2</ele>
        <time>2023-08-06T07:12:39Z</time>
      </trkpt>
      <trkpt lat="45.66004" lon="-1.04584">
        <ele>15.4</ele>
        <time>2023-08-06T07:12:40Z</time>
      </trkpt>
      <trkpt lat="45.66004" lon="-1.04567">
        <ele>15.6</ele>
        <time>2023-08-06T07:12:44Z</time>
      </trkpt>
      <trkpt lat="45.66002" lon="-1.04548">
        <ele>15.8</ele>
        <time>2023-08-06T07:12:49Z</time>
      </trkpt>
      <trkpt lat="45.66001" lon="-1.04545">
        <ele>15.8</ele>
        <time>2023-08-06T07:12:50Z</time>
      </trkpt>
      <trkpt lat="45.65996" lon="-1.0452">
        <ele>16.2</ele>
        <time>2023-08-06T07:12:56Z</time>
      </trkpt>
      <trkpt lat="45.65994" lon="-1.04506">
        <ele>16.4</ele>
        <time>2023-08-06T07:12:59Z</time>
      </trkpt>
      <trkpt lat="45.65993" lon="-1.04497">
        <ele>16.4</ele>
        <time>2023-08-06T07:13:01Z</time>
      </trkpt>
      <trkpt lat="45.65993" lon="-1.04493">
        <ele>16.4</ele>
        <time>2023-08-06T07:13:02Z</time>
      </trkpt>
      <trkpt lat="45.65994" lon="-1.04486">
        <ele>16.6</ele>
        <time>2023-08-06T07:13:04Z</time>
      </trkpt>
      <trkpt lat="45.65995" lon="-1.04469">
        <ele>16.8</ele>
        <time>2023-08-06T07:13:08Z</time>
      </trkpt>
      <trkpt lat="45.65996" lon="-1.0446">
        <ele>16.8</ele>
        <time>2023-08-06T07:13:10Z</time>
      </trkpt>
      <trkpt lat="45.65994" lon="-1.04443">
        <ele>16.8</ele>
        <time>2023-08-06T07:13:13Z</time>
      </trkpt>
      <trkpt lat="45.65996" lon="-1.0442">
        <ele>16.8</ele>
        <time>2023-08-06T07:13:18Z</time>
      </trkpt>
      <trkpt lat="45.65994" lon="-1.04389">
        <ele>17</ele>
        <time>2023-08-06T07:13:23Z</time>
      </trkpt>
      <trkpt lat="45.65995" lon="-1.04383">
        <ele>17</ele>
        <time>2023-08-06T07:13:24Z</time>
      </trkpt>
      <trkpt lat="45.65995" lon="-1.04365">
        <ele>17</ele>
        <time>2023-08-06T07:13:27Z</time>
      </trkpt>
      <trkpt lat="45.65996" lon="-1.0436">
        <ele>16.8</ele>
        <time>2023-08-06T07:13:28Z</time>
      </trkpt>
      <trkpt lat="45.65999" lon="-1.04351">
        <ele>16.8</ele>
        <time>2023-08-06T07:13:30Z</time>
      </trkpt>
      <trkpt lat="45.66" lon="-1.04341">
        <ele>16.6</ele>
        <time>2023-08-06T07:13:32Z</time>
      </trkpt>
      <trkpt lat="45.65999" lon="-1.04336">
        <ele>16.4</ele>
        <time>2023-08-06T07:13:33Z</time>
      </trkpt>
      <trkpt lat="45.65999" lon="-1.0433">
        <ele>16.4</ele>
        <time>2023-08-06T07:13:34Z</time>
      </trkpt>
      <trkpt lat="45.66002" lon="-1.04312">
        <ele>16.4</ele>
        <time>2023-08-06T07:13:37Z</time>
      </trkpt>
      <trkpt lat="45.66009" lon="-1.04282">
        <ele>16.2</ele>
        <time>2023-08-06T07:13:41Z</time>
      </trkpt>
      <trkpt lat="45.66015" lon="-1.04253">
        <ele>15.4</ele>
        <time>2023-08-06T07:13:45Z</time>
      </trkpt>
      <trkpt lat="45.66017" lon="-1.04246">
        <ele>15.2</ele>
        <time>2023-08-06T07:13:46Z</time>
      </trkpt>
      <trkpt lat="45.6602" lon="-1.0424">
        <ele>15.2</ele>
        <time>2023-08-06T07:13:47Z</time>
      </trkpt>
      <trkpt lat="45.66023" lon="-1.04233">
        <ele>15.2</ele>
        <time>2023-08-06T07:13:48Z</time>
      </trkpt>
      <trkpt lat="45.66031" lon="-1.04218">
        <ele>15</ele>
        <time>2023-08-06T07:13:51Z</time>
      </trkpt>
      <trkpt lat="45.66036" lon="-1.04207">
        <ele>14.8</ele>
        <time>2023-08-06T07:13:53Z</time>
      </trkpt>
      <trkpt lat="45.66039" lon="-1.04199">
        <ele>14.8</ele>
        <time>2023-08-06T07:13:55Z</time>
      </trkpt>
      <trkpt lat="45.66047" lon="-1.04184">
        <ele>14.8</ele>
        <time>2023-08-06T07:13:58Z</time>
      </trkpt>
      <trkpt lat="45.66051" lon="-1.0418">
        <ele>14.8</ele>
        <time>2023-08-06T07:13:59Z</time>
      </trkpt>
      <trkpt lat="45.66054" lon="-1.04176">
        <ele>14.8</ele>
        <time>2023-08-06T07:14:00Z</time>
      </trkpt>
      <trkpt lat="45.66063" lon="-1.04161">
        <ele>14.2</ele>
        <time>2023-08-06T07:14:03Z</time>
      </trkpt>
      <trkpt lat="45.66065" lon="-1.04157">
        <ele>14.4</ele>
        <time>2023-08-06T07:14:04Z</time>
      </trkpt>
      <trkpt lat="45.66067" lon="-1.04153">
        <ele>14</ele>
        <time>2023-08-06T07:14:05Z</time>
      </trkpt>
      <trkpt lat="45.66068" lon="-1.04137">
        <ele>13.8</ele>
        <time>2023-08-06T07:14:09Z</time>
      </trkpt>
      <trkpt lat="45.66069" lon="-1.04131">
        <ele>13.6</ele>
        <time>2023-08-06T07:14:11Z</time>
      </trkpt>
      <trkpt lat="45.6607" lon="-1.04123">
        <ele>14.2</ele>
        <time>2023-08-06T07:14:13Z</time>
      </trkpt>
      <trkpt lat="45.6607" lon="-1.04119">
        <ele>14.4</ele>
        <time>2023-08-06T07:14:14Z</time>
      </trkpt>
      <trkpt lat="45.66068" lon="-1.04116">
        <ele>14.6</ele>
        <time>2023-08-06T07:14:15Z</time>
      </trkpt>
      <trkpt lat="45.66063" lon="-1.04111">
        <ele>15.2</ele>
        <time>2023-08-06T07:14:17Z</time>
      </trkpt>
      <trkpt lat="45.6606" lon="-1.04103">
        <ele>15.4</ele>
        <time>2023-08-06T07:14:19Z</time>
      </trkpt>
      <trkpt lat="45.66059" lon="-1.04092">
        <ele>15.6</ele>
        <time>2023-08-06T07:14:21Z</time>
      </trkpt>
      <trkpt lat="45.66057" lon="-1.04064">
        <ele>15.8</ele>
        <time>2023-08-06T07:14:27Z</time>
      </trkpt>
      <trkpt lat="45.66056" lon="-1.04059">
        <ele>15.8</ele>
        <time>2023-08-06T07:14:28Z</time>
      </trkpt>
      <trkpt lat="45.66049" lon="-1.04046">
        <ele>16</ele>
        <time>2023-08-06T07:14:31Z</time>
      </trkpt>
      <trkpt lat="45.66046" lon="-1.04036">
        <ele>16</ele>
        <time>2023-08-06T07:14:33Z</time>
      </trkpt>
      <trkpt lat="45.66044" lon="-1.04024">
        <ele>16</ele>
        <time>2023-08-06T07:14:35Z</time>
      </trkpt>
      <trkpt lat="45.66044" lon="-1.0402">
        <ele>16</ele>
        <time>2023-08-06T07:14:36Z</time>
      </trkpt>
      <trkpt lat="45.66049" lon="-1.04015">
        <ele>16</ele>
        <time>2023-08-06T07:14:38Z</time>
      </trkpt>
      <trkpt lat="45.66054" lon="-1.0401">
        <ele>16</ele>
        <time>2023-08-06T07:14:40Z</time>
      </trkpt>
      <trkpt lat="45.66066" lon="-1.04003">
        <ele>15.2</ele>
        <time>2023-08-06T07:14:44Z</time>
      </trkpt>
      <trkpt lat="45.66069" lon="-1.03998">
        <ele>15</ele>
        <time>2023-08-06T07:14:46Z</time>
      </trkpt>
      <trkpt lat="45.6607" lon="-1.03991">
        <ele>14.8</ele>
        <time>2023-08-06T07:14:48Z</time>
      </trkpt>
      <trkpt lat="45.66076" lon="-1.03968">
        <ele>14.8</ele>
        <time>2023-08-06T07:14:54Z</time>
      </trkpt>
      <trkpt lat="45.66083" lon="-1.03951">
        <ele>15</ele>
        <time>2023-08-06T07:14:58Z</time>
      </trkpt>
      <trkpt lat="45.66086" lon="-1.03942">
        <ele>14.6</ele>
        <time>2023-08-06T07:15:00Z</time>
      </trkpt>
      <trkpt lat="45.6609" lon="-1.03934">
        <ele>14.4</ele>
        <time>2023-08-06T07:15:02Z</time>
      </trkpt>
      <trkpt lat="45.66093" lon="-1.03932">
        <ele>14</ele>
        <time>2023-08-06T07:15:03Z</time>
      </trkpt>
      <trkpt lat="45.66095" lon="-1.0393">
        <ele>13.4</ele>
        <time>2023-08-06T07:15:04Z</time>
      </trkpt>
      <trkpt lat="45.66095" lon="-1.03922">
        <ele>13</ele>
        <time>2023-08-06T07:15:07Z</time>
      </trkpt>
      <trkpt lat="45.66095" lon="-1.03919">
        <ele>13</ele>
        <time>2023-08-06T07:15:08Z</time>
      </trkpt>
      <trkpt lat="45.66095" lon="-1.03915">
        <ele>13</ele>
        <time>2023-08-06T07:15:09Z</time>
      </trkpt>
      <trkpt lat="45.66097" lon="-1.03909">
        <ele>13</ele>
        <time>2023-08-06T07:15:11Z</time>
      </trkpt>
      <trkpt lat="45.66098" lon="-1.03905">
        <ele>13</ele>
        <time>2023-08-06T07:15:12Z</time>
      </trkpt>
      <trkpt lat="45.66098" lon="-1.0389">
        <ele>13</ele>
        <time>2023-08-06T07:15:16Z</time>
      </trkpt>
      <trkpt lat="45.66105" lon="-1.03873">
        <ele>12.8</ele>
        <time>2023-08-06T07:15:20Z</time>
      </trkpt>
      <trkpt lat="45.6611" lon="-1.03866">
        <ele>12.6</ele>
        <time>2023-08-06T07:15:22Z</time>
      </trkpt>
      <trkpt lat="45.66115" lon="-1.0386">
        <ele>12</ele>
        <time>2023-08-06T07:15:24Z</time>
      </trkpt>
      <trkpt lat="45.66118" lon="-1.03857">
        <ele>11.6</ele>
        <time>2023-08-06T07:15:25Z</time>
      </trkpt>
      <trkpt lat="45.66127" lon="-1.03848">
        <ele>10.8</ele>
        <time>2023-08-06T07:15:29Z</time>
      </trkpt>
      <trkpt lat="45.66132" lon="-1.03843">
        <ele>10.6</ele>
        <time>2023-08-06T07:15:31Z</time>
      </trkpt>
      <trkpt lat="45.6614" lon="-1.03835">
        <ele>10.4</ele>
        <time>2023-08-06T07:15:34Z</time>
      </trkpt>
      <trkpt lat="45.66155" lon="-1.0383">
        <ele>10.4</ele>
        <time>2023-08-06T07:15:38Z</time>
      </trkpt>
      <trkpt lat="45.66178" lon="-1.03814">
        <ele>10.2</ele>
        <time>2023-08-06T07:15:43Z</time>
      </trkpt>
      <trkpt lat="45.66185" lon="-1.03821">
        <ele>10.2</ele>
        <time>2023-08-06T07:15:46Z</time>
      </trkpt>
      <trkpt lat="45.66198" lon="-1.03845">
        <ele>9.6</ele>
        <time>2023-08-06T07:15:50Z</time>
      </trkpt>
      <trkpt lat="45.66205" lon="-1.03858">
        <ele>9.2</ele>
        <time>2023-08-06T07:15:52Z</time>
      </trkpt>
      <trkpt lat="45.6622" lon="-1.03884">
        <ele>8.4</ele>
        <time>2023-08-06T07:15:56Z</time>
      </trkpt>
      <trkpt lat="45.66237" lon="-1.03909">
        <ele>7.8</ele>
        <time>2023-08-06T07:16:00Z</time>
      </trkpt>
      <trkpt lat="45.66247" lon="-1.03921">
        <ele>8</ele>
        <time>2023-08-06T07:16:02Z</time>
      </trkpt>
      <trkpt lat="45.66259" lon="-1.03929">
        <ele>7.8</ele>
        <time>2023-08-06T07:16:04Z</time>
      </trkpt>
      <trkpt lat="45.66282" lon="-1.03945">
        <ele>7.2</ele>
        <time>2023-08-06T07:16:08Z</time>
      </trkpt>
      <trkpt lat="45.66293" lon="-1.03954">
        <ele>6.6</ele>
        <time>2023-08-06T07:16:10Z</time>
      </trkpt>
      <trkpt lat="45.66303" lon="-1.03963">
        <ele>6</ele>
        <time>2023-08-06T07:16:12Z</time>
      </trkpt>
      <trkpt lat="45.66322" lon="-1.03978">
        <ele>5.6</ele>
        <time>2023-08-06T07:16:16Z</time>
      </trkpt>
      <trkpt lat="45.66339" lon="-1.0399">
        <ele>5.2</ele>
        <time>2023-08-06T07:16:20Z</time>
      </trkpt>
      <trkpt lat="45.66342" lon="-1.03994">
        <ele>5.2</ele>
        <time>2023-08-06T07:16:21Z</time>
      </trkpt>
      <trkpt lat="45.66354" lon="-1.04009">
        <ele>5</ele>
        <time>2023-08-06T07:16:24Z</time>
      </trkpt>
      <trkpt lat="45.66363" lon="-1.04018">
        <ele>5</ele>
        <time>2023-08-06T07:16:26Z</time>
      </trkpt>
      <trkpt lat="45.66375" lon="-1.0403">
        <ele>4.6</ele>
        <time>2023-08-06T07:16:29Z</time>
      </trkpt>
      <trkpt lat="45.66378" lon="-1.04039">
        <ele>4.4</ele>
        <time>2023-08-06T07:16:31Z</time>
      </trkpt>
      <trkpt lat="45.66377" lon="-1.04052">
        <ele>4.8</ele>
        <time>2023-08-06T07:16:33Z</time>
      </trkpt>
      <trkpt lat="45.66373" lon="-1.04067">
        <ele>4.6</ele>
        <time>2023-08-06T07:16:35Z</time>
      </trkpt>
      <trkpt lat="45.66366" lon="-1.04097">
        <ele>4.6</ele>
        <time>2023-08-06T07:16:39Z</time>
      </trkpt>
      <trkpt lat="45.66368" lon="-1.0411">
        <ele>4.6</ele>
        <time>2023-08-06T07:16:41Z</time>
      </trkpt>
      <trkpt lat="45.66377" lon="-1.04114">
        <ele>4.6</ele>
        <time>2023-08-06T07:16:43Z</time>
      </trkpt>
      <trkpt lat="45.66382" lon="-1.04115">
        <ele>4.4</ele>
        <time>2023-08-06T07:16:44Z</time>
      </trkpt>
      <trkpt lat="45.66387" lon="-1.04118">
        <ele>4.6</ele>
        <time>2023-08-06T07:16:45Z</time>
      </trkpt>
      <trkpt lat="45.66409" lon="-1.04127">
        <ele>5</ele>
        <time>2023-08-06T07:16:49Z</time>
      </trkpt>
      <trkpt lat="45.66432" lon="-1.04134">
        <ele>6</ele>
        <time>2023-08-06T07:16:53Z</time>
      </trkpt>
      <trkpt lat="45.66437" lon="-1.04136">
        <ele>6.2</ele>
        <time>2023-08-06T07:16:54Z</time>
      </trkpt>
      <trkpt lat="45.66458" lon="-1.04142">
        <ele>7</ele>
        <time>2023-08-06T07:16:58Z</time>
      </trkpt>
      <trkpt lat="45.66473" lon="-1.04147">
        <ele>7.2</ele>
        <time>2023-08-06T07:17:01Z</time>
      </trkpt>
      <trkpt lat="45.66498" lon="-1.04153">
        <ele>8.4</ele>
        <time>2023-08-06T07:17:06Z</time>
      </trkpt>
      <trkpt lat="45.66503" lon="-1.04155">
        <ele>8.4</ele>
        <time>2023-08-06T07:17:07Z</time>
      </trkpt>
      <trkpt lat="45.66528" lon="-1.0416">
        <ele>9.6</ele>
        <time>2023-08-06T07:17:12Z</time>
      </trkpt>
      <trkpt lat="45.66538" lon="-1.04162">
        <ele>10.4</ele>
        <time>2023-08-06T07:17:14Z</time>
      </trkpt>
      <trkpt lat="45.66542" lon="-1.04164">
        <ele>10.6</ele>
        <time>2023-08-06T07:17:15Z</time>
      </trkpt>
      <trkpt lat="45.66561" lon="-1.04169">
        <ele>11.6</ele>
        <time>2023-08-06T07:17:19Z</time>
      </trkpt>
      <trkpt lat="45.6657" lon="-1.04171">
        <ele>12.4</ele>
        <time>2023-08-06T07:17:21Z</time>
      </trkpt>
      <trkpt lat="45.66579" lon="-1.04174">
        <ele>12.8</ele>
        <time>2023-08-06T07:17:23Z</time>
      </trkpt>
      <trkpt lat="45.66597" lon="-1.04177">
        <ele>13.8</ele>
        <time>2023-08-06T07:17:27Z</time>
      </trkpt>
      <trkpt lat="45.66607" lon="-1.04176">
        <ele>14.2</ele>
        <time>2023-08-06T07:17:29Z</time>
      </trkpt>
      <trkpt lat="45.66612" lon="-1.04174">
        <ele>15</ele>
        <time>2023-08-06T07:17:30Z</time>
      </trkpt>
      <trkpt lat="45.66621" lon="-1.04168">
        <ele>15.6</ele>
        <time>2023-08-06T07:17:32Z</time>
      </trkpt>
      <trkpt lat="45.66625" lon="-1.04164">
        <ele>15.8</ele>
        <time>2023-08-06T07:17:33Z</time>
      </trkpt>
      <trkpt lat="45.66629" lon="-1.0416">
        <ele>16.2</ele>
        <time>2023-08-06T07:17:34Z</time>
      </trkpt>
      <trkpt lat="45.66633" lon="-1.04155">
        <ele>16.4</ele>
        <time>2023-08-06T07:17:35Z</time>
      </trkpt>
      <trkpt lat="45.66652" lon="-1.04129">
        <ele>16.8</ele>
        <time>2023-08-06T07:17:40Z</time>
      </trkpt>
      <trkpt lat="45.66666" lon="-1.04107">
        <ele>17.2</ele>
        <time>2023-08-06T07:17:44Z</time>
      </trkpt>
      <trkpt lat="45.66679" lon="-1.04092">
        <ele>17.6</ele>
        <time>2023-08-06T07:17:47Z</time>
      </trkpt>
      <trkpt lat="45.66684" lon="-1.04088">
        <ele>17.6</ele>
        <time>2023-08-06T07:17:48Z</time>
      </trkpt>
      <trkpt lat="45.66708" lon="-1.04074">
        <ele>17.6</ele>
        <time>2023-08-06T07:17:53Z</time>
      </trkpt>
      <trkpt lat="45.66714" lon="-1.04073">
        <ele>17.6</ele>
        <time>2023-08-06T07:17:54Z</time>
      </trkpt>
      <trkpt lat="45.66751" lon="-1.04061">
        <ele>17.6</ele>
        <time>2023-08-06T07:18:01Z</time>
      </trkpt>
      <trkpt lat="45.66756" lon="-1.04059">
        <ele>17.6</ele>
        <time>2023-08-06T07:18:02Z</time>
      </trkpt>
      <trkpt lat="45.66761" lon="-1.04048">
        <ele>17.6</ele>
        <time>2023-08-06T07:18:04Z</time>
      </trkpt>
      <trkpt lat="45.66759" lon="-1.04034">
        <ele>17.6</ele>
        <time>2023-08-06T07:18:06Z</time>
      </trkpt>
      <trkpt lat="45.66757" lon="-1.04026">
        <ele>17.6</ele>
        <time>2023-08-06T07:18:07Z</time>
      </trkpt>
      <trkpt lat="45.6674" lon="-1.0397">
        <ele>17.4</ele>
        <time>2023-08-06T07:18:14Z</time>
      </trkpt>
      <trkpt lat="45.66719" lon="-1.03918">
        <ele>17.2</ele>
        <time>2023-08-06T07:18:21Z</time>
      </trkpt>
      <trkpt lat="45.66712" lon="-1.03895">
        <ele>17.2</ele>
        <time>2023-08-06T07:18:24Z</time>
      </trkpt>
      <trkpt lat="45.66709" lon="-1.03878">
        <ele>17.2</ele>
        <time>2023-08-06T07:18:26Z</time>
      </trkpt>
      <trkpt lat="45.667" lon="-1.03825">
        <ele>16.8</ele>
        <time>2023-08-06T07:18:33Z</time>
      </trkpt>
      <trkpt lat="45.66695" lon="-1.03791">
        <ele>17</ele>
        <time>2023-08-06T07:18:38Z</time>
      </trkpt>
      <trkpt lat="45.66693" lon="-1.03785">
        <ele>17</ele>
        <time>2023-08-06T07:18:39Z</time>
      </trkpt>
      <trkpt lat="45.66685" lon="-1.03757">
        <ele>17</ele>
        <time>2023-08-06T07:18:43Z</time>
      </trkpt>
      <trkpt lat="45.66683" lon="-1.0374">
        <ele>16.6</ele>
        <time>2023-08-06T07:18:45Z</time>
      </trkpt>
      <trkpt lat="45.66682" lon="-1.03731">
        <ele>16.4</ele>
        <time>2023-08-06T07:18:46Z</time>
      </trkpt>
      <trkpt lat="45.66681" lon="-1.03712">
        <ele>16</ele>
        <time>2023-08-06T07:18:48Z</time>
      </trkpt>
      <trkpt lat="45.66681" lon="-1.03694">
        <ele>15.6</ele>
        <time>2023-08-06T07:18:50Z</time>
      </trkpt>
      <trkpt lat="45.66683" lon="-1.03656">
        <ele>14.8</ele>
        <time>2023-08-06T07:18:54Z</time>
      </trkpt>
      <trkpt lat="45.66684" lon="-1.03638">
        <ele>14.2</ele>
        <time>2023-08-06T07:18:56Z</time>
      </trkpt>
      <trkpt lat="45.66688" lon="-1.03589">
        <ele>14.4</ele>
        <time>2023-08-06T07:19:02Z</time>
      </trkpt>
      <trkpt lat="45.6669" lon="-1.03582">
        <ele>14.6</ele>
        <time>2023-08-06T07:19:03Z</time>
      </trkpt>
      <trkpt lat="45.66697" lon="-1.03562">
        <ele>14.8</ele>
        <time>2023-08-06T07:19:06Z</time>
      </trkpt>
      <trkpt lat="45.667" lon="-1.03555">
        <ele>15.2</ele>
        <time>2023-08-06T07:19:07Z</time>
      </trkpt>
      <trkpt lat="45.66707" lon="-1.03541">
        <ele>15.8</ele>
        <time>2023-08-06T07:19:09Z</time>
      </trkpt>
      <trkpt lat="45.6671" lon="-1.03534">
        <ele>16.2</ele>
        <time>2023-08-06T07:19:10Z</time>
      </trkpt>
      <trkpt lat="45.66717" lon="-1.0352">
        <ele>17</ele>
        <time>2023-08-06T07:19:12Z</time>
      </trkpt>
      <trkpt lat="45.66724" lon="-1.03506">
        <ele>17.4</ele>
        <time>2023-08-06T07:19:14Z</time>
      </trkpt>
      <trkpt lat="45.66747" lon="-1.03463">
        <ele>17.8</ele>
        <time>2023-08-06T07:19:21Z</time>
      </trkpt>
      <trkpt lat="45.66764" lon="-1.03439">
        <ele>17.4</ele>
        <time>2023-08-06T07:19:27Z</time>
      </trkpt>
      <trkpt lat="45.66773" lon="-1.03431">
        <ele>17.4</ele>
        <time>2023-08-06T07:19:32Z</time>
      </trkpt>
      <trkpt lat="45.66779" lon="-1.03427">
        <ele>17.2</ele>
        <time>2023-08-06T07:19:39Z</time>
      </trkpt>
      <trkpt lat="45.66779" lon="-1.03426">
        <ele>17.2</ele>
        <time>2023-08-06T07:19:40Z</time>
      </trkpt>
      <trkpt lat="45.66779" lon="-1.03427">
        <ele>17.2</ele>
        <time>2023-08-06T07:19:42Z</time>
      </trkpt>
      <trkpt lat="45.6678" lon="-1.03427">
        <ele>17</ele>
        <time>2023-08-06T07:19:50Z</time>
      </trkpt>
      <trkpt lat="45.6678" lon="-1.03427">
        <ele>16</ele>
        <time>2023-08-06T07:20:02Z</time>
      </trkpt>
      <trkpt lat="45.6678" lon="-1.03426">
        <ele>16.2</ele>
        <time>2023-08-06T07:20:05Z</time>
      </trkpt>
      <trkpt lat="45.6678" lon="-1.03426">
        <ele>16.2</ele>
        <time>2023-08-06T07:20:25Z</time>
      </trkpt>
      <trkpt lat="45.6678" lon="-1.03426">
        <ele>16.2</ele>
        <time>2023-08-06T07:20:44Z</time>
      </trkpt>
      <trkpt lat="45.6678" lon="-1.03425">
        <ele>16.4</ele>
        <time>2023-08-06T07:20:59Z</time>
      </trkpt>
      <trkpt lat="45.66781" lon="-1.03425">
        <ele>16.4</ele>
        <time>2023-08-06T07:21:17Z</time>
      </trkpt>
      <trkpt lat="45.66781" lon="-1.03426">
        <ele>16.2</ele>
        <time>2023-08-06T07:21:28Z</time>
      </trkpt>
      <trkpt lat="45.66781" lon="-1.03428">
        <ele>16.4</ele>
        <time>2023-08-06T07:21:36Z</time>
      </trkpt>
      <trkpt lat="45.6678" lon="-1.03429">
        <ele>16.2</ele>
        <time>2023-08-06T07:21:56Z</time>
      </trkpt>
      <trkpt lat="45.6678" lon="-1.03428">
        <ele>16.4</ele>
        <time>2023-08-06T07:22:12Z</time>
      </trkpt>
      <trkpt lat="45.66779" lon="-1.03427">
        <ele>16.4</ele>
        <time>2023-08-06T07:22:26Z</time>
      </trkpt>
      <trkpt lat="45.66777" lon="-1.03429">
        <ele>16.4</ele>
        <time>2023-08-06T07:22:46Z</time>
      </trkpt>
      <trkpt lat="45.66776" lon="-1.0343">
        <ele>16.4</ele>
        <time>2023-08-06T07:23:04Z</time>
      </trkpt>
      <trkpt lat="45.66777" lon="-1.03429">
        <ele>16.4</ele>
        <time>2023-08-06T07:23:22Z</time>
      </trkpt>
      <trkpt lat="45.66777" lon="-1.03429">
        <ele>16.6</ele>
        <time>2023-08-06T07:23:34Z</time>
      </trkpt>
      <trkpt lat="45.66777" lon="-1.03428">
        <ele>16.4</ele>
        <time>2023-08-06T07:23:52Z</time>
      </trkpt>
      <trkpt lat="45.66778" lon="-1.03427">
        <ele>16.4</ele>
        <time>2023-08-06T07:24:07Z</time>
      </trkpt>
      <trkpt lat="45.66779" lon="-1.03426">
        <ele>16.2</ele>
        <time>2023-08-06T07:24:25Z</time>
      </trkpt>
      <trkpt lat="45.66779" lon="-1.03425">
        <ele>16.6</ele>
        <time>2023-08-06T07:24:42Z</time>
      </trkpt>
      <trkpt lat="45.6678" lon="-1.03425">
        <ele>16.4</ele>
        <time>2023-08-06T07:25:00Z</time>
      </trkpt>
      <trkpt lat="45.66781" lon="-1.03425">
        <ele>16.4</ele>
        <time>2023-08-06T07:25:18Z</time>
      </trkpt>
      <trkpt lat="45.6678" lon="-1.03425">
        <ele>16.4</ele>
        <time>2023-08-06T07:25:45Z</time>
      </trkpt>
      <trkpt lat="45.66779" lon="-1.03424">
        <ele>16.4</ele>
        <time>2023-08-06T07:26:02Z</time>
      </trkpt>
      <trkpt lat="45.66779" lon="-1.03423">
        <ele>16.4</ele>
        <time>2023-08-06T07:26:19Z</time>
      </trkpt>
      <trkpt lat="45.66777" lon="-1.03426">
        <ele>16.4</ele>
        <time>2023-08-06T07:26:48Z</time>
      </trkpt>
      <trkpt lat="45.6678" lon="-1.03423">
        <ele>16.4</ele>
        <time>2023-08-06T07:27:00Z</time>
      </trkpt>
      <trkpt lat="45.66785" lon="-1.03416">
        <ele>16.4</ele>
        <time>2023-08-06T07:27:08Z</time>
      </trkpt>
      <trkpt lat="45.66795" lon="-1.03403">
        <ele>17</ele>
        <time>2023-08-06T07:27:13Z</time>
      </trkpt>
      <trkpt lat="45.66797" lon="-1.03401">
        <ele>17</ele>
        <time>2023-08-06T07:27:14Z</time>
      </trkpt>
      <trkpt lat="45.66809" lon="-1.0338">
        <ele>17.4</ele>
        <time>2023-08-06T07:27:20Z</time>
      </trkpt>
      <trkpt lat="45.66821" lon="-1.03369">
        <ele>18</ele>
        <time>2023-08-06T07:27:26Z</time>
      </trkpt>
      <trkpt lat="45.66825" lon="-1.03366">
        <ele>18.2</ele>
        <time>2023-08-06T07:27:28Z</time>
      </trkpt>
      <trkpt lat="45.66833" lon="-1.03367">
        <ele>18.2</ele>
        <time>2023-08-06T07:27:31Z</time>
      </trkpt>
      <trkpt lat="45.66842" lon="-1.03366">
        <ele>18.2</ele>
        <time>2023-08-06T07:27:35Z</time>
      </trkpt>
      <trkpt lat="45.66847" lon="-1.03363">
        <ele>18.4</ele>
        <time>2023-08-06T07:27:38Z</time>
      </trkpt>
      <trkpt lat="45.66852" lon="-1.03366">
        <ele>18.4</ele>
        <time>2023-08-06T07:27:40Z</time>
      </trkpt>
      <trkpt lat="45.66857" lon="-1.0337">
        <ele>18.4</ele>
        <time>2023-08-06T07:27:43Z</time>
      </trkpt>
      <trkpt lat="45.66859" lon="-1.03367">
        <ele>18.4</ele>
        <time>2023-08-06T07:27:45Z</time>
      </trkpt>
      <trkpt lat="45.66865" lon="-1.03355">
        <ele>18.8</ele>
        <time>2023-08-06T07:27:51Z</time>
      </trkpt>
      <trkpt lat="45.66866" lon="-1.03353">
        <ele>19</ele>
        <time>2023-08-06T07:27:52Z</time>
      </trkpt>
      <trkpt lat="45.66873" lon="-1.03348">
        <ele>19</ele>
        <time>2023-08-06T07:27:55Z</time>
      </trkpt>
      <trkpt lat="45.66877" lon="-1.03345">
        <ele>19.2</ele>
        <time>2023-08-06T07:27:57Z</time>
      </trkpt>
      <trkpt lat="45.66879" lon="-1.03338">
        <ele>19.2</ele>
        <time>2023-08-06T07:27:59Z</time>
      </trkpt>
      <trkpt lat="45.6688" lon="-1.03332">
        <ele>19</ele>
        <time>2023-08-06T07:28:01Z</time>
      </trkpt>
      <trkpt lat="45.66884" lon="-1.03331">
        <ele>19.2</ele>
        <time>2023-08-06T07:28:03Z</time>
      </trkpt>
      <trkpt lat="45.66889" lon="-1.03329">
        <ele>19</ele>
        <time>2023-08-06T07:28:06Z</time>
      </trkpt>
      <trkpt lat="45.66894" lon="-1.03332">
        <ele>19.2</ele>
        <time>2023-08-06T07:28:09Z</time>
      </trkpt>
      <trkpt lat="45.66898" lon="-1.03337">
        <ele>19</ele>
        <time>2023-08-06T07:28:12Z</time>
      </trkpt>
      <trkpt lat="45.66898" lon="-1.0334">
        <ele>19.2</ele>
        <time>2023-08-06T07:28:14Z</time>
      </trkpt>
      <trkpt lat="45.66902" lon="-1.03347">
        <ele>19.2</ele>
        <time>2023-08-06T07:28:17Z</time>
      </trkpt>
      <trkpt lat="45.66902" lon="-1.03349">
        <ele>19.4</ele>
        <time>2023-08-06T07:28:18Z</time>
      </trkpt>
      <trkpt lat="45.66904" lon="-1.03354">
        <ele>19.6</ele>
        <time>2023-08-06T07:28:21Z</time>
      </trkpt>
      <trkpt lat="45.66906" lon="-1.03357">
        <ele>19.4</ele>
        <time>2023-08-06T07:28:23Z</time>
      </trkpt>
      <trkpt lat="45.66909" lon="-1.0336">
        <ele>19.4</ele>
        <time>2023-08-06T07:28:25Z</time>
      </trkpt>
      <trkpt lat="45.66911" lon="-1.03367">
        <ele>19.2</ele>
        <time>2023-08-06T07:28:28Z</time>
      </trkpt>
      <trkpt lat="45.66909" lon="-1.03376">
        <ele>19.2</ele>
        <time>2023-08-06T07:28:32Z</time>
      </trkpt>
      <trkpt lat="45.66909" lon="-1.03379">
        <ele>19.2</ele>
        <time>2023-08-06T07:28:33Z</time>
      </trkpt>
      <trkpt lat="45.6691" lon="-1.03386">
        <ele>19</ele>
        <time>2023-08-06T07:28:36Z</time>
      </trkpt>
      <trkpt lat="45.66909" lon="-1.03389">
        <ele>18.6</ele>
        <time>2023-08-06T07:28:38Z</time>
      </trkpt>
      <trkpt lat="45.66909" lon="-1.03392">
        <ele>18.6</ele>
        <time>2023-08-06T07:28:39Z</time>
      </trkpt>
      <trkpt lat="45.66909" lon="-1.03397">
        <ele>18.6</ele>
        <time>2023-08-06T07:28:41Z</time>
      </trkpt>
      <trkpt lat="45.6691" lon="-1.03408">
        <ele>18.6</ele>
        <time>2023-08-06T07:28:44Z</time>
      </trkpt>
      <trkpt lat="45.6691" lon="-1.03412">
        <ele>18.8</ele>
        <time>2023-08-06T07:28:45Z</time>
      </trkpt>
      <trkpt lat="45.66906" lon="-1.03422">
        <ele>18.8</ele>
        <time>2023-08-06T07:28:48Z</time>
      </trkpt>
      <trkpt lat="45.66903" lon="-1.0344">
        <ele>18.8</ele>
        <time>2023-08-06T07:28:53Z</time>
      </trkpt>
      <trkpt lat="45.66899" lon="-1.0345">
        <ele>18.8</ele>
        <time>2023-08-06T07:28:56Z</time>
      </trkpt>
      <trkpt lat="45.66899" lon="-1.03459">
        <ele>18.8</ele>
        <time>2023-08-06T07:28:58Z</time>
      </trkpt>
      <trkpt lat="45.66904" lon="-1.0348">
        <ele>18.2</ele>
        <time>2023-08-06T07:29:03Z</time>
      </trkpt>
      <trkpt lat="45.66904" lon="-1.03484">
        <ele>18.2</ele>
        <time>2023-08-06T07:29:04Z</time>
      </trkpt>
      <trkpt lat="45.66903" lon="-1.03494">
        <ele>18.2</ele>
        <time>2023-08-06T07:29:06Z</time>
      </trkpt>
      <trkpt lat="45.66903" lon="-1.03504">
        <ele>18.2</ele>
        <time>2023-08-06T07:29:08Z</time>
      </trkpt>
      <trkpt lat="45.66901" lon="-1.03512">
        <ele>18</ele>
        <time>2023-08-06T07:29:10Z</time>
      </trkpt>
      <trkpt lat="45.66894" lon="-1.03523">
        <ele>17.6</ele>
        <time>2023-08-06T07:29:14Z</time>
      </trkpt>
      <trkpt lat="45.66892" lon="-1.03529">
        <ele>17.6</ele>
        <time>2023-08-06T07:29:16Z</time>
      </trkpt>
      <trkpt lat="45.66892" lon="-1.03541">
        <ele>17.8</ele>
        <time>2023-08-06T07:29:19Z</time>
      </trkpt>
      <trkpt lat="45.66891" lon="-1.03554">
        <ele>17.6</ele>
        <time>2023-08-06T07:29:22Z</time>
      </trkpt>
      <trkpt lat="45.66892" lon="-1.03557">
        <ele>17.6</ele>
        <time>2023-08-06T07:29:23Z</time>
      </trkpt>
      <trkpt lat="45.66894" lon="-1.03563">
        <ele>17.6</ele>
        <time>2023-08-06T07:29:25Z</time>
      </trkpt>
      <trkpt lat="45.66896" lon="-1.03571">
        <ele>17.8</ele>
        <time>2023-08-06T07:29:27Z</time>
      </trkpt>
      <trkpt lat="45.66897" lon="-1.03575">
        <ele>17.8</ele>
        <time>2023-08-06T07:29:28Z</time>
      </trkpt>
      <trkpt lat="45.66895" lon="-1.03584">
        <ele>17.8</ele>
        <time>2023-08-06T07:29:30Z</time>
      </trkpt>
      <trkpt lat="45.66894" lon="-1.03589">
        <ele>17.8</ele>
        <time>2023-08-06T07:29:31Z</time>
      </trkpt>
      <trkpt lat="45.66894" lon="-1.03595">
        <ele>18</ele>
        <time>2023-08-06T07:29:32Z</time>
      </trkpt>
      <trkpt lat="45.66896" lon="-1.03606">
        <ele>17.8</ele>
        <time>2023-08-06T07:29:35Z</time>
      </trkpt>
      <trkpt lat="45.66898" lon="-1.03624">
        <ele>17.2</ele>
        <time>2023-08-06T07:29:40Z</time>
      </trkpt>
      <trkpt lat="45.66893" lon="-1.03627">
        <ele>17.2</ele>
        <time>2023-08-06T07:29:43Z</time>
      </trkpt>
      <trkpt lat="45.66892" lon="-1.03625">
        <ele>17.2</ele>
        <time>2023-08-06T07:29:44Z</time>
      </trkpt>
      <trkpt lat="45.66886" lon="-1.0362">
        <ele>17</ele>
        <time>2023-08-06T07:29:47Z</time>
      </trkpt>
      <trkpt lat="45.66881" lon="-1.03614">
        <ele>17</ele>
        <time>2023-08-06T07:29:51Z</time>
      </trkpt>
      <trkpt lat="45.66875" lon="-1.03607">
        <ele>16.8</ele>
        <time>2023-08-06T07:29:54Z</time>
      </trkpt>
      <trkpt lat="45.66874" lon="-1.03605">
        <ele>16.8</ele>
        <time>2023-08-06T07:29:56Z</time>
      </trkpt>
      <trkpt lat="45.66875" lon="-1.03605">
        <ele>16.8</ele>
        <time>2023-08-06T07:29:58Z</time>
      </trkpt>
      <trkpt lat="45.66877" lon="-1.03601">
        <ele>16.8</ele>
        <time>2023-08-06T07:30:00Z</time>
      </trkpt>
      <trkpt lat="45.66876" lon="-1.03598">
        <ele>16.8</ele>
        <time>2023-08-06T07:30:01Z</time>
      </trkpt>
      <trkpt lat="45.66872" lon="-1.03591">
        <ele>17</ele>
        <time>2023-08-06T07:30:04Z</time>
      </trkpt>
      <trkpt lat="45.66871" lon="-1.03588">
        <ele>17</ele>
        <time>2023-08-06T07:30:05Z</time>
      </trkpt>
      <trkpt lat="45.66869" lon="-1.03582">
        <ele>17</ele>
        <time>2023-08-06T07:30:07Z</time>
      </trkpt>
      <trkpt lat="45.66867" lon="-1.0358">
        <ele>17.2</ele>
        <time>2023-08-06T07:30:08Z</time>
      </trkpt>
      <trkpt lat="45.66854" lon="-1.03566">
        <ele>17.4</ele>
        <time>2023-08-06T07:30:13Z</time>
      </trkpt>
      <trkpt lat="45.66853" lon="-1.03564">
        <ele>17.2</ele>
        <time>2023-08-06T07:30:14Z</time>
      </trkpt>
      <trkpt lat="45.6685" lon="-1.03555">
        <ele>17.4</ele>
        <time>2023-08-06T07:30:17Z</time>
      </trkpt>
      <trkpt lat="45.66849" lon="-1.03549">
        <ele>17.8</ele>
        <time>2023-08-06T07:30:19Z</time>
      </trkpt>
      <trkpt lat="45.66851" lon="-1.03545">
        <ele>17.8</ele>
        <time>2023-08-06T07:30:21Z</time>
      </trkpt>
      <trkpt lat="45.66852" lon="-1.03543">
        <ele>18</ele>
        <time>2023-08-06T07:30:22Z</time>
      </trkpt>
      <trkpt lat="45.66853" lon="-1.03532">
        <ele>17.8</ele>
        <time>2023-08-06T07:30:25Z</time>
      </trkpt>
      <trkpt lat="45.66853" lon="-1.03528">
        <ele>17.8</ele>
        <time>2023-08-06T07:30:26Z</time>
      </trkpt>
      <trkpt lat="45.66854" lon="-1.0352">
        <ele>17.8</ele>
        <time>2023-08-06T07:30:28Z</time>
      </trkpt>
      <trkpt lat="45.66853" lon="-1.03508">
        <ele>17.8</ele>
        <time>2023-08-06T07:30:31Z</time>
      </trkpt>
      <trkpt lat="45.66852" lon="-1.035">
        <ele>17.8</ele>
        <time>2023-08-06T07:30:34Z</time>
      </trkpt>
      <trkpt lat="45.66851" lon="-1.03498">
        <ele>17.8</ele>
        <time>2023-08-06T07:30:35Z</time>
      </trkpt>
      <trkpt lat="45.66849" lon="-1.03498">
        <ele>17.8</ele>
        <time>2023-08-06T07:30:36Z</time>
      </trkpt>
      <trkpt lat="45.6684" lon="-1.03497">
        <ele>17.6</ele>
        <time>2023-08-06T07:30:40Z</time>
      </trkpt>
      <trkpt lat="45.66826" lon="-1.03503">
        <ele>17.4</ele>
        <time>2023-08-06T07:30:45Z</time>
      </trkpt>
      <trkpt lat="45.6682" lon="-1.03518">
        <ele>17.4</ele>
        <time>2023-08-06T07:30:49Z</time>
      </trkpt>
      <trkpt lat="45.66821" lon="-1.03524">
        <ele>17.4</ele>
        <time>2023-08-06T07:30:50Z</time>
      </trkpt>
      <trkpt lat="45.66828" lon="-1.03542">
        <ele>17.6</ele>
        <time>2023-08-06T07:30:53Z</time>
      </trkpt>
      <trkpt lat="45.66832" lon="-1.03554">
        <ele>17.8</ele>
        <time>2023-08-06T07:30:55Z</time>
      </trkpt>
      <trkpt lat="45.66841" lon="-1.03581">
        <ele>18</ele>
        <time>2023-08-06T07:30:59Z</time>
      </trkpt>
      <trkpt lat="45.66853" lon="-1.03629">
        <ele>18</ele>
        <time>2023-08-06T07:31:05Z</time>
      </trkpt>
      <trkpt lat="45.66863" lon="-1.03677">
        <ele>17.6</ele>
        <time>2023-08-06T07:31:11Z</time>
      </trkpt>
      <trkpt lat="45.66871" lon="-1.03705">
        <ele>17.8</ele>
        <time>2023-08-06T07:31:15Z</time>
      </trkpt>
      <trkpt lat="45.66877" lon="-1.03718">
        <ele>18</ele>
        <time>2023-08-06T07:31:17Z</time>
      </trkpt>
      <trkpt lat="45.6689" lon="-1.03737">
        <ele>18</ele>
        <time>2023-08-06T07:31:21Z</time>
      </trkpt>
      <trkpt lat="45.66899" lon="-1.03757">
        <ele>18</ele>
        <time>2023-08-06T07:31:26Z</time>
      </trkpt>
      <trkpt lat="45.66899" lon="-1.03763">
        <ele>18</ele>
        <time>2023-08-06T07:31:27Z</time>
      </trkpt>
      <trkpt lat="45.66899" lon="-1.03776">
        <ele>18</ele>
        <time>2023-08-06T07:31:29Z</time>
      </trkpt>
      <trkpt lat="45.66898" lon="-1.03782">
        <ele>18</ele>
        <time>2023-08-06T07:31:30Z</time>
      </trkpt>
      <trkpt lat="45.66899" lon="-1.03797">
        <ele>18</ele>
        <time>2023-08-06T07:31:32Z</time>
      </trkpt>
      <trkpt lat="45.66906" lon="-1.03809">
        <ele>18.2</ele>
        <time>2023-08-06T07:31:34Z</time>
      </trkpt>
      <trkpt lat="45.66915" lon="-1.03817">
        <ele>18.2</ele>
        <time>2023-08-06T07:31:36Z</time>
      </trkpt>
      <trkpt lat="45.66924" lon="-1.03823">
        <ele>18.2</ele>
        <time>2023-08-06T07:31:38Z</time>
      </trkpt>
      <trkpt lat="45.66943" lon="-1.03832">
        <ele>18.4</ele>
        <time>2023-08-06T07:31:42Z</time>
      </trkpt>
      <trkpt lat="45.66951" lon="-1.03832">
        <ele>18.2</ele>
        <time>2023-08-06T07:31:44Z</time>
      </trkpt>
      <trkpt lat="45.66957" lon="-1.03827">
        <ele>18.4</ele>
        <time>2023-08-06T07:31:46Z</time>
      </trkpt>
      <trkpt lat="45.66967" lon="-1.03816">
        <ele>18.2</ele>
        <time>2023-08-06T07:31:49Z</time>
      </trkpt>
      <trkpt lat="45.66978" lon="-1.03804">
        <ele>18</ele>
        <time>2023-08-06T07:31:53Z</time>
      </trkpt>
      <trkpt lat="45.66982" lon="-1.038">
        <ele>18</ele>
        <time>2023-08-06T07:31:55Z</time>
      </trkpt>
      <trkpt lat="45.66984" lon="-1.03798">
        <ele>17.8</ele>
        <time>2023-08-06T07:31:56Z</time>
      </trkpt>
      <trkpt lat="45.66989" lon="-1.0379">
        <ele>17.8</ele>
        <time>2023-08-06T07:32:00Z</time>
      </trkpt>
      <trkpt lat="45.66988" lon="-1.03789">
        <ele>17.8</ele>
        <time>2023-08-06T07:32:01Z</time>
      </trkpt>
      <trkpt lat="45.66984" lon="-1.03789">
        <ele>17.8</ele>
        <time>2023-08-06T07:32:04Z</time>
      </trkpt>
      <trkpt lat="45.66983" lon="-1.03788">
        <ele>17.8</ele>
        <time>2023-08-06T07:32:05Z</time>
      </trkpt>
      <trkpt lat="45.66975" lon="-1.03783">
        <ele>17.6</ele>
        <time>2023-08-06T07:32:09Z</time>
      </trkpt>
      <trkpt lat="45.6697" lon="-1.03777">
        <ele>17.8</ele>
        <time>2023-08-06T07:32:12Z</time>
      </trkpt>
      <trkpt lat="45.66967" lon="-1.0378">
        <ele>17.8</ele>
        <time>2023-08-06T07:32:14Z</time>
      </trkpt>
      <trkpt lat="45.66958" lon="-1.03781">
        <ele>18</ele>
        <time>2023-08-06T07:32:18Z</time>
      </trkpt>
      <trkpt lat="45.66953" lon="-1.03783">
        <ele>17.8</ele>
        <time>2023-08-06T07:32:22Z</time>
      </trkpt>
      <trkpt lat="45.66951" lon="-1.03782">
        <ele>17.8</ele>
        <time>2023-08-06T07:32:23Z</time>
      </trkpt>
      <trkpt lat="45.66948" lon="-1.0378">
        <ele>17.8</ele>
        <time>2023-08-06T07:32:24Z</time>
      </trkpt>
      <trkpt lat="45.66947" lon="-1.03772">
        <ele>17.8</ele>
        <time>2023-08-06T07:32:26Z</time>
      </trkpt>
      <trkpt lat="45.66945" lon="-1.03763">
        <ele>17.8</ele>
        <time>2023-08-06T07:32:28Z</time>
      </trkpt>
      <trkpt lat="45.66944" lon="-1.03755">
        <ele>17.8</ele>
        <time>2023-08-06T07:32:30Z</time>
      </trkpt>
      <trkpt lat="45.66944" lon="-1.03752">
        <ele>17.8</ele>
        <time>2023-08-06T07:32:31Z</time>
      </trkpt>
      <trkpt lat="45.66945" lon="-1.03752">
        <ele>17.8</ele>
        <time>2023-08-06T07:32:33Z</time>
      </trkpt>
      <trkpt lat="45.66947" lon="-1.03752">
        <ele>17.6</ele>
        <time>2023-08-06T07:32:34Z</time>
      </trkpt>
      <trkpt lat="45.66949" lon="-1.03753">
        <ele>17.8</ele>
        <time>2023-08-06T07:32:37Z</time>
      </trkpt>
      <trkpt lat="45.6695" lon="-1.03751">
        <ele>17.8</ele>
        <time>2023-08-06T07:32:38Z</time>
      </trkpt>
      <trkpt lat="45.66953" lon="-1.03746">
        <ele>18</ele>
        <time>2023-08-06T07:32:41Z</time>
      </trkpt>
      <trkpt lat="45.66956" lon="-1.03738">
        <ele>18</ele>
        <time>2023-08-06T07:32:44Z</time>
      </trkpt>
      <trkpt lat="45.66956" lon="-1.03721">
        <ele>18</ele>
        <time>2023-08-06T07:32:49Z</time>
      </trkpt>
      <trkpt lat="45.66959" lon="-1.03714">
        <ele>18</ele>
        <time>2023-08-06T07:32:52Z</time>
      </trkpt>
      <trkpt lat="45.66958" lon="-1.03707">
        <ele>17.8</ele>
        <time>2023-08-06T07:32:54Z</time>
      </trkpt>
      <trkpt lat="45.66956" lon="-1.03689">
        <ele>18</ele>
        <time>2023-08-06T07:32:58Z</time>
      </trkpt>
      <trkpt lat="45.66949" lon="-1.03679">
        <ele>18</ele>
        <time>2023-08-06T07:33:02Z</time>
      </trkpt>
      <trkpt lat="45.6694" lon="-1.03665">
        <ele>18.8</ele>
        <time>2023-08-06T07:33:07Z</time>
      </trkpt>
      <trkpt lat="45.66939" lon="-1.03662">
        <ele>18.4</ele>
        <time>2023-08-06T07:33:08Z</time>
      </trkpt>
      <trkpt lat="45.6694" lon="-1.03652">
        <ele>18</ele>
        <time>2023-08-06T07:33:11Z</time>
      </trkpt>
      <trkpt lat="45.66943" lon="-1.03647">
        <ele>18</ele>
        <time>2023-08-06T07:33:13Z</time>
      </trkpt>
      <trkpt lat="45.66945" lon="-1.03641">
        <ele>18</ele>
        <time>2023-08-06T07:33:15Z</time>
      </trkpt>
      <trkpt lat="45.66945" lon="-1.03638">
        <ele>18.2</ele>
        <time>2023-08-06T07:33:16Z</time>
      </trkpt>
      <trkpt lat="45.66941" lon="-1.03629">
        <ele>17.6</ele>
        <time>2023-08-06T07:33:21Z</time>
      </trkpt>
      <trkpt lat="45.66934" lon="-1.03616">
        <ele>17.2</ele>
        <time>2023-08-06T07:33:28Z</time>
      </trkpt>
      <trkpt lat="45.6693" lon="-1.03591">
        <ele>17.4</ele>
        <time>2023-08-06T07:33:35Z</time>
      </trkpt>
      <trkpt lat="45.66928" lon="-1.03581">
        <ele>17.6</ele>
        <time>2023-08-06T07:33:39Z</time>
      </trkpt>
      <trkpt lat="45.66929" lon="-1.03579">
        <ele>17.6</ele>
        <time>2023-08-06T07:33:41Z</time>
      </trkpt>
      <trkpt lat="45.66932" lon="-1.03565">
        <ele>17.8</ele>
        <time>2023-08-06T07:33:53Z</time>
      </trkpt>
      <trkpt lat="45.66936" lon="-1.03568">
        <ele>17.4</ele>
        <time>2023-08-06T07:34:00Z</time>
      </trkpt>
      <trkpt lat="45.66938" lon="-1.03569">
        <ele>17.4</ele>
        <time>2023-08-06T07:34:02Z</time>
      </trkpt>
      <trkpt lat="45.66939" lon="-1.0357">
        <ele>17.4</ele>
        <time>2023-08-06T07:34:03Z</time>
      </trkpt>
      <trkpt lat="45.6694" lon="-1.03572">
        <ele>17.4</ele>
        <time>2023-08-06T07:34:05Z</time>
      </trkpt>
      <trkpt lat="45.66941" lon="-1.03578">
        <ele>17.6</ele>
        <time>2023-08-06T07:34:08Z</time>
      </trkpt>
      <trkpt lat="45.66944" lon="-1.03585">
        <ele>17.6</ele>
        <time>2023-08-06T07:34:11Z</time>
      </trkpt>
      <trkpt lat="45.66948" lon="-1.0359">
        <ele>17.6</ele>
        <time>2023-08-06T07:34:14Z</time>
      </trkpt>
      <trkpt lat="45.6695" lon="-1.0359">
        <ele>17.6</ele>
        <time>2023-08-06T07:34:15Z</time>
      </trkpt>
      <trkpt lat="45.66951" lon="-1.03591">
        <ele>17.6</ele>
        <time>2023-08-06T07:34:16Z</time>
      </trkpt>
      <trkpt lat="45.66953" lon="-1.03594">
        <ele>17.6</ele>
        <time>2023-08-06T07:34:19Z</time>
      </trkpt>
      <trkpt lat="45.66955" lon="-1.03595">
        <ele>17.8</ele>
        <time>2023-08-06T07:34:22Z</time>
      </trkpt>
      <trkpt lat="45.66958" lon="-1.03599">
        <ele>17.8</ele>
        <time>2023-08-06T07:34:25Z</time>
      </trkpt>
      <trkpt lat="45.66962" lon="-1.03599">
        <ele>18.2</ele>
        <time>2023-08-06T07:34:27Z</time>
      </trkpt>
      <trkpt lat="45.66965" lon="-1.03597">
        <ele>18.4</ele>
        <time>2023-08-06T07:34:28Z</time>
      </trkpt>
      <trkpt lat="45.66969" lon="-1.03592">
        <ele>18.2</ele>
        <time>2023-08-06T07:34:32Z</time>
      </trkpt>
      <trkpt lat="45.66971" lon="-1.03589">
        <ele>18.2</ele>
        <time>2023-08-06T07:34:33Z</time>
      </trkpt>
      <trkpt lat="45.66971" lon="-1.03584">
        <ele>17.8</ele>
        <time>2023-08-06T07:34:35Z</time>
      </trkpt>
      <trkpt lat="45.66969" lon="-1.03579">
        <ele>17.6</ele>
        <time>2023-08-06T07:34:37Z</time>
      </trkpt>
      <trkpt lat="45.6696" lon="-1.03567">
        <ele>17.4</ele>
        <time>2023-08-06T07:34:42Z</time>
      </trkpt>
      <trkpt lat="45.66959" lon="-1.03565">
        <ele>17.6</ele>
        <time>2023-08-06T07:34:43Z</time>
      </trkpt>
      <trkpt lat="45.66954" lon="-1.03546">
        <ele>18</ele>
        <time>2023-08-06T07:34:49Z</time>
      </trkpt>
      <trkpt lat="45.66955" lon="-1.03537">
        <ele>18.2</ele>
        <time>2023-08-06T07:34:52Z</time>
      </trkpt>
      <trkpt lat="45.66956" lon="-1.0353">
        <ele>18.4</ele>
        <time>2023-08-06T07:34:54Z</time>
      </trkpt>
      <trkpt lat="45.66961" lon="-1.03511">
        <ele>18.6</ele>
        <time>2023-08-06T07:34:58Z</time>
      </trkpt>
      <trkpt lat="45.66962" lon="-1.03502">
        <ele>18.6</ele>
        <time>2023-08-06T07:35:00Z</time>
      </trkpt>
      <trkpt lat="45.66963" lon="-1.035">
        <ele>18.6</ele>
        <time>2023-08-06T07:35:01Z</time>
      </trkpt>
      <trkpt lat="45.66967" lon="-1.03495">
        <ele>18.8</ele>
        <time>2023-08-06T07:35:04Z</time>
      </trkpt>
      <trkpt lat="45.66969" lon="-1.03488">
        <ele>18.8</ele>
        <time>2023-08-06T07:35:07Z</time>
      </trkpt>
      <trkpt lat="45.66969" lon="-1.03481">
        <ele>18.8</ele>
        <time>2023-08-06T07:35:09Z</time>
      </trkpt>
      <trkpt lat="45.66971" lon="-1.03475">
        <ele>18.8</ele>
        <time>2023-08-06T07:35:11Z</time>
      </trkpt>
      <trkpt lat="45.66973" lon="-1.03465">
        <ele>19</ele>
        <time>2023-08-06T07:35:14Z</time>
      </trkpt>
      <trkpt lat="45.66974" lon="-1.03463">
        <ele>19</ele>
        <time>2023-08-06T07:35:15Z</time>
      </trkpt>
      <trkpt lat="45.6698" lon="-1.03454">
        <ele>19</ele>
        <time>2023-08-06T07:35:18Z</time>
      </trkpt>
      <trkpt lat="45.66985" lon="-1.0345">
        <ele>19</ele>
        <time>2023-08-06T07:35:20Z</time>
      </trkpt>
      <trkpt lat="45.6699" lon="-1.03448">
        <ele>19</ele>
        <time>2023-08-06T07:35:22Z</time>
      </trkpt>
      <trkpt lat="45.66998" lon="-1.03445">
        <ele>19.2</ele>
        <time>2023-08-06T07:35:25Z</time>
      </trkpt>
      <trkpt lat="45.67001" lon="-1.03445">
        <ele>19</ele>
        <time>2023-08-06T07:35:27Z</time>
      </trkpt>
      <trkpt lat="45.67008" lon="-1.03446">
        <ele>19.2</ele>
        <time>2023-08-06T07:35:30Z</time>
      </trkpt>
      <trkpt lat="45.67012" lon="-1.03444">
        <ele>19.4</ele>
        <time>2023-08-06T07:35:33Z</time>
      </trkpt>
      <trkpt lat="45.67018" lon="-1.03438">
        <ele>19.4</ele>
        <time>2023-08-06T07:35:36Z</time>
      </trkpt>
      <trkpt lat="45.6702" lon="-1.03435">
        <ele>19.4</ele>
        <time>2023-08-06T07:35:37Z</time>
      </trkpt>
      <trkpt lat="45.67022" lon="-1.03424">
        <ele>19.8</ele>
        <time>2023-08-06T07:35:40Z</time>
      </trkpt>
      <trkpt lat="45.67021" lon="-1.03418">
        <ele>19.8</ele>
        <time>2023-08-06T07:35:42Z</time>
      </trkpt>
      <trkpt lat="45.67021" lon="-1.03412">
        <ele>19.4</ele>
        <time>2023-08-06T07:35:44Z</time>
      </trkpt>
      <trkpt lat="45.67022" lon="-1.03401">
        <ele>19.2</ele>
        <time>2023-08-06T07:35:47Z</time>
      </trkpt>
      <trkpt lat="45.67024" lon="-1.03398">
        <ele>19</ele>
        <time>2023-08-06T07:35:48Z</time>
      </trkpt>
      <trkpt lat="45.67025" lon="-1.03397">
        <ele>19</ele>
        <time>2023-08-06T07:35:49Z</time>
      </trkpt>
      <trkpt lat="45.67036" lon="-1.03392">
        <ele>19.2</ele>
        <time>2023-08-06T07:35:54Z</time>
      </trkpt>
      <trkpt lat="45.67037" lon="-1.0339">
        <ele>19.4</ele>
        <time>2023-08-06T07:35:55Z</time>
      </trkpt>
      <trkpt lat="45.6704" lon="-1.03384">
        <ele>19.4</ele>
        <time>2023-08-06T07:35:58Z</time>
      </trkpt>
      <trkpt lat="45.67039" lon="-1.03378">
        <ele>19.6</ele>
        <time>2023-08-06T07:36:00Z</time>
      </trkpt>
      <trkpt lat="45.67042" lon="-1.03368">
        <ele>19.8</ele>
        <time>2023-08-06T07:36:03Z</time>
      </trkpt>
      <trkpt lat="45.67044" lon="-1.03366">
        <ele>20</ele>
        <time>2023-08-06T07:36:04Z</time>
      </trkpt>
      <trkpt lat="45.67052" lon="-1.03369">
        <ele>19.8</ele>
        <time>2023-08-06T07:36:08Z</time>
      </trkpt>
      <trkpt lat="45.67054" lon="-1.0337">
        <ele>19.6</ele>
        <time>2023-08-06T07:36:09Z</time>
      </trkpt>
      <trkpt lat="45.6706" lon="-1.03365">
        <ele>19.4</ele>
        <time>2023-08-06T07:36:12Z</time>
      </trkpt>
      <trkpt lat="45.67065" lon="-1.03357">
        <ele>19.6</ele>
        <time>2023-08-06T07:36:15Z</time>
      </trkpt>
      <trkpt lat="45.67068" lon="-1.03354">
        <ele>19.8</ele>
        <time>2023-08-06T07:36:17Z</time>
      </trkpt>
      <trkpt lat="45.6707" lon="-1.03353">
        <ele>20</ele>
        <time>2023-08-06T07:36:18Z</time>
      </trkpt>
      <trkpt lat="45.67074" lon="-1.03345">
        <ele>20.2</ele>
        <time>2023-08-06T07:36:21Z</time>
      </trkpt>
      <trkpt lat="45.67076" lon="-1.03343">
        <ele>20.2</ele>
        <time>2023-08-06T07:36:22Z</time>
      </trkpt>
      <trkpt lat="45.67084" lon="-1.03332">
        <ele>19.8</ele>
        <time>2023-08-06T07:36:25Z</time>
      </trkpt>
      <trkpt lat="45.67083" lon="-1.0333">
        <ele>19.6</ele>
        <time>2023-08-06T07:36:27Z</time>
      </trkpt>
      <trkpt lat="45.67083" lon="-1.03324">
        <ele>19.8</ele>
        <time>2023-08-06T07:36:31Z</time>
      </trkpt>
      <trkpt lat="45.67082" lon="-1.03323">
        <ele>19.6</ele>
        <time>2023-08-06T07:36:32Z</time>
      </trkpt>
      <trkpt lat="45.67076" lon="-1.03315">
        <ele>19.8</ele>
        <time>2023-08-06T07:36:36Z</time>
      </trkpt>
      <trkpt lat="45.67075" lon="-1.03313">
        <ele>20</ele>
        <time>2023-08-06T07:36:37Z</time>
      </trkpt>
      <trkpt lat="45.67073" lon="-1.03311">
        <ele>20</ele>
        <time>2023-08-06T07:36:39Z</time>
      </trkpt>
      <trkpt lat="45.67072" lon="-1.03309">
        <ele>20</ele>
        <time>2023-08-06T07:36:40Z</time>
      </trkpt>
      <trkpt lat="45.6707" lon="-1.03307">
        <ele>20</ele>
        <time>2023-08-06T07:36:41Z</time>
      </trkpt>
      <trkpt lat="45.67067" lon="-1.03307">
        <ele>19.8</ele>
        <time>2023-08-06T07:36:43Z</time>
      </trkpt>
      <trkpt lat="45.67065" lon="-1.03308">
        <ele>19.6</ele>
        <time>2023-08-06T07:36:45Z</time>
      </trkpt>
      <trkpt lat="45.67059" lon="-1.03313">
        <ele>19.2</ele>
        <time>2023-08-06T07:36:49Z</time>
      </trkpt>
      <trkpt lat="45.67058" lon="-1.03315">
        <ele>19.2</ele>
        <time>2023-08-06T07:36:50Z</time>
      </trkpt>
      <trkpt lat="45.67054" lon="-1.03321">
        <ele>19</ele>
        <time>2023-08-06T07:36:53Z</time>
      </trkpt>
      <trkpt lat="45.67051" lon="-1.0332">
        <ele>19.2</ele>
        <time>2023-08-06T07:36:55Z</time>
      </trkpt>
      <trkpt lat="45.67049" lon="-1.0332">
        <ele>19.2</ele>
        <time>2023-08-06T07:36:56Z</time>
      </trkpt>
      <trkpt lat="45.67041" lon="-1.03324">
        <ele>19</ele>
        <time>2023-08-06T07:37:00Z</time>
      </trkpt>
      <trkpt lat="45.67032" lon="-1.03329">
        <ele>19.4</ele>
        <time>2023-08-06T07:37:04Z</time>
      </trkpt>
      <trkpt lat="45.6703" lon="-1.03331">
        <ele>19.4</ele>
        <time>2023-08-06T07:37:05Z</time>
      </trkpt>
      <trkpt lat="45.67029" lon="-1.03333">
        <ele>19.4</ele>
        <time>2023-08-06T07:37:06Z</time>
      </trkpt>
      <trkpt lat="45.67026" lon="-1.03348">
        <ele>19.4</ele>
        <time>2023-08-06T07:37:10Z</time>
      </trkpt>
      <trkpt lat="45.67021" lon="-1.03352">
        <ele>19.4</ele>
        <time>2023-08-06T07:37:13Z</time>
      </trkpt>
      <trkpt lat="45.67018" lon="-1.03352">
        <ele>19.4</ele>
        <time>2023-08-06T07:37:14Z</time>
      </trkpt>
      <trkpt lat="45.67002" lon="-1.03346">
        <ele>19.2</ele>
        <time>2023-08-06T07:37:21Z</time>
      </trkpt>
      <trkpt lat="45.66998" lon="-1.03345">
        <ele>19.6</ele>
        <time>2023-08-06T07:37:23Z</time>
      </trkpt>
      <trkpt lat="45.66991" lon="-1.03343">
        <ele>19.6</ele>
        <time>2023-08-06T07:37:26Z</time>
      </trkpt>
      <trkpt lat="45.66987" lon="-1.03331">
        <ele>19.6</ele>
        <time>2023-08-06T07:37:30Z</time>
      </trkpt>
      <trkpt lat="45.66988" lon="-1.03315">
        <ele>19.6</ele>
        <time>2023-08-06T07:37:35Z</time>
      </trkpt>
      <trkpt lat="45.66988" lon="-1.03305">
        <ele>19.4</ele>
        <time>2023-08-06T07:37:38Z</time>
      </trkpt>
      <trkpt lat="45.66986" lon="-1.03303">
        <ele>19.4</ele>
        <time>2023-08-06T07:37:39Z</time>
      </trkpt>
      <trkpt lat="45.66975" lon="-1.03292">
        <ele>19.4</ele>
        <time>2023-08-06T07:37:44Z</time>
      </trkpt>
      <trkpt lat="45.66974" lon="-1.03282">
        <ele>19.2</ele>
        <time>2023-08-06T07:37:48Z</time>
      </trkpt>
      <trkpt lat="45.66975" lon="-1.03281">
        <ele>19.2</ele>
        <time>2023-08-06T07:37:49Z</time>
      </trkpt>
      <trkpt lat="45.66979" lon="-1.03275">
        <ele>19</ele>
        <time>2023-08-06T07:37:53Z</time>
      </trkpt>
      <trkpt lat="45.6698" lon="-1.03276">
        <ele>19</ele>
        <time>2023-08-06T07:37:54Z</time>
      </trkpt>
      <trkpt lat="45.66983" lon="-1.03277">
        <ele>19.4</ele>
        <time>2023-08-06T07:37:58Z</time>
      </trkpt>
      <trkpt lat="45.66987" lon="-1.03272">
        <ele>19.4</ele>
        <time>2023-08-06T07:38:01Z</time>
      </trkpt>
      <trkpt lat="45.66988" lon="-1.03267">
        <ele>19.2</ele>
        <time>2023-08-06T07:38:03Z</time>
      </trkpt>
      <trkpt lat="45.66993" lon="-1.03255">
        <ele>18.8</ele>
        <time>2023-08-06T07:38:07Z</time>
      </trkpt>
      <trkpt lat="45.66993" lon="-1.03251">
        <ele>18.8</ele>
        <time>2023-08-06T07:38:08Z</time>
      </trkpt>
      <trkpt lat="45.66989" lon="-1.03238">
        <ele>19</ele>
        <time>2023-08-06T07:38:12Z</time>
      </trkpt>
      <trkpt lat="45.66989" lon="-1.03234">
        <ele>19</ele>
        <time>2023-08-06T07:38:13Z</time>
      </trkpt>
      <trkpt lat="45.66989" lon="-1.03227">
        <ele>18.8</ele>
        <time>2023-08-06T07:38:15Z</time>
      </trkpt>
      <trkpt lat="45.66992" lon="-1.03223">
        <ele>18.8</ele>
        <time>2023-08-06T07:38:17Z</time>
      </trkpt>
      <trkpt lat="45.67001" lon="-1.03226">
        <ele>18.8</ele>
        <time>2023-08-06T07:38:22Z</time>
      </trkpt>
      <trkpt lat="45.67006" lon="-1.03218">
        <ele>19</ele>
        <time>2023-08-06T07:38:26Z</time>
      </trkpt>
      <trkpt lat="45.67018" lon="-1.03212">
        <ele>18.8</ele>
        <time>2023-08-06T07:38:31Z</time>
      </trkpt>
      <trkpt lat="45.67029" lon="-1.03218">
        <ele>18.6</ele>
        <time>2023-08-06T07:38:36Z</time>
      </trkpt>
      <trkpt lat="45.67038" lon="-1.03225">
        <ele>19.2</ele>
        <time>2023-08-06T07:38:41Z</time>
      </trkpt>
      <trkpt lat="45.67051" lon="-1.03229">
        <ele>19.4</ele>
        <time>2023-08-06T07:38:47Z</time>
      </trkpt>
      <trkpt lat="45.67052" lon="-1.03231">
        <ele>19.4</ele>
        <time>2023-08-06T07:38:48Z</time>
      </trkpt>
      <trkpt lat="45.67054" lon="-1.03235">
        <ele>19.4</ele>
        <time>2023-08-06T07:38:50Z</time>
      </trkpt>
      <trkpt lat="45.67054" lon="-1.03237">
        <ele>19.4</ele>
        <time>2023-08-06T07:38:51Z</time>
      </trkpt>
      <trkpt lat="45.67054" lon="-1.03246">
        <ele>19.2</ele>
        <time>2023-08-06T07:38:56Z</time>
      </trkpt>
      <trkpt lat="45.67057" lon="-1.03248">
        <ele>19.2</ele>
        <time>2023-08-06T07:38:58Z</time>
      </trkpt>
      <trkpt lat="45.67062" lon="-1.0325">
        <ele>19.4</ele>
        <time>2023-08-06T07:39:01Z</time>
      </trkpt>
      <trkpt lat="45.67065" lon="-1.0325">
        <ele>19.4</ele>
        <time>2023-08-06T07:39:03Z</time>
      </trkpt>
      <trkpt lat="45.67067" lon="-1.03249">
        <ele>19.6</ele>
        <time>2023-08-06T07:39:05Z</time>
      </trkpt>
      <trkpt lat="45.67071" lon="-1.03249">
        <ele>19.8</ele>
        <time>2023-08-06T07:39:08Z</time>
      </trkpt>
      <trkpt lat="45.67073" lon="-1.03244">
        <ele>19.6</ele>
        <time>2023-08-06T07:39:11Z</time>
      </trkpt>
      <trkpt lat="45.67074" lon="-1.0324">
        <ele>19.4</ele>
        <time>2023-08-06T07:39:13Z</time>
      </trkpt>
      <trkpt lat="45.67079" lon="-1.03241">
        <ele>19.2</ele>
        <time>2023-08-06T07:39:15Z</time>
      </trkpt>
      <trkpt lat="45.67095" lon="-1.03246">
        <ele>19.2</ele>
        <time>2023-08-06T07:39:21Z</time>
      </trkpt>
      <trkpt lat="45.671" lon="-1.03248">
        <ele>19.2</ele>
        <time>2023-08-06T07:39:23Z</time>
      </trkpt>
      <trkpt lat="45.67104" lon="-1.03254">
        <ele>20</ele>
        <time>2023-08-06T07:39:26Z</time>
      </trkpt>
      <trkpt lat="45.67106" lon="-1.03262">
        <ele>19.8</ele>
        <time>2023-08-06T07:39:29Z</time>
      </trkpt>
      <trkpt lat="45.67107" lon="-1.03265">
        <ele>19.6</ele>
        <time>2023-08-06T07:39:30Z</time>
      </trkpt>
      <trkpt lat="45.67112" lon="-1.03271">
        <ele>19.4</ele>
        <time>2023-08-06T07:39:33Z</time>
      </trkpt>
      <trkpt lat="45.67118" lon="-1.03273">
        <ele>19.4</ele>
        <time>2023-08-06T07:39:36Z</time>
      </trkpt>
      <trkpt lat="45.67124" lon="-1.03265">
        <ele>19.4</ele>
        <time>2023-08-06T07:39:42Z</time>
      </trkpt>
      <trkpt lat="45.67125" lon="-1.03262">
        <ele>19.4</ele>
        <time>2023-08-06T07:39:44Z</time>
      </trkpt>
      <trkpt lat="45.67129" lon="-1.03261">
        <ele>19.4</ele>
        <time>2023-08-06T07:39:46Z</time>
      </trkpt>
      <trkpt lat="45.67141" lon="-1.03264">
        <ele>19.8</ele>
        <time>2023-08-06T07:39:51Z</time>
      </trkpt>
      <trkpt lat="45.67147" lon="-1.03268">
        <ele>20</ele>
        <time>2023-08-06T07:39:54Z</time>
      </trkpt>
      <trkpt lat="45.67151" lon="-1.03267">
        <ele>19.8</ele>
        <time>2023-08-06T07:39:56Z</time>
      </trkpt>
      <trkpt lat="45.67156" lon="-1.03266">
        <ele>19.6</ele>
        <time>2023-08-06T07:39:58Z</time>
      </trkpt>
      <trkpt lat="45.67159" lon="-1.03267">
        <ele>19.6</ele>
        <time>2023-08-06T07:40:00Z</time>
      </trkpt>
      <trkpt lat="45.67161" lon="-1.03267">
        <ele>19.6</ele>
        <time>2023-08-06T07:40:01Z</time>
      </trkpt>
      <trkpt lat="45.67171" lon="-1.03273">
        <ele>19.4</ele>
        <time>2023-08-06T07:40:08Z</time>
      </trkpt>
      <trkpt lat="45.67179" lon="-1.03282">
        <ele>19.2</ele>
        <time>2023-08-06T07:40:14Z</time>
      </trkpt>
      <trkpt lat="45.67181" lon="-1.03287">
        <ele>19.2</ele>
        <time>2023-08-06T07:40:17Z</time>
      </trkpt>
      <trkpt lat="45.67183" lon="-1.03289">
        <ele>19.4</ele>
        <time>2023-08-06T07:40:18Z</time>
      </trkpt>
      <trkpt lat="45.67193" lon="-1.03293">
        <ele>20</ele>
        <time>2023-08-06T07:40:23Z</time>
      </trkpt>
      <trkpt lat="45.67205" lon="-1.03297">
        <ele>19.8</ele>
        <time>2023-08-06T07:40:29Z</time>
      </trkpt>
      <trkpt lat="45.67207" lon="-1.03298">
        <ele>19.8</ele>
        <time>2023-08-06T07:40:30Z</time>
      </trkpt>
      <trkpt lat="45.67211" lon="-1.03304">
        <ele>20</ele>
        <time>2023-08-06T07:40:33Z</time>
      </trkpt>
      <trkpt lat="45.67213" lon="-1.03306">
        <ele>20</ele>
        <time>2023-08-06T07:40:34Z</time>
      </trkpt>
      <trkpt lat="45.67222" lon="-1.03309">
        <ele>20</ele>
        <time>2023-08-06T07:40:38Z</time>
      </trkpt>
      <trkpt lat="45.67229" lon="-1.03314">
        <ele>19.8</ele>
        <time>2023-08-06T07:40:41Z</time>
      </trkpt>
      <trkpt lat="45.67233" lon="-1.03316">
        <ele>19.8</ele>
        <time>2023-08-06T07:40:42Z</time>
      </trkpt>
      <trkpt lat="45.67239" lon="-1.03319">
        <ele>20.2</ele>
        <time>2023-08-06T07:40:45Z</time>
      </trkpt>
      <trkpt lat="45.67241" lon="-1.03319">
        <ele>20.2</ele>
        <time>2023-08-06T07:40:46Z</time>
      </trkpt>
      <trkpt lat="45.67246" lon="-1.03315">
        <ele>20.4</ele>
        <time>2023-08-06T07:40:49Z</time>
      </trkpt>
      <trkpt lat="45.6725" lon="-1.03316">
        <ele>20.4</ele>
        <time>2023-08-06T07:40:51Z</time>
      </trkpt>
      <trkpt lat="45.67262" lon="-1.03325">
        <ele>20.2</ele>
        <time>2023-08-06T07:40:56Z</time>
      </trkpt>
      <trkpt lat="45.67264" lon="-1.03325">
        <ele>20.2</ele>
        <time>2023-08-06T07:40:57Z</time>
      </trkpt>
      <trkpt lat="45.6727" lon="-1.03324">
        <ele>20.2</ele>
        <time>2023-08-06T07:40:59Z</time>
      </trkpt>
      <trkpt lat="45.67273" lon="-1.03325">
        <ele>20.2</ele>
        <time>2023-08-06T07:41:00Z</time>
      </trkpt>
      <trkpt lat="45.67288" lon="-1.03329">
        <ele>20.8</ele>
        <time>2023-08-06T07:41:05Z</time>
      </trkpt>
      <trkpt lat="45.67299" lon="-1.03331">
        <ele>21</ele>
        <time>2023-08-06T07:41:09Z</time>
      </trkpt>
      <trkpt lat="45.67301" lon="-1.03333">
        <ele>21</ele>
        <time>2023-08-06T07:41:10Z</time>
      </trkpt>
      <trkpt lat="45.67305" lon="-1.03338">
        <ele>20.8</ele>
        <time>2023-08-06T07:41:12Z</time>
      </trkpt>
      <trkpt lat="45.67305" lon="-1.0334">
        <ele>20.8</ele>
        <time>2023-08-06T07:41:14Z</time>
      </trkpt>
      <trkpt lat="45.67305" lon="-1.03341">
        <ele>20.8</ele>
        <time>2023-08-06T07:41:15Z</time>
      </trkpt>
      <trkpt lat="45.67301" lon="-1.0334">
        <ele>20.6</ele>
        <time>2023-08-06T07:41:19Z</time>
      </trkpt>
      <trkpt lat="45.67299" lon="-1.0334">
        <ele>20.4</ele>
        <time>2023-08-06T07:41:20Z</time>
      </trkpt>
      <trkpt lat="45.67295" lon="-1.03341">
        <ele>20.4</ele>
        <time>2023-08-06T07:41:22Z</time>
      </trkpt>
      <trkpt lat="45.67291" lon="-1.03343">
        <ele>20.4</ele>
        <time>2023-08-06T07:41:24Z</time>
      </trkpt>
      <trkpt lat="45.67289" lon="-1.03345">
        <ele>20.4</ele>
        <time>2023-08-06T07:41:25Z</time>
      </trkpt>
      <trkpt lat="45.67288" lon="-1.03347">
        <ele>20.4</ele>
        <time>2023-08-06T07:41:26Z</time>
      </trkpt>
      <trkpt lat="45.67286" lon="-1.0335">
        <ele>20.2</ele>
        <time>2023-08-06T07:41:28Z</time>
      </trkpt>
      <trkpt lat="45.67284" lon="-1.03351">
        <ele>20.2</ele>
        <time>2023-08-06T07:41:29Z</time>
      </trkpt>
      <trkpt lat="45.67281" lon="-1.03352">
        <ele>20</ele>
        <time>2023-08-06T07:41:31Z</time>
      </trkpt>
      <trkpt lat="45.67275" lon="-1.03346">
        <ele>20.4</ele>
        <time>2023-08-06T07:41:34Z</time>
      </trkpt>
      <trkpt lat="45.67272" lon="-1.03343">
        <ele>20.2</ele>
        <time>2023-08-06T07:41:36Z</time>
      </trkpt>
      <trkpt lat="45.67269" lon="-1.03344">
        <ele>20</ele>
        <time>2023-08-06T07:41:38Z</time>
      </trkpt>
      <trkpt lat="45.67265" lon="-1.03347">
        <ele>20</ele>
        <time>2023-08-06T07:41:40Z</time>
      </trkpt>
      <trkpt lat="45.67262" lon="-1.03344">
        <ele>20</ele>
        <time>2023-08-06T07:41:42Z</time>
      </trkpt>
      <trkpt lat="45.67257" lon="-1.03342">
        <ele>20</ele>
        <time>2023-08-06T07:41:44Z</time>
      </trkpt>
      <trkpt lat="45.67251" lon="-1.03341">
        <ele>20</ele>
        <time>2023-08-06T07:41:46Z</time>
      </trkpt>
      <trkpt lat="45.67242" lon="-1.03345">
        <ele>19.6</ele>
        <time>2023-08-06T07:41:51Z</time>
      </trkpt>
      <trkpt lat="45.67241" lon="-1.03348">
        <ele>19.6</ele>
        <time>2023-08-06T07:41:53Z</time>
      </trkpt>
      <trkpt lat="45.67242" lon="-1.03353">
        <ele>19.6</ele>
        <time>2023-08-06T07:41:55Z</time>
      </trkpt>
      <trkpt lat="45.67241" lon="-1.03356">
        <ele>19.4</ele>
        <time>2023-08-06T07:41:56Z</time>
      </trkpt>
      <trkpt lat="45.67238" lon="-1.03354">
        <ele>19.4</ele>
        <time>2023-08-06T07:41:58Z</time>
      </trkpt>
      <trkpt lat="45.67235" lon="-1.0335">
        <ele>19.4</ele>
        <time>2023-08-06T07:42:00Z</time>
      </trkpt>
      <trkpt lat="45.6723" lon="-1.03347">
        <ele>19.4</ele>
        <time>2023-08-06T07:42:02Z</time>
      </trkpt>
      <trkpt lat="45.67217" lon="-1.03345">
        <ele>19.8</ele>
        <time>2023-08-06T07:42:06Z</time>
      </trkpt>
      <trkpt lat="45.67214" lon="-1.03346">
        <ele>19.8</ele>
        <time>2023-08-06T07:42:07Z</time>
      </trkpt>
      <trkpt lat="45.67211" lon="-1.03349">
        <ele>19.8</ele>
        <time>2023-08-06T07:42:09Z</time>
      </trkpt>
      <trkpt lat="45.67209" lon="-1.03355">
        <ele>19.6</ele>
        <time>2023-08-06T07:42:12Z</time>
      </trkpt>
      <trkpt lat="45.67211" lon="-1.03373">
        <ele>19.4</ele>
        <time>2023-08-06T07:42:18Z</time>
      </trkpt>
      <trkpt lat="45.67214" lon="-1.03385">
        <ele>19.2</ele>
        <time>2023-08-06T07:42:22Z</time>
      </trkpt>
      <trkpt lat="45.67214" lon="-1.03388">
        <ele>19</ele>
        <time>2023-08-06T07:42:23Z</time>
      </trkpt>
      <trkpt lat="45.67216" lon="-1.03413">
        <ele>18.6</ele>
        <time>2023-08-06T07:42:29Z</time>
      </trkpt>
      <trkpt lat="45.67213" lon="-1.03422">
        <ele>18.4</ele>
        <time>2023-08-06T07:42:32Z</time>
      </trkpt>
      <trkpt lat="45.67211" lon="-1.03422">
        <ele>18.4</ele>
        <time>2023-08-06T07:42:33Z</time>
      </trkpt>
      <trkpt lat="45.67203" lon="-1.03415">
        <ele>18.8</ele>
        <time>2023-08-06T07:42:37Z</time>
      </trkpt>
      <trkpt lat="45.67197" lon="-1.03404">
        <ele>18.6</ele>
        <time>2023-08-06T07:42:42Z</time>
      </trkpt>
      <trkpt lat="45.67185" lon="-1.03396">
        <ele>18.8</ele>
        <time>2023-08-06T07:42:47Z</time>
      </trkpt>
      <trkpt lat="45.67182" lon="-1.03399">
        <ele>18.8</ele>
        <time>2023-08-06T07:42:49Z</time>
      </trkpt>
      <trkpt lat="45.67179" lon="-1.03405">
        <ele>18.8</ele>
        <time>2023-08-06T07:42:51Z</time>
      </trkpt>
      <trkpt lat="45.67173" lon="-1.0342">
        <ele>18.6</ele>
        <time>2023-08-06T07:42:56Z</time>
      </trkpt>
      <trkpt lat="45.67168" lon="-1.0342">
        <ele>18.6</ele>
        <time>2023-08-06T07:42:59Z</time>
      </trkpt>
      <trkpt lat="45.67155" lon="-1.03414">
        <ele>18.4</ele>
        <time>2023-08-06T07:43:05Z</time>
      </trkpt>
      <trkpt lat="45.67153" lon="-1.03415">
        <ele>18.4</ele>
        <time>2023-08-06T07:43:06Z</time>
      </trkpt>
      <trkpt lat="45.67149" lon="-1.0342">
        <ele>18.6</ele>
        <time>2023-08-06T07:43:09Z</time>
      </trkpt>
      <trkpt lat="45.67148" lon="-1.03426">
        <ele>18.6</ele>
        <time>2023-08-06T07:43:11Z</time>
      </trkpt>
      <trkpt lat="45.67145" lon="-1.03436">
        <ele>18.2</ele>
        <time>2023-08-06T07:43:14Z</time>
      </trkpt>
      <trkpt lat="45.67144" lon="-1.03442">
        <ele>18.2</ele>
        <time>2023-08-06T07:43:16Z</time>
      </trkpt>
      <trkpt lat="45.67142" lon="-1.03452">
        <ele>18</ele>
        <time>2023-08-06T07:43:20Z</time>
      </trkpt>
      <trkpt lat="45.67139" lon="-1.03455">
        <ele>18</ele>
        <time>2023-08-06T07:43:22Z</time>
      </trkpt>
      <trkpt lat="45.67137" lon="-1.03454">
        <ele>17.8</ele>
        <time>2023-08-06T07:43:24Z</time>
      </trkpt>
      <trkpt lat="45.67135" lon="-1.03454">
        <ele>17.8</ele>
        <time>2023-08-06T07:43:25Z</time>
      </trkpt>
      <trkpt lat="45.67131" lon="-1.03453">
        <ele>17.8</ele>
        <time>2023-08-06T07:43:27Z</time>
      </trkpt>
      <trkpt lat="45.67129" lon="-1.03452">
        <ele>17.8</ele>
        <time>2023-08-06T07:43:28Z</time>
      </trkpt>
      <trkpt lat="45.67126" lon="-1.03452">
        <ele>17.8</ele>
        <time>2023-08-06T07:43:29Z</time>
      </trkpt>
      <trkpt lat="45.67124" lon="-1.03448">
        <ele>17.8</ele>
        <time>2023-08-06T07:43:31Z</time>
      </trkpt>
      <trkpt lat="45.67123" lon="-1.03445">
        <ele>18</ele>
        <time>2023-08-06T07:43:32Z</time>
      </trkpt>
      <trkpt lat="45.6712" lon="-1.03437">
        <ele>18.8</ele>
        <time>2023-08-06T07:43:36Z</time>
      </trkpt>
      <trkpt lat="45.67118" lon="-1.03437">
        <ele>18.8</ele>
        <time>2023-08-06T07:43:37Z</time>
      </trkpt>
      <trkpt lat="45.67104" lon="-1.03439">
        <ele>18.8</ele>
        <time>2023-08-06T07:43:43Z</time>
      </trkpt>
      <trkpt lat="45.67098" lon="-1.03452">
        <ele>18.6</ele>
        <time>2023-08-06T07:43:47Z</time>
      </trkpt>
      <trkpt lat="45.67099" lon="-1.03466">
        <ele>18.2</ele>
        <time>2023-08-06T07:43:51Z</time>
      </trkpt>
      <trkpt lat="45.67102" lon="-1.03476">
        <ele>18</ele>
        <time>2023-08-06T07:43:56Z</time>
      </trkpt>
      <trkpt lat="45.67097" lon="-1.0348">
        <ele>18</ele>
        <time>2023-08-06T07:43:59Z</time>
      </trkpt>
      <trkpt lat="45.67096" lon="-1.0348">
        <ele>18</ele>
        <time>2023-08-06T07:44:00Z</time>
      </trkpt>
      <trkpt lat="45.67094" lon="-1.03481">
        <ele>18.2</ele>
        <time>2023-08-06T07:44:01Z</time>
      </trkpt>
      <trkpt lat="45.6709" lon="-1.03487">
        <ele>18</ele>
        <time>2023-08-06T07:44:04Z</time>
      </trkpt>
      <trkpt lat="45.67082" lon="-1.03497">
        <ele>17.8</ele>
        <time>2023-08-06T07:44:09Z</time>
      </trkpt>
      <trkpt lat="45.67079" lon="-1.0351">
        <ele>18</ele>
        <time>2023-08-06T07:44:13Z</time>
      </trkpt>
      <trkpt lat="45.67075" lon="-1.03521">
        <ele>18.2</ele>
        <time>2023-08-06T07:44:16Z</time>
      </trkpt>
      <trkpt lat="45.67071" lon="-1.03525">
        <ele>18.2</ele>
        <time>2023-08-06T07:44:18Z</time>
      </trkpt>
      <trkpt lat="45.67065" lon="-1.03527">
        <ele>18</ele>
        <time>2023-08-06T07:44:21Z</time>
      </trkpt>
      <trkpt lat="45.67061" lon="-1.03524">
        <ele>18</ele>
        <time>2023-08-06T07:44:23Z</time>
      </trkpt>
      <trkpt lat="45.67057" lon="-1.03522">
        <ele>17.8</ele>
        <time>2023-08-06T07:44:25Z</time>
      </trkpt>
      <trkpt lat="45.67051" lon="-1.03524">
        <ele>18</ele>
        <time>2023-08-06T07:44:27Z</time>
      </trkpt>
      <trkpt lat="45.67039" lon="-1.03531">
        <ele>18</ele>
        <time>2023-08-06T07:44:32Z</time>
      </trkpt>
      <trkpt lat="45.67035" lon="-1.03541">
        <ele>18</ele>
        <time>2023-08-06T07:44:35Z</time>
      </trkpt>
      <trkpt lat="45.67033" lon="-1.03543">
        <ele>18.2</ele>
        <time>2023-08-06T07:44:36Z</time>
      </trkpt>
      <trkpt lat="45.67017" lon="-1.03551">
        <ele>18.2</ele>
        <time>2023-08-06T07:44:41Z</time>
      </trkpt>
      <trkpt lat="45.67012" lon="-1.03553">
        <ele>17.2</ele>
        <time>2023-08-06T07:44:43Z</time>
      </trkpt>
      <trkpt lat="45.6701" lon="-1.03554">
        <ele>17</ele>
        <time>2023-08-06T07:44:44Z</time>
      </trkpt>
      <trkpt lat="45.67009" lon="-1.03555">
        <ele>17.2</ele>
        <time>2023-08-06T07:44:45Z</time>
      </trkpt>
      <trkpt lat="45.67007" lon="-1.03562">
        <ele>16.8</ele>
        <time>2023-08-06T07:44:49Z</time>
      </trkpt>
      <trkpt lat="45.67007" lon="-1.03564">
        <ele>17</ele>
        <time>2023-08-06T07:44:50Z</time>
      </trkpt>
      <trkpt lat="45.67008" lon="-1.03569">
        <ele>17</ele>
        <time>2023-08-06T07:44:52Z</time>
      </trkpt>
      <trkpt lat="45.67012" lon="-1.03572">
        <ele>17.4</ele>
        <time>2023-08-06T07:44:55Z</time>
      </trkpt>
      <trkpt lat="45.67018" lon="-1.03585">
        <ele>17.4</ele>
        <time>2023-08-06T07:44:59Z</time>
      </trkpt>
      <trkpt lat="45.67018" lon="-1.03589">
        <ele>17.4</ele>
        <time>2023-08-06T07:45:00Z</time>
      </trkpt>
      <trkpt lat="45.67018" lon="-1.036">
        <ele>17.4</ele>
        <time>2023-08-06T07:45:03Z</time>
      </trkpt>
      <trkpt lat="45.67022" lon="-1.03613">
        <ele>17.6</ele>
        <time>2023-08-06T07:45:06Z</time>
      </trkpt>
      <trkpt lat="45.67023" lon="-1.03617">
        <ele>17.6</ele>
        <time>2023-08-06T07:45:07Z</time>
      </trkpt>
      <trkpt lat="45.67025" lon="-1.03624">
        <ele>17.6</ele>
        <time>2023-08-06T07:45:09Z</time>
      </trkpt>
      <trkpt lat="45.67028" lon="-1.03628">
        <ele>17.6</ele>
        <time>2023-08-06T07:45:11Z</time>
      </trkpt>
      <trkpt lat="45.67031" lon="-1.03633">
        <ele>17.2</ele>
        <time>2023-08-06T07:45:15Z</time>
      </trkpt>
      <trkpt lat="45.67032" lon="-1.03635">
        <ele>17</ele>
        <time>2023-08-06T07:45:17Z</time>
      </trkpt>
      <trkpt lat="45.67038" lon="-1.03639">
        <ele>16.8</ele>
        <time>2023-08-06T07:45:24Z</time>
      </trkpt>
      <trkpt lat="45.6704" lon="-1.03634">
        <ele>16.8</ele>
        <time>2023-08-06T07:45:34Z</time>
      </trkpt>
      <trkpt lat="45.6704" lon="-1.03632">
        <ele>16.8</ele>
        <time>2023-08-06T07:45:35Z</time>
      </trkpt>
      <trkpt lat="45.6704" lon="-1.03624">
        <ele>16.6</ele>
        <time>2023-08-06T07:45:40Z</time>
      </trkpt>
      <trkpt lat="45.6704" lon="-1.03619">
        <ele>16.2</ele>
        <time>2023-08-06T07:45:42Z</time>
      </trkpt>
      <trkpt lat="45.67041" lon="-1.03614">
        <ele>16.2</ele>
        <time>2023-08-06T07:45:44Z</time>
      </trkpt>
      <trkpt lat="45.67045" lon="-1.03613">
        <ele>16.2</ele>
        <time>2023-08-06T07:45:47Z</time>
      </trkpt>
      <trkpt lat="45.67046" lon="-1.03613">
        <ele>16.2</ele>
        <time>2023-08-06T07:45:48Z</time>
      </trkpt>
      <trkpt lat="45.6705" lon="-1.03607">
        <ele>16.6</ele>
        <time>2023-08-06T07:45:51Z</time>
      </trkpt>
      <trkpt lat="45.67061" lon="-1.03595">
        <ele>17</ele>
        <time>2023-08-06T07:45:57Z</time>
      </trkpt>
      <trkpt lat="45.67067" lon="-1.03589">
        <ele>17</ele>
        <time>2023-08-06T07:46:00Z</time>
      </trkpt>
      <trkpt lat="45.67069" lon="-1.03589">
        <ele>17</ele>
        <time>2023-08-06T07:46:01Z</time>
      </trkpt>
      <trkpt lat="45.67071" lon="-1.03591">
        <ele>16.8</ele>
        <time>2023-08-06T07:46:02Z</time>
      </trkpt>
      <trkpt lat="45.67073" lon="-1.036">
        <ele>16.8</ele>
        <time>2023-08-06T07:46:05Z</time>
      </trkpt>
      <trkpt lat="45.67076" lon="-1.03613">
        <ele>16.6</ele>
        <time>2023-08-06T07:46:08Z</time>
      </trkpt>
      <trkpt lat="45.67081" lon="-1.03616">
        <ele>16.8</ele>
        <time>2023-08-06T07:46:10Z</time>
      </trkpt>
      <trkpt lat="45.67091" lon="-1.03624">
        <ele>16.6</ele>
        <time>2023-08-06T07:46:14Z</time>
      </trkpt>
      <trkpt lat="45.67094" lon="-1.03625">
        <ele>16.4</ele>
        <time>2023-08-06T07:46:15Z</time>
      </trkpt>
      <trkpt lat="45.67097" lon="-1.03626">
        <ele>16.2</ele>
        <time>2023-08-06T07:46:17Z</time>
      </trkpt>
      <trkpt lat="45.67099" lon="-1.03631">
        <ele>16.2</ele>
        <time>2023-08-06T07:46:19Z</time>
      </trkpt>
      <trkpt lat="45.671" lon="-1.03634">
        <ele>16</ele>
        <time>2023-08-06T07:46:20Z</time>
      </trkpt>
      <trkpt lat="45.67099" lon="-1.03636">
        <ele>16</ele>
        <time>2023-08-06T07:46:21Z</time>
      </trkpt>
      <trkpt lat="45.67097" lon="-1.03638">
        <ele>16</ele>
        <time>2023-08-06T07:46:23Z</time>
      </trkpt>
      <trkpt lat="45.67095" lon="-1.03639">
        <ele>16</ele>
        <time>2023-08-06T07:46:24Z</time>
      </trkpt>
      <trkpt lat="45.6709" lon="-1.03644">
        <ele>16</ele>
        <time>2023-08-06T07:46:27Z</time>
      </trkpt>
      <trkpt lat="45.67087" lon="-1.03643">
        <ele>16</ele>
        <time>2023-08-06T07:46:29Z</time>
      </trkpt>
      <trkpt lat="45.67083" lon="-1.03638">
        <ele>16.2</ele>
        <time>2023-08-06T07:46:31Z</time>
      </trkpt>
      <trkpt lat="45.67081" lon="-1.03636">
        <ele>16.2</ele>
        <time>2023-08-06T07:46:32Z</time>
      </trkpt>
      <trkpt lat="45.67077" lon="-1.03637">
        <ele>17.2</ele>
        <time>2023-08-06T07:46:34Z</time>
      </trkpt>
      <trkpt lat="45.67074" lon="-1.03638">
        <ele>17.4</ele>
        <time>2023-08-06T07:46:36Z</time>
      </trkpt>
      <trkpt lat="45.67071" lon="-1.03644">
        <ele>17.4</ele>
        <time>2023-08-06T07:46:38Z</time>
      </trkpt>
      <trkpt lat="45.6707" lon="-1.03648">
        <ele>17.4</ele>
        <time>2023-08-06T07:46:39Z</time>
      </trkpt>
      <trkpt lat="45.67068" lon="-1.03654">
        <ele>17</ele>
        <time>2023-08-06T07:46:41Z</time>
      </trkpt>
      <trkpt lat="45.67062" lon="-1.03658">
        <ele>16.6</ele>
        <time>2023-08-06T07:46:43Z</time>
      </trkpt>
      <trkpt lat="45.67059" lon="-1.03659">
        <ele>16.4</ele>
        <time>2023-08-06T07:46:45Z</time>
      </trkpt>
      <trkpt lat="45.67057" lon="-1.03662">
        <ele>16.4</ele>
        <time>2023-08-06T07:46:47Z</time>
      </trkpt>
      <trkpt lat="45.67057" lon="-1.03665">
        <ele>16.4</ele>
        <time>2023-08-06T07:46:48Z</time>
      </trkpt>
      <trkpt lat="45.67056" lon="-1.03668">
        <ele>16.4</ele>
        <time>2023-08-06T07:46:49Z</time>
      </trkpt>
      <trkpt lat="45.67058" lon="-1.03672">
        <ele>16.4</ele>
        <time>2023-08-06T07:46:51Z</time>
      </trkpt>
      <trkpt lat="45.6706" lon="-1.03672">
        <ele>16.4</ele>
        <time>2023-08-06T07:46:52Z</time>
      </trkpt>
      <trkpt lat="45.67063" lon="-1.03673">
        <ele>16.4</ele>
        <time>2023-08-06T07:46:54Z</time>
      </trkpt>
      <trkpt lat="45.67065" lon="-1.03673">
        <ele>16.2</ele>
        <time>2023-08-06T07:46:56Z</time>
      </trkpt>
      <trkpt lat="45.67067" lon="-1.03672">
        <ele>16.2</ele>
        <time>2023-08-06T07:46:58Z</time>
      </trkpt>
      <trkpt lat="45.67072" lon="-1.03675">
        <ele>16.2</ele>
        <time>2023-08-06T07:47:01Z</time>
      </trkpt>
      <trkpt lat="45.67078" lon="-1.03688">
        <ele>16.4</ele>
        <time>2023-08-06T07:47:06Z</time>
      </trkpt>
      <trkpt lat="45.67084" lon="-1.03697">
        <ele>16.2</ele>
        <time>2023-08-06T07:47:11Z</time>
      </trkpt>
      <trkpt lat="45.67085" lon="-1.03699">
        <ele>16.2</ele>
        <time>2023-08-06T07:47:12Z</time>
      </trkpt>
      <trkpt lat="45.67087" lon="-1.03699">
        <ele>16.2</ele>
        <time>2023-08-06T07:47:14Z</time>
      </trkpt>
      <trkpt lat="45.67089" lon="-1.03698">
        <ele>16.2</ele>
        <time>2023-08-06T07:47:15Z</time>
      </trkpt>
      <trkpt lat="45.6709" lon="-1.03698">
        <ele>16.2</ele>
        <time>2023-08-06T07:47:16Z</time>
      </trkpt>
      <trkpt lat="45.67097" lon="-1.037">
        <ele>16.2</ele>
        <time>2023-08-06T07:47:19Z</time>
      </trkpt>
      <trkpt lat="45.671" lon="-1.03697">
        <ele>16.2</ele>
        <time>2023-08-06T07:47:21Z</time>
      </trkpt>
      <trkpt lat="45.67103" lon="-1.0369">
        <ele>16.2</ele>
        <time>2023-08-06T07:47:23Z</time>
      </trkpt>
      <trkpt lat="45.67112" lon="-1.0366">
        <ele>16</ele>
        <time>2023-08-06T07:47:29Z</time>
      </trkpt>
      <trkpt lat="45.67126" lon="-1.03612">
        <ele>15.2</ele>
        <time>2023-08-06T07:47:35Z</time>
      </trkpt>
      <trkpt lat="45.67154" lon="-1.03562">
        <ele>15</ele>
        <time>2023-08-06T07:47:42Z</time>
      </trkpt>
      <trkpt lat="45.67168" lon="-1.03539">
        <ele>14.4</ele>
        <time>2023-08-06T07:47:46Z</time>
      </trkpt>
      <trkpt lat="45.6717" lon="-1.03534">
        <ele>14.2</ele>
        <time>2023-08-06T07:47:47Z</time>
      </trkpt>
      <trkpt lat="45.67176" lon="-1.03523">
        <ele>14.2</ele>
        <time>2023-08-06T07:47:49Z</time>
      </trkpt>
      <trkpt lat="45.67183" lon="-1.03519">
        <ele>14</ele>
        <time>2023-08-06T07:47:51Z</time>
      </trkpt>
      <trkpt lat="45.67197" lon="-1.03514">
        <ele>14.4</ele>
        <time>2023-08-06T07:47:56Z</time>
      </trkpt>
      <trkpt lat="45.672" lon="-1.03512">
        <ele>15.2</ele>
        <time>2023-08-06T07:47:59Z</time>
      </trkpt>
      <trkpt lat="45.672" lon="-1.03513">
        <ele>15.2</ele>
        <time>2023-08-06T07:48:00Z</time>
      </trkpt>
      <trkpt lat="45.67202" lon="-1.03519">
        <ele>15.2</ele>
        <time>2023-08-06T07:48:04Z</time>
      </trkpt>
      <trkpt lat="45.6721" lon="-1.03528">
        <ele>14.2</ele>
        <time>2023-08-06T07:48:09Z</time>
      </trkpt>
      <trkpt lat="45.67216" lon="-1.03533">
        <ele>14.4</ele>
        <time>2023-08-06T07:48:12Z</time>
      </trkpt>
      <trkpt lat="45.67219" lon="-1.03539">
        <ele>14.4</ele>
        <time>2023-08-06T07:48:14Z</time>
      </trkpt>
      <trkpt lat="45.67222" lon="-1.03542">
        <ele>14</ele>
        <time>2023-08-06T07:48:16Z</time>
      </trkpt>
      <trkpt lat="45.67226" lon="-1.03545">
        <ele>14</ele>
        <time>2023-08-06T07:48:19Z</time>
      </trkpt>
      <trkpt lat="45.67235" lon="-1.03546">
        <ele>14.4</ele>
        <time>2023-08-06T07:48:31Z</time>
      </trkpt>
      <trkpt lat="45.67236" lon="-1.03545">
        <ele>14.4</ele>
        <time>2023-08-06T07:48:32Z</time>
      </trkpt>
      <trkpt lat="45.67237" lon="-1.03543">
        <ele>15.2</ele>
        <time>2023-08-06T07:48:34Z</time>
      </trkpt>
      <trkpt lat="45.67237" lon="-1.03543">
        <ele>15.2</ele>
        <time>2023-08-06T07:48:35Z</time>
      </trkpt>
      <trkpt lat="45.67233" lon="-1.03537">
        <ele>15.6</ele>
        <time>2023-08-06T07:48:39Z</time>
      </trkpt>
      <trkpt lat="45.67234" lon="-1.03535">
        <ele>15.2</ele>
        <time>2023-08-06T07:48:40Z</time>
      </trkpt>
      <trkpt lat="45.67232" lon="-1.03529">
        <ele>15.4</ele>
        <time>2023-08-06T07:48:42Z</time>
      </trkpt>
      <trkpt lat="45.6723" lon="-1.03527">
        <ele>15.6</ele>
        <time>2023-08-06T07:48:43Z</time>
      </trkpt>
      <trkpt lat="45.6723" lon="-1.03522">
        <ele>15.6</ele>
        <time>2023-08-06T07:48:45Z</time>
      </trkpt>
      <trkpt lat="45.67231" lon="-1.03519">
        <ele>16</ele>
        <time>2023-08-06T07:48:47Z</time>
      </trkpt>
      <trkpt lat="45.67229" lon="-1.03514">
        <ele>16.2</ele>
        <time>2023-08-06T07:48:49Z</time>
      </trkpt>
      <trkpt lat="45.6723" lon="-1.03506">
        <ele>16.2</ele>
        <time>2023-08-06T07:48:51Z</time>
      </trkpt>
      <trkpt lat="45.6723" lon="-1.03503">
        <ele>16.2</ele>
        <time>2023-08-06T07:48:52Z</time>
      </trkpt>
      <trkpt lat="45.67231" lon="-1.03492">
        <ele>16.6</ele>
        <time>2023-08-06T07:48:55Z</time>
      </trkpt>
      <trkpt lat="45.67235" lon="-1.03486">
        <ele>17</ele>
        <time>2023-08-06T07:48:57Z</time>
      </trkpt>
      <trkpt lat="45.67238" lon="-1.03484">
        <ele>17.2</ele>
        <time>2023-08-06T07:48:58Z</time>
      </trkpt>
      <trkpt lat="45.67246" lon="-1.03482">
        <ele>17.8</ele>
        <time>2023-08-06T07:49:01Z</time>
      </trkpt>
      <trkpt lat="45.67248" lon="-1.0348">
        <ele>17.8</ele>
        <time>2023-08-06T07:49:02Z</time>
      </trkpt>
      <trkpt lat="45.67251" lon="-1.0347">
        <ele>18.4</ele>
        <time>2023-08-06T07:49:05Z</time>
      </trkpt>
      <trkpt lat="45.67263" lon="-1.03454">
        <ele>19</ele>
        <time>2023-08-06T07:49:11Z</time>
      </trkpt>
      <trkpt lat="45.6727" lon="-1.03442">
        <ele>19</ele>
        <time>2023-08-06T07:49:15Z</time>
      </trkpt>
      <trkpt lat="45.67273" lon="-1.0344">
        <ele>19.2</ele>
        <time>2023-08-06T07:49:16Z</time>
      </trkpt>
      <trkpt lat="45.67285" lon="-1.03439">
        <ele>19.2</ele>
        <time>2023-08-06T07:49:20Z</time>
      </trkpt>
      <trkpt lat="45.6729" lon="-1.03443">
        <ele>19.4</ele>
        <time>2023-08-06T07:49:22Z</time>
      </trkpt>
      <trkpt lat="45.67296" lon="-1.03444">
        <ele>19.4</ele>
        <time>2023-08-06T07:49:24Z</time>
      </trkpt>
      <trkpt lat="45.67298" lon="-1.03443">
        <ele>19.4</ele>
        <time>2023-08-06T07:49:25Z</time>
      </trkpt>
      <trkpt lat="45.67301" lon="-1.03442">
        <ele>19.4</ele>
        <time>2023-08-06T07:49:26Z</time>
      </trkpt>
      <trkpt lat="45.67304" lon="-1.0344">
        <ele>19.4</ele>
        <time>2023-08-06T07:49:27Z</time>
      </trkpt>
      <trkpt lat="45.67309" lon="-1.03443">
        <ele>19.4</ele>
        <time>2023-08-06T07:49:29Z</time>
      </trkpt>
      <trkpt lat="45.67311" lon="-1.03446">
        <ele>19.4</ele>
        <time>2023-08-06T07:49:30Z</time>
      </trkpt>
      <trkpt lat="45.67315" lon="-1.03459">
        <ele>19.4</ele>
        <time>2023-08-06T07:49:33Z</time>
      </trkpt>
      <trkpt lat="45.67316" lon="-1.03463">
        <ele>19.4</ele>
        <time>2023-08-06T07:49:34Z</time>
      </trkpt>
      <trkpt lat="45.67319" lon="-1.03479">
        <ele>18.6</ele>
        <time>2023-08-06T07:49:38Z</time>
      </trkpt>
      <trkpt lat="45.67326" lon="-1.03484">
        <ele>18.2</ele>
        <time>2023-08-06T07:49:41Z</time>
      </trkpt>
      <trkpt lat="45.67328" lon="-1.03483">
        <ele>18.4</ele>
        <time>2023-08-06T07:49:42Z</time>
      </trkpt>
      <trkpt lat="45.67338" lon="-1.03473">
        <ele>18.6</ele>
        <time>2023-08-06T07:49:46Z</time>
      </trkpt>
      <trkpt lat="45.67342" lon="-1.0347">
        <ele>18.6</ele>
        <time>2023-08-06T07:49:47Z</time>
      </trkpt>
      <trkpt lat="45.67344" lon="-1.03466">
        <ele>19</ele>
        <time>2023-08-06T07:49:48Z</time>
      </trkpt>
      <trkpt lat="45.67346" lon="-1.03458">
        <ele>19.2</ele>
        <time>2023-08-06T07:49:50Z</time>
      </trkpt>
      <trkpt lat="45.67349" lon="-1.03456">
        <ele>19.4</ele>
        <time>2023-08-06T07:49:51Z</time>
      </trkpt>
      <trkpt lat="45.67356" lon="-1.0346">
        <ele>19.4</ele>
        <time>2023-08-06T07:49:54Z</time>
      </trkpt>
      <trkpt lat="45.67358" lon="-1.03461">
        <ele>19.6</ele>
        <time>2023-08-06T07:49:55Z</time>
      </trkpt>
      <trkpt lat="45.67366" lon="-1.03458">
        <ele>19.6</ele>
        <time>2023-08-06T07:49:58Z</time>
      </trkpt>
      <trkpt lat="45.6737" lon="-1.03456">
        <ele>19.6</ele>
        <time>2023-08-06T07:50:00Z</time>
      </trkpt>
      <trkpt lat="45.67373" lon="-1.03456">
        <ele>19.4</ele>
        <time>2023-08-06T07:50:02Z</time>
      </trkpt>
      <trkpt lat="45.67381" lon="-1.03456">
        <ele>19.2</ele>
        <time>2023-08-06T07:50:05Z</time>
      </trkpt>
      <trkpt lat="45.67384" lon="-1.03458">
        <ele>19.4</ele>
        <time>2023-08-06T07:50:06Z</time>
      </trkpt>
      <trkpt lat="45.67384" lon="-1.03465">
        <ele>19.2</ele>
        <time>2023-08-06T07:50:09Z</time>
      </trkpt>
      <trkpt lat="45.67382" lon="-1.0348">
        <ele>19.2</ele>
        <time>2023-08-06T07:50:13Z</time>
      </trkpt>
      <trkpt lat="45.67385" lon="-1.03485">
        <ele>18.8</ele>
        <time>2023-08-06T07:50:16Z</time>
      </trkpt>
      <trkpt lat="45.67387" lon="-1.03485">
        <ele>18.8</ele>
        <time>2023-08-06T07:50:17Z</time>
      </trkpt>
      <trkpt lat="45.67397" lon="-1.03477">
        <ele>18.8</ele>
        <time>2023-08-06T07:50:22Z</time>
      </trkpt>
      <trkpt lat="45.67404" lon="-1.03471">
        <ele>19</ele>
        <time>2023-08-06T07:50:26Z</time>
      </trkpt>
      <trkpt lat="45.67406" lon="-1.03472">
        <ele>19.2</ele>
        <time>2023-08-06T07:50:27Z</time>
      </trkpt>
      <trkpt lat="45.67416" lon="-1.03482">
        <ele>19.2</ele>
        <time>2023-08-06T07:50:32Z</time>
      </trkpt>
      <trkpt lat="45.67423" lon="-1.03494">
        <ele>19</ele>
        <time>2023-08-06T07:50:35Z</time>
      </trkpt>
      <trkpt lat="45.67426" lon="-1.03497">
        <ele>18.8</ele>
        <time>2023-08-06T07:50:36Z</time>
      </trkpt>
      <trkpt lat="45.67429" lon="-1.03501">
        <ele>18.6</ele>
        <time>2023-08-06T07:50:37Z</time>
      </trkpt>
      <trkpt lat="45.67436" lon="-1.03512">
        <ele>18.4</ele>
        <time>2023-08-06T07:50:40Z</time>
      </trkpt>
      <trkpt lat="45.67439" lon="-1.03515">
        <ele>18.2</ele>
        <time>2023-08-06T07:50:41Z</time>
      </trkpt>
      <trkpt lat="45.67446" lon="-1.03519">
        <ele>18.4</ele>
        <time>2023-08-06T07:50:43Z</time>
      </trkpt>
      <trkpt lat="45.67454" lon="-1.03522">
        <ele>18.4</ele>
        <time>2023-08-06T07:50:45Z</time>
      </trkpt>
      <trkpt lat="45.67457" lon="-1.03524">
        <ele>18.2</ele>
        <time>2023-08-06T07:50:46Z</time>
      </trkpt>
      <trkpt lat="45.67462" lon="-1.03528">
        <ele>18</ele>
        <time>2023-08-06T07:50:48Z</time>
      </trkpt>
      <trkpt lat="45.67467" lon="-1.03526">
        <ele>17.8</ele>
        <time>2023-08-06T07:50:50Z</time>
      </trkpt>
      <trkpt lat="45.67479" lon="-1.0352">
        <ele>17.6</ele>
        <time>2023-08-06T07:50:54Z</time>
      </trkpt>
      <trkpt lat="45.67487" lon="-1.03505">
        <ele>18</ele>
        <time>2023-08-06T07:50:59Z</time>
      </trkpt>
      <trkpt lat="45.67494" lon="-1.03487">
        <ele>18.8</ele>
        <time>2023-08-06T07:51:04Z</time>
      </trkpt>
      <trkpt lat="45.67497" lon="-1.03473">
        <ele>19.4</ele>
        <time>2023-08-06T07:51:07Z</time>
      </trkpt>
      <trkpt lat="45.675" lon="-1.0346">
        <ele>20.2</ele>
        <time>2023-08-06T07:51:10Z</time>
      </trkpt>
      <trkpt lat="45.67503" lon="-1.03448">
        <ele>20</ele>
        <time>2023-08-06T07:51:13Z</time>
      </trkpt>
      <trkpt lat="45.67508" lon="-1.03444">
        <ele>19.6</ele>
        <time>2023-08-06T07:51:16Z</time>
      </trkpt>
      <trkpt lat="45.67509" lon="-1.03445">
        <ele>19.6</ele>
        <time>2023-08-06T07:51:17Z</time>
      </trkpt>
      <trkpt lat="45.67517" lon="-1.03455">
        <ele>19.4</ele>
        <time>2023-08-06T07:51:21Z</time>
      </trkpt>
      <trkpt lat="45.67523" lon="-1.03468">
        <ele>19</ele>
        <time>2023-08-06T07:51:26Z</time>
      </trkpt>
      <trkpt lat="45.67526" lon="-1.03478">
        <ele>18.8</ele>
        <time>2023-08-06T07:51:28Z</time>
      </trkpt>
      <trkpt lat="45.67531" lon="-1.03483">
        <ele>18.8</ele>
        <time>2023-08-06T07:51:30Z</time>
      </trkpt>
      <trkpt lat="45.67537" lon="-1.03483">
        <ele>18.4</ele>
        <time>2023-08-06T07:51:33Z</time>
      </trkpt>
      <trkpt lat="45.67539" lon="-1.03485">
        <ele>18.4</ele>
        <time>2023-08-06T07:51:34Z</time>
      </trkpt>
      <trkpt lat="45.67542" lon="-1.03487">
        <ele>18.2</ele>
        <time>2023-08-06T07:51:36Z</time>
      </trkpt>
      <trkpt lat="45.67543" lon="-1.03485">
        <ele>18.2</ele>
        <time>2023-08-06T07:51:38Z</time>
      </trkpt>
      <trkpt lat="45.67545" lon="-1.03478">
        <ele>18.2</ele>
        <time>2023-08-06T07:51:41Z</time>
      </trkpt>
      <trkpt lat="45.67549" lon="-1.03474">
        <ele>18.8</ele>
        <time>2023-08-06T07:51:43Z</time>
      </trkpt>
      <trkpt lat="45.67552" lon="-1.0347">
        <ele>18.8</ele>
        <time>2023-08-06T07:51:45Z</time>
      </trkpt>
      <trkpt lat="45.67558" lon="-1.03472">
        <ele>19</ele>
        <time>2023-08-06T07:51:47Z</time>
      </trkpt>
      <trkpt lat="45.67561" lon="-1.03475">
        <ele>18.6</ele>
        <time>2023-08-06T07:51:52Z</time>
      </trkpt>
      <trkpt lat="45.6757" lon="-1.03469">
        <ele>18.8</ele>
        <time>2023-08-06T07:51:57Z</time>
      </trkpt>
      <trkpt lat="45.67572" lon="-1.03467">
        <ele>19.4</ele>
        <time>2023-08-06T07:51:59Z</time>
      </trkpt>
      <trkpt lat="45.67579" lon="-1.03457">
        <ele>20.2</ele>
        <time>2023-08-06T07:52:03Z</time>
      </trkpt>
      <trkpt lat="45.67579" lon="-1.03455">
        <ele>20.2</ele>
        <time>2023-08-06T07:52:04Z</time>
      </trkpt>
      <trkpt lat="45.67578" lon="-1.03453">
        <ele>20.2</ele>
        <time>2023-08-06T07:52:06Z</time>
      </trkpt>
      <trkpt lat="45.67578" lon="-1.03454">
        <ele>20.2</ele>
        <time>2023-08-06T07:52:07Z</time>
      </trkpt>
      <trkpt lat="45.67577" lon="-1.03451">
        <ele>20</ele>
        <time>2023-08-06T07:52:10Z</time>
      </trkpt>
      <trkpt lat="45.67575" lon="-1.03451">
        <ele>20</ele>
        <time>2023-08-06T07:52:11Z</time>
      </trkpt>
      <trkpt lat="45.6757" lon="-1.03445">
        <ele>19.6</ele>
        <time>2023-08-06T07:52:15Z</time>
      </trkpt>
      <trkpt lat="45.6757" lon="-1.03443">
        <ele>19.6</ele>
        <time>2023-08-06T07:52:16Z</time>
      </trkpt>
      <trkpt lat="45.67571" lon="-1.03432">
        <ele>19.6</ele>
        <time>2023-08-06T07:52:21Z</time>
      </trkpt>
      <trkpt lat="45.67572" lon="-1.03427">
        <ele>19.8</ele>
        <time>2023-08-06T07:52:23Z</time>
      </trkpt>
      <trkpt lat="45.6757" lon="-1.03419">
        <ele>20.2</ele>
        <time>2023-08-06T07:52:26Z</time>
      </trkpt>
      <trkpt lat="45.67571" lon="-1.03416">
        <ele>20.2</ele>
        <time>2023-08-06T07:52:27Z</time>
      </trkpt>
      <trkpt lat="45.67573" lon="-1.03415">
        <ele>20.4</ele>
        <time>2023-08-06T07:52:28Z</time>
      </trkpt>
      <trkpt lat="45.67574" lon="-1.03414">
        <ele>20.4</ele>
        <time>2023-08-06T07:52:29Z</time>
      </trkpt>
      <trkpt lat="45.67576" lon="-1.03414">
        <ele>20.4</ele>
        <time>2023-08-06T07:52:30Z</time>
      </trkpt>
      <trkpt lat="45.6758" lon="-1.03415">
        <ele>20.4</ele>
        <time>2023-08-06T07:52:34Z</time>
      </trkpt>
      <trkpt lat="45.67591" lon="-1.0342">
        <ele>20.4</ele>
        <time>2023-08-06T07:52:39Z</time>
      </trkpt>
      <trkpt lat="45.67596" lon="-1.03422">
        <ele>20.4</ele>
        <time>2023-08-06T07:52:41Z</time>
      </trkpt>
      <trkpt lat="45.67602" lon="-1.03433">
        <ele>21.2</ele>
        <time>2023-08-06T07:52:44Z</time>
      </trkpt>
      <trkpt lat="45.67607" lon="-1.03446">
        <ele>21.2</ele>
        <time>2023-08-06T07:52:48Z</time>
      </trkpt>
      <trkpt lat="45.67607" lon="-1.03452">
        <ele>21</ele>
        <time>2023-08-06T07:52:50Z</time>
      </trkpt>
      <trkpt lat="45.67608" lon="-1.03463">
        <ele>20.2</ele>
        <time>2023-08-06T07:52:54Z</time>
      </trkpt>
      <trkpt lat="45.67609" lon="-1.03464">
        <ele>20.2</ele>
        <time>2023-08-06T07:52:55Z</time>
      </trkpt>
      <trkpt lat="45.67615" lon="-1.03464">
        <ele>20.2</ele>
        <time>2023-08-06T07:52:59Z</time>
      </trkpt>
      <trkpt lat="45.67616" lon="-1.03466">
        <ele>20.4</ele>
        <time>2023-08-06T07:53:00Z</time>
      </trkpt>
      <trkpt lat="45.6762" lon="-1.03478">
        <ele>20.4</ele>
        <time>2023-08-06T07:53:04Z</time>
      </trkpt>
      <trkpt lat="45.67619" lon="-1.0348">
        <ele>20.2</ele>
        <time>2023-08-06T07:53:05Z</time>
      </trkpt>
      <trkpt lat="45.67617" lon="-1.03484">
        <ele>19.8</ele>
        <time>2023-08-06T07:53:07Z</time>
      </trkpt>
      <trkpt lat="45.67613" lon="-1.03488">
        <ele>19.2</ele>
        <time>2023-08-06T07:53:09Z</time>
      </trkpt>
      <trkpt lat="45.67612" lon="-1.03491">
        <ele>19</ele>
        <time>2023-08-06T07:53:10Z</time>
      </trkpt>
      <trkpt lat="45.6761" lon="-1.03501">
        <ele>18.6</ele>
        <time>2023-08-06T07:53:13Z</time>
      </trkpt>
      <trkpt lat="45.67611" lon="-1.03505">
        <ele>18.4</ele>
        <time>2023-08-06T07:53:14Z</time>
      </trkpt>
      <trkpt lat="45.67612" lon="-1.03508">
        <ele>18.2</ele>
        <time>2023-08-06T07:53:15Z</time>
      </trkpt>
      <trkpt lat="45.67615" lon="-1.03515">
        <ele>18</ele>
        <time>2023-08-06T07:53:18Z</time>
      </trkpt>
      <trkpt lat="45.67616" lon="-1.03515">
        <ele>18</ele>
        <time>2023-08-06T07:53:19Z</time>
      </trkpt>
      <trkpt lat="45.67617" lon="-1.03515">
        <ele>18.2</ele>
        <time>2023-08-06T07:53:21Z</time>
      </trkpt>
      <trkpt lat="45.67618" lon="-1.03516">
        <ele>18.2</ele>
        <time>2023-08-06T07:53:22Z</time>
      </trkpt>
      <trkpt lat="45.6762" lon="-1.03518">
        <ele>18.4</ele>
        <time>2023-08-06T07:53:24Z</time>
      </trkpt>
      <trkpt lat="45.67623" lon="-1.03518">
        <ele>18.8</ele>
        <time>2023-08-06T07:53:26Z</time>
      </trkpt>
      <trkpt lat="45.67629" lon="-1.03507">
        <ele>19.4</ele>
        <time>2023-08-06T07:53:31Z</time>
      </trkpt>
      <trkpt lat="45.67629" lon="-1.03496">
        <ele>20.4</ele>
        <time>2023-08-06T07:53:36Z</time>
      </trkpt>
      <trkpt lat="45.67629" lon="-1.03491">
        <ele>20.6</ele>
        <time>2023-08-06T07:53:38Z</time>
      </trkpt>
      <trkpt lat="45.6763" lon="-1.03475">
        <ele>21</ele>
        <time>2023-08-06T07:53:43Z</time>
      </trkpt>
      <trkpt lat="45.67632" lon="-1.03472">
        <ele>21.2</ele>
        <time>2023-08-06T07:53:44Z</time>
      </trkpt>
      <trkpt lat="45.67633" lon="-1.03469">
        <ele>21.4</ele>
        <time>2023-08-06T07:53:45Z</time>
      </trkpt>
      <trkpt lat="45.67635" lon="-1.03467">
        <ele>21.6</ele>
        <time>2023-08-06T07:53:46Z</time>
      </trkpt>
      <trkpt lat="45.67639" lon="-1.03469">
        <ele>21.4</ele>
        <time>2023-08-06T07:53:48Z</time>
      </trkpt>
      <trkpt lat="45.67641" lon="-1.03472">
        <ele>21.4</ele>
        <time>2023-08-06T07:53:50Z</time>
      </trkpt>
      <trkpt lat="45.67643" lon="-1.03479">
        <ele>21.4</ele>
        <time>2023-08-06T07:53:53Z</time>
      </trkpt>
      <trkpt lat="45.67646" lon="-1.03483">
        <ele>21.4</ele>
        <time>2023-08-06T07:53:55Z</time>
      </trkpt>
      <trkpt lat="45.67649" lon="-1.03483">
        <ele>21.4</ele>
        <time>2023-08-06T07:53:57Z</time>
      </trkpt>
      <trkpt lat="45.67662" lon="-1.03479">
        <ele>21.8</ele>
        <time>2023-08-06T07:54:03Z</time>
      </trkpt>
      <trkpt lat="45.67665" lon="-1.03469">
        <ele>21.8</ele>
        <time>2023-08-06T07:54:07Z</time>
      </trkpt>
      <trkpt lat="45.67665" lon="-1.03466">
        <ele>21.8</ele>
        <time>2023-08-06T07:54:08Z</time>
      </trkpt>
      <trkpt lat="45.67668" lon="-1.03461">
        <ele>21.8</ele>
        <time>2023-08-06T07:54:10Z</time>
      </trkpt>
      <trkpt lat="45.67672" lon="-1.03456">
        <ele>21.8</ele>
        <time>2023-08-06T07:54:12Z</time>
      </trkpt>
      <trkpt lat="45.67678" lon="-1.0345">
        <ele>21.8</ele>
        <time>2023-08-06T07:54:15Z</time>
      </trkpt>
      <trkpt lat="45.67679" lon="-1.03451">
        <ele>21.8</ele>
        <time>2023-08-06T07:54:16Z</time>
      </trkpt>
      <trkpt lat="45.67689" lon="-1.03465">
        <ele>21.4</ele>
        <time>2023-08-06T07:54:21Z</time>
      </trkpt>
      <trkpt lat="45.67694" lon="-1.03473">
        <ele>21.4</ele>
        <time>2023-08-06T07:54:23Z</time>
      </trkpt>
      <trkpt lat="45.67697" lon="-1.03479">
        <ele>21.8</ele>
        <time>2023-08-06T07:54:25Z</time>
      </trkpt>
      <trkpt lat="45.67698" lon="-1.03482">
        <ele>22</ele>
        <time>2023-08-06T07:54:26Z</time>
      </trkpt>
      <trkpt lat="45.677" lon="-1.03488">
        <ele>22.2</ele>
        <time>2023-08-06T07:54:28Z</time>
      </trkpt>
      <trkpt lat="45.67705" lon="-1.03497">
        <ele>21.6</ele>
        <time>2023-08-06T07:54:31Z</time>
      </trkpt>
      <trkpt lat="45.67707" lon="-1.03503">
        <ele>21.6</ele>
        <time>2023-08-06T07:54:33Z</time>
      </trkpt>
      <trkpt lat="45.67707" lon="-1.03506">
        <ele>21.8</ele>
        <time>2023-08-06T07:54:35Z</time>
      </trkpt>
      <trkpt lat="45.67706" lon="-1.03506">
        <ele>22</ele>
        <time>2023-08-06T07:54:36Z</time>
      </trkpt>
      <trkpt lat="45.67702" lon="-1.03507">
        <ele>21.8</ele>
        <time>2023-08-06T07:54:39Z</time>
      </trkpt>
      <trkpt lat="45.67701" lon="-1.03508">
        <ele>21.4</ele>
        <time>2023-08-06T07:54:40Z</time>
      </trkpt>
      <trkpt lat="45.67692" lon="-1.03505">
        <ele>21.2</ele>
        <time>2023-08-06T07:54:44Z</time>
      </trkpt>
      <trkpt lat="45.67689" lon="-1.03501">
        <ele>21.2</ele>
        <time>2023-08-06T07:54:46Z</time>
      </trkpt>
      <trkpt lat="45.67686" lon="-1.035">
        <ele>21.2</ele>
        <time>2023-08-06T07:54:48Z</time>
      </trkpt>
      <trkpt lat="45.67684" lon="-1.035">
        <ele>21.2</ele>
        <time>2023-08-06T07:54:49Z</time>
      </trkpt>
      <trkpt lat="45.67673" lon="-1.03508">
        <ele>21.2</ele>
        <time>2023-08-06T07:54:54Z</time>
      </trkpt>
      <trkpt lat="45.67671" lon="-1.0351">
        <ele>21</ele>
        <time>2023-08-06T07:54:55Z</time>
      </trkpt>
      <trkpt lat="45.6767" lon="-1.03513">
        <ele>20.8</ele>
        <time>2023-08-06T07:54:58Z</time>
      </trkpt>
      <trkpt lat="45.67669" lon="-1.03524">
        <ele>20.6</ele>
        <time>2023-08-06T07:55:02Z</time>
      </trkpt>
      <trkpt lat="45.67668" lon="-1.03526">
        <ele>20.4</ele>
        <time>2023-08-06T07:55:03Z</time>
      </trkpt>
      <trkpt lat="45.67665" lon="-1.03529">
        <ele>20</ele>
        <time>2023-08-06T07:55:05Z</time>
      </trkpt>
      <trkpt lat="45.67661" lon="-1.03536">
        <ele>19.6</ele>
        <time>2023-08-06T07:55:08Z</time>
      </trkpt>
      <trkpt lat="45.67661" lon="-1.03539">
        <ele>19.6</ele>
        <time>2023-08-06T07:55:09Z</time>
      </trkpt>
      <trkpt lat="45.67665" lon="-1.03553">
        <ele>19.8</ele>
        <time>2023-08-06T07:55:14Z</time>
      </trkpt>
      <trkpt lat="45.67668" lon="-1.03548">
        <ele>20</ele>
        <time>2023-08-06T07:55:18Z</time>
      </trkpt>
      <trkpt lat="45.67673" lon="-1.03544">
        <ele>20.6</ele>
        <time>2023-08-06T07:55:21Z</time>
      </trkpt>
      <trkpt lat="45.67677" lon="-1.03543">
        <ele>21</ele>
        <time>2023-08-06T07:55:23Z</time>
      </trkpt>
      <trkpt lat="45.67683" lon="-1.03552">
        <ele>21</ele>
        <time>2023-08-06T07:55:27Z</time>
      </trkpt>
      <trkpt lat="45.67687" lon="-1.03558">
        <ele>21</ele>
        <time>2023-08-06T07:55:30Z</time>
      </trkpt>
      <trkpt lat="45.67691" lon="-1.03566">
        <ele>21</ele>
        <time>2023-08-06T07:55:32Z</time>
      </trkpt>
      <trkpt lat="45.67692" lon="-1.03574">
        <ele>21</ele>
        <time>2023-08-06T07:55:35Z</time>
      </trkpt>
      <trkpt lat="45.67691" lon="-1.03574">
        <ele>21</ele>
        <time>2023-08-06T07:55:36Z</time>
      </trkpt>
      <trkpt lat="45.67689" lon="-1.03578">
        <ele>20.8</ele>
        <time>2023-08-06T07:55:38Z</time>
      </trkpt>
      <trkpt lat="45.67691" lon="-1.03583">
        <ele>20.8</ele>
        <time>2023-08-06T07:55:40Z</time>
      </trkpt>
      <trkpt lat="45.6769" lon="-1.03585">
        <ele>20.8</ele>
        <time>2023-08-06T07:55:41Z</time>
      </trkpt>
      <trkpt lat="45.67685" lon="-1.03588">
        <ele>20.8</ele>
        <time>2023-08-06T07:55:44Z</time>
      </trkpt>
      <trkpt lat="45.67679" lon="-1.03593">
        <ele>19.8</ele>
        <time>2023-08-06T07:55:48Z</time>
      </trkpt>
      <trkpt lat="45.67679" lon="-1.03595">
        <ele>19.6</ele>
        <time>2023-08-06T07:55:49Z</time>
      </trkpt>
      <trkpt lat="45.67679" lon="-1.03598">
        <ele>19.4</ele>
        <time>2023-08-06T07:55:50Z</time>
      </trkpt>
      <trkpt lat="45.67677" lon="-1.03601">
        <ele>19.2</ele>
        <time>2023-08-06T07:55:51Z</time>
      </trkpt>
      <trkpt lat="45.67673" lon="-1.03609">
        <ele>19</ele>
        <time>2023-08-06T07:55:53Z</time>
      </trkpt>
      <trkpt lat="45.67673" lon="-1.03611">
        <ele>18.8</ele>
        <time>2023-08-06T07:55:54Z</time>
      </trkpt>
      <trkpt lat="45.67673" lon="-1.03616">
        <ele>18.6</ele>
        <time>2023-08-06T07:55:56Z</time>
      </trkpt>
      <trkpt lat="45.67675" lon="-1.03624">
        <ele>18.6</ele>
        <time>2023-08-06T07:56:01Z</time>
      </trkpt>
      <trkpt lat="45.67676" lon="-1.03623">
        <ele>18.6</ele>
        <time>2023-08-06T07:56:02Z</time>
      </trkpt>
      <trkpt lat="45.6768" lon="-1.0362">
        <ele>19</ele>
        <time>2023-08-06T07:56:05Z</time>
      </trkpt>
      <trkpt lat="45.67682" lon="-1.03617">
        <ele>19</ele>
        <time>2023-08-06T07:56:07Z</time>
      </trkpt>
      <trkpt lat="45.67686" lon="-1.03617">
        <ele>19.4</ele>
        <time>2023-08-06T07:56:09Z</time>
      </trkpt>
      <trkpt lat="45.67688" lon="-1.03619">
        <ele>19.4</ele>
        <time>2023-08-06T07:56:10Z</time>
      </trkpt>
      <trkpt lat="45.67689" lon="-1.03623">
        <ele>19.4</ele>
        <time>2023-08-06T07:56:12Z</time>
      </trkpt>
      <trkpt lat="45.67692" lon="-1.03627">
        <ele>19.6</ele>
        <time>2023-08-06T07:56:14Z</time>
      </trkpt>
      <trkpt lat="45.67695" lon="-1.03623">
        <ele>20</ele>
        <time>2023-08-06T07:56:17Z</time>
      </trkpt>
      <trkpt lat="45.677" lon="-1.03616">
        <ele>20.2</ele>
        <time>2023-08-06T07:56:20Z</time>
      </trkpt>
      <trkpt lat="45.67707" lon="-1.03614">
        <ele>20.4</ele>
        <time>2023-08-06T07:56:22Z</time>
      </trkpt>
      <trkpt lat="45.6771" lon="-1.03614">
        <ele>20.4</ele>
        <time>2023-08-06T07:56:23Z</time>
      </trkpt>
      <trkpt lat="45.67712" lon="-1.03616">
        <ele>20.4</ele>
        <time>2023-08-06T07:56:24Z</time>
      </trkpt>
      <trkpt lat="45.67721" lon="-1.03625">
        <ele>20.6</ele>
        <time>2023-08-06T07:56:28Z</time>
      </trkpt>
      <trkpt lat="45.67722" lon="-1.03631">
        <ele>20.6</ele>
        <time>2023-08-06T07:56:30Z</time>
      </trkpt>
      <trkpt lat="45.67721" lon="-1.03636">
        <ele>20.8</ele>
        <time>2023-08-06T07:56:32Z</time>
      </trkpt>
      <trkpt lat="45.67718" lon="-1.03639">
        <ele>20.8</ele>
        <time>2023-08-06T07:56:34Z</time>
      </trkpt>
      <trkpt lat="45.67715" lon="-1.03642">
        <ele>20.6</ele>
        <time>2023-08-06T07:56:37Z</time>
      </trkpt>
      <trkpt lat="45.67713" lon="-1.03662">
        <ele>19.8</ele>
        <time>2023-08-06T07:56:43Z</time>
      </trkpt>
      <trkpt lat="45.67713" lon="-1.03672">
        <ele>19.6</ele>
        <time>2023-08-06T07:56:46Z</time>
      </trkpt>
      <trkpt lat="45.67713" lon="-1.03674">
        <ele>19.2</ele>
        <time>2023-08-06T07:56:47Z</time>
      </trkpt>
      <trkpt lat="45.67714" lon="-1.03677">
        <ele>19</ele>
        <time>2023-08-06T07:56:48Z</time>
      </trkpt>
      <trkpt lat="45.6772" lon="-1.03695">
        <ele>19.2</ele>
        <time>2023-08-06T07:56:54Z</time>
      </trkpt>
      <trkpt lat="45.67726" lon="-1.03706">
        <ele>18.4</ele>
        <time>2023-08-06T07:56:59Z</time>
      </trkpt>
      <trkpt lat="45.67726" lon="-1.03707">
        <ele>18.2</ele>
        <time>2023-08-06T07:57:00Z</time>
      </trkpt>
      <trkpt lat="45.67725" lon="-1.03716">
        <ele>18.4</ele>
        <time>2023-08-06T07:57:05Z</time>
      </trkpt>
      <trkpt lat="45.67727" lon="-1.03723">
        <ele>18.4</ele>
        <time>2023-08-06T07:57:09Z</time>
      </trkpt>
      <trkpt lat="45.67727" lon="-1.03724">
        <ele>18.4</ele>
        <time>2023-08-06T07:57:10Z</time>
      </trkpt>
      <trkpt lat="45.67726" lon="-1.03725">
        <ele>18.2</ele>
        <time>2023-08-06T07:57:11Z</time>
      </trkpt>
      <trkpt lat="45.67725" lon="-1.03727">
        <ele>18</ele>
        <time>2023-08-06T07:57:12Z</time>
      </trkpt>
      <trkpt lat="45.67722" lon="-1.03733">
        <ele>17.8</ele>
        <time>2023-08-06T07:57:15Z</time>
      </trkpt>
      <trkpt lat="45.67714" lon="-1.03745">
        <ele>17.2</ele>
        <time>2023-08-06T07:57:20Z</time>
      </trkpt>
      <trkpt lat="45.67707" lon="-1.0375">
        <ele>17</ele>
        <time>2023-08-06T07:57:23Z</time>
      </trkpt>
      <trkpt lat="45.67705" lon="-1.03749">
        <ele>17</ele>
        <time>2023-08-06T07:57:24Z</time>
      </trkpt>
      <trkpt lat="45.67701" lon="-1.03748">
        <ele>16.8</ele>
        <time>2023-08-06T07:57:25Z</time>
      </trkpt>
      <trkpt lat="45.67691" lon="-1.03742">
        <ele>16.4</ele>
        <time>2023-08-06T07:57:29Z</time>
      </trkpt>
      <trkpt lat="45.67687" lon="-1.03743">
        <ele>16.4</ele>
        <time>2023-08-06T07:57:30Z</time>
      </trkpt>
      <trkpt lat="45.67672" lon="-1.03756">
        <ele>16</ele>
        <time>2023-08-06T07:57:34Z</time>
      </trkpt>
      <trkpt lat="45.67654" lon="-1.03776">
        <ele>15.6</ele>
        <time>2023-08-06T07:57:39Z</time>
      </trkpt>
      <trkpt lat="45.67626" lon="-1.03804">
        <ele>15.4</ele>
        <time>2023-08-06T07:57:46Z</time>
      </trkpt>
      <trkpt lat="45.67614" lon="-1.03817">
        <ele>14.8</ele>
        <time>2023-08-06T07:57:49Z</time>
      </trkpt>
      <trkpt lat="45.67586" lon="-1.03844">
        <ele>14.6</ele>
        <time>2023-08-06T07:57:55Z</time>
      </trkpt>
      <trkpt lat="45.6756" lon="-1.03869">
        <ele>13.8</ele>
        <time>2023-08-06T07:58:01Z</time>
      </trkpt>
      <trkpt lat="45.67552" lon="-1.03876">
        <ele>13.8</ele>
        <time>2023-08-06T07:58:03Z</time>
      </trkpt>
      <trkpt lat="45.67523" lon="-1.03904">
        <ele>13.8</ele>
        <time>2023-08-06T07:58:11Z</time>
      </trkpt>
      <trkpt lat="45.67493" lon="-1.03934">
        <ele>13.6</ele>
        <time>2023-08-06T07:58:19Z</time>
      </trkpt>
      <trkpt lat="45.67471" lon="-1.03956">
        <ele>13.4</ele>
        <time>2023-08-06T07:58:25Z</time>
      </trkpt>
      <trkpt lat="45.67467" lon="-1.0396">
        <ele>13.4</ele>
        <time>2023-08-06T07:58:26Z</time>
      </trkpt>
      <trkpt lat="45.67443" lon="-1.03985">
        <ele>13.2</ele>
        <time>2023-08-06T07:58:32Z</time>
      </trkpt>
      <trkpt lat="45.67439" lon="-1.03989">
        <ele>13.2</ele>
        <time>2023-08-06T07:58:33Z</time>
      </trkpt>
      <trkpt lat="45.67415" lon="-1.04013">
        <ele>13.6</ele>
        <time>2023-08-06T07:58:39Z</time>
      </trkpt>
      <trkpt lat="45.67383" lon="-1.04045">
        <ele>13</ele>
        <time>2023-08-06T07:58:47Z</time>
      </trkpt>
      <trkpt lat="45.67375" lon="-1.04053">
        <ele>12.8</ele>
        <time>2023-08-06T07:58:49Z</time>
      </trkpt>
      <trkpt lat="45.6735" lon="-1.04079">
        <ele>12.2</ele>
        <time>2023-08-06T07:58:55Z</time>
      </trkpt>
      <trkpt lat="45.67314" lon="-1.04117">
        <ele>12</ele>
        <time>2023-08-06T07:59:03Z</time>
      </trkpt>
      <trkpt lat="45.67309" lon="-1.04122">
        <ele>11.8</ele>
        <time>2023-08-06T07:59:04Z</time>
      </trkpt>
      <trkpt lat="45.67291" lon="-1.04141">
        <ele>11.6</ele>
        <time>2023-08-06T07:59:08Z</time>
      </trkpt>
      <trkpt lat="45.6728" lon="-1.04153">
        <ele>11</ele>
        <time>2023-08-06T07:59:11Z</time>
      </trkpt>
      <trkpt lat="45.67276" lon="-1.04156">
        <ele>11</ele>
        <time>2023-08-06T07:59:12Z</time>
      </trkpt>
      <trkpt lat="45.67268" lon="-1.04157">
        <ele>11</ele>
        <time>2023-08-06T07:59:14Z</time>
      </trkpt>
      <trkpt lat="45.67248" lon="-1.04146">
        <ele>11</ele>
        <time>2023-08-06T07:59:18Z</time>
      </trkpt>
      <trkpt lat="45.67228" lon="-1.04136">
        <ele>11.2</ele>
        <time>2023-08-06T07:59:22Z</time>
      </trkpt>
      <trkpt lat="45.67217" lon="-1.04135">
        <ele>10.6</ele>
        <time>2023-08-06T07:59:24Z</time>
      </trkpt>
      <trkpt lat="45.67212" lon="-1.04136">
        <ele>10.4</ele>
        <time>2023-08-06T07:59:25Z</time>
      </trkpt>
      <trkpt lat="45.67207" lon="-1.04137">
        <ele>10.2</ele>
        <time>2023-08-06T07:59:26Z</time>
      </trkpt>
      <trkpt lat="45.67192" lon="-1.04144">
        <ele>10</ele>
        <time>2023-08-06T07:59:29Z</time>
      </trkpt>
      <trkpt lat="45.67165" lon="-1.04166">
        <ele>10</ele>
        <time>2023-08-06T07:59:35Z</time>
      </trkpt>
      <trkpt lat="45.67133" lon="-1.04199">
        <ele>9.6</ele>
        <time>2023-08-06T07:59:42Z</time>
      </trkpt>
      <trkpt lat="45.67129" lon="-1.04205">
        <ele>9.6</ele>
        <time>2023-08-06T07:59:43Z</time>
      </trkpt>
      <trkpt lat="45.67113" lon="-1.04229">
        <ele>9.4</ele>
        <time>2023-08-06T07:59:47Z</time>
      </trkpt>
      <trkpt lat="45.67103" lon="-1.04247">
        <ele>9.4</ele>
        <time>2023-08-06T07:59:50Z</time>
      </trkpt>
      <trkpt lat="45.67091" lon="-1.04264">
        <ele>8.6</ele>
        <time>2023-08-06T07:59:53Z</time>
      </trkpt>
      <trkpt lat="45.67086" lon="-1.0427">
        <ele>8.4</ele>
        <time>2023-08-06T07:59:54Z</time>
      </trkpt>
      <trkpt lat="45.67078" lon="-1.04281">
        <ele>8</ele>
        <time>2023-08-06T07:59:56Z</time>
      </trkpt>
      <trkpt lat="45.67065" lon="-1.04294">
        <ele>7.8</ele>
        <time>2023-08-06T07:59:59Z</time>
      </trkpt>
      <trkpt lat="45.67055" lon="-1.04304">
        <ele>7.8</ele>
        <time>2023-08-06T08:00:02Z</time>
      </trkpt>
      <trkpt lat="45.67054" lon="-1.04309">
        <ele>8</ele>
        <time>2023-08-06T08:00:03Z</time>
      </trkpt>
      <trkpt lat="45.67055" lon="-1.04314">
        <ele>8</ele>
        <time>2023-08-06T08:00:04Z</time>
      </trkpt>
      <trkpt lat="45.67058" lon="-1.04323">
        <ele>8.4</ele>
        <time>2023-08-06T08:00:06Z</time>
      </trkpt>
      <trkpt lat="45.67069" lon="-1.04337">
        <ele>9.8</ele>
        <time>2023-08-06T08:00:10Z</time>
      </trkpt>
      <trkpt lat="45.67074" lon="-1.04343">
        <ele>10.4</ele>
        <time>2023-08-06T08:00:12Z</time>
      </trkpt>
      <trkpt lat="45.67078" lon="-1.0435">
        <ele>11</ele>
        <time>2023-08-06T08:00:14Z</time>
      </trkpt>
      <trkpt lat="45.67087" lon="-1.04363">
        <ele>12.2</ele>
        <time>2023-08-06T08:00:17Z</time>
      </trkpt>
      <trkpt lat="45.67093" lon="-1.04373">
        <ele>13.4</ele>
        <time>2023-08-06T08:00:19Z</time>
      </trkpt>
      <trkpt lat="45.67104" lon="-1.0439">
        <ele>14.4</ele>
        <time>2023-08-06T08:00:22Z</time>
      </trkpt>
      <trkpt lat="45.67116" lon="-1.04409">
        <ele>14.6</ele>
        <time>2023-08-06T08:00:25Z</time>
      </trkpt>
      <trkpt lat="45.67126" lon="-1.04427">
        <ele>15.2</ele>
        <time>2023-08-06T08:00:28Z</time>
      </trkpt>
      <trkpt lat="45.67135" lon="-1.04445">
        <ele>15</ele>
        <time>2023-08-06T08:00:31Z</time>
      </trkpt>
      <trkpt lat="45.67154" lon="-1.04487">
        <ele>14.6</ele>
        <time>2023-08-06T08:00:38Z</time>
      </trkpt>
      <trkpt lat="45.67159" lon="-1.04497">
        <ele>14.6</ele>
        <time>2023-08-06T08:00:40Z</time>
      </trkpt>
      <trkpt lat="45.67162" lon="-1.04507">
        <ele>14.4</ele>
        <time>2023-08-06T08:00:42Z</time>
      </trkpt>
      <trkpt lat="45.67166" lon="-1.04515">
        <ele>14</ele>
        <time>2023-08-06T08:00:44Z</time>
      </trkpt>
      <trkpt lat="45.67179" lon="-1.04524">
        <ele>14.2</ele>
        <time>2023-08-06T08:00:48Z</time>
      </trkpt>
      <trkpt lat="45.67183" lon="-1.04523">
        <ele>14.2</ele>
        <time>2023-08-06T08:00:49Z</time>
      </trkpt>
      <trkpt lat="45.67186" lon="-1.04521">
        <ele>14.2</ele>
        <time>2023-08-06T08:00:50Z</time>
      </trkpt>
      <trkpt lat="45.67198" lon="-1.0451">
        <ele>14.4</ele>
        <time>2023-08-06T08:00:53Z</time>
      </trkpt>
      <trkpt lat="45.67201" lon="-1.04506">
        <ele>14.2</ele>
        <time>2023-08-06T08:00:54Z</time>
      </trkpt>
      <trkpt lat="45.67219" lon="-1.04482">
        <ele>14.6</ele>
        <time>2023-08-06T08:01:00Z</time>
      </trkpt>
      <trkpt lat="45.67239" lon="-1.04454">
        <ele>15.6</ele>
        <time>2023-08-06T08:01:07Z</time>
      </trkpt>
      <trkpt lat="45.67245" lon="-1.04446">
        <ele>15.8</ele>
        <time>2023-08-06T08:01:09Z</time>
      </trkpt>
      <trkpt lat="45.67256" lon="-1.04433">
        <ele>15.8</ele>
        <time>2023-08-06T08:01:13Z</time>
      </trkpt>
      <trkpt lat="45.67268" lon="-1.04424">
        <ele>15.8</ele>
        <time>2023-08-06T08:01:18Z</time>
      </trkpt>
      <trkpt lat="45.67277" lon="-1.04425">
        <ele>16</ele>
        <time>2023-08-06T08:01:22Z</time>
      </trkpt>
      <trkpt lat="45.6728" lon="-1.04427">
        <ele>16.2</ele>
        <time>2023-08-06T08:01:23Z</time>
      </trkpt>
      <trkpt lat="45.67282" lon="-1.04431">
        <ele>16.2</ele>
        <time>2023-08-06T08:01:24Z</time>
      </trkpt>
      <trkpt lat="45.67289" lon="-1.04441">
        <ele>16.6</ele>
        <time>2023-08-06T08:01:27Z</time>
      </trkpt>
      <trkpt lat="45.67291" lon="-1.04445">
        <ele>16.8</ele>
        <time>2023-08-06T08:01:28Z</time>
      </trkpt>
      <trkpt lat="45.67299" lon="-1.0446">
        <ele>16.8</ele>
        <time>2023-08-06T08:01:32Z</time>
      </trkpt>
      <trkpt lat="45.67303" lon="-1.04466">
        <ele>16.6</ele>
        <time>2023-08-06T08:01:34Z</time>
      </trkpt>
      <trkpt lat="45.67308" lon="-1.04473">
        <ele>16.4</ele>
        <time>2023-08-06T08:01:36Z</time>
      </trkpt>
      <trkpt lat="45.67314" lon="-1.04482">
        <ele>16.4</ele>
        <time>2023-08-06T08:01:38Z</time>
      </trkpt>
      <trkpt lat="45.67316" lon="-1.04486">
        <ele>16.4</ele>
        <time>2023-08-06T08:01:39Z</time>
      </trkpt>
      <trkpt lat="45.67332" lon="-1.04506">
        <ele>17</ele>
        <time>2023-08-06T08:01:45Z</time>
      </trkpt>
      <trkpt lat="45.67354" lon="-1.04528">
        <ele>17</ele>
        <time>2023-08-06T08:01:52Z</time>
      </trkpt>
      <trkpt lat="45.6738" lon="-1.04546">
        <ele>17.2</ele>
        <time>2023-08-06T08:01:58Z</time>
      </trkpt>
      <trkpt lat="45.67384" lon="-1.04548">
        <ele>17.2</ele>
        <time>2023-08-06T08:01:59Z</time>
      </trkpt>
      <trkpt lat="45.67387" lon="-1.04549">
        <ele>17.4</ele>
        <time>2023-08-06T08:02:00Z</time>
      </trkpt>
      <trkpt lat="45.67398" lon="-1.04546">
        <ele>17.6</ele>
        <time>2023-08-06T08:02:03Z</time>
      </trkpt>
      <trkpt lat="45.67421" lon="-1.04543">
        <ele>17.8</ele>
        <time>2023-08-06T08:02:08Z</time>
      </trkpt>
      <trkpt lat="45.67426" lon="-1.04543">
        <ele>18</ele>
        <time>2023-08-06T08:02:09Z</time>
      </trkpt>
      <trkpt lat="45.6743" lon="-1.04545">
        <ele>18</ele>
        <time>2023-08-06T08:02:10Z</time>
      </trkpt>
      <trkpt lat="45.67437" lon="-1.04552">
        <ele>18.2</ele>
        <time>2023-08-06T08:02:12Z</time>
      </trkpt>
      <trkpt lat="45.6744" lon="-1.04556">
        <ele>18.2</ele>
        <time>2023-08-06T08:02:13Z</time>
      </trkpt>
      <trkpt lat="45.67465" lon="-1.04588">
        <ele>18.4</ele>
        <time>2023-08-06T08:02:20Z</time>
      </trkpt>
      <trkpt lat="45.67485" lon="-1.04615">
        <ele>18</ele>
        <time>2023-08-06T08:02:26Z</time>
      </trkpt>
      <trkpt lat="45.6751" lon="-1.04648">
        <ele>18</ele>
        <time>2023-08-06T08:02:32Z</time>
      </trkpt>
      <trkpt lat="45.67523" lon="-1.04669">
        <ele>18.2</ele>
        <time>2023-08-06T08:02:36Z</time>
      </trkpt>
      <trkpt lat="45.67528" lon="-1.0468">
        <ele>18.4</ele>
        <time>2023-08-06T08:02:38Z</time>
      </trkpt>
      <trkpt lat="45.67531" lon="-1.04695">
        <ele>18.2</ele>
        <time>2023-08-06T08:02:40Z</time>
      </trkpt>
      <trkpt lat="45.67529" lon="-1.04707">
        <ele>18.2</ele>
        <time>2023-08-06T08:02:42Z</time>
      </trkpt>
      <trkpt lat="45.67521" lon="-1.04722">
        <ele>18.2</ele>
        <time>2023-08-06T08:02:46Z</time>
      </trkpt>
      <trkpt lat="45.6752" lon="-1.04722">
        <ele>18.2</ele>
        <time>2023-08-06T08:02:47Z</time>
      </trkpt>
      <trkpt lat="45.67513" lon="-1.04715">
        <ele>18</ele>
        <time>2023-08-06T08:02:51Z</time>
      </trkpt>
      <trkpt lat="45.67507" lon="-1.04711">
        <ele>18</ele>
        <time>2023-08-06T08:02:54Z</time>
      </trkpt>
      <trkpt lat="45.67505" lon="-1.04714">
        <ele>18</ele>
        <time>2023-08-06T08:02:56Z</time>
      </trkpt>
      <trkpt lat="45.67503" lon="-1.04723">
        <ele>18.2</ele>
        <time>2023-08-06T08:03:00Z</time>
      </trkpt>
      <trkpt lat="45.67501" lon="-1.04723">
        <ele>18.2</ele>
        <time>2023-08-06T08:03:01Z</time>
      </trkpt>
      <trkpt lat="45.67499" lon="-1.04721">
        <ele>18.2</ele>
        <time>2023-08-06T08:03:02Z</time>
      </trkpt>
      <trkpt lat="45.67493" lon="-1.04714">
        <ele>18.2</ele>
        <time>2023-08-06T08:03:05Z</time>
      </trkpt>
      <trkpt lat="45.67488" lon="-1.04713">
        <ele>18.4</ele>
        <time>2023-08-06T08:03:07Z</time>
      </trkpt>
      <trkpt lat="45.67484" lon="-1.04714">
        <ele>18.4</ele>
        <time>2023-08-06T08:03:09Z</time>
      </trkpt>
      <trkpt lat="45.67477" lon="-1.04713">
        <ele>18.6</ele>
        <time>2023-08-06T08:03:12Z</time>
      </trkpt>
      <trkpt lat="45.67476" lon="-1.0471">
        <ele>18.4</ele>
        <time>2023-08-06T08:03:13Z</time>
      </trkpt>
      <trkpt lat="45.67468" lon="-1.04699">
        <ele>18.6</ele>
        <time>2023-08-06T08:03:18Z</time>
      </trkpt>
      <trkpt lat="45.67464" lon="-1.04694">
        <ele>18.6</ele>
        <time>2023-08-06T08:03:20Z</time>
      </trkpt>
      <trkpt lat="45.67459" lon="-1.04688">
        <ele>18.6</ele>
        <time>2023-08-06T08:03:22Z</time>
      </trkpt>
      <trkpt lat="45.67453" lon="-1.04681">
        <ele>18.2</ele>
        <time>2023-08-06T08:03:26Z</time>
      </trkpt>
      <trkpt lat="45.67439" lon="-1.04662">
        <ele>18.4</ele>
        <time>2023-08-06T08:03:32Z</time>
      </trkpt>
      <trkpt lat="45.67432" lon="-1.04651">
        <ele>18.8</ele>
        <time>2023-08-06T08:03:35Z</time>
      </trkpt>
      <trkpt lat="45.67429" lon="-1.04643">
        <ele>19.2</ele>
        <time>2023-08-06T08:03:37Z</time>
      </trkpt>
      <trkpt lat="45.67427" lon="-1.04639">
        <ele>19</ele>
        <time>2023-08-06T08:03:38Z</time>
      </trkpt>
      <trkpt lat="45.6742" lon="-1.0463">
        <ele>18.6</ele>
        <time>2023-08-06T08:03:41Z</time>
      </trkpt>
      <trkpt lat="45.67418" lon="-1.04628">
        <ele>18.6</ele>
        <time>2023-08-06T08:03:42Z</time>
      </trkpt>
      <trkpt lat="45.67414" lon="-1.04627">
        <ele>18.6</ele>
        <time>2023-08-06T08:03:44Z</time>
      </trkpt>
      <trkpt lat="45.67411" lon="-1.04629">
        <ele>18.6</ele>
        <time>2023-08-06T08:03:45Z</time>
      </trkpt>
      <trkpt lat="45.67409" lon="-1.04629">
        <ele>18.6</ele>
        <time>2023-08-06T08:03:46Z</time>
      </trkpt>
      <trkpt lat="45.674" lon="-1.04626">
        <ele>18.6</ele>
        <time>2023-08-06T08:03:48Z</time>
      </trkpt>
      <trkpt lat="45.67393" lon="-1.04625">
        <ele>18.6</ele>
        <time>2023-08-06T08:03:50Z</time>
      </trkpt>
      <trkpt lat="45.67385" lon="-1.04626">
        <ele>18.4</ele>
        <time>2023-08-06T08:03:52Z</time>
      </trkpt>
      <trkpt lat="45.67377" lon="-1.04623">
        <ele>18.4</ele>
        <time>2023-08-06T08:03:54Z</time>
      </trkpt>
      <trkpt lat="45.67372" lon="-1.04615">
        <ele>18.2</ele>
        <time>2023-08-06T08:03:56Z</time>
      </trkpt>
      <trkpt lat="45.6737" lon="-1.0461">
        <ele>18.2</ele>
        <time>2023-08-06T08:03:57Z</time>
      </trkpt>
      <trkpt lat="45.67362" lon="-1.04602">
        <ele>18</ele>
        <time>2023-08-06T08:03:59Z</time>
      </trkpt>
      <trkpt lat="45.67356" lon="-1.04591">
        <ele>18</ele>
        <time>2023-08-06T08:04:02Z</time>
      </trkpt>
      <trkpt lat="45.67356" lon="-1.04587">
        <ele>18</ele>
        <time>2023-08-06T08:04:03Z</time>
      </trkpt>
      <trkpt lat="45.67353" lon="-1.04579">
        <ele>18</ele>
        <time>2023-08-06T08:04:05Z</time>
      </trkpt>
      <trkpt lat="45.67347" lon="-1.04575">
        <ele>18</ele>
        <time>2023-08-06T08:04:07Z</time>
      </trkpt>
      <trkpt lat="45.67343" lon="-1.04573">
        <ele>18</ele>
        <time>2023-08-06T08:04:08Z</time>
      </trkpt>
      <trkpt lat="45.67337" lon="-1.04566">
        <ele>18</ele>
        <time>2023-08-06T08:04:10Z</time>
      </trkpt>
      <trkpt lat="45.67335" lon="-1.04563">
        <ele>18</ele>
        <time>2023-08-06T08:04:11Z</time>
      </trkpt>
      <trkpt lat="45.67332" lon="-1.0456">
        <ele>17.8</ele>
        <time>2023-08-06T08:04:12Z</time>
      </trkpt>
      <trkpt lat="45.67329" lon="-1.04557">
        <ele>17.8</ele>
        <time>2023-08-06T08:04:13Z</time>
      </trkpt>
      <trkpt lat="45.67327" lon="-1.04554">
        <ele>17.6</ele>
        <time>2023-08-06T08:04:14Z</time>
      </trkpt>
      <trkpt lat="45.67324" lon="-1.04549">
        <ele>17.4</ele>
        <time>2023-08-06T08:04:15Z</time>
      </trkpt>
      <trkpt lat="45.67316" lon="-1.04533">
        <ele>16.8</ele>
        <time>2023-08-06T08:04:18Z</time>
      </trkpt>
      <trkpt lat="45.6731" lon="-1.04521">
        <ele>16.4</ele>
        <time>2023-08-06T08:04:21Z</time>
      </trkpt>
      <trkpt lat="45.67305" lon="-1.04516">
        <ele>16.8</ele>
        <time>2023-08-06T08:04:23Z</time>
      </trkpt>
      <trkpt lat="45.673" lon="-1.04506">
        <ele>16.8</ele>
        <time>2023-08-06T08:04:26Z</time>
      </trkpt>
      <trkpt lat="45.6729" lon="-1.0449">
        <ele>17</ele>
        <time>2023-08-06T08:04:31Z</time>
      </trkpt>
      <trkpt lat="45.67282" lon="-1.04488">
        <ele>17</ele>
        <time>2023-08-06T08:04:35Z</time>
      </trkpt>
      <trkpt lat="45.6728" lon="-1.04489">
        <ele>16.8</ele>
        <time>2023-08-06T08:04:36Z</time>
      </trkpt>
      <trkpt lat="45.67277" lon="-1.04494">
        <ele>16.4</ele>
        <time>2023-08-06T08:04:38Z</time>
      </trkpt>
      <trkpt lat="45.67276" lon="-1.04498">
        <ele>16</ele>
        <time>2023-08-06T08:04:40Z</time>
      </trkpt>
      <trkpt lat="45.67277" lon="-1.045">
        <ele>16</ele>
        <time>2023-08-06T08:04:41Z</time>
      </trkpt>
      <trkpt lat="45.67282" lon="-1.04512">
        <ele>16</ele>
        <time>2023-08-06T08:04:47Z</time>
      </trkpt>
      <trkpt lat="45.67284" lon="-1.04515">
        <ele>16</ele>
        <time>2023-08-06T08:04:48Z</time>
      </trkpt>
      <trkpt lat="45.67286" lon="-1.04527">
        <ele>16</ele>
        <time>2023-08-06T08:04:51Z</time>
      </trkpt>
      <trkpt lat="45.67286" lon="-1.04533">
        <ele>16</ele>
        <time>2023-08-06T08:04:53Z</time>
      </trkpt>
      <trkpt lat="45.67282" lon="-1.04539">
        <ele>16</ele>
        <time>2023-08-06T08:04:56Z</time>
      </trkpt>
      <trkpt lat="45.67282" lon="-1.04542">
        <ele>15.8</ele>
        <time>2023-08-06T08:04:57Z</time>
      </trkpt>
      <trkpt lat="45.67281" lon="-1.04545">
        <ele>15.8</ele>
        <time>2023-08-06T08:04:58Z</time>
      </trkpt>
      <trkpt lat="45.67279" lon="-1.04547">
        <ele>15.6</ele>
        <time>2023-08-06T08:04:59Z</time>
      </trkpt>
      <trkpt lat="45.67274" lon="-1.04553">
        <ele>15.6</ele>
        <time>2023-08-06T08:05:01Z</time>
      </trkpt>
      <trkpt lat="45.6727" lon="-1.04561">
        <ele>15.4</ele>
        <time>2023-08-06T08:05:03Z</time>
      </trkpt>
      <trkpt lat="45.67266" lon="-1.04568">
        <ele>15.4</ele>
        <time>2023-08-06T08:05:05Z</time>
      </trkpt>
      <trkpt lat="45.67265" lon="-1.04572">
        <ele>15.4</ele>
        <time>2023-08-06T08:05:06Z</time>
      </trkpt>
      <trkpt lat="45.67262" lon="-1.04584">
        <ele>15.6</ele>
        <time>2023-08-06T08:05:09Z</time>
      </trkpt>
      <trkpt lat="45.67254" lon="-1.04594">
        <ele>16</ele>
        <time>2023-08-06T08:05:13Z</time>
      </trkpt>
      <trkpt lat="45.67251" lon="-1.04594">
        <ele>16</ele>
        <time>2023-08-06T08:05:14Z</time>
      </trkpt>
      <trkpt lat="45.67246" lon="-1.04594">
        <ele>15.8</ele>
        <time>2023-08-06T08:05:15Z</time>
      </trkpt>
      <trkpt lat="45.67238" lon="-1.04591">
        <ele>16</ele>
        <time>2023-08-06T08:05:17Z</time>
      </trkpt>
      <trkpt lat="45.67234" lon="-1.0459">
        <ele>15.6</ele>
        <time>2023-08-06T08:05:18Z</time>
      </trkpt>
      <trkpt lat="45.67228" lon="-1.04584">
        <ele>15</ele>
        <time>2023-08-06T08:05:21Z</time>
      </trkpt>
      <trkpt lat="45.67225" lon="-1.04579">
        <ele>14.6</ele>
        <time>2023-08-06T08:05:23Z</time>
      </trkpt>
      <trkpt lat="45.6722" lon="-1.04575">
        <ele>14.4</ele>
        <time>2023-08-06T08:05:25Z</time>
      </trkpt>
      <trkpt lat="45.67217" lon="-1.04575">
        <ele>14.2</ele>
        <time>2023-08-06T08:05:27Z</time>
      </trkpt>
      <trkpt lat="45.6721" lon="-1.04573">
        <ele>13.8</ele>
        <time>2023-08-06T08:05:30Z</time>
      </trkpt>
      <trkpt lat="45.67205" lon="-1.04574">
        <ele>13.4</ele>
        <time>2023-08-06T08:05:32Z</time>
      </trkpt>
      <trkpt lat="45.672" lon="-1.04577">
        <ele>13.8</ele>
        <time>2023-08-06T08:05:34Z</time>
      </trkpt>
      <trkpt lat="45.67193" lon="-1.04581">
        <ele>13.4</ele>
        <time>2023-08-06T08:05:36Z</time>
      </trkpt>
      <trkpt lat="45.67191" lon="-1.04588">
        <ele>13.4</ele>
        <time>2023-08-06T08:05:38Z</time>
      </trkpt>
      <trkpt lat="45.67191" lon="-1.04591">
        <ele>13.2</ele>
        <time>2023-08-06T08:05:39Z</time>
      </trkpt>
      <trkpt lat="45.67192" lon="-1.04604">
        <ele>13</ele>
        <time>2023-08-06T08:05:44Z</time>
      </trkpt>
      <trkpt lat="45.67192" lon="-1.0461">
        <ele>13</ele>
        <time>2023-08-06T08:05:47Z</time>
      </trkpt>
      <trkpt lat="45.67194" lon="-1.0461">
        <ele>13.8</ele>
        <time>2023-08-06T08:05:49Z</time>
      </trkpt>
      <trkpt lat="45.67194" lon="-1.04608">
        <ele>14.2</ele>
        <time>2023-08-06T08:05:50Z</time>
      </trkpt>
      <trkpt lat="45.67197" lon="-1.04606">
        <ele>14.4</ele>
        <time>2023-08-06T08:05:52Z</time>
      </trkpt>
      <trkpt lat="45.67199" lon="-1.04606">
        <ele>14.6</ele>
        <time>2023-08-06T08:05:53Z</time>
      </trkpt>
      <trkpt lat="45.67203" lon="-1.04608">
        <ele>15</ele>
        <time>2023-08-06T08:05:55Z</time>
      </trkpt>
      <trkpt lat="45.67205" lon="-1.04614">
        <ele>15.2</ele>
        <time>2023-08-06T08:05:57Z</time>
      </trkpt>
      <trkpt lat="45.67207" lon="-1.04621">
        <ele>15.6</ele>
        <time>2023-08-06T08:05:59Z</time>
      </trkpt>
      <trkpt lat="45.67211" lon="-1.0464">
        <ele>15.8</ele>
        <time>2023-08-06T08:06:04Z</time>
      </trkpt>
      <trkpt lat="45.6722" lon="-1.04655">
        <ele>16.4</ele>
        <time>2023-08-06T08:06:09Z</time>
      </trkpt>
      <trkpt lat="45.67224" lon="-1.04656">
        <ele>16.6</ele>
        <time>2023-08-06T08:06:11Z</time>
      </trkpt>
      <trkpt lat="45.67229" lon="-1.04655">
        <ele>16.6</ele>
        <time>2023-08-06T08:06:14Z</time>
      </trkpt>
      <trkpt lat="45.67231" lon="-1.04657">
        <ele>16.6</ele>
        <time>2023-08-06T08:06:15Z</time>
      </trkpt>
      <trkpt lat="45.67234" lon="-1.0466">
        <ele>16.8</ele>
        <time>2023-08-06T08:06:17Z</time>
      </trkpt>
      <trkpt lat="45.67237" lon="-1.04662">
        <ele>16.8</ele>
        <time>2023-08-06T08:06:18Z</time>
      </trkpt>
      <trkpt lat="45.67241" lon="-1.04662">
        <ele>17.2</ele>
        <time>2023-08-06T08:06:20Z</time>
      </trkpt>
      <trkpt lat="45.67244" lon="-1.04665">
        <ele>17.2</ele>
        <time>2023-08-06T08:06:21Z</time>
      </trkpt>
      <trkpt lat="45.67248" lon="-1.04669">
        <ele>17.6</ele>
        <time>2023-08-06T08:06:23Z</time>
      </trkpt>
      <trkpt lat="45.67257" lon="-1.04677">
        <ele>17.4</ele>
        <time>2023-08-06T08:06:27Z</time>
      </trkpt>
      <trkpt lat="45.6727" lon="-1.04692">
        <ele>17.8</ele>
        <time>2023-08-06T08:06:32Z</time>
      </trkpt>
      <trkpt lat="45.6728" lon="-1.04704">
        <ele>18</ele>
        <time>2023-08-06T08:06:36Z</time>
      </trkpt>
      <trkpt lat="45.67282" lon="-1.04705">
        <ele>17.8</ele>
        <time>2023-08-06T08:06:37Z</time>
      </trkpt>
      <trkpt lat="45.67288" lon="-1.04705">
        <ele>17.8</ele>
        <time>2023-08-06T08:06:40Z</time>
      </trkpt>
      <trkpt lat="45.673" lon="-1.04697">
        <ele>17.8</ele>
        <time>2023-08-06T08:06:46Z</time>
      </trkpt>
      <trkpt lat="45.67311" lon="-1.04682">
        <ele>17.6</ele>
        <time>2023-08-06T08:06:52Z</time>
      </trkpt>
      <trkpt lat="45.67319" lon="-1.04678">
        <ele>17.6</ele>
        <time>2023-08-06T08:06:54Z</time>
      </trkpt>
      <trkpt lat="45.67324" lon="-1.04678">
        <ele>17.4</ele>
        <time>2023-08-06T08:06:56Z</time>
      </trkpt>
      <trkpt lat="45.67332" lon="-1.04681">
        <ele>18.2</ele>
        <time>2023-08-06T08:06:59Z</time>
      </trkpt>
      <trkpt lat="45.67336" lon="-1.04686">
        <ele>18.2</ele>
        <time>2023-08-06T08:07:01Z</time>
      </trkpt>
      <trkpt lat="45.67347" lon="-1.04701">
        <ele>18.4</ele>
        <time>2023-08-06T08:07:06Z</time>
      </trkpt>
      <trkpt lat="45.67353" lon="-1.04702">
        <ele>18.4</ele>
        <time>2023-08-06T08:07:08Z</time>
      </trkpt>
      <trkpt lat="45.67357" lon="-1.04699">
        <ele>18.2</ele>
        <time>2023-08-06T08:07:10Z</time>
      </trkpt>
      <trkpt lat="45.67364" lon="-1.04695">
        <ele>18.4</ele>
        <time>2023-08-06T08:07:13Z</time>
      </trkpt>
      <trkpt lat="45.67367" lon="-1.04689">
        <ele>18.6</ele>
        <time>2023-08-06T08:07:15Z</time>
      </trkpt>
      <trkpt lat="45.67368" lon="-1.04687">
        <ele>18.8</ele>
        <time>2023-08-06T08:07:16Z</time>
      </trkpt>
      <trkpt lat="45.67372" lon="-1.04686">
        <ele>18.8</ele>
        <time>2023-08-06T08:07:18Z</time>
      </trkpt>
      <trkpt lat="45.67386" lon="-1.04686">
        <ele>19</ele>
        <time>2023-08-06T08:07:23Z</time>
      </trkpt>
      <trkpt lat="45.67392" lon="-1.04688">
        <ele>19</ele>
        <time>2023-08-06T08:07:25Z</time>
      </trkpt>
      <trkpt lat="45.674" lon="-1.04696">
        <ele>18.4</ele>
        <time>2023-08-06T08:07:28Z</time>
      </trkpt>
      <trkpt lat="45.67415" lon="-1.04714">
        <ele>18.6</ele>
        <time>2023-08-06T08:07:33Z</time>
      </trkpt>
      <trkpt lat="45.67418" lon="-1.04719">
        <ele>18.8</ele>
        <time>2023-08-06T08:07:34Z</time>
      </trkpt>
      <trkpt lat="45.67421" lon="-1.04722">
        <ele>18.8</ele>
        <time>2023-08-06T08:07:35Z</time>
      </trkpt>
      <trkpt lat="45.67426" lon="-1.04725">
        <ele>19</ele>
        <time>2023-08-06T08:07:37Z</time>
      </trkpt>
      <trkpt lat="45.67428" lon="-1.04726">
        <ele>19</ele>
        <time>2023-08-06T08:07:38Z</time>
      </trkpt>
      <trkpt lat="45.6743" lon="-1.04728">
        <ele>19.2</ele>
        <time>2023-08-06T08:07:39Z</time>
      </trkpt>
      <trkpt lat="45.67436" lon="-1.04734">
        <ele>19.2</ele>
        <time>2023-08-06T08:07:42Z</time>
      </trkpt>
      <trkpt lat="45.67446" lon="-1.04736">
        <ele>19</ele>
        <time>2023-08-06T08:07:45Z</time>
      </trkpt>
      <trkpt lat="45.67452" lon="-1.0474">
        <ele>19</ele>
        <time>2023-08-06T08:07:47Z</time>
      </trkpt>
      <trkpt lat="45.67463" lon="-1.04759">
        <ele>18.6</ele>
        <time>2023-08-06T08:07:52Z</time>
      </trkpt>
      <trkpt lat="45.67464" lon="-1.04767">
        <ele>18.6</ele>
        <time>2023-08-06T08:07:54Z</time>
      </trkpt>
      <trkpt lat="45.67464" lon="-1.0477">
        <ele>18.6</ele>
        <time>2023-08-06T08:07:55Z</time>
      </trkpt>
      <trkpt lat="45.67463" lon="-1.0477">
        <ele>18.4</ele>
        <time>2023-08-06T08:07:56Z</time>
      </trkpt>
      <trkpt lat="45.6746" lon="-1.04767">
        <ele>18.2</ele>
        <time>2023-08-06T08:07:58Z</time>
      </trkpt>
      <trkpt lat="45.67456" lon="-1.04763">
        <ele>18.4</ele>
        <time>2023-08-06T08:08:00Z</time>
      </trkpt>
      <trkpt lat="45.67452" lon="-1.04759">
        <ele>18.4</ele>
        <time>2023-08-06T08:08:02Z</time>
      </trkpt>
      <trkpt lat="45.67451" lon="-1.04763">
        <ele>18.4</ele>
        <time>2023-08-06T08:08:04Z</time>
      </trkpt>
      <trkpt lat="45.6745" lon="-1.04774">
        <ele>18.6</ele>
        <time>2023-08-06T08:08:07Z</time>
      </trkpt>
      <trkpt lat="45.6745" lon="-1.0478">
        <ele>19.4</ele>
        <time>2023-08-06T08:08:09Z</time>
      </trkpt>
      <trkpt lat="45.67449" lon="-1.04782">
        <ele>19.8</ele>
        <time>2023-08-06T08:08:10Z</time>
      </trkpt>
      <trkpt lat="45.67445" lon="-1.04792">
        <ele>20.6</ele>
        <time>2023-08-06T08:08:13Z</time>
      </trkpt>
      <trkpt lat="45.67443" lon="-1.04796">
        <ele>20.8</ele>
        <time>2023-08-06T08:08:14Z</time>
      </trkpt>
      <trkpt lat="45.6744" lon="-1.04804">
        <ele>21</ele>
        <time>2023-08-06T08:08:16Z</time>
      </trkpt>
      <trkpt lat="45.6743" lon="-1.04819">
        <ele>21</ele>
        <time>2023-08-06T08:08:19Z</time>
      </trkpt>
      <trkpt lat="45.67425" lon="-1.04836">
        <ele>20</ele>
        <time>2023-08-06T08:08:22Z</time>
      </trkpt>
      <trkpt lat="45.67426" lon="-1.0484">
        <ele>19.6</ele>
        <time>2023-08-06T08:08:23Z</time>
      </trkpt>
      <trkpt lat="45.67431" lon="-1.04863">
        <ele>18.8</ele>
        <time>2023-08-06T08:08:28Z</time>
      </trkpt>
      <trkpt lat="45.6743" lon="-1.04871">
        <ele>18.6</ele>
        <time>2023-08-06T08:08:30Z</time>
      </trkpt>
      <trkpt lat="45.67426" lon="-1.04879">
        <ele>18.8</ele>
        <time>2023-08-06T08:08:33Z</time>
      </trkpt>
      <trkpt lat="45.67421" lon="-1.04893">
        <ele>18.8</ele>
        <time>2023-08-06T08:08:37Z</time>
      </trkpt>
      <trkpt lat="45.67416" lon="-1.04898">
        <ele>19</ele>
        <time>2023-08-06T08:08:39Z</time>
      </trkpt>
      <trkpt lat="45.67413" lon="-1.04898">
        <ele>19</ele>
        <time>2023-08-06T08:08:40Z</time>
      </trkpt>
      <trkpt lat="45.67406" lon="-1.04903">
        <ele>19</ele>
        <time>2023-08-06T08:08:43Z</time>
      </trkpt>
      <trkpt lat="45.67406" lon="-1.04906">
        <ele>19</ele>
        <time>2023-08-06T08:08:44Z</time>
      </trkpt>
      <trkpt lat="45.674" lon="-1.04919">
        <ele>18.4</ele>
        <time>2023-08-06T08:08:48Z</time>
      </trkpt>
      <trkpt lat="45.67395" lon="-1.04919">
        <ele>18.4</ele>
        <time>2023-08-06T08:08:50Z</time>
      </trkpt>
      <trkpt lat="45.67389" lon="-1.04925">
        <ele>18.8</ele>
        <time>2023-08-06T08:08:53Z</time>
      </trkpt>
      <trkpt lat="45.67386" lon="-1.04929">
        <ele>18.8</ele>
        <time>2023-08-06T08:08:54Z</time>
      </trkpt>
      <trkpt lat="45.67379" lon="-1.04941">
        <ele>18.8</ele>
        <time>2023-08-06T08:08:57Z</time>
      </trkpt>
      <trkpt lat="45.67377" lon="-1.04955">
        <ele>18.6</ele>
        <time>2023-08-06T08:09:00Z</time>
      </trkpt>
      <trkpt lat="45.67373" lon="-1.04974">
        <ele>18.6</ele>
        <time>2023-08-06T08:09:06Z</time>
      </trkpt>
      <trkpt lat="45.67371" lon="-1.04988">
        <ele>18.8</ele>
        <time>2023-08-06T08:09:10Z</time>
      </trkpt>
      <trkpt lat="45.67368" lon="-1.04991">
        <ele>18.8</ele>
        <time>2023-08-06T08:09:11Z</time>
      </trkpt>
      <trkpt lat="45.67365" lon="-1.04992">
        <ele>18.8</ele>
        <time>2023-08-06T08:09:12Z</time>
      </trkpt>
      <trkpt lat="45.67356" lon="-1.04993">
        <ele>19</ele>
        <time>2023-08-06T08:09:14Z</time>
      </trkpt>
      <trkpt lat="45.67354" lon="-1.04995">
        <ele>19</ele>
        <time>2023-08-06T08:09:15Z</time>
      </trkpt>
      <trkpt lat="45.67351" lon="-1.04997">
        <ele>18.6</ele>
        <time>2023-08-06T08:09:16Z</time>
      </trkpt>
      <trkpt lat="45.67347" lon="-1.05004">
        <ele>18.6</ele>
        <time>2023-08-06T08:09:18Z</time>
      </trkpt>
      <trkpt lat="45.67347" lon="-1.05007">
        <ele>18.6</ele>
        <time>2023-08-06T08:09:19Z</time>
      </trkpt>
      <trkpt lat="45.6735" lon="-1.0503">
        <ele>18.6</ele>
        <time>2023-08-06T08:09:25Z</time>
      </trkpt>
      <trkpt lat="45.6735" lon="-1.05031">
        <ele>18.6</ele>
        <time>2023-08-06T08:09:26Z</time>
      </trkpt>
      <trkpt lat="45.67351" lon="-1.05032">
        <ele>18.6</ele>
        <time>2023-08-06T08:09:28Z</time>
      </trkpt>
      <trkpt lat="45.67352" lon="-1.05032">
        <ele>18.8</ele>
        <time>2023-08-06T08:09:29Z</time>
      </trkpt>
      <trkpt lat="45.67361" lon="-1.05018">
        <ele>19</ele>
        <time>2023-08-06T08:09:35Z</time>
      </trkpt>
      <trkpt lat="45.67377" lon="-1.04996">
        <ele>19.2</ele>
        <time>2023-08-06T08:09:42Z</time>
      </trkpt>
      <trkpt lat="45.67391" lon="-1.04972">
        <ele>19.2</ele>
        <time>2023-08-06T08:09:48Z</time>
      </trkpt>
      <trkpt lat="45.67397" lon="-1.04965">
        <ele>19</ele>
        <time>2023-08-06T08:09:50Z</time>
      </trkpt>
      <trkpt lat="45.67406" lon="-1.04949">
        <ele>19</ele>
        <time>2023-08-06T08:09:54Z</time>
      </trkpt>
      <trkpt lat="45.67412" lon="-1.04942">
        <ele>19</ele>
        <time>2023-08-06T08:09:56Z</time>
      </trkpt>
      <trkpt lat="45.67419" lon="-1.04933">
        <ele>18.8</ele>
        <time>2023-08-06T08:09:59Z</time>
      </trkpt>
      <trkpt lat="45.67433" lon="-1.0491">
        <ele>18.8</ele>
        <time>2023-08-06T08:10:05Z</time>
      </trkpt>
      <trkpt lat="45.67437" lon="-1.04905">
        <ele>18.6</ele>
        <time>2023-08-06T08:10:06Z</time>
      </trkpt>
      <trkpt lat="45.67443" lon="-1.04894">
        <ele>18.8</ele>
        <time>2023-08-06T08:10:08Z</time>
      </trkpt>
      <trkpt lat="45.67449" lon="-1.04883">
        <ele>18.6</ele>
        <time>2023-08-06T08:10:10Z</time>
      </trkpt>
      <trkpt lat="45.67465" lon="-1.04858">
        <ele>18.8</ele>
        <time>2023-08-06T08:10:15Z</time>
      </trkpt>
      <trkpt lat="45.67469" lon="-1.04852">
        <ele>19</ele>
        <time>2023-08-06T08:10:16Z</time>
      </trkpt>
      <trkpt lat="45.67473" lon="-1.04847">
        <ele>19.2</ele>
        <time>2023-08-06T08:10:17Z</time>
      </trkpt>
      <trkpt lat="45.67491" lon="-1.04827">
        <ele>19.4</ele>
        <time>2023-08-06T08:10:21Z</time>
      </trkpt>
      <trkpt lat="45.675" lon="-1.04823">
        <ele>19.4</ele>
        <time>2023-08-06T08:10:23Z</time>
      </trkpt>
      <trkpt lat="45.67503" lon="-1.04823">
        <ele>19.4</ele>
        <time>2023-08-06T08:10:24Z</time>
      </trkpt>
      <trkpt lat="45.67506" lon="-1.04825">
        <ele>19.4</ele>
        <time>2023-08-06T08:10:25Z</time>
      </trkpt>
      <trkpt lat="45.67506" lon="-1.04829">
        <ele>18.8</ele>
        <time>2023-08-06T08:10:27Z</time>
      </trkpt>
      <trkpt lat="45.67504" lon="-1.04842">
        <ele>18.4</ele>
        <time>2023-08-06T08:10:32Z</time>
      </trkpt>
      <trkpt lat="45.67505" lon="-1.04851">
        <ele>18.2</ele>
        <time>2023-08-06T08:10:35Z</time>
      </trkpt>
      <trkpt lat="45.67504" lon="-1.04858">
        <ele>18.2</ele>
        <time>2023-08-06T08:10:37Z</time>
      </trkpt>
      <trkpt lat="45.67496" lon="-1.04868">
        <ele>18.4</ele>
        <time>2023-08-06T08:10:42Z</time>
      </trkpt>
      <trkpt lat="45.6749" lon="-1.04872">
        <ele>18.8</ele>
        <time>2023-08-06T08:10:45Z</time>
      </trkpt>
      <trkpt lat="45.67488" lon="-1.04877">
        <ele>19</ele>
        <time>2023-08-06T08:10:47Z</time>
      </trkpt>
      <trkpt lat="45.67489" lon="-1.04898">
        <ele>19.2</ele>
        <time>2023-08-06T08:10:53Z</time>
      </trkpt>
      <trkpt lat="45.67484" lon="-1.04909">
        <ele>19.2</ele>
        <time>2023-08-06T08:10:57Z</time>
      </trkpt>
      <trkpt lat="45.67481" lon="-1.04911">
        <ele>19</ele>
        <time>2023-08-06T08:10:58Z</time>
      </trkpt>
      <trkpt lat="45.67469" lon="-1.04922">
        <ele>19</ele>
        <time>2023-08-06T08:11:03Z</time>
      </trkpt>
      <trkpt lat="45.67461" lon="-1.04929">
        <ele>18.8</ele>
        <time>2023-08-06T08:11:07Z</time>
      </trkpt>
      <trkpt lat="45.67461" lon="-1.04934">
        <ele>19</ele>
        <time>2023-08-06T08:11:09Z</time>
      </trkpt>
      <trkpt lat="45.6746" lon="-1.04939">
        <ele>18.8</ele>
        <time>2023-08-06T08:11:11Z</time>
      </trkpt>
      <trkpt lat="45.67462" lon="-1.04942">
        <ele>19</ele>
        <time>2023-08-06T08:11:14Z</time>
      </trkpt>
      <trkpt lat="45.67464" lon="-1.04948">
        <ele>19</ele>
        <time>2023-08-06T08:11:17Z</time>
      </trkpt>
      <trkpt lat="45.67464" lon="-1.04951">
        <ele>19</ele>
        <time>2023-08-06T08:11:18Z</time>
      </trkpt>
      <trkpt lat="45.67464" lon="-1.04954">
        <ele>19</ele>
        <time>2023-08-06T08:11:19Z</time>
      </trkpt>
      <trkpt lat="45.67461" lon="-1.04969">
        <ele>19</ele>
        <time>2023-08-06T08:11:23Z</time>
      </trkpt>
      <trkpt lat="45.67457" lon="-1.04986">
        <ele>19.2</ele>
        <time>2023-08-06T08:11:28Z</time>
      </trkpt>
      <trkpt lat="45.67455" lon="-1.04988">
        <ele>19.2</ele>
        <time>2023-08-06T08:11:29Z</time>
      </trkpt>
      <trkpt lat="45.67446" lon="-1.04988">
        <ele>18.6</ele>
        <time>2023-08-06T08:11:32Z</time>
      </trkpt>
      <trkpt lat="45.67433" lon="-1.04989">
        <ele>19.2</ele>
        <time>2023-08-06T08:11:37Z</time>
      </trkpt>
      <trkpt lat="45.67432" lon="-1.04994">
        <ele>19.2</ele>
        <time>2023-08-06T08:11:39Z</time>
      </trkpt>
      <trkpt lat="45.67429" lon="-1.05">
        <ele>19</ele>
        <time>2023-08-06T08:11:41Z</time>
      </trkpt>
      <trkpt lat="45.67429" lon="-1.05006">
        <ele>19</ele>
        <time>2023-08-06T08:11:43Z</time>
      </trkpt>
      <trkpt lat="45.67431" lon="-1.05012">
        <ele>19</ele>
        <time>2023-08-06T08:11:45Z</time>
      </trkpt>
      <trkpt lat="45.67437" lon="-1.05009">
        <ele>19.2</ele>
        <time>2023-08-06T08:11:48Z</time>
      </trkpt>
      <trkpt lat="45.67439" lon="-1.05008">
        <ele>19.2</ele>
        <time>2023-08-06T08:11:49Z</time>
      </trkpt>
      <trkpt lat="45.67443" lon="-1.05008">
        <ele>19.2</ele>
        <time>2023-08-06T08:11:51Z</time>
      </trkpt>
      <trkpt lat="45.67445" lon="-1.05008">
        <ele>19.4</ele>
        <time>2023-08-06T08:11:52Z</time>
      </trkpt>
      <trkpt lat="45.67447" lon="-1.05008">
        <ele>19.6</ele>
        <time>2023-08-06T08:11:53Z</time>
      </trkpt>
      <trkpt lat="45.67448" lon="-1.05012">
        <ele>19.6</ele>
        <time>2023-08-06T08:11:55Z</time>
      </trkpt>
      <trkpt lat="45.67449" lon="-1.05014">
        <ele>19.6</ele>
        <time>2023-08-06T08:11:56Z</time>
      </trkpt>
      <trkpt lat="45.67449" lon="-1.05017">
        <ele>19.4</ele>
        <time>2023-08-06T08:11:57Z</time>
      </trkpt>
      <trkpt lat="45.67449" lon="-1.05017">
        <ele>18.6</ele>
        <time>2023-08-06T08:11:59Z</time>
      </trkpt>
      <trkpt lat="45.67445" lon="-1.05024">
        <ele>18.4</ele>
        <time>2023-08-06T08:12:01Z</time>
      </trkpt>
      <trkpt lat="45.67443" lon="-1.05028">
        <ele>18.6</ele>
        <time>2023-08-06T08:12:03Z</time>
      </trkpt>
      <trkpt lat="45.67438" lon="-1.0503">
        <ele>19</ele>
        <time>2023-08-06T08:12:06Z</time>
      </trkpt>
      <trkpt lat="45.67431" lon="-1.05034">
        <ele>19.2</ele>
        <time>2023-08-06T08:12:10Z</time>
      </trkpt>
      <trkpt lat="45.67429" lon="-1.05032">
        <ele>19.2</ele>
        <time>2023-08-06T08:12:11Z</time>
      </trkpt>
      <trkpt lat="45.67425" lon="-1.05031">
        <ele>19.2</ele>
        <time>2023-08-06T08:12:13Z</time>
      </trkpt>
      <trkpt lat="45.67418" lon="-1.05032">
        <ele>19</ele>
        <time>2023-08-06T08:12:15Z</time>
      </trkpt>
      <trkpt lat="45.67414" lon="-1.05032">
        <ele>19</ele>
        <time>2023-08-06T08:12:16Z</time>
      </trkpt>
      <trkpt lat="45.67399" lon="-1.05033">
        <ele>19</ele>
        <time>2023-08-06T08:12:19Z</time>
      </trkpt>
      <trkpt lat="45.67396" lon="-1.05035">
        <ele>19</ele>
        <time>2023-08-06T08:12:21Z</time>
      </trkpt>
      <trkpt lat="45.67394" lon="-1.0504">
        <ele>19</ele>
        <time>2023-08-06T08:12:23Z</time>
      </trkpt>
      <trkpt lat="45.67393" lon="-1.05045">
        <ele>19</ele>
        <time>2023-08-06T08:12:25Z</time>
      </trkpt>
      <trkpt lat="45.67399" lon="-1.05048">
        <ele>19.2</ele>
        <time>2023-08-06T08:12:29Z</time>
      </trkpt>
      <trkpt lat="45.67402" lon="-1.0505">
        <ele>19.4</ele>
        <time>2023-08-06T08:12:31Z</time>
      </trkpt>
      <trkpt lat="45.67405" lon="-1.05057">
        <ele>19.2</ele>
        <time>2023-08-06T08:12:33Z</time>
      </trkpt>
      <trkpt lat="45.67408" lon="-1.0506">
        <ele>19.2</ele>
        <time>2023-08-06T08:12:35Z</time>
      </trkpt>
      <trkpt lat="45.67411" lon="-1.05062">
        <ele>19</ele>
        <time>2023-08-06T08:12:37Z</time>
      </trkpt>
      <trkpt lat="45.67422" lon="-1.05068">
        <ele>18.8</ele>
        <time>2023-08-06T08:12:42Z</time>
      </trkpt>
      <trkpt lat="45.67425" lon="-1.05068">
        <ele>18.8</ele>
        <time>2023-08-06T08:12:43Z</time>
      </trkpt>
      <trkpt lat="45.67432" lon="-1.0507">
        <ele>18.8</ele>
        <time>2023-08-06T08:12:45Z</time>
      </trkpt>
      <trkpt lat="45.67436" lon="-1.05072">
        <ele>18.8</ele>
        <time>2023-08-06T08:12:46Z</time>
      </trkpt>
      <trkpt lat="45.67439" lon="-1.05073">
        <ele>19</ele>
        <time>2023-08-06T08:12:47Z</time>
      </trkpt>
      <trkpt lat="45.67446" lon="-1.05073">
        <ele>18.8</ele>
        <time>2023-08-06T08:12:50Z</time>
      </trkpt>
      <trkpt lat="45.67449" lon="-1.05072">
        <ele>18.8</ele>
        <time>2023-08-06T08:12:51Z</time>
      </trkpt>
      <trkpt lat="45.67454" lon="-1.05078">
        <ele>18.6</ele>
        <time>2023-08-06T08:12:54Z</time>
      </trkpt>
      <trkpt lat="45.67456" lon="-1.05089">
        <ele>18.4</ele>
        <time>2023-08-06T08:12:57Z</time>
      </trkpt>
      <trkpt lat="45.67457" lon="-1.05092">
        <ele>18.4</ele>
        <time>2023-08-06T08:12:58Z</time>
      </trkpt>
      <trkpt lat="45.67465" lon="-1.05112">
        <ele>18</ele>
        <time>2023-08-06T08:13:03Z</time>
      </trkpt>
      <trkpt lat="45.67463" lon="-1.05127">
        <ele>17.8</ele>
        <time>2023-08-06T08:13:06Z</time>
      </trkpt>
      <trkpt lat="45.67462" lon="-1.0513">
        <ele>18</ele>
        <time>2023-08-06T08:13:07Z</time>
      </trkpt>
      <trkpt lat="45.6746" lon="-1.05134">
        <ele>18</ele>
        <time>2023-08-06T08:13:08Z</time>
      </trkpt>
      <trkpt lat="45.67459" lon="-1.05148">
        <ele>18.2</ele>
        <time>2023-08-06T08:13:11Z</time>
      </trkpt>
      <trkpt lat="45.67455" lon="-1.05166">
        <ele>18</ele>
        <time>2023-08-06T08:13:16Z</time>
      </trkpt>
      <trkpt lat="45.67454" lon="-1.0517">
        <ele>18</ele>
        <time>2023-08-06T08:13:17Z</time>
      </trkpt>
      <trkpt lat="45.67448" lon="-1.05172">
        <ele>17.8</ele>
        <time>2023-08-06T08:13:19Z</time>
      </trkpt>
      <trkpt lat="45.67445" lon="-1.05172">
        <ele>17.8</ele>
        <time>2023-08-06T08:13:20Z</time>
      </trkpt>
      <trkpt lat="45.67441" lon="-1.05172">
        <ele>18.2</ele>
        <time>2023-08-06T08:13:22Z</time>
      </trkpt>
      <trkpt lat="45.67439" lon="-1.05168">
        <ele>18.2</ele>
        <time>2023-08-06T08:13:24Z</time>
      </trkpt>
      <trkpt lat="45.67427" lon="-1.05158">
        <ele>17.8</ele>
        <time>2023-08-06T08:13:29Z</time>
      </trkpt>
      <trkpt lat="45.6742" lon="-1.05153">
        <ele>18</ele>
        <time>2023-08-06T08:13:32Z</time>
      </trkpt>
      <trkpt lat="45.67418" lon="-1.05155">
        <ele>18</ele>
        <time>2023-08-06T08:13:33Z</time>
      </trkpt>
      <trkpt lat="45.67417" lon="-1.05157">
        <ele>18.2</ele>
        <time>2023-08-06T08:13:34Z</time>
      </trkpt>
      <trkpt lat="45.67414" lon="-1.05169">
        <ele>18.2</ele>
        <time>2023-08-06T08:13:37Z</time>
      </trkpt>
      <trkpt lat="45.67413" lon="-1.05174">
        <ele>18</ele>
        <time>2023-08-06T08:13:38Z</time>
      </trkpt>
      <trkpt lat="45.67413" lon="-1.05183">
        <ele>17.8</ele>
        <time>2023-08-06T08:13:40Z</time>
      </trkpt>
      <trkpt lat="45.67414" lon="-1.05189">
        <ele>17.6</ele>
        <time>2023-08-06T08:13:42Z</time>
      </trkpt>
      <trkpt lat="45.67415" lon="-1.0519">
        <ele>17.6</ele>
        <time>2023-08-06T08:13:43Z</time>
      </trkpt>
      <trkpt lat="45.67415" lon="-1.05192">
        <ele>17.2</ele>
        <time>2023-08-06T08:13:44Z</time>
      </trkpt>
      <trkpt lat="45.67413" lon="-1.05202">
        <ele>16.8</ele>
        <time>2023-08-06T08:13:47Z</time>
      </trkpt>
      <trkpt lat="45.67414" lon="-1.05205">
        <ele>16.8</ele>
        <time>2023-08-06T08:13:48Z</time>
      </trkpt>
      <trkpt lat="45.67416" lon="-1.05212">
        <ele>16.8</ele>
        <time>2023-08-06T08:13:50Z</time>
      </trkpt>
      <trkpt lat="45.67417" lon="-1.05212">
        <ele>16.8</ele>
        <time>2023-08-06T08:13:51Z</time>
      </trkpt>
      <trkpt lat="45.67421" lon="-1.05212">
        <ele>16.6</ele>
        <time>2023-08-06T08:13:53Z</time>
      </trkpt>
      <trkpt lat="45.67424" lon="-1.05215">
        <ele>16.4</ele>
        <time>2023-08-06T08:13:55Z</time>
      </trkpt>
      <trkpt lat="45.67426" lon="-1.05217">
        <ele>16.6</ele>
        <time>2023-08-06T08:13:56Z</time>
      </trkpt>
      <trkpt lat="45.67427" lon="-1.05222">
        <ele>16.8</ele>
        <time>2023-08-06T08:13:57Z</time>
      </trkpt>
      <trkpt lat="45.67426" lon="-1.0523">
        <ele>17</ele>
        <time>2023-08-06T08:13:59Z</time>
      </trkpt>
      <trkpt lat="45.67428" lon="-1.05233">
        <ele>17.2</ele>
        <time>2023-08-06T08:14:00Z</time>
      </trkpt>
      <trkpt lat="45.67429" lon="-1.05235">
        <ele>17.2</ele>
        <time>2023-08-06T08:14:01Z</time>
      </trkpt>
      <trkpt lat="45.67431" lon="-1.05244">
        <ele>17.2</ele>
        <time>2023-08-06T08:14:03Z</time>
      </trkpt>
      <trkpt lat="45.67432" lon="-1.05252">
        <ele>17.4</ele>
        <time>2023-08-06T08:14:05Z</time>
      </trkpt>
      <trkpt lat="45.67435" lon="-1.05265">
        <ele>16.6</ele>
        <time>2023-08-06T08:14:08Z</time>
      </trkpt>
      <trkpt lat="45.67435" lon="-1.05274">
        <ele>16.2</ele>
        <time>2023-08-06T08:14:10Z</time>
      </trkpt>
      <trkpt lat="45.67436" lon="-1.05282">
        <ele>16</ele>
        <time>2023-08-06T08:14:12Z</time>
      </trkpt>
      <trkpt lat="45.6744" lon="-1.05289">
        <ele>15.6</ele>
        <time>2023-08-06T08:14:14Z</time>
      </trkpt>
      <trkpt lat="45.6744" lon="-1.05294">
        <ele>15.2</ele>
        <time>2023-08-06T08:14:15Z</time>
      </trkpt>
      <trkpt lat="45.67444" lon="-1.05313">
        <ele>14.6</ele>
        <time>2023-08-06T08:14:20Z</time>
      </trkpt>
      <trkpt lat="45.67444" lon="-1.05316">
        <ele>14.4</ele>
        <time>2023-08-06T08:14:21Z</time>
      </trkpt>
      <trkpt lat="45.67445" lon="-1.0532">
        <ele>14</ele>
        <time>2023-08-06T08:14:22Z</time>
      </trkpt>
      <trkpt lat="45.67444" lon="-1.05328">
        <ele>13.4</ele>
        <time>2023-08-06T08:14:24Z</time>
      </trkpt>
      <trkpt lat="45.67441" lon="-1.0534">
        <ele>13</ele>
        <time>2023-08-06T08:14:27Z</time>
      </trkpt>
      <trkpt lat="45.67436" lon="-1.05349">
        <ele>12.6</ele>
        <time>2023-08-06T08:14:29Z</time>
      </trkpt>
      <trkpt lat="45.67432" lon="-1.05354">
        <ele>12.8</ele>
        <time>2023-08-06T08:14:31Z</time>
      </trkpt>
      <trkpt lat="45.67426" lon="-1.05355">
        <ele>13</ele>
        <time>2023-08-06T08:14:33Z</time>
      </trkpt>
      <trkpt lat="45.67409" lon="-1.05349">
        <ele>14</ele>
        <time>2023-08-06T08:14:39Z</time>
      </trkpt>
      <trkpt lat="45.67408" lon="-1.05346">
        <ele>14.2</ele>
        <time>2023-08-06T08:14:40Z</time>
      </trkpt>
      <trkpt lat="45.67407" lon="-1.05334">
        <ele>14.6</ele>
        <time>2023-08-06T08:14:43Z</time>
      </trkpt>
      <trkpt lat="45.67406" lon="-1.05325">
        <ele>15.2</ele>
        <time>2023-08-06T08:14:45Z</time>
      </trkpt>
      <trkpt lat="45.67403" lon="-1.05311">
        <ele>16.2</ele>
        <time>2023-08-06T08:14:49Z</time>
      </trkpt>
      <trkpt lat="45.674" lon="-1.05302">
        <ele>16.4</ele>
        <time>2023-08-06T08:14:52Z</time>
      </trkpt>
      <trkpt lat="45.67394" lon="-1.05294">
        <ele>16.4</ele>
        <time>2023-08-06T08:14:55Z</time>
      </trkpt>
      <trkpt lat="45.67393" lon="-1.05294">
        <ele>16.6</ele>
        <time>2023-08-06T08:14:56Z</time>
      </trkpt>
      <trkpt lat="45.67391" lon="-1.05296">
        <ele>16.6</ele>
        <time>2023-08-06T08:14:58Z</time>
      </trkpt>
      <trkpt lat="45.67387" lon="-1.05297">
        <ele>16.8</ele>
        <time>2023-08-06T08:15:00Z</time>
      </trkpt>
      <trkpt lat="45.6738" lon="-1.05296">
        <ele>17</ele>
        <time>2023-08-06T08:15:03Z</time>
      </trkpt>
      <trkpt lat="45.67368" lon="-1.0529">
        <ele>17</ele>
        <time>2023-08-06T08:15:07Z</time>
      </trkpt>
      <trkpt lat="45.67361" lon="-1.05287">
        <ele>17</ele>
        <time>2023-08-06T08:15:09Z</time>
      </trkpt>
      <trkpt lat="45.67356" lon="-1.05289">
        <ele>17</ele>
        <time>2023-08-06T08:15:11Z</time>
      </trkpt>
      <trkpt lat="45.67354" lon="-1.05291">
        <ele>17</ele>
        <time>2023-08-06T08:15:12Z</time>
      </trkpt>
      <trkpt lat="45.67354" lon="-1.05295">
        <ele>17</ele>
        <time>2023-08-06T08:15:13Z</time>
      </trkpt>
      <trkpt lat="45.67354" lon="-1.05301">
        <ele>16.8</ele>
        <time>2023-08-06T08:15:15Z</time>
      </trkpt>
      <trkpt lat="45.67354" lon="-1.05303">
        <ele>16.6</ele>
        <time>2023-08-06T08:15:16Z</time>
      </trkpt>
      <trkpt lat="45.67353" lon="-1.05308">
        <ele>16.4</ele>
        <time>2023-08-06T08:15:18Z</time>
      </trkpt>
      <trkpt lat="45.67356" lon="-1.05316">
        <ele>16.2</ele>
        <time>2023-08-06T08:15:21Z</time>
      </trkpt>
      <trkpt lat="45.67358" lon="-1.05339">
        <ele>16</ele>
        <time>2023-08-06T08:15:28Z</time>
      </trkpt>
      <trkpt lat="45.67358" lon="-1.05362">
        <ele>15.2</ele>
        <time>2023-08-06T08:15:34Z</time>
      </trkpt>
      <trkpt lat="45.67359" lon="-1.05365">
        <ele>15.2</ele>
        <time>2023-08-06T08:15:35Z</time>
      </trkpt>
      <trkpt lat="45.67361" lon="-1.05371">
        <ele>14.8</ele>
        <time>2023-08-06T08:15:37Z</time>
      </trkpt>
      <trkpt lat="45.67363" lon="-1.05374">
        <ele>14.6</ele>
        <time>2023-08-06T08:15:39Z</time>
      </trkpt>
      <trkpt lat="45.67365" lon="-1.05375">
        <ele>14.2</ele>
        <time>2023-08-06T08:15:40Z</time>
      </trkpt>
      <trkpt lat="45.6737" lon="-1.05376">
        <ele>13.8</ele>
        <time>2023-08-06T08:15:43Z</time>
      </trkpt>
      <trkpt lat="45.67371" lon="-1.05377">
        <ele>13.8</ele>
        <time>2023-08-06T08:15:44Z</time>
      </trkpt>
      <trkpt lat="45.67373" lon="-1.0538">
        <ele>13.6</ele>
        <time>2023-08-06T08:15:46Z</time>
      </trkpt>
      <trkpt lat="45.67376" lon="-1.05385">
        <ele>13.2</ele>
        <time>2023-08-06T08:15:48Z</time>
      </trkpt>
      <trkpt lat="45.67377" lon="-1.05389">
        <ele>13.2</ele>
        <time>2023-08-06T08:15:49Z</time>
      </trkpt>
      <trkpt lat="45.67377" lon="-1.05391">
        <ele>13</ele>
        <time>2023-08-06T08:15:50Z</time>
      </trkpt>
      <trkpt lat="45.6738" lon="-1.05392">
        <ele>13</ele>
        <time>2023-08-06T08:15:52Z</time>
      </trkpt>
      <trkpt lat="45.67397" lon="-1.05392">
        <ele>13</ele>
        <time>2023-08-06T08:15:57Z</time>
      </trkpt>
      <trkpt lat="45.67404" lon="-1.05392">
        <ele>13</ele>
        <time>2023-08-06T08:15:59Z</time>
      </trkpt>
      <trkpt lat="45.67422" lon="-1.0539">
        <ele>12.2</ele>
        <time>2023-08-06T08:16:03Z</time>
      </trkpt>
      <trkpt lat="45.67439" lon="-1.0539">
        <ele>12.2</ele>
        <time>2023-08-06T08:16:07Z</time>
      </trkpt>
      <trkpt lat="45.67442" lon="-1.05391">
        <ele>12.2</ele>
        <time>2023-08-06T08:16:08Z</time>
      </trkpt>
      <trkpt lat="45.67444" lon="-1.05391">
        <ele>11.8</ele>
        <time>2023-08-06T08:16:09Z</time>
      </trkpt>
      <trkpt lat="45.67452" lon="-1.05385">
        <ele>11.4</ele>
        <time>2023-08-06T08:16:13Z</time>
      </trkpt>
      <trkpt lat="45.67457" lon="-1.05375">
        <ele>12.6</ele>
        <time>2023-08-06T08:16:17Z</time>
      </trkpt>
      <trkpt lat="45.67459" lon="-1.05375">
        <ele>12.8</ele>
        <time>2023-08-06T08:16:18Z</time>
      </trkpt>
      <trkpt lat="45.67468" lon="-1.05377">
        <ele>12.4</ele>
        <time>2023-08-06T08:16:21Z</time>
      </trkpt>
      <trkpt lat="45.6747" lon="-1.05379">
        <ele>12.6</ele>
        <time>2023-08-06T08:16:22Z</time>
      </trkpt>
      <trkpt lat="45.67472" lon="-1.05379">
        <ele>12.8</ele>
        <time>2023-08-06T08:16:23Z</time>
      </trkpt>
      <trkpt lat="45.67474" lon="-1.05378">
        <ele>13.2</ele>
        <time>2023-08-06T08:16:24Z</time>
      </trkpt>
      <trkpt lat="45.67476" lon="-1.05376">
        <ele>13.4</ele>
        <time>2023-08-06T08:16:25Z</time>
      </trkpt>
      <trkpt lat="45.67477" lon="-1.05373">
        <ele>13.6</ele>
        <time>2023-08-06T08:16:26Z</time>
      </trkpt>
      <trkpt lat="45.6748" lon="-1.05359">
        <ele>14.2</ele>
        <time>2023-08-06T08:16:30Z</time>
      </trkpt>
      <trkpt lat="45.67481" lon="-1.05357">
        <ele>14.2</ele>
        <time>2023-08-06T08:16:31Z</time>
      </trkpt>
      <trkpt lat="45.67484" lon="-1.05355">
        <ele>14.4</ele>
        <time>2023-08-06T08:16:32Z</time>
      </trkpt>
      <trkpt lat="45.67493" lon="-1.05352">
        <ele>15</ele>
        <time>2023-08-06T08:16:35Z</time>
      </trkpt>
      <trkpt lat="45.675" lon="-1.05353">
        <ele>15.4</ele>
        <time>2023-08-06T08:16:39Z</time>
      </trkpt>
      <trkpt lat="45.67502" lon="-1.05356">
        <ele>15.4</ele>
        <time>2023-08-06T08:16:40Z</time>
      </trkpt>
      <trkpt lat="45.67506" lon="-1.05362">
        <ele>15.2</ele>
        <time>2023-08-06T08:16:42Z</time>
      </trkpt>
      <trkpt lat="45.67508" lon="-1.05368">
        <ele>14.8</ele>
        <time>2023-08-06T08:16:44Z</time>
      </trkpt>
      <trkpt lat="45.67511" lon="-1.0537">
        <ele>14.4</ele>
        <time>2023-08-06T08:16:46Z</time>
      </trkpt>
      <trkpt lat="45.67513" lon="-1.05369">
        <ele>14.4</ele>
        <time>2023-08-06T08:16:47Z</time>
      </trkpt>
      <trkpt lat="45.67516" lon="-1.05364">
        <ele>14.2</ele>
        <time>2023-08-06T08:16:49Z</time>
      </trkpt>
      <trkpt lat="45.67521" lon="-1.05358">
        <ele>14.2</ele>
        <time>2023-08-06T08:16:51Z</time>
      </trkpt>
      <trkpt lat="45.67526" lon="-1.05355">
        <ele>14</ele>
        <time>2023-08-06T08:16:53Z</time>
      </trkpt>
      <trkpt lat="45.67528" lon="-1.05356">
        <ele>14</ele>
        <time>2023-08-06T08:16:54Z</time>
      </trkpt>
      <trkpt lat="45.6753" lon="-1.05357">
        <ele>14</ele>
        <time>2023-08-06T08:16:55Z</time>
      </trkpt>
      <trkpt lat="45.67536" lon="-1.05366">
        <ele>14</ele>
        <time>2023-08-06T08:16:58Z</time>
      </trkpt>
      <trkpt lat="45.67543" lon="-1.05383">
        <ele>13.4</ele>
        <time>2023-08-06T08:17:03Z</time>
      </trkpt>
      <trkpt lat="45.67546" lon="-1.05385">
        <ele>13.2</ele>
        <time>2023-08-06T08:17:04Z</time>
      </trkpt>
      <trkpt lat="45.67551" lon="-1.05384">
        <ele>12.8</ele>
        <time>2023-08-06T08:17:06Z</time>
      </trkpt>
      <trkpt lat="45.67554" lon="-1.05379">
        <ele>12.2</ele>
        <time>2023-08-06T08:17:08Z</time>
      </trkpt>
      <trkpt lat="45.67557" lon="-1.05373">
        <ele>12</ele>
        <time>2023-08-06T08:17:10Z</time>
      </trkpt>
      <trkpt lat="45.67561" lon="-1.05371">
        <ele>12</ele>
        <time>2023-08-06T08:17:12Z</time>
      </trkpt>
      <trkpt lat="45.67564" lon="-1.05374">
        <ele>11.8</ele>
        <time>2023-08-06T08:17:15Z</time>
      </trkpt>
      <trkpt lat="45.67564" lon="-1.05377">
        <ele>12</ele>
        <time>2023-08-06T08:17:16Z</time>
      </trkpt>
      <trkpt lat="45.6758" lon="-1.05396">
        <ele>11.6</ele>
        <time>2023-08-06T08:17:22Z</time>
      </trkpt>
      <trkpt lat="45.67588" lon="-1.05403">
        <ele>11.6</ele>
        <time>2023-08-06T08:17:25Z</time>
      </trkpt>
      <trkpt lat="45.67593" lon="-1.05409">
        <ele>11.2</ele>
        <time>2023-08-06T08:17:27Z</time>
      </trkpt>
      <trkpt lat="45.67596" lon="-1.05413">
        <ele>11</ele>
        <time>2023-08-06T08:17:28Z</time>
      </trkpt>
      <trkpt lat="45.67601" lon="-1.0542">
        <ele>10.6</ele>
        <time>2023-08-06T08:17:30Z</time>
      </trkpt>
      <trkpt lat="45.67604" lon="-1.05422">
        <ele>10.6</ele>
        <time>2023-08-06T08:17:31Z</time>
      </trkpt>
      <trkpt lat="45.67611" lon="-1.05417">
        <ele>10.4</ele>
        <time>2023-08-06T08:17:34Z</time>
      </trkpt>
      <trkpt lat="45.67611" lon="-1.05415">
        <ele>10.2</ele>
        <time>2023-08-06T08:17:35Z</time>
      </trkpt>
      <trkpt lat="45.67613" lon="-1.05407">
        <ele>10.4</ele>
        <time>2023-08-06T08:17:38Z</time>
      </trkpt>
      <trkpt lat="45.67615" lon="-1.05404">
        <ele>10.4</ele>
        <time>2023-08-06T08:17:39Z</time>
      </trkpt>
      <trkpt lat="45.67616" lon="-1.05403">
        <ele>10.4</ele>
        <time>2023-08-06T08:17:40Z</time>
      </trkpt>
      <trkpt lat="45.67619" lon="-1.05404">
        <ele>10.8</ele>
        <time>2023-08-06T08:17:42Z</time>
      </trkpt>
      <trkpt lat="45.67622" lon="-1.05409">
        <ele>10.8</ele>
        <time>2023-08-06T08:17:45Z</time>
      </trkpt>
      <trkpt lat="45.67624" lon="-1.05409">
        <ele>11</ele>
        <time>2023-08-06T08:17:47Z</time>
      </trkpt>
      <trkpt lat="45.67629" lon="-1.05399">
        <ele>11.2</ele>
        <time>2023-08-06T08:17:52Z</time>
      </trkpt>
      <trkpt lat="45.67635" lon="-1.05385">
        <ele>12</ele>
        <time>2023-08-06T08:17:57Z</time>
      </trkpt>
      <trkpt lat="45.67636" lon="-1.05382">
        <ele>12.2</ele>
        <time>2023-08-06T08:17:58Z</time>
      </trkpt>
      <trkpt lat="45.67642" lon="-1.05371">
        <ele>13.2</ele>
        <time>2023-08-06T08:18:01Z</time>
      </trkpt>
      <trkpt lat="45.67641" lon="-1.05368">
        <ele>13.6</ele>
        <time>2023-08-06T08:18:02Z</time>
      </trkpt>
      <trkpt lat="45.67637" lon="-1.05363">
        <ele>13.8</ele>
        <time>2023-08-06T08:18:05Z</time>
      </trkpt>
      <trkpt lat="45.67635" lon="-1.05364">
        <ele>13.8</ele>
        <time>2023-08-06T08:18:06Z</time>
      </trkpt>
      <trkpt lat="45.67632" lon="-1.05368">
        <ele>13</ele>
        <time>2023-08-06T08:18:09Z</time>
      </trkpt>
      <trkpt lat="45.67632" lon="-1.0537">
        <ele>13</ele>
        <time>2023-08-06T08:18:10Z</time>
      </trkpt>
      <trkpt lat="45.67631" lon="-1.05378">
        <ele>12.6</ele>
        <time>2023-08-06T08:18:16Z</time>
      </trkpt>
      <trkpt lat="45.67628" lon="-1.05375">
        <ele>12.2</ele>
        <time>2023-08-06T08:18:19Z</time>
      </trkpt>
      <trkpt lat="45.67626" lon="-1.0537">
        <ele>11.8</ele>
        <time>2023-08-06T08:18:21Z</time>
      </trkpt>
      <trkpt lat="45.67618" lon="-1.05358">
        <ele>12.6</ele>
        <time>2023-08-06T08:18:27Z</time>
      </trkpt>
      <trkpt lat="45.67617" lon="-1.05353">
        <ele>12.8</ele>
        <time>2023-08-06T08:18:29Z</time>
      </trkpt>
      <trkpt lat="45.67616" lon="-1.05349">
        <ele>13</ele>
        <time>2023-08-06T08:18:31Z</time>
      </trkpt>
      <trkpt lat="45.67615" lon="-1.05349">
        <ele>13</ele>
        <time>2023-08-06T08:18:32Z</time>
      </trkpt>
      <trkpt lat="45.67607" lon="-1.0535">
        <ele>13.2</ele>
        <time>2023-08-06T08:18:37Z</time>
      </trkpt>
      <trkpt lat="45.67606" lon="-1.0535">
        <ele>13.4</ele>
        <time>2023-08-06T08:18:38Z</time>
      </trkpt>
      <trkpt lat="45.67604" lon="-1.05348">
        <ele>13.4</ele>
        <time>2023-08-06T08:18:39Z</time>
      </trkpt>
      <trkpt lat="45.67598" lon="-1.05344">
        <ele>13.6</ele>
        <time>2023-08-06T08:18:42Z</time>
      </trkpt>
      <trkpt lat="45.67594" lon="-1.0534">
        <ele>14</ele>
        <time>2023-08-06T08:18:44Z</time>
      </trkpt>
      <trkpt lat="45.67592" lon="-1.05337">
        <ele>14.4</ele>
        <time>2023-08-06T08:18:45Z</time>
      </trkpt>
      <trkpt lat="45.6758" lon="-1.05319">
        <ele>15.2</ele>
        <time>2023-08-06T08:18:51Z</time>
      </trkpt>
      <trkpt lat="45.67576" lon="-1.05311">
        <ele>15.4</ele>
        <time>2023-08-06T08:18:53Z</time>
      </trkpt>
      <trkpt lat="45.67574" lon="-1.05302">
        <ele>16</ele>
        <time>2023-08-06T08:18:55Z</time>
      </trkpt>
      <trkpt lat="45.67573" lon="-1.05298">
        <ele>16.4</ele>
        <time>2023-08-06T08:18:56Z</time>
      </trkpt>
      <trkpt lat="45.6757" lon="-1.05291">
        <ele>16.8</ele>
        <time>2023-08-06T08:18:58Z</time>
      </trkpt>
      <trkpt lat="45.67568" lon="-1.05289">
        <ele>16.8</ele>
        <time>2023-08-06T08:18:59Z</time>
      </trkpt>
      <trkpt lat="45.6756" lon="-1.05281">
        <ele>16.8</ele>
        <time>2023-08-06T08:19:02Z</time>
      </trkpt>
      <trkpt lat="45.67553" lon="-1.05276">
        <ele>17</ele>
        <time>2023-08-06T08:19:05Z</time>
      </trkpt>
      <trkpt lat="45.67547" lon="-1.05269">
        <ele>17.2</ele>
        <time>2023-08-06T08:19:07Z</time>
      </trkpt>
      <trkpt lat="45.67539" lon="-1.05262">
        <ele>17.2</ele>
        <time>2023-08-06T08:19:10Z</time>
      </trkpt>
      <trkpt lat="45.67536" lon="-1.05262">
        <ele>17.2</ele>
        <time>2023-08-06T08:19:12Z</time>
      </trkpt>
      <trkpt lat="45.67531" lon="-1.05271">
        <ele>17.2</ele>
        <time>2023-08-06T08:19:16Z</time>
      </trkpt>
      <trkpt lat="45.67528" lon="-1.05271">
        <ele>17.2</ele>
        <time>2023-08-06T08:19:17Z</time>
      </trkpt>
      <trkpt lat="45.67518" lon="-1.05269">
        <ele>17</ele>
        <time>2023-08-06T08:19:21Z</time>
      </trkpt>
      <trkpt lat="45.67516" lon="-1.05272">
        <ele>17</ele>
        <time>2023-08-06T08:19:23Z</time>
      </trkpt>
      <trkpt lat="45.67514" lon="-1.05274">
        <ele>16.8</ele>
        <time>2023-08-06T08:19:24Z</time>
      </trkpt>
      <trkpt lat="45.67511" lon="-1.05286">
        <ele>16.4</ele>
        <time>2023-08-06T08:19:28Z</time>
      </trkpt>
      <trkpt lat="45.67509" lon="-1.05312">
        <ele>15.8</ele>
        <time>2023-08-06T08:19:34Z</time>
      </trkpt>
      <trkpt lat="45.67509" lon="-1.05315">
        <ele>15.6</ele>
        <time>2023-08-06T08:19:35Z</time>
      </trkpt>
      <trkpt lat="45.67508" lon="-1.05318">
        <ele>15.4</ele>
        <time>2023-08-06T08:19:36Z</time>
      </trkpt>
      <trkpt lat="45.67506" lon="-1.05319">
        <ele>14.6</ele>
        <time>2023-08-06T08:19:39Z</time>
      </trkpt>
      <trkpt lat="45.67503" lon="-1.05322">
        <ele>14.4</ele>
        <time>2023-08-06T08:19:41Z</time>
      </trkpt>
      <trkpt lat="45.67502" lon="-1.05326">
        <ele>14.2</ele>
        <time>2023-08-06T08:19:43Z</time>
      </trkpt>
      <trkpt lat="45.675" lon="-1.05328">
        <ele>14.2</ele>
        <time>2023-08-06T08:19:44Z</time>
      </trkpt>
      <trkpt lat="45.67492" lon="-1.05339">
        <ele>14.2</ele>
        <time>2023-08-06T08:19:48Z</time>
      </trkpt>
      <trkpt lat="45.67487" lon="-1.05342">
        <ele>14</ele>
        <time>2023-08-06T08:19:50Z</time>
      </trkpt>
      <trkpt lat="45.67482" lon="-1.05343">
        <ele>13.4</ele>
        <time>2023-08-06T08:19:52Z</time>
      </trkpt>
      <trkpt lat="45.67473" lon="-1.05334">
        <ele>13.8</ele>
        <time>2023-08-06T08:19:57Z</time>
      </trkpt>
      <trkpt lat="45.67473" lon="-1.05325">
        <ele>15</ele>
        <time>2023-08-06T08:20:02Z</time>
      </trkpt>
      <trkpt lat="45.67474" lon="-1.05315">
        <ele>15.4</ele>
        <time>2023-08-06T08:20:06Z</time>
      </trkpt>
      <trkpt lat="45.67472" lon="-1.05311">
        <ele>15.6</ele>
        <time>2023-08-06T08:20:08Z</time>
      </trkpt>
      <trkpt lat="45.6747" lon="-1.05293">
        <ele>15.8</ele>
        <time>2023-08-06T08:20:14Z</time>
      </trkpt>
      <trkpt lat="45.67469" lon="-1.05283">
        <ele>16.6</ele>
        <time>2023-08-06T08:20:17Z</time>
      </trkpt>
      <trkpt lat="45.67467" lon="-1.05276">
        <ele>17</ele>
        <time>2023-08-06T08:20:19Z</time>
      </trkpt>
      <trkpt lat="45.67469" lon="-1.05262">
        <ele>17.2</ele>
        <time>2023-08-06T08:20:22Z</time>
      </trkpt>
      <trkpt lat="45.67472" lon="-1.05255">
        <ele>17.2</ele>
        <time>2023-08-06T08:20:24Z</time>
      </trkpt>
      <trkpt lat="45.67479" lon="-1.05238">
        <ele>17.6</ele>
        <time>2023-08-06T08:20:29Z</time>
      </trkpt>
      <trkpt lat="45.6748" lon="-1.05234">
        <ele>17.6</ele>
        <time>2023-08-06T08:20:30Z</time>
      </trkpt>
      <trkpt lat="45.67482" lon="-1.0522">
        <ele>17.8</ele>
        <time>2023-08-06T08:20:34Z</time>
      </trkpt>
      <trkpt lat="45.67478" lon="-1.05195">
        <ele>17.8</ele>
        <time>2023-08-06T08:20:40Z</time>
      </trkpt>
      <trkpt lat="45.67475" lon="-1.05176">
        <ele>17.8</ele>
        <time>2023-08-06T08:20:44Z</time>
      </trkpt>
      <trkpt lat="45.67482" lon="-1.05155">
        <ele>18.2</ele>
        <time>2023-08-06T08:20:49Z</time>
      </trkpt>
      <trkpt lat="45.67486" lon="-1.05132">
        <ele>18.6</ele>
        <time>2023-08-06T08:20:54Z</time>
      </trkpt>
      <trkpt lat="45.67486" lon="-1.05109">
        <ele>18.4</ele>
        <time>2023-08-06T08:20:59Z</time>
      </trkpt>
      <trkpt lat="45.67484" lon="-1.05087">
        <ele>18.2</ele>
        <time>2023-08-06T08:21:05Z</time>
      </trkpt>
      <trkpt lat="45.67485" lon="-1.05063">
        <ele>18.6</ele>
        <time>2023-08-06T08:21:10Z</time>
      </trkpt>
      <trkpt lat="45.67485" lon="-1.05049">
        <ele>18.8</ele>
        <time>2023-08-06T08:21:13Z</time>
      </trkpt>
      <trkpt lat="45.67488" lon="-1.05032">
        <ele>18.8</ele>
        <time>2023-08-06T08:21:16Z</time>
      </trkpt>
      <trkpt lat="45.67492" lon="-1.05023">
        <ele>18.6</ele>
        <time>2023-08-06T08:21:18Z</time>
      </trkpt>
      <trkpt lat="45.67495" lon="-1.05022">
        <ele>18.8</ele>
        <time>2023-08-06T08:21:20Z</time>
      </trkpt>
      <trkpt lat="45.67496" lon="-1.05021">
        <ele>18.8</ele>
        <time>2023-08-06T08:21:21Z</time>
      </trkpt>
      <trkpt lat="45.675" lon="-1.05014">
        <ele>19.2</ele>
        <time>2023-08-06T08:21:23Z</time>
      </trkpt>
      <trkpt lat="45.67501" lon="-1.0501">
        <ele>19.4</ele>
        <time>2023-08-06T08:21:24Z</time>
      </trkpt>
      <trkpt lat="45.67503" lon="-1.04999">
        <ele>18.6</ele>
        <time>2023-08-06T08:21:27Z</time>
      </trkpt>
      <trkpt lat="45.67504" lon="-1.04997">
        <ele>18.2</ele>
        <time>2023-08-06T08:21:28Z</time>
      </trkpt>
      <trkpt lat="45.67507" lon="-1.04992">
        <ele>17.8</ele>
        <time>2023-08-06T08:21:30Z</time>
      </trkpt>
      <trkpt lat="45.67509" lon="-1.04989">
        <ele>17.8</ele>
        <time>2023-08-06T08:21:31Z</time>
      </trkpt>
      <trkpt lat="45.67513" lon="-1.04971">
        <ele>18</ele>
        <time>2023-08-06T08:21:36Z</time>
      </trkpt>
      <trkpt lat="45.67523" lon="-1.04959">
        <ele>18.4</ele>
        <time>2023-08-06T08:21:40Z</time>
      </trkpt>
      <trkpt lat="45.67531" lon="-1.04954">
        <ele>19</ele>
        <time>2023-08-06T08:21:43Z</time>
      </trkpt>
      <trkpt lat="45.67537" lon="-1.04952">
        <ele>19</ele>
        <time>2023-08-06T08:21:45Z</time>
      </trkpt>
      <trkpt lat="45.67544" lon="-1.0495">
        <ele>18.4</ele>
        <time>2023-08-06T08:21:48Z</time>
      </trkpt>
      <trkpt lat="45.67547" lon="-1.04948">
        <ele>18.2</ele>
        <time>2023-08-06T08:21:49Z</time>
      </trkpt>
      <trkpt lat="45.67551" lon="-1.0494">
        <ele>17.8</ele>
        <time>2023-08-06T08:21:51Z</time>
      </trkpt>
      <trkpt lat="45.67553" lon="-1.04933">
        <ele>17.8</ele>
        <time>2023-08-06T08:21:53Z</time>
      </trkpt>
      <trkpt lat="45.67556" lon="-1.04927">
        <ele>18</ele>
        <time>2023-08-06T08:21:55Z</time>
      </trkpt>
      <trkpt lat="45.67564" lon="-1.0492">
        <ele>18.2</ele>
        <time>2023-08-06T08:21:57Z</time>
      </trkpt>
      <trkpt lat="45.67581" lon="-1.04912">
        <ele>17.8</ele>
        <time>2023-08-06T08:22:00Z</time>
      </trkpt>
      <trkpt lat="45.67581" lon="-1.04908">
        <ele>17.8</ele>
        <time>2023-08-06T08:22:01Z</time>
      </trkpt>
      <trkpt lat="45.67574" lon="-1.04894">
        <ele>17.8</ele>
        <time>2023-08-06T08:22:05Z</time>
      </trkpt>
      <trkpt lat="45.67573" lon="-1.04891">
        <ele>17.8</ele>
        <time>2023-08-06T08:22:06Z</time>
      </trkpt>
      <trkpt lat="45.67576" lon="-1.04882">
        <ele>17.8</ele>
        <time>2023-08-06T08:22:08Z</time>
      </trkpt>
      <trkpt lat="45.67591" lon="-1.04868">
        <ele>17.6</ele>
        <time>2023-08-06T08:22:12Z</time>
      </trkpt>
      <trkpt lat="45.67605" lon="-1.04845">
        <ele>17.8</ele>
        <time>2023-08-06T08:22:17Z</time>
      </trkpt>
      <trkpt lat="45.67629" lon="-1.04797">
        <ele>18</ele>
        <time>2023-08-06T08:22:26Z</time>
      </trkpt>
      <trkpt lat="45.67648" lon="-1.04762">
        <ele>18</ele>
        <time>2023-08-06T08:22:33Z</time>
      </trkpt>
      <trkpt lat="45.67658" lon="-1.0475">
        <ele>18</ele>
        <time>2023-08-06T08:22:37Z</time>
      </trkpt>
      <trkpt lat="45.6766" lon="-1.04749">
        <ele>18</ele>
        <time>2023-08-06T08:22:38Z</time>
      </trkpt>
      <trkpt lat="45.6767" lon="-1.04756">
        <ele>18</ele>
        <time>2023-08-06T08:22:42Z</time>
      </trkpt>
      <trkpt lat="45.67688" lon="-1.04774">
        <ele>17.8</ele>
        <time>2023-08-06T08:22:48Z</time>
      </trkpt>
      <trkpt lat="45.67698" lon="-1.04786">
        <ele>17.6</ele>
        <time>2023-08-06T08:22:51Z</time>
      </trkpt>
      <trkpt lat="45.67705" lon="-1.04791">
        <ele>17.4</ele>
        <time>2023-08-06T08:22:53Z</time>
      </trkpt>
      <trkpt lat="45.67709" lon="-1.04792">
        <ele>17</ele>
        <time>2023-08-06T08:22:54Z</time>
      </trkpt>
      <trkpt lat="45.67717" lon="-1.04793">
        <ele>16.6</ele>
        <time>2023-08-06T08:22:56Z</time>
      </trkpt>
      <trkpt lat="45.67727" lon="-1.04798">
        <ele>16.4</ele>
        <time>2023-08-06T08:22:59Z</time>
      </trkpt>
      <trkpt lat="45.6773" lon="-1.048">
        <ele>16.4</ele>
        <time>2023-08-06T08:23:00Z</time>
      </trkpt>
      <trkpt lat="45.67735" lon="-1.04804">
        <ele>16.2</ele>
        <time>2023-08-06T08:23:02Z</time>
      </trkpt>
      <trkpt lat="45.67741" lon="-1.04808">
        <ele>16</ele>
        <time>2023-08-06T08:23:04Z</time>
      </trkpt>
      <trkpt lat="45.67746" lon="-1.0481">
        <ele>16</ele>
        <time>2023-08-06T08:23:06Z</time>
      </trkpt>
      <trkpt lat="45.67751" lon="-1.04809">
        <ele>16</ele>
        <time>2023-08-06T08:23:08Z</time>
      </trkpt>
      <trkpt lat="45.67753" lon="-1.04808">
        <ele>16</ele>
        <time>2023-08-06T08:23:09Z</time>
      </trkpt>
      <trkpt lat="45.67759" lon="-1.04805">
        <ele>16</ele>
        <time>2023-08-06T08:23:11Z</time>
      </trkpt>
      <trkpt lat="45.67764" lon="-1.04803">
        <ele>16</ele>
        <time>2023-08-06T08:23:13Z</time>
      </trkpt>
      <trkpt lat="45.67768" lon="-1.04809">
        <ele>15.8</ele>
        <time>2023-08-06T08:23:15Z</time>
      </trkpt>
      <trkpt lat="45.67774" lon="-1.04812">
        <ele>15.6</ele>
        <time>2023-08-06T08:23:17Z</time>
      </trkpt>
      <trkpt lat="45.67779" lon="-1.04813">
        <ele>15.4</ele>
        <time>2023-08-06T08:23:19Z</time>
      </trkpt>
      <trkpt lat="45.67786" lon="-1.04819">
        <ele>15.2</ele>
        <time>2023-08-06T08:23:21Z</time>
      </trkpt>
      <trkpt lat="45.67792" lon="-1.04818">
        <ele>14.8</ele>
        <time>2023-08-06T08:23:23Z</time>
      </trkpt>
      <trkpt lat="45.67796" lon="-1.04815">
        <ele>14.6</ele>
        <time>2023-08-06T08:23:24Z</time>
      </trkpt>
      <trkpt lat="45.67799" lon="-1.04813">
        <ele>14.4</ele>
        <time>2023-08-06T08:23:25Z</time>
      </trkpt>
      <trkpt lat="45.67805" lon="-1.04817">
        <ele>13.6</ele>
        <time>2023-08-06T08:23:27Z</time>
      </trkpt>
      <trkpt lat="45.67808" lon="-1.04818">
        <ele>13.2</ele>
        <time>2023-08-06T08:23:28Z</time>
      </trkpt>
      <trkpt lat="45.67814" lon="-1.04819">
        <ele>13</ele>
        <time>2023-08-06T08:23:30Z</time>
      </trkpt>
      <trkpt lat="45.67818" lon="-1.04818">
        <ele>12.8</ele>
        <time>2023-08-06T08:23:31Z</time>
      </trkpt>
      <trkpt lat="45.67827" lon="-1.04817">
        <ele>12.4</ele>
        <time>2023-08-06T08:23:33Z</time>
      </trkpt>
      <trkpt lat="45.6783" lon="-1.04819">
        <ele>12.2</ele>
        <time>2023-08-06T08:23:34Z</time>
      </trkpt>
      <trkpt lat="45.67832" lon="-1.0482">
        <ele>12.2</ele>
        <time>2023-08-06T08:23:35Z</time>
      </trkpt>
      <trkpt lat="45.67839" lon="-1.04819">
        <ele>11.6</ele>
        <time>2023-08-06T08:23:37Z</time>
      </trkpt>
      <trkpt lat="45.67848" lon="-1.04814">
        <ele>11</ele>
        <time>2023-08-06T08:23:39Z</time>
      </trkpt>
      <trkpt lat="45.67855" lon="-1.04807">
        <ele>10.4</ele>
        <time>2023-08-06T08:23:41Z</time>
      </trkpt>
      <trkpt lat="45.67859" lon="-1.04801">
        <ele>10.2</ele>
        <time>2023-08-06T08:23:43Z</time>
      </trkpt>
      <trkpt lat="45.67861" lon="-1.04799">
        <ele>10.2</ele>
        <time>2023-08-06T08:23:44Z</time>
      </trkpt>
      <trkpt lat="45.67867" lon="-1.04801">
        <ele>10</ele>
        <time>2023-08-06T08:23:47Z</time>
      </trkpt>
      <trkpt lat="45.6787" lon="-1.04801">
        <ele>10</ele>
        <time>2023-08-06T08:23:48Z</time>
      </trkpt>
      <trkpt lat="45.67873" lon="-1.048">
        <ele>9.8</ele>
        <time>2023-08-06T08:23:49Z</time>
      </trkpt>
      <trkpt lat="45.67881" lon="-1.04795">
        <ele>10</ele>
        <time>2023-08-06T08:23:52Z</time>
      </trkpt>
      <trkpt lat="45.67881" lon="-1.04784">
        <ele>10.2</ele>
        <time>2023-08-06T08:23:55Z</time>
      </trkpt>
      <trkpt lat="45.67881" lon="-1.04783">
        <ele>10.2</ele>
        <time>2023-08-06T08:23:56Z</time>
      </trkpt>
      <trkpt lat="45.67882" lon="-1.04782">
        <ele>10.2</ele>
        <time>2023-08-06T08:23:57Z</time>
      </trkpt>
      <trkpt lat="45.6788" lon="-1.04778">
        <ele>10.2</ele>
        <time>2023-08-06T08:23:59Z</time>
      </trkpt>
      <trkpt lat="45.6788" lon="-1.04772">
        <ele>10.4</ele>
        <time>2023-08-06T08:24:01Z</time>
      </trkpt>
      <trkpt lat="45.67879" lon="-1.04769">
        <ele>10.4</ele>
        <time>2023-08-06T08:24:02Z</time>
      </trkpt>
      <trkpt lat="45.67878" lon="-1.04757">
        <ele>11</ele>
        <time>2023-08-06T08:24:06Z</time>
      </trkpt>
      <trkpt lat="45.67879" lon="-1.04755">
        <ele>11.2</ele>
        <time>2023-08-06T08:24:07Z</time>
      </trkpt>
      <trkpt lat="45.67882" lon="-1.04734">
        <ele>12.4</ele>
        <time>2023-08-06T08:24:14Z</time>
      </trkpt>
      <trkpt lat="45.67884" lon="-1.0473">
        <ele>12.6</ele>
        <time>2023-08-06T08:24:15Z</time>
      </trkpt>
      <trkpt lat="45.67886" lon="-1.04726">
        <ele>12.6</ele>
        <time>2023-08-06T08:24:16Z</time>
      </trkpt>
      <trkpt lat="45.6789" lon="-1.04723">
        <ele>12.8</ele>
        <time>2023-08-06T08:24:18Z</time>
      </trkpt>
      <trkpt lat="45.67893" lon="-1.04722">
        <ele>12.8</ele>
        <time>2023-08-06T08:24:19Z</time>
      </trkpt>
      <trkpt lat="45.67905" lon="-1.04708">
        <ele>13</ele>
        <time>2023-08-06T08:24:25Z</time>
      </trkpt>
      <trkpt lat="45.67911" lon="-1.04712">
        <ele>13.4</ele>
        <time>2023-08-06T08:24:29Z</time>
      </trkpt>
      <trkpt lat="45.67916" lon="-1.04714">
        <ele>13.4</ele>
        <time>2023-08-06T08:24:32Z</time>
      </trkpt>
      <trkpt lat="45.67921" lon="-1.04711">
        <ele>13.4</ele>
        <time>2023-08-06T08:24:34Z</time>
      </trkpt>
      <trkpt lat="45.67932" lon="-1.04695">
        <ele>14</ele>
        <time>2023-08-06T08:24:40Z</time>
      </trkpt>
      <trkpt lat="45.67932" lon="-1.04688">
        <ele>14.4</ele>
        <time>2023-08-06T08:24:43Z</time>
      </trkpt>
      <trkpt lat="45.67931" lon="-1.04683">
        <ele>14.8</ele>
        <time>2023-08-06T08:24:45Z</time>
      </trkpt>
      <trkpt lat="45.6793" lon="-1.04682">
        <ele>14.8</ele>
        <time>2023-08-06T08:24:46Z</time>
      </trkpt>
      <trkpt lat="45.67927" lon="-1.0468">
        <ele>14.8</ele>
        <time>2023-08-06T08:24:50Z</time>
      </trkpt>
      <trkpt lat="45.67921" lon="-1.04683">
        <ele>14.6</ele>
        <time>2023-08-06T08:24:55Z</time>
      </trkpt>
      <trkpt lat="45.67918" lon="-1.04683">
        <ele>14.6</ele>
        <time>2023-08-06T08:24:56Z</time>
      </trkpt>
      <trkpt lat="45.67917" lon="-1.04684">
        <ele>14.6</ele>
        <time>2023-08-06T08:24:57Z</time>
      </trkpt>
      <trkpt lat="45.67916" lon="-1.04688">
        <ele>14.8</ele>
        <time>2023-08-06T08:25:00Z</time>
      </trkpt>
      <trkpt lat="45.67912" lon="-1.04695">
        <ele>14.2</ele>
        <time>2023-08-06T08:25:04Z</time>
      </trkpt>
      <trkpt lat="45.6791" lon="-1.04698">
        <ele>13.6</ele>
        <time>2023-08-06T08:25:06Z</time>
      </trkpt>
      <trkpt lat="45.67903" lon="-1.047">
        <ele>13</ele>
        <time>2023-08-06T08:25:08Z</time>
      </trkpt>
      <trkpt lat="45.67894" lon="-1.047">
        <ele>12.6</ele>
        <time>2023-08-06T08:25:10Z</time>
      </trkpt>
      <trkpt lat="45.67872" lon="-1.0469">
        <ele>13.4</ele>
        <time>2023-08-06T08:25:16Z</time>
      </trkpt>
      <trkpt lat="45.67853" lon="-1.04677">
        <ele>14</ele>
        <time>2023-08-06T08:25:22Z</time>
      </trkpt>
      <trkpt lat="45.67843" lon="-1.04672">
        <ele>14.2</ele>
        <time>2023-08-06T08:25:24Z</time>
      </trkpt>
      <trkpt lat="45.67825" lon="-1.04658">
        <ele>14.6</ele>
        <time>2023-08-06T08:25:29Z</time>
      </trkpt>
      <trkpt lat="45.67824" lon="-1.04656">
        <ele>14.6</ele>
        <time>2023-08-06T08:25:30Z</time>
      </trkpt>
      <trkpt lat="45.67826" lon="-1.0465">
        <ele>15</ele>
        <time>2023-08-06T08:25:33Z</time>
      </trkpt>
      <trkpt lat="45.67829" lon="-1.04646">
        <ele>15.2</ele>
        <time>2023-08-06T08:25:35Z</time>
      </trkpt>
      <trkpt lat="45.67837" lon="-1.04638">
        <ele>15.4</ele>
        <time>2023-08-06T08:25:39Z</time>
      </trkpt>
      <trkpt lat="45.67849" lon="-1.0463">
        <ele>16.2</ele>
        <time>2023-08-06T08:25:44Z</time>
      </trkpt>
      <trkpt lat="45.67858" lon="-1.04626">
        <ele>16.4</ele>
        <time>2023-08-06T08:25:48Z</time>
      </trkpt>
      <trkpt lat="45.6786" lon="-1.04629">
        <ele>16.2</ele>
        <time>2023-08-06T08:25:50Z</time>
      </trkpt>
      <trkpt lat="45.6787" lon="-1.04636">
        <ele>16.2</ele>
        <time>2023-08-06T08:25:55Z</time>
      </trkpt>
      <trkpt lat="45.67874" lon="-1.04635">
        <ele>16.2</ele>
        <time>2023-08-06T08:25:56Z</time>
      </trkpt>
      <trkpt lat="45.67884" lon="-1.04629">
        <ele>16.2</ele>
        <time>2023-08-06T08:25:59Z</time>
      </trkpt>
      <trkpt lat="45.67889" lon="-1.04627">
        <ele>16.2</ele>
        <time>2023-08-06T08:26:01Z</time>
      </trkpt>
      <trkpt lat="45.67893" lon="-1.04627">
        <ele>16</ele>
        <time>2023-08-06T08:26:03Z</time>
      </trkpt>
      <trkpt lat="45.67905" lon="-1.04625">
        <ele>16</ele>
        <time>2023-08-06T08:26:07Z</time>
      </trkpt>
      <trkpt lat="45.67913" lon="-1.04624">
        <ele>16.2</ele>
        <time>2023-08-06T08:26:09Z</time>
      </trkpt>
      <trkpt lat="45.6792" lon="-1.04624">
        <ele>16.4</ele>
        <time>2023-08-06T08:26:11Z</time>
      </trkpt>
      <trkpt lat="45.67928" lon="-1.04631">
        <ele>16.4</ele>
        <time>2023-08-06T08:26:14Z</time>
      </trkpt>
      <trkpt lat="45.6793" lon="-1.04633">
        <ele>16.6</ele>
        <time>2023-08-06T08:26:15Z</time>
      </trkpt>
      <trkpt lat="45.67944" lon="-1.0465">
        <ele>16.4</ele>
        <time>2023-08-06T08:26:21Z</time>
      </trkpt>
      <trkpt lat="45.67946" lon="-1.04653">
        <ele>16.4</ele>
        <time>2023-08-06T08:26:22Z</time>
      </trkpt>
      <trkpt lat="45.67952" lon="-1.04658">
        <ele>16.4</ele>
        <time>2023-08-06T08:26:24Z</time>
      </trkpt>
      <trkpt lat="45.6796" lon="-1.04663">
        <ele>16.4</ele>
        <time>2023-08-06T08:26:26Z</time>
      </trkpt>
      <trkpt lat="45.67964" lon="-1.04666">
        <ele>16.4</ele>
        <time>2023-08-06T08:26:27Z</time>
      </trkpt>
      <trkpt lat="45.67972" lon="-1.04667">
        <ele>16.4</ele>
        <time>2023-08-06T08:26:29Z</time>
      </trkpt>
      <trkpt lat="45.67985" lon="-1.04669">
        <ele>16.4</ele>
        <time>2023-08-06T08:26:31Z</time>
      </trkpt>
      <trkpt lat="45.68007" lon="-1.04672">
        <ele>17</ele>
        <time>2023-08-06T08:26:34Z</time>
      </trkpt>
      <trkpt lat="45.68014" lon="-1.04675">
        <ele>17</ele>
        <time>2023-08-06T08:26:36Z</time>
      </trkpt>
      <trkpt lat="45.68018" lon="-1.04677">
        <ele>17.2</ele>
        <time>2023-08-06T08:26:37Z</time>
      </trkpt>
      <trkpt lat="45.68023" lon="-1.04685">
        <ele>17</ele>
        <time>2023-08-06T08:26:39Z</time>
      </trkpt>
      <trkpt lat="45.68025" lon="-1.04688">
        <ele>16.8</ele>
        <time>2023-08-06T08:26:40Z</time>
      </trkpt>
      <trkpt lat="45.68029" lon="-1.0469">
        <ele>16.6</ele>
        <time>2023-08-06T08:26:41Z</time>
      </trkpt>
      <trkpt lat="45.68043" lon="-1.04694">
        <ele>16.6</ele>
        <time>2023-08-06T08:26:43Z</time>
      </trkpt>
      <trkpt lat="45.68063" lon="-1.04694">
        <ele>16.6</ele>
        <time>2023-08-06T08:26:46Z</time>
      </trkpt>
      <trkpt lat="45.6807" lon="-1.04697">
        <ele>16.6</ele>
        <time>2023-08-06T08:26:47Z</time>
      </trkpt>
      <trkpt lat="45.68084" lon="-1.04708">
        <ele>16.6</ele>
        <time>2023-08-06T08:26:49Z</time>
      </trkpt>
      <trkpt lat="45.68096" lon="-1.04723">
        <ele>16.6</ele>
        <time>2023-08-06T08:26:51Z</time>
      </trkpt>
      <trkpt lat="45.68124" lon="-1.04783">
        <ele>16.4</ele>
        <time>2023-08-06T08:27:00Z</time>
      </trkpt>
      <trkpt lat="45.68152" lon="-1.0485">
        <ele>16.4</ele>
        <time>2023-08-06T08:27:10Z</time>
      </trkpt>
      <trkpt lat="45.68169" lon="-1.04895">
        <ele>15.8</ele>
        <time>2023-08-06T08:27:17Z</time>
      </trkpt>
      <trkpt lat="45.68172" lon="-1.049">
        <ele>15.6</ele>
        <time>2023-08-06T08:27:18Z</time>
      </trkpt>
      <trkpt lat="45.68184" lon="-1.04913">
        <ele>15.2</ele>
        <time>2023-08-06T08:27:21Z</time>
      </trkpt>
      <trkpt lat="45.68188" lon="-1.04916">
        <ele>15</ele>
        <time>2023-08-06T08:27:22Z</time>
      </trkpt>
      <trkpt lat="45.68192" lon="-1.04917">
        <ele>15</ele>
        <time>2023-08-06T08:27:23Z</time>
      </trkpt>
      <trkpt lat="45.68197" lon="-1.04917">
        <ele>15.4</ele>
        <time>2023-08-06T08:27:24Z</time>
      </trkpt>
      <trkpt lat="45.6821" lon="-1.04909">
        <ele>15.4</ele>
        <time>2023-08-06T08:27:27Z</time>
      </trkpt>
      <trkpt lat="45.68214" lon="-1.04907">
        <ele>15.6</ele>
        <time>2023-08-06T08:27:28Z</time>
      </trkpt>
      <trkpt lat="45.68237" lon="-1.04898">
        <ele>14.8</ele>
        <time>2023-08-06T08:27:33Z</time>
      </trkpt>
      <trkpt lat="45.68268" lon="-1.04888">
        <ele>14</ele>
        <time>2023-08-06T08:27:39Z</time>
      </trkpt>
      <trkpt lat="45.68274" lon="-1.04886">
        <ele>13.2</ele>
        <time>2023-08-06T08:27:40Z</time>
      </trkpt>
      <trkpt lat="45.6828" lon="-1.04883">
        <ele>12.4</ele>
        <time>2023-08-06T08:27:41Z</time>
      </trkpt>
      <trkpt lat="45.68299" lon="-1.04877">
        <ele>11</ele>
        <time>2023-08-06T08:27:44Z</time>
      </trkpt>
      <trkpt lat="45.6832" lon="-1.04869">
        <ele>9.8</ele>
        <time>2023-08-06T08:27:47Z</time>
      </trkpt>
      <trkpt lat="45.6835" lon="-1.04856">
        <ele>8.4</ele>
        <time>2023-08-06T08:27:51Z</time>
      </trkpt>
      <trkpt lat="45.68364" lon="-1.0485">
        <ele>6.8</ele>
        <time>2023-08-06T08:27:53Z</time>
      </trkpt>
      <trkpt lat="45.68378" lon="-1.04843">
        <ele>5.8</ele>
        <time>2023-08-06T08:27:55Z</time>
      </trkpt>
      <trkpt lat="45.68385" lon="-1.0484">
        <ele>5.4</ele>
        <time>2023-08-06T08:27:56Z</time>
      </trkpt>
      <trkpt lat="45.68414" lon="-1.04827">
        <ele>4.2</ele>
        <time>2023-08-06T08:28:01Z</time>
      </trkpt>
      <trkpt lat="45.68419" lon="-1.04824">
        <ele>4</ele>
        <time>2023-08-06T08:28:02Z</time>
      </trkpt>
      <trkpt lat="45.68427" lon="-1.04819">
        <ele>3.6</ele>
        <time>2023-08-06T08:28:04Z</time>
      </trkpt>
      <trkpt lat="45.68431" lon="-1.04809">
        <ele>3.2</ele>
        <time>2023-08-06T08:28:06Z</time>
      </trkpt>
      <trkpt lat="45.68431" lon="-1.04804">
        <ele>3.2</ele>
        <time>2023-08-06T08:28:07Z</time>
      </trkpt>
      <trkpt lat="45.6843" lon="-1.04799">
        <ele>3</ele>
        <time>2023-08-06T08:28:08Z</time>
      </trkpt>
      <trkpt lat="45.68427" lon="-1.04786">
        <ele>2.8</ele>
        <time>2023-08-06T08:28:10Z</time>
      </trkpt>
      <trkpt lat="45.68422" lon="-1.04766">
        <ele>2.6</ele>
        <time>2023-08-06T08:28:13Z</time>
      </trkpt>
      <trkpt lat="45.68415" lon="-1.04735">
        <ele>3</ele>
        <time>2023-08-06T08:28:18Z</time>
      </trkpt>
      <trkpt lat="45.68399" lon="-1.04674">
        <ele>3.6</ele>
        <time>2023-08-06T08:28:28Z</time>
      </trkpt>
      <trkpt lat="45.68388" lon="-1.04648">
        <ele>3.8</ele>
        <time>2023-08-06T08:28:33Z</time>
      </trkpt>
      <trkpt lat="45.68383" lon="-1.04639">
        <ele>3.8</ele>
        <time>2023-08-06T08:28:35Z</time>
      </trkpt>
      <trkpt lat="45.68377" lon="-1.0463">
        <ele>4</ele>
        <time>2023-08-06T08:28:37Z</time>
      </trkpt>
      <trkpt lat="45.68373" lon="-1.04626">
        <ele>4.2</ele>
        <time>2023-08-06T08:28:38Z</time>
      </trkpt>
      <trkpt lat="45.68364" lon="-1.04614">
        <ele>4.4</ele>
        <time>2023-08-06T08:28:41Z</time>
      </trkpt>
      <trkpt lat="45.68351" lon="-1.04598">
        <ele>4.6</ele>
        <time>2023-08-06T08:28:45Z</time>
      </trkpt>
      <trkpt lat="45.68344" lon="-1.04591">
        <ele>4.2</ele>
        <time>2023-08-06T08:28:47Z</time>
      </trkpt>
      <trkpt lat="45.6833" lon="-1.04575">
        <ele>4.8</ele>
        <time>2023-08-06T08:28:51Z</time>
      </trkpt>
      <trkpt lat="45.68321" lon="-1.04563">
        <ele>5.2</ele>
        <time>2023-08-06T08:28:54Z</time>
      </trkpt>
      <trkpt lat="45.68296" lon="-1.04535">
        <ele>6.4</ele>
        <time>2023-08-06T08:29:02Z</time>
      </trkpt>
      <trkpt lat="45.6829" lon="-1.04527">
        <ele>6.6</ele>
        <time>2023-08-06T08:29:04Z</time>
      </trkpt>
      <trkpt lat="45.68277" lon="-1.04513">
        <ele>6.8</ele>
        <time>2023-08-06T08:29:08Z</time>
      </trkpt>
      <trkpt lat="45.68262" lon="-1.04499">
        <ele>7</ele>
        <time>2023-08-06T08:29:12Z</time>
      </trkpt>
      <trkpt lat="45.68237" lon="-1.0447">
        <ele>7</ele>
        <time>2023-08-06T08:29:19Z</time>
      </trkpt>
      <trkpt lat="45.68234" lon="-1.04466">
        <ele>7.4</ele>
        <time>2023-08-06T08:29:20Z</time>
      </trkpt>
      <trkpt lat="45.68216" lon="-1.04446">
        <ele>7.4</ele>
        <time>2023-08-06T08:29:25Z</time>
      </trkpt>
      <trkpt lat="45.68189" lon="-1.04418">
        <ele>7.8</ele>
        <time>2023-08-06T08:29:33Z</time>
      </trkpt>
      <trkpt lat="45.68176" lon="-1.04404">
        <ele>8.2</ele>
        <time>2023-08-06T08:29:37Z</time>
      </trkpt>
      <trkpt lat="45.68172" lon="-1.04401">
        <ele>8.4</ele>
        <time>2023-08-06T08:29:38Z</time>
      </trkpt>
      <trkpt lat="45.68169" lon="-1.04398">
        <ele>8.6</ele>
        <time>2023-08-06T08:29:39Z</time>
      </trkpt>
      <trkpt lat="45.68163" lon="-1.04397">
        <ele>8.8</ele>
        <time>2023-08-06T08:29:41Z</time>
      </trkpt>
      <trkpt lat="45.68158" lon="-1.04396">
        <ele>9</ele>
        <time>2023-08-06T08:29:43Z</time>
      </trkpt>
      <trkpt lat="45.68156" lon="-1.04397">
        <ele>9.4</ele>
        <time>2023-08-06T08:29:44Z</time>
      </trkpt>
      <trkpt lat="45.68155" lon="-1.04396">
        <ele>9.6</ele>
        <time>2023-08-06T08:29:45Z</time>
      </trkpt>
      <trkpt lat="45.68148" lon="-1.04395">
        <ele>10.6</ele>
        <time>2023-08-06T08:29:48Z</time>
      </trkpt>
      <trkpt lat="45.68144" lon="-1.04396">
        <ele>10.8</ele>
        <time>2023-08-06T08:29:49Z</time>
      </trkpt>
      <trkpt lat="45.68134" lon="-1.04396">
        <ele>12</ele>
        <time>2023-08-06T08:29:53Z</time>
      </trkpt>
      <trkpt lat="45.68126" lon="-1.04397">
        <ele>12.2</ele>
        <time>2023-08-06T08:29:55Z</time>
      </trkpt>
      <trkpt lat="45.68111" lon="-1.04403">
        <ele>13.2</ele>
        <time>2023-08-06T08:30:00Z</time>
      </trkpt>
      <trkpt lat="45.68091" lon="-1.04411">
        <ele>13.4</ele>
        <time>2023-08-06T08:30:05Z</time>
      </trkpt>
      <trkpt lat="45.68084" lon="-1.0441">
        <ele>13.6</ele>
        <time>2023-08-06T08:30:07Z</time>
      </trkpt>
      <trkpt lat="45.68079" lon="-1.04411">
        <ele>13.8</ele>
        <time>2023-08-06T08:30:09Z</time>
      </trkpt>
      <trkpt lat="45.68063" lon="-1.04424">
        <ele>13.8</ele>
        <time>2023-08-06T08:30:14Z</time>
      </trkpt>
      <trkpt lat="45.68042" lon="-1.04441">
        <ele>14</ele>
        <time>2023-08-06T08:30:19Z</time>
      </trkpt>
      <trkpt lat="45.68036" lon="-1.04443">
        <ele>14</ele>
        <time>2023-08-06T08:30:20Z</time>
      </trkpt>
      <trkpt lat="45.6803" lon="-1.04445">
        <ele>13.8</ele>
        <time>2023-08-06T08:30:21Z</time>
      </trkpt>
      <trkpt lat="45.68" lon="-1.04449">
        <ele>14.4</ele>
        <time>2023-08-06T08:30:26Z</time>
      </trkpt>
      <trkpt lat="45.67965" lon="-1.04452">
        <ele>15.2</ele>
        <time>2023-08-06T08:30:33Z</time>
      </trkpt>
      <trkpt lat="45.67943" lon="-1.04451">
        <ele>15.4</ele>
        <time>2023-08-06T08:30:37Z</time>
      </trkpt>
      <trkpt lat="45.67933" lon="-1.0445">
        <ele>15.8</ele>
        <time>2023-08-06T08:30:39Z</time>
      </trkpt>
      <trkpt lat="45.67929" lon="-1.0445">
        <ele>15.8</ele>
        <time>2023-08-06T08:30:40Z</time>
      </trkpt>
      <trkpt lat="45.67919" lon="-1.04447">
        <ele>15.8</ele>
        <time>2023-08-06T08:30:43Z</time>
      </trkpt>
      <trkpt lat="45.67904" lon="-1.04442">
        <ele>15.4</ele>
        <time>2023-08-06T08:30:48Z</time>
      </trkpt>
      <trkpt lat="45.67889" lon="-1.04435">
        <ele>15.4</ele>
        <time>2023-08-06T08:30:52Z</time>
      </trkpt>
      <trkpt lat="45.67881" lon="-1.0443">
        <ele>15.4</ele>
        <time>2023-08-06T08:30:54Z</time>
      </trkpt>
      <trkpt lat="45.6786" lon="-1.04411">
        <ele>15.6</ele>
        <time>2023-08-06T08:31:00Z</time>
      </trkpt>
      <trkpt lat="45.67856" lon="-1.04408">
        <ele>15.6</ele>
        <time>2023-08-06T08:31:01Z</time>
      </trkpt>
      <trkpt lat="45.6784" lon="-1.04395">
        <ele>15.4</ele>
        <time>2023-08-06T08:31:05Z</time>
      </trkpt>
      <trkpt lat="45.67832" lon="-1.0439">
        <ele>15.4</ele>
        <time>2023-08-06T08:31:07Z</time>
      </trkpt>
      <trkpt lat="45.67828" lon="-1.04389">
        <ele>15.4</ele>
        <time>2023-08-06T08:31:08Z</time>
      </trkpt>
      <trkpt lat="45.67819" lon="-1.0439">
        <ele>15.4</ele>
        <time>2023-08-06T08:31:10Z</time>
      </trkpt>
      <trkpt lat="45.67816" lon="-1.04393">
        <ele>15.4</ele>
        <time>2023-08-06T08:31:11Z</time>
      </trkpt>
      <trkpt lat="45.67813" lon="-1.04396">
        <ele>16</ele>
        <time>2023-08-06T08:31:13Z</time>
      </trkpt>
      <trkpt lat="45.67809" lon="-1.04397">
        <ele>16.2</ele>
        <time>2023-08-06T08:31:15Z</time>
      </trkpt>
      <trkpt lat="45.67799" lon="-1.04385">
        <ele>16.2</ele>
        <time>2023-08-06T08:31:20Z</time>
      </trkpt>
      <trkpt lat="45.67793" lon="-1.04381">
        <ele>16.2</ele>
        <time>2023-08-06T08:31:22Z</time>
      </trkpt>
      <trkpt lat="45.67785" lon="-1.0438">
        <ele>16.4</ele>
        <time>2023-08-06T08:31:24Z</time>
      </trkpt>
      <trkpt lat="45.67778" lon="-1.0438">
        <ele>16.4</ele>
        <time>2023-08-06T08:31:26Z</time>
      </trkpt>
      <trkpt lat="45.67774" lon="-1.04378">
        <ele>16.4</ele>
        <time>2023-08-06T08:31:27Z</time>
      </trkpt>
      <trkpt lat="45.67766" lon="-1.04375">
        <ele>16.6</ele>
        <time>2023-08-06T08:31:29Z</time>
      </trkpt>
      <trkpt lat="45.6776" lon="-1.04372">
        <ele>17</ele>
        <time>2023-08-06T08:31:31Z</time>
      </trkpt>
      <trkpt lat="45.67754" lon="-1.04366">
        <ele>16.8</ele>
        <time>2023-08-06T08:31:33Z</time>
      </trkpt>
      <trkpt lat="45.6775" lon="-1.04362">
        <ele>16.4</ele>
        <time>2023-08-06T08:31:34Z</time>
      </trkpt>
      <trkpt lat="45.67747" lon="-1.04358">
        <ele>16.4</ele>
        <time>2023-08-06T08:31:35Z</time>
      </trkpt>
      <trkpt lat="45.67745" lon="-1.04347">
        <ele>16</ele>
        <time>2023-08-06T08:31:37Z</time>
      </trkpt>
      <trkpt lat="45.67743" lon="-1.04342">
        <ele>16</ele>
        <time>2023-08-06T08:31:38Z</time>
      </trkpt>
      <trkpt lat="45.6774" lon="-1.04339">
        <ele>15.8</ele>
        <time>2023-08-06T08:31:39Z</time>
      </trkpt>
      <trkpt lat="45.67731" lon="-1.04335">
        <ele>16</ele>
        <time>2023-08-06T08:31:41Z</time>
      </trkpt>
      <trkpt lat="45.67726" lon="-1.04334">
        <ele>15.8</ele>
        <time>2023-08-06T08:31:42Z</time>
      </trkpt>
      <trkpt lat="45.67718" lon="-1.0433">
        <ele>15.6</ele>
        <time>2023-08-06T08:31:44Z</time>
      </trkpt>
      <trkpt lat="45.67715" lon="-1.04327">
        <ele>15.8</ele>
        <time>2023-08-06T08:31:45Z</time>
      </trkpt>
      <trkpt lat="45.67709" lon="-1.04322">
        <ele>16.2</ele>
        <time>2023-08-06T08:31:47Z</time>
      </trkpt>
      <trkpt lat="45.67703" lon="-1.04319">
        <ele>16</ele>
        <time>2023-08-06T08:31:49Z</time>
      </trkpt>
      <trkpt lat="45.67702" lon="-1.04317">
        <ele>15.8</ele>
        <time>2023-08-06T08:31:50Z</time>
      </trkpt>
      <trkpt lat="45.67702" lon="-1.04306">
        <ele>15.6</ele>
        <time>2023-08-06T08:31:53Z</time>
      </trkpt>
      <trkpt lat="45.67701" lon="-1.043">
        <ele>15.8</ele>
        <time>2023-08-06T08:31:55Z</time>
      </trkpt>
      <trkpt lat="45.67698" lon="-1.04298">
        <ele>15.8</ele>
        <time>2023-08-06T08:31:57Z</time>
      </trkpt>
      <trkpt lat="45.67696" lon="-1.04299">
        <ele>15.8</ele>
        <time>2023-08-06T08:31:58Z</time>
      </trkpt>
      <trkpt lat="45.67693" lon="-1.04299">
        <ele>15.8</ele>
        <time>2023-08-06T08:32:00Z</time>
      </trkpt>
      <trkpt lat="45.67691" lon="-1.04299">
        <ele>15.8</ele>
        <time>2023-08-06T08:32:01Z</time>
      </trkpt>
      <trkpt lat="45.67689" lon="-1.04297">
        <ele>16</ele>
        <time>2023-08-06T08:32:02Z</time>
      </trkpt>
      <trkpt lat="45.67687" lon="-1.04287">
        <ele>16.2</ele>
        <time>2023-08-06T08:32:05Z</time>
      </trkpt>
      <trkpt lat="45.67679" lon="-1.04279">
        <ele>16.4</ele>
        <time>2023-08-06T08:32:09Z</time>
      </trkpt>
      <trkpt lat="45.67677" lon="-1.04279">
        <ele>16.4</ele>
        <time>2023-08-06T08:32:10Z</time>
      </trkpt>
      <trkpt lat="45.67662" lon="-1.04275">
        <ele>16.4</ele>
        <time>2023-08-06T08:32:16Z</time>
      </trkpt>
      <trkpt lat="45.67655" lon="-1.04263">
        <ele>16.2</ele>
        <time>2023-08-06T08:32:20Z</time>
      </trkpt>
      <trkpt lat="45.67648" lon="-1.04252">
        <ele>15.8</ele>
        <time>2023-08-06T08:32:24Z</time>
      </trkpt>
      <trkpt lat="45.67645" lon="-1.0425">
        <ele>15.8</ele>
        <time>2023-08-06T08:32:25Z</time>
      </trkpt>
      <trkpt lat="45.67635" lon="-1.04257">
        <ele>16.2</ele>
        <time>2023-08-06T08:32:30Z</time>
      </trkpt>
      <trkpt lat="45.67626" lon="-1.04255">
        <ele>16.6</ele>
        <time>2023-08-06T08:32:33Z</time>
      </trkpt>
      <trkpt lat="45.67623" lon="-1.04256">
        <ele>16.6</ele>
        <time>2023-08-06T08:32:34Z</time>
      </trkpt>
      <trkpt lat="45.67621" lon="-1.04256">
        <ele>16.6</ele>
        <time>2023-08-06T08:32:35Z</time>
      </trkpt>
      <trkpt lat="45.67615" lon="-1.04256">
        <ele>16.8</ele>
        <time>2023-08-06T08:32:37Z</time>
      </trkpt>
      <trkpt lat="45.67608" lon="-1.04252">
        <ele>16.8</ele>
        <time>2023-08-06T08:32:39Z</time>
      </trkpt>
      <trkpt lat="45.67604" lon="-1.04253">
        <ele>17</ele>
        <time>2023-08-06T08:32:40Z</time>
      </trkpt>
      <trkpt lat="45.67596" lon="-1.04254">
        <ele>17</ele>
        <time>2023-08-06T08:32:42Z</time>
      </trkpt>
      <trkpt lat="45.67591" lon="-1.04255">
        <ele>17</ele>
        <time>2023-08-06T08:32:43Z</time>
      </trkpt>
      <trkpt lat="45.67589" lon="-1.04256">
        <ele>17</ele>
        <time>2023-08-06T08:32:44Z</time>
      </trkpt>
      <trkpt lat="45.67583" lon="-1.04258">
        <ele>17</ele>
        <time>2023-08-06T08:32:46Z</time>
      </trkpt>
      <trkpt lat="45.67576" lon="-1.04259">
        <ele>17.2</ele>
        <time>2023-08-06T08:32:48Z</time>
      </trkpt>
      <trkpt lat="45.67569" lon="-1.04259">
        <ele>17.2</ele>
        <time>2023-08-06T08:32:50Z</time>
      </trkpt>
      <trkpt lat="45.67561" lon="-1.04257">
        <ele>17.4</ele>
        <time>2023-08-06T08:32:52Z</time>
      </trkpt>
      <trkpt lat="45.6755" lon="-1.04259">
        <ele>17</ele>
        <time>2023-08-06T08:32:55Z</time>
      </trkpt>
      <trkpt lat="45.67537" lon="-1.04256">
        <ele>17</ele>
        <time>2023-08-06T08:32:57Z</time>
      </trkpt>
      <trkpt lat="45.67529" lon="-1.0425">
        <ele>16.8</ele>
        <time>2023-08-06T08:32:59Z</time>
      </trkpt>
      <trkpt lat="45.67521" lon="-1.04245">
        <ele>16.4</ele>
        <time>2023-08-06T08:33:01Z</time>
      </trkpt>
      <trkpt lat="45.67514" lon="-1.04241">
        <ele>16.2</ele>
        <time>2023-08-06T08:33:03Z</time>
      </trkpt>
      <trkpt lat="45.67507" lon="-1.04237">
        <ele>15.8</ele>
        <time>2023-08-06T08:33:05Z</time>
      </trkpt>
      <trkpt lat="45.67503" lon="-1.04229">
        <ele>15.4</ele>
        <time>2023-08-06T08:33:08Z</time>
      </trkpt>
      <trkpt lat="45.67501" lon="-1.04226">
        <ele>15.4</ele>
        <time>2023-08-06T08:33:09Z</time>
      </trkpt>
      <trkpt lat="45.67492" lon="-1.04217">
        <ele>15.4</ele>
        <time>2023-08-06T08:33:12Z</time>
      </trkpt>
      <trkpt lat="45.67488" lon="-1.04213">
        <ele>15.4</ele>
        <time>2023-08-06T08:33:13Z</time>
      </trkpt>
      <trkpt lat="45.67481" lon="-1.04204">
        <ele>15.4</ele>
        <time>2023-08-06T08:33:15Z</time>
      </trkpt>
      <trkpt lat="45.67479" lon="-1.04195">
        <ele>15.2</ele>
        <time>2023-08-06T08:33:17Z</time>
      </trkpt>
      <trkpt lat="45.67487" lon="-1.04182">
        <ele>14.8</ele>
        <time>2023-08-06T08:33:21Z</time>
      </trkpt>
      <trkpt lat="45.67513" lon="-1.04155">
        <ele>15.4</ele>
        <time>2023-08-06T08:33:29Z</time>
      </trkpt>
      <trkpt lat="45.67541" lon="-1.04137">
        <ele>16.2</ele>
        <time>2023-08-06T08:33:37Z</time>
      </trkpt>
      <trkpt lat="45.67549" lon="-1.04134">
        <ele>16.2</ele>
        <time>2023-08-06T08:33:39Z</time>
      </trkpt>
      <trkpt lat="45.67565" lon="-1.04129">
        <ele>16.2</ele>
        <time>2023-08-06T08:33:43Z</time>
      </trkpt>
      <trkpt lat="45.67569" lon="-1.04128">
        <ele>16.2</ele>
        <time>2023-08-06T08:33:44Z</time>
      </trkpt>
      <trkpt lat="45.67606" lon="-1.04118">
        <ele>16.4</ele>
        <time>2023-08-06T08:33:53Z</time>
      </trkpt>
      <trkpt lat="45.67614" lon="-1.04116">
        <ele>16.6</ele>
        <time>2023-08-06T08:33:55Z</time>
      </trkpt>
      <trkpt lat="45.67638" lon="-1.04108">
        <ele>16.8</ele>
        <time>2023-08-06T08:34:01Z</time>
      </trkpt>
      <trkpt lat="45.67667" lon="-1.04099">
        <ele>16.8</ele>
        <time>2023-08-06T08:34:08Z</time>
      </trkpt>
      <trkpt lat="45.67676" lon="-1.04097">
        <ele>16.8</ele>
        <time>2023-08-06T08:34:10Z</time>
      </trkpt>
      <trkpt lat="45.67691" lon="-1.04092">
        <ele>16.4</ele>
        <time>2023-08-06T08:34:14Z</time>
      </trkpt>
      <trkpt lat="45.67725" lon="-1.04081">
        <ele>16.6</ele>
        <time>2023-08-06T08:34:22Z</time>
      </trkpt>
      <trkpt lat="45.67761" lon="-1.04067">
        <ele>15.8</ele>
        <time>2023-08-06T08:34:30Z</time>
      </trkpt>
      <trkpt lat="45.67774" lon="-1.04062">
        <ele>15.6</ele>
        <time>2023-08-06T08:34:33Z</time>
      </trkpt>
      <trkpt lat="45.67783" lon="-1.0406">
        <ele>15.6</ele>
        <time>2023-08-06T08:34:35Z</time>
      </trkpt>
      <trkpt lat="45.67792" lon="-1.04058">
        <ele>15.6</ele>
        <time>2023-08-06T08:34:37Z</time>
      </trkpt>
      <trkpt lat="45.67804" lon="-1.04052">
        <ele>15.2</ele>
        <time>2023-08-06T08:34:40Z</time>
      </trkpt>
      <trkpt lat="45.67816" lon="-1.04045">
        <ele>15.8</ele>
        <time>2023-08-06T08:34:43Z</time>
      </trkpt>
      <trkpt lat="45.6782" lon="-1.04043">
        <ele>15.8</ele>
        <time>2023-08-06T08:34:44Z</time>
      </trkpt>
      <trkpt lat="45.67832" lon="-1.04039">
        <ele>15.6</ele>
        <time>2023-08-06T08:34:47Z</time>
      </trkpt>
      <trkpt lat="45.67839" lon="-1.04036">
        <ele>15.2</ele>
        <time>2023-08-06T08:34:49Z</time>
      </trkpt>
      <trkpt lat="45.67846" lon="-1.04029">
        <ele>14.8</ele>
        <time>2023-08-06T08:34:52Z</time>
      </trkpt>
      <trkpt lat="45.6785" lon="-1.04015">
        <ele>14.8</ele>
        <time>2023-08-06T08:34:57Z</time>
      </trkpt>
      <trkpt lat="45.67854" lon="-1.04011">
        <ele>14.8</ele>
        <time>2023-08-06T08:34:59Z</time>
      </trkpt>
      <trkpt lat="45.67856" lon="-1.04011">
        <ele>15</ele>
        <time>2023-08-06T08:35:01Z</time>
      </trkpt>
      <trkpt lat="45.67861" lon="-1.04014">
        <ele>15</ele>
        <time>2023-08-06T08:35:04Z</time>
      </trkpt>
      <trkpt lat="45.67868" lon="-1.04009">
        <ele>15</ele>
        <time>2023-08-06T08:35:07Z</time>
      </trkpt>
      <trkpt lat="45.67875" lon="-1.03997">
        <ele>15.2</ele>
        <time>2023-08-06T08:35:11Z</time>
      </trkpt>
      <trkpt lat="45.67882" lon="-1.03986">
        <ele>15.4</ele>
        <time>2023-08-06T08:35:14Z</time>
      </trkpt>
      <trkpt lat="45.67886" lon="-1.03984">
        <ele>15.6</ele>
        <time>2023-08-06T08:35:15Z</time>
      </trkpt>
      <trkpt lat="45.67896" lon="-1.03971">
        <ele>15.6</ele>
        <time>2023-08-06T08:35:20Z</time>
      </trkpt>
      <trkpt lat="45.67897" lon="-1.03966">
        <ele>15.6</ele>
        <time>2023-08-06T08:35:22Z</time>
      </trkpt>
      <trkpt lat="45.67898" lon="-1.03961">
        <ele>15.8</ele>
        <time>2023-08-06T08:35:24Z</time>
      </trkpt>
      <trkpt lat="45.67904" lon="-1.03938">
        <ele>16.4</ele>
        <time>2023-08-06T08:35:30Z</time>
      </trkpt>
      <trkpt lat="45.67905" lon="-1.03933">
        <ele>16.8</ele>
        <time>2023-08-06T08:35:31Z</time>
      </trkpt>
      <trkpt lat="45.67906" lon="-1.03925">
        <ele>17</ele>
        <time>2023-08-06T08:35:33Z</time>
      </trkpt>
      <trkpt lat="45.67907" lon="-1.03921">
        <ele>17</ele>
        <time>2023-08-06T08:35:34Z</time>
      </trkpt>
      <trkpt lat="45.67906" lon="-1.03918">
        <ele>17.2</ele>
        <time>2023-08-06T08:35:35Z</time>
      </trkpt>
      <trkpt lat="45.67905" lon="-1.03915">
        <ele>17.2</ele>
        <time>2023-08-06T08:35:38Z</time>
      </trkpt>
      <trkpt lat="45.67899" lon="-1.03912">
        <ele>17.2</ele>
        <time>2023-08-06T08:35:41Z</time>
      </trkpt>
      <trkpt lat="45.67896" lon="-1.03909">
        <ele>17.2</ele>
        <time>2023-08-06T08:35:42Z</time>
      </trkpt>
      <trkpt lat="45.67894" lon="-1.03905">
        <ele>17.2</ele>
        <time>2023-08-06T08:35:43Z</time>
      </trkpt>
      <trkpt lat="45.67889" lon="-1.03896">
        <ele>17.2</ele>
        <time>2023-08-06T08:35:46Z</time>
      </trkpt>
      <trkpt lat="45.67888" lon="-1.03896">
        <ele>17.2</ele>
        <time>2023-08-06T08:35:47Z</time>
      </trkpt>
      <trkpt lat="45.67885" lon="-1.03901">
        <ele>17</ele>
        <time>2023-08-06T08:35:50Z</time>
      </trkpt>
      <trkpt lat="45.67882" lon="-1.03907">
        <ele>16.8</ele>
        <time>2023-08-06T08:35:52Z</time>
      </trkpt>
      <trkpt lat="45.67879" lon="-1.03913">
        <ele>16.8</ele>
        <time>2023-08-06T08:35:54Z</time>
      </trkpt>
      <trkpt lat="45.67873" lon="-1.03914">
        <ele>16.6</ele>
        <time>2023-08-06T08:35:56Z</time>
      </trkpt>
      <trkpt lat="45.67861" lon="-1.03907">
        <ele>16.6</ele>
        <time>2023-08-06T08:36:00Z</time>
      </trkpt>
      <trkpt lat="45.67858" lon="-1.03903">
        <ele>16.6</ele>
        <time>2023-08-06T08:36:01Z</time>
      </trkpt>
      <trkpt lat="45.67857" lon="-1.039">
        <ele>16.6</ele>
        <time>2023-08-06T08:36:02Z</time>
      </trkpt>
      <trkpt lat="45.67848" lon="-1.03891">
        <ele>17</ele>
        <time>2023-08-06T08:36:06Z</time>
      </trkpt>
      <trkpt lat="45.67838" lon="-1.03871">
        <ele>17.2</ele>
        <time>2023-08-06T08:36:12Z</time>
      </trkpt>
      <trkpt lat="45.67832" lon="-1.0385">
        <ele>17.8</ele>
        <time>2023-08-06T08:36:17Z</time>
      </trkpt>
      <trkpt lat="45.67831" lon="-1.03846">
        <ele>18</ele>
        <time>2023-08-06T08:36:18Z</time>
      </trkpt>
      <trkpt lat="45.67822" lon="-1.03821">
        <ele>18.8</ele>
        <time>2023-08-06T08:36:24Z</time>
      </trkpt>
      <trkpt lat="45.67821" lon="-1.03816">
        <ele>18.8</ele>
        <time>2023-08-06T08:36:25Z</time>
      </trkpt>
      <trkpt lat="45.67815" lon="-1.03794">
        <ele>19.2</ele>
        <time>2023-08-06T08:36:30Z</time>
      </trkpt>
      <trkpt lat="45.67813" lon="-1.0377">
        <ele>19.6</ele>
        <time>2023-08-06T08:36:36Z</time>
      </trkpt>
      <trkpt lat="45.67811" lon="-1.03766">
        <ele>19.6</ele>
        <time>2023-08-06T08:36:37Z</time>
      </trkpt>
      <trkpt lat="45.67808" lon="-1.03758">
        <ele>19.8</ele>
        <time>2023-08-06T08:36:40Z</time>
      </trkpt>
      <trkpt lat="45.67805" lon="-1.03755">
        <ele>20</ele>
        <time>2023-08-06T08:36:41Z</time>
      </trkpt>
      <trkpt lat="45.67801" lon="-1.03752">
        <ele>20</ele>
        <time>2023-08-06T08:36:43Z</time>
      </trkpt>
      <trkpt lat="45.67796" lon="-1.03744">
        <ele>20</ele>
        <time>2023-08-06T08:36:46Z</time>
      </trkpt>
      <trkpt lat="45.67787" lon="-1.03728">
        <ele>20.4</ele>
        <time>2023-08-06T08:36:52Z</time>
      </trkpt>
      <trkpt lat="45.6779" lon="-1.03705">
        <ele>20.8</ele>
        <time>2023-08-06T08:36:58Z</time>
      </trkpt>
      <trkpt lat="45.6779" lon="-1.037">
        <ele>21</ele>
        <time>2023-08-06T08:36:59Z</time>
      </trkpt>
      <trkpt lat="45.67789" lon="-1.03677">
        <ele>21.2</ele>
        <time>2023-08-06T08:37:03Z</time>
      </trkpt>
      <trkpt lat="45.6779" lon="-1.03672">
        <ele>21.2</ele>
        <time>2023-08-06T08:37:04Z</time>
      </trkpt>
      <trkpt lat="45.6779" lon="-1.0366">
        <ele>21.4</ele>
        <time>2023-08-06T08:37:07Z</time>
      </trkpt>
      <trkpt lat="45.67788" lon="-1.03656">
        <ele>21.4</ele>
        <time>2023-08-06T08:37:08Z</time>
      </trkpt>
      <trkpt lat="45.67786" lon="-1.03653">
        <ele>21.2</ele>
        <time>2023-08-06T08:37:09Z</time>
      </trkpt>
      <trkpt lat="45.6778" lon="-1.03639">
        <ele>21.6</ele>
        <time>2023-08-06T08:37:12Z</time>
      </trkpt>
      <trkpt lat="45.67779" lon="-1.03633">
        <ele>21.4</ele>
        <time>2023-08-06T08:37:13Z</time>
      </trkpt>
      <trkpt lat="45.67778" lon="-1.03627">
        <ele>21.4</ele>
        <time>2023-08-06T08:37:14Z</time>
      </trkpt>
      <trkpt lat="45.67774" lon="-1.03614">
        <ele>21.4</ele>
        <time>2023-08-06T08:37:16Z</time>
      </trkpt>
      <trkpt lat="45.67772" lon="-1.03608">
        <ele>21.4</ele>
        <time>2023-08-06T08:37:17Z</time>
      </trkpt>
      <trkpt lat="45.67772" lon="-1.03602">
        <ele>21.4</ele>
        <time>2023-08-06T08:37:18Z</time>
      </trkpt>
      <trkpt lat="45.67773" lon="-1.03591">
        <ele>21.4</ele>
        <time>2023-08-06T08:37:20Z</time>
      </trkpt>
      <trkpt lat="45.67775" lon="-1.03586">
        <ele>21.6</ele>
        <time>2023-08-06T08:37:21Z</time>
      </trkpt>
      <trkpt lat="45.67777" lon="-1.03582">
        <ele>21.6</ele>
        <time>2023-08-06T08:37:22Z</time>
      </trkpt>
      <trkpt lat="45.67779" lon="-1.03577">
        <ele>21.6</ele>
        <time>2023-08-06T08:37:23Z</time>
      </trkpt>
      <trkpt lat="45.67781" lon="-1.03574">
        <ele>21.6</ele>
        <time>2023-08-06T08:37:24Z</time>
      </trkpt>
      <trkpt lat="45.67785" lon="-1.03569">
        <ele>21.6</ele>
        <time>2023-08-06T08:37:26Z</time>
      </trkpt>
      <trkpt lat="45.67792" lon="-1.03566">
        <ele>21.6</ele>
        <time>2023-08-06T08:37:29Z</time>
      </trkpt>
      <trkpt lat="45.67798" lon="-1.03554">
        <ele>21.6</ele>
        <time>2023-08-06T08:37:32Z</time>
      </trkpt>
      <trkpt lat="45.67799" lon="-1.03543">
        <ele>21.4</ele>
        <time>2023-08-06T08:37:34Z</time>
      </trkpt>
      <trkpt lat="45.67797" lon="-1.03535">
        <ele>21.4</ele>
        <time>2023-08-06T08:37:36Z</time>
      </trkpt>
      <trkpt lat="45.67798" lon="-1.03531">
        <ele>21.4</ele>
        <time>2023-08-06T08:37:37Z</time>
      </trkpt>
      <trkpt lat="45.67801" lon="-1.03523">
        <ele>21.4</ele>
        <time>2023-08-06T08:37:39Z</time>
      </trkpt>
      <trkpt lat="45.67802" lon="-1.03518">
        <ele>21.4</ele>
        <time>2023-08-06T08:37:40Z</time>
      </trkpt>
      <trkpt lat="45.67807" lon="-1.03509">
        <ele>21.4</ele>
        <time>2023-08-06T08:37:42Z</time>
      </trkpt>
      <trkpt lat="45.67814" lon="-1.03499">
        <ele>21.4</ele>
        <time>2023-08-06T08:37:45Z</time>
      </trkpt>
      <trkpt lat="45.67826" lon="-1.03484">
        <ele>21.4</ele>
        <time>2023-08-06T08:37:49Z</time>
      </trkpt>
      <trkpt lat="45.67836" lon="-1.03476">
        <ele>21.4</ele>
        <time>2023-08-06T08:37:51Z</time>
      </trkpt>
      <trkpt lat="45.67854" lon="-1.03463">
        <ele>21.4</ele>
        <time>2023-08-06T08:37:55Z</time>
      </trkpt>
      <trkpt lat="45.67858" lon="-1.03454">
        <ele>21.4</ele>
        <time>2023-08-06T08:37:57Z</time>
      </trkpt>
      <trkpt lat="45.6786" lon="-1.03443">
        <ele>21.4</ele>
        <time>2023-08-06T08:37:59Z</time>
      </trkpt>
      <trkpt lat="45.6786" lon="-1.03437">
        <ele>21.4</ele>
        <time>2023-08-06T08:38:00Z</time>
      </trkpt>
      <trkpt lat="45.6786" lon="-1.03431">
        <ele>21</ele>
        <time>2023-08-06T08:38:01Z</time>
      </trkpt>
      <trkpt lat="45.67858" lon="-1.03394">
        <ele>21</ele>
        <time>2023-08-06T08:38:06Z</time>
      </trkpt>
      <trkpt lat="45.67858" lon="-1.03387">
        <ele>21</ele>
        <time>2023-08-06T08:38:07Z</time>
      </trkpt>
      <trkpt lat="45.67855" lon="-1.03359">
        <ele>21</ele>
        <time>2023-08-06T08:38:11Z</time>
      </trkpt>
      <trkpt lat="45.67859" lon="-1.0335">
        <ele>20.6</ele>
        <time>2023-08-06T08:38:13Z</time>
      </trkpt>
      <trkpt lat="45.67862" lon="-1.03346">
        <ele>20.6</ele>
        <time>2023-08-06T08:38:14Z</time>
      </trkpt>
      <trkpt lat="45.6787" lon="-1.0333">
        <ele>19.8</ele>
        <time>2023-08-06T08:38:18Z</time>
      </trkpt>
      <trkpt lat="45.67869" lon="-1.03327">
        <ele>19.6</ele>
        <time>2023-08-06T08:38:19Z</time>
      </trkpt>
      <trkpt lat="45.67866" lon="-1.03309">
        <ele>19.2</ele>
        <time>2023-08-06T08:38:22Z</time>
      </trkpt>
      <trkpt lat="45.67857" lon="-1.03277">
        <ele>18.6</ele>
        <time>2023-08-06T08:38:27Z</time>
      </trkpt>
      <trkpt lat="45.67856" lon="-1.03273">
        <ele>18</ele>
        <time>2023-08-06T08:38:28Z</time>
      </trkpt>
      <trkpt lat="45.67855" lon="-1.03268">
        <ele>17.6</ele>
        <time>2023-08-06T08:38:29Z</time>
      </trkpt>
      <trkpt lat="45.67854" lon="-1.03264">
        <ele>17.2</ele>
        <time>2023-08-06T08:38:30Z</time>
      </trkpt>
      <trkpt lat="45.67852" lon="-1.03258">
        <ele>17</ele>
        <time>2023-08-06T08:38:32Z</time>
      </trkpt>
      <trkpt lat="45.67853" lon="-1.03257">
        <ele>16.8</ele>
        <time>2023-08-06T08:38:33Z</time>
      </trkpt>
      <trkpt lat="45.67855" lon="-1.03254">
        <ele>16.6</ele>
        <time>2023-08-06T08:38:35Z</time>
      </trkpt>
      <trkpt lat="45.67858" lon="-1.03254">
        <ele>16.2</ele>
        <time>2023-08-06T08:38:37Z</time>
      </trkpt>
      <trkpt lat="45.67859" lon="-1.03254">
        <ele>16.2</ele>
        <time>2023-08-06T08:38:38Z</time>
      </trkpt>
      <trkpt lat="45.67863" lon="-1.03256">
        <ele>16.2</ele>
        <time>2023-08-06T08:38:41Z</time>
      </trkpt>
      <trkpt lat="45.67865" lon="-1.03256">
        <ele>16.2</ele>
        <time>2023-08-06T08:38:42Z</time>
      </trkpt>
      <trkpt lat="45.67869" lon="-1.03263">
        <ele>16.6</ele>
        <time>2023-08-06T08:38:45Z</time>
      </trkpt>
      <trkpt lat="45.6787" lon="-1.03265">
        <ele>16.6</ele>
        <time>2023-08-06T08:38:46Z</time>
      </trkpt>
      <trkpt lat="45.67872" lon="-1.03276">
        <ele>17</ele>
        <time>2023-08-06T08:38:51Z</time>
      </trkpt>
      <trkpt lat="45.67873" lon="-1.03277">
        <ele>17.2</ele>
        <time>2023-08-06T08:38:52Z</time>
      </trkpt>
      <trkpt lat="45.67874" lon="-1.03278">
        <ele>17.4</ele>
        <time>2023-08-06T08:38:53Z</time>
      </trkpt>
      <trkpt lat="45.67885" lon="-1.03277">
        <ele>17</ele>
        <time>2023-08-06T08:38:58Z</time>
      </trkpt>
      <trkpt lat="45.67887" lon="-1.03278">
        <ele>16.8</ele>
        <time>2023-08-06T08:38:59Z</time>
      </trkpt>
      <trkpt lat="45.67891" lon="-1.03279">
        <ele>16.8</ele>
        <time>2023-08-06T08:39:01Z</time>
      </trkpt>
      <trkpt lat="45.67893" lon="-1.03278">
        <ele>16.6</ele>
        <time>2023-08-06T08:39:02Z</time>
      </trkpt>
      <trkpt lat="45.67897" lon="-1.03275">
        <ele>16.2</ele>
        <time>2023-08-06T08:39:04Z</time>
      </trkpt>
      <trkpt lat="45.67903" lon="-1.03266">
        <ele>15.8</ele>
        <time>2023-08-06T08:39:07Z</time>
      </trkpt>
      <trkpt lat="45.67905" lon="-1.03263">
        <ele>15.6</ele>
        <time>2023-08-06T08:39:08Z</time>
      </trkpt>
      <trkpt lat="45.67904" lon="-1.03259">
        <ele>14.8</ele>
        <time>2023-08-06T08:39:10Z</time>
      </trkpt>
      <trkpt lat="45.679" lon="-1.03247">
        <ele>14.2</ele>
        <time>2023-08-06T08:39:14Z</time>
      </trkpt>
      <trkpt lat="45.679" lon="-1.03239">
        <ele>14</ele>
        <time>2023-08-06T08:39:16Z</time>
      </trkpt>
      <trkpt lat="45.67901" lon="-1.03232">
        <ele>13.8</ele>
        <time>2023-08-06T08:39:18Z</time>
      </trkpt>
      <trkpt lat="45.67902" lon="-1.03229">
        <ele>13.6</ele>
        <time>2023-08-06T08:39:19Z</time>
      </trkpt>
      <trkpt lat="45.67903" lon="-1.03224">
        <ele>13.6</ele>
        <time>2023-08-06T08:39:20Z</time>
      </trkpt>
      <trkpt lat="45.67901" lon="-1.03218">
        <ele>12.8</ele>
        <time>2023-08-06T08:39:22Z</time>
      </trkpt>
      <trkpt lat="45.67901" lon="-1.03216">
        <ele>12.6</ele>
        <time>2023-08-06T08:39:23Z</time>
      </trkpt>
      <trkpt lat="45.679" lon="-1.03214">
        <ele>12.4</ele>
        <time>2023-08-06T08:39:24Z</time>
      </trkpt>
      <trkpt lat="45.67898" lon="-1.03213">
        <ele>12.2</ele>
        <time>2023-08-06T08:39:26Z</time>
      </trkpt>
      <trkpt lat="45.67898" lon="-1.03214">
        <ele>12.2</ele>
        <time>2023-08-06T08:39:27Z</time>
      </trkpt>
      <trkpt lat="45.67898" lon="-1.03222">
        <ele>12.6</ele>
        <time>2023-08-06T08:39:30Z</time>
      </trkpt>
      <trkpt lat="45.67898" lon="-1.03227">
        <ele>13.4</ele>
        <time>2023-08-06T08:39:34Z</time>
      </trkpt>
      <trkpt lat="45.67894" lon="-1.03225">
        <ele>13.6</ele>
        <time>2023-08-06T08:39:35Z</time>
      </trkpt>
      <trkpt lat="45.67889" lon="-1.03221">
        <ele>13.6</ele>
        <time>2023-08-06T08:39:38Z</time>
      </trkpt>
      <trkpt lat="45.67877" lon="-1.03219">
        <ele>14.2</ele>
        <time>2023-08-06T08:39:43Z</time>
      </trkpt>
      <trkpt lat="45.67874" lon="-1.0322">
        <ele>14.6</ele>
        <time>2023-08-06T08:39:45Z</time>
      </trkpt>
      <trkpt lat="45.67874" lon="-1.03221">
        <ele>14.8</ele>
        <time>2023-08-06T08:39:46Z</time>
      </trkpt>
      <trkpt lat="45.67872" lon="-1.03224">
        <ele>15.2</ele>
        <time>2023-08-06T08:39:48Z</time>
      </trkpt>
      <trkpt lat="45.6787" lon="-1.03227">
        <ele>15.6</ele>
        <time>2023-08-06T08:39:50Z</time>
      </trkpt>
      <trkpt lat="45.67862" lon="-1.03228">
        <ele>16.4</ele>
        <time>2023-08-06T08:39:53Z</time>
      </trkpt>
      <trkpt lat="45.67858" lon="-1.03228">
        <ele>16.6</ele>
        <time>2023-08-06T08:39:54Z</time>
      </trkpt>
      <trkpt lat="45.67846" lon="-1.03226">
        <ele>17.2</ele>
        <time>2023-08-06T08:39:58Z</time>
      </trkpt>
      <trkpt lat="45.67833" lon="-1.03232">
        <ele>17.8</ele>
        <time>2023-08-06T08:40:03Z</time>
      </trkpt>
      <trkpt lat="45.67831" lon="-1.03232">
        <ele>18.2</ele>
        <time>2023-08-06T08:40:04Z</time>
      </trkpt>
      <trkpt lat="45.67827" lon="-1.03232">
        <ele>18.6</ele>
        <time>2023-08-06T08:40:06Z</time>
      </trkpt>
      <trkpt lat="45.67826" lon="-1.03233">
        <ele>18.8</ele>
        <time>2023-08-06T08:40:07Z</time>
      </trkpt>
      <trkpt lat="45.67822" lon="-1.03235">
        <ele>19</ele>
        <time>2023-08-06T08:40:09Z</time>
      </trkpt>
      <trkpt lat="45.67814" lon="-1.03239">
        <ele>19.6</ele>
        <time>2023-08-06T08:40:12Z</time>
      </trkpt>
      <trkpt lat="45.6781" lon="-1.03243">
        <ele>19.6</ele>
        <time>2023-08-06T08:40:14Z</time>
      </trkpt>
      <trkpt lat="45.678" lon="-1.03248">
        <ele>19.8</ele>
        <time>2023-08-06T08:40:17Z</time>
      </trkpt>
      <trkpt lat="45.67793" lon="-1.03249">
        <ele>20</ele>
        <time>2023-08-06T08:40:19Z</time>
      </trkpt>
      <trkpt lat="45.67781" lon="-1.03254">
        <ele>20.4</ele>
        <time>2023-08-06T08:40:23Z</time>
      </trkpt>
      <trkpt lat="45.67779" lon="-1.03257">
        <ele>20.4</ele>
        <time>2023-08-06T08:40:24Z</time>
      </trkpt>
      <trkpt lat="45.67772" lon="-1.03266">
        <ele>21</ele>
        <time>2023-08-06T08:40:27Z</time>
      </trkpt>
      <trkpt lat="45.67767" lon="-1.0327">
        <ele>21</ele>
        <time>2023-08-06T08:40:28Z</time>
      </trkpt>
      <trkpt lat="45.67761" lon="-1.03273">
        <ele>21.2</ele>
        <time>2023-08-06T08:40:30Z</time>
      </trkpt>
      <trkpt lat="45.67757" lon="-1.03276">
        <ele>21.2</ele>
        <time>2023-08-06T08:40:32Z</time>
      </trkpt>
      <trkpt lat="45.67751" lon="-1.0328">
        <ele>21</ele>
        <time>2023-08-06T08:40:34Z</time>
      </trkpt>
      <trkpt lat="45.67737" lon="-1.03284">
        <ele>20.8</ele>
        <time>2023-08-06T08:40:38Z</time>
      </trkpt>
      <trkpt lat="45.67732" lon="-1.03283">
        <ele>20.8</ele>
        <time>2023-08-06T08:40:40Z</time>
      </trkpt>
      <trkpt lat="45.67717" lon="-1.0328">
        <ele>21</ele>
        <time>2023-08-06T08:40:45Z</time>
      </trkpt>
      <trkpt lat="45.67704" lon="-1.03276">
        <ele>21.4</ele>
        <time>2023-08-06T08:40:51Z</time>
      </trkpt>
      <trkpt lat="45.67703" lon="-1.03278">
        <ele>21.2</ele>
        <time>2023-08-06T08:40:52Z</time>
      </trkpt>
      <trkpt lat="45.67701" lon="-1.03286">
        <ele>21.2</ele>
        <time>2023-08-06T08:40:55Z</time>
      </trkpt>
      <trkpt lat="45.67695" lon="-1.03295">
        <ele>21.2</ele>
        <time>2023-08-06T08:40:59Z</time>
      </trkpt>
      <trkpt lat="45.67692" lon="-1.03296">
        <ele>21.2</ele>
        <time>2023-08-06T08:41:00Z</time>
      </trkpt>
      <trkpt lat="45.6769" lon="-1.03296">
        <ele>21.4</ele>
        <time>2023-08-06T08:41:01Z</time>
      </trkpt>
      <trkpt lat="45.67678" lon="-1.03294">
        <ele>21.6</ele>
        <time>2023-08-06T08:41:04Z</time>
      </trkpt>
      <trkpt lat="45.67675" lon="-1.03295">
        <ele>21.6</ele>
        <time>2023-08-06T08:41:05Z</time>
      </trkpt>
      <trkpt lat="45.67665" lon="-1.03296">
        <ele>21.6</ele>
        <time>2023-08-06T08:41:08Z</time>
      </trkpt>
      <trkpt lat="45.6765" lon="-1.03287">
        <ele>21.2</ele>
        <time>2023-08-06T08:41:12Z</time>
      </trkpt>
      <trkpt lat="45.67648" lon="-1.03284">
        <ele>21</ele>
        <time>2023-08-06T08:41:13Z</time>
      </trkpt>
      <trkpt lat="45.67639" lon="-1.03277">
        <ele>21.2</ele>
        <time>2023-08-06T08:41:16Z</time>
      </trkpt>
      <trkpt lat="45.67635" lon="-1.03273">
        <ele>21.2</ele>
        <time>2023-08-06T08:41:18Z</time>
      </trkpt>
      <trkpt lat="45.67633" lon="-1.03273">
        <ele>21.4</ele>
        <time>2023-08-06T08:41:19Z</time>
      </trkpt>
      <trkpt lat="45.6763" lon="-1.03273">
        <ele>21.6</ele>
        <time>2023-08-06T08:41:20Z</time>
      </trkpt>
      <trkpt lat="45.67625" lon="-1.0328">
        <ele>21.4</ele>
        <time>2023-08-06T08:41:23Z</time>
      </trkpt>
      <trkpt lat="45.67621" lon="-1.03285">
        <ele>21.4</ele>
        <time>2023-08-06T08:41:25Z</time>
      </trkpt>
      <trkpt lat="45.67615" lon="-1.03287">
        <ele>21.6</ele>
        <time>2023-08-06T08:41:27Z</time>
      </trkpt>
      <trkpt lat="45.67612" lon="-1.03288">
        <ele>21.6</ele>
        <time>2023-08-06T08:41:28Z</time>
      </trkpt>
      <trkpt lat="45.67607" lon="-1.03289">
        <ele>21.6</ele>
        <time>2023-08-06T08:41:29Z</time>
      </trkpt>
      <trkpt lat="45.67594" lon="-1.0329">
        <ele>21.6</ele>
        <time>2023-08-06T08:41:32Z</time>
      </trkpt>
      <trkpt lat="45.67585" lon="-1.03292">
        <ele>21.6</ele>
        <time>2023-08-06T08:41:34Z</time>
      </trkpt>
      <trkpt lat="45.6758" lon="-1.03295">
        <ele>21.4</ele>
        <time>2023-08-06T08:41:36Z</time>
      </trkpt>
      <trkpt lat="45.67573" lon="-1.03299">
        <ele>21.2</ele>
        <time>2023-08-06T08:41:38Z</time>
      </trkpt>
      <trkpt lat="45.67568" lon="-1.03304">
        <ele>21.2</ele>
        <time>2023-08-06T08:41:40Z</time>
      </trkpt>
      <trkpt lat="45.67566" lon="-1.03307">
        <ele>21.2</ele>
        <time>2023-08-06T08:41:41Z</time>
      </trkpt>
      <trkpt lat="45.67564" lon="-1.0331">
        <ele>21</ele>
        <time>2023-08-06T08:41:42Z</time>
      </trkpt>
      <trkpt lat="45.67557" lon="-1.03314">
        <ele>21</ele>
        <time>2023-08-06T08:41:44Z</time>
      </trkpt>
      <trkpt lat="45.67553" lon="-1.03315">
        <ele>21</ele>
        <time>2023-08-06T08:41:45Z</time>
      </trkpt>
      <trkpt lat="45.67533" lon="-1.0331">
        <ele>21.2</ele>
        <time>2023-08-06T08:41:50Z</time>
      </trkpt>
      <trkpt lat="45.67516" lon="-1.03306">
        <ele>21</ele>
        <time>2023-08-06T08:41:55Z</time>
      </trkpt>
      <trkpt lat="45.67499" lon="-1.03298">
        <ele>20.4</ele>
        <time>2023-08-06T08:42:01Z</time>
      </trkpt>
      <trkpt lat="45.6749" lon="-1.03291">
        <ele>20.4</ele>
        <time>2023-08-06T08:42:05Z</time>
      </trkpt>
      <trkpt lat="45.67488" lon="-1.03292">
        <ele>20.6</ele>
        <time>2023-08-06T08:42:06Z</time>
      </trkpt>
      <trkpt lat="45.67484" lon="-1.03295">
        <ele>20.8</ele>
        <time>2023-08-06T08:42:08Z</time>
      </trkpt>
      <trkpt lat="45.67482" lon="-1.03295">
        <ele>20.8</ele>
        <time>2023-08-06T08:42:09Z</time>
      </trkpt>
      <trkpt lat="45.6747" lon="-1.03298">
        <ele>20.8</ele>
        <time>2023-08-06T08:42:13Z</time>
      </trkpt>
      <trkpt lat="45.67466" lon="-1.03298">
        <ele>20.8</ele>
        <time>2023-08-06T08:42:14Z</time>
      </trkpt>
      <trkpt lat="45.67463" lon="-1.033">
        <ele>20.8</ele>
        <time>2023-08-06T08:42:15Z</time>
      </trkpt>
      <trkpt lat="45.67458" lon="-1.03305">
        <ele>20.8</ele>
        <time>2023-08-06T08:42:17Z</time>
      </trkpt>
      <trkpt lat="45.67455" lon="-1.03306">
        <ele>20.8</ele>
        <time>2023-08-06T08:42:18Z</time>
      </trkpt>
      <trkpt lat="45.67443" lon="-1.03301">
        <ele>20.8</ele>
        <time>2023-08-06T08:42:22Z</time>
      </trkpt>
      <trkpt lat="45.6744" lon="-1.03301">
        <ele>20.6</ele>
        <time>2023-08-06T08:42:23Z</time>
      </trkpt>
      <trkpt lat="45.67437" lon="-1.03305">
        <ele>20.4</ele>
        <time>2023-08-06T08:42:25Z</time>
      </trkpt>
      <trkpt lat="45.67432" lon="-1.03314">
        <ele>20.4</ele>
        <time>2023-08-06T08:42:29Z</time>
      </trkpt>
      <trkpt lat="45.67429" lon="-1.03315">
        <ele>20.4</ele>
        <time>2023-08-06T08:42:30Z</time>
      </trkpt>
      <trkpt lat="45.67426" lon="-1.03316">
        <ele>20.2</ele>
        <time>2023-08-06T08:42:31Z</time>
      </trkpt>
      <trkpt lat="45.67412" lon="-1.03316">
        <ele>20.2</ele>
        <time>2023-08-06T08:42:34Z</time>
      </trkpt>
      <trkpt lat="45.67406" lon="-1.03317">
        <ele>20</ele>
        <time>2023-08-06T08:42:35Z</time>
      </trkpt>
      <trkpt lat="45.67399" lon="-1.03317">
        <ele>20</ele>
        <time>2023-08-06T08:42:36Z</time>
      </trkpt>
      <trkpt lat="45.67384" lon="-1.03318">
        <ele>20</ele>
        <time>2023-08-06T08:42:39Z</time>
      </trkpt>
      <trkpt lat="45.67376" lon="-1.03317">
        <ele>20</ele>
        <time>2023-08-06T08:42:41Z</time>
      </trkpt>
      <trkpt lat="45.67353" lon="-1.03316">
        <ele>20.2</ele>
        <time>2023-08-06T08:42:46Z</time>
      </trkpt>
      <trkpt lat="45.67323" lon="-1.0331">
        <ele>19.8</ele>
        <time>2023-08-06T08:42:53Z</time>
      </trkpt>
      <trkpt lat="45.67306" lon="-1.03302">
        <ele>19.8</ele>
        <time>2023-08-06T08:42:57Z</time>
      </trkpt>
      <trkpt lat="45.67297" lon="-1.033">
        <ele>19.6</ele>
        <time>2023-08-06T08:42:59Z</time>
      </trkpt>
      <trkpt lat="45.67285" lon="-1.03295">
        <ele>19.4</ele>
        <time>2023-08-06T08:43:02Z</time>
      </trkpt>
      <trkpt lat="45.67277" lon="-1.03291">
        <ele>19.6</ele>
        <time>2023-08-06T08:43:04Z</time>
      </trkpt>
      <trkpt lat="45.67272" lon="-1.03288">
        <ele>19.4</ele>
        <time>2023-08-06T08:43:05Z</time>
      </trkpt>
      <trkpt lat="45.67264" lon="-1.03283">
        <ele>19.6</ele>
        <time>2023-08-06T08:43:07Z</time>
      </trkpt>
      <trkpt lat="45.67248" lon="-1.03274">
        <ele>20</ele>
        <time>2023-08-06T08:43:10Z</time>
      </trkpt>
      <trkpt lat="45.67243" lon="-1.0327">
        <ele>20</ele>
        <time>2023-08-06T08:43:11Z</time>
      </trkpt>
      <trkpt lat="45.67225" lon="-1.03254">
        <ele>20</ele>
        <time>2023-08-06T08:43:15Z</time>
      </trkpt>
      <trkpt lat="45.67198" lon="-1.03237">
        <ele>19.8</ele>
        <time>2023-08-06T08:43:20Z</time>
      </trkpt>
      <trkpt lat="45.67175" lon="-1.03228">
        <ele>19.8</ele>
        <time>2023-08-06T08:43:24Z</time>
      </trkpt>
      <trkpt lat="45.67164" lon="-1.03225">
        <ele>19.4</ele>
        <time>2023-08-06T08:43:26Z</time>
      </trkpt>
      <trkpt lat="45.67142" lon="-1.03221">
        <ele>19.4</ele>
        <time>2023-08-06T08:43:30Z</time>
      </trkpt>
      <trkpt lat="45.67135" lon="-1.03218">
        <ele>19.4</ele>
        <time>2023-08-06T08:43:31Z</time>
      </trkpt>
      <trkpt lat="45.67119" lon="-1.03212">
        <ele>18.8</ele>
        <time>2023-08-06T08:43:34Z</time>
      </trkpt>
      <trkpt lat="45.67106" lon="-1.03205">
        <ele>18.2</ele>
        <time>2023-08-06T08:43:37Z</time>
      </trkpt>
      <trkpt lat="45.6709" lon="-1.03192">
        <ele>18</ele>
        <time>2023-08-06T08:43:42Z</time>
      </trkpt>
      <trkpt lat="45.67089" lon="-1.0319">
        <ele>18</ele>
        <time>2023-08-06T08:43:43Z</time>
      </trkpt>
      <trkpt lat="45.67089" lon="-1.03189">
        <ele>18.2</ele>
        <time>2023-08-06T08:43:45Z</time>
      </trkpt>
      <trkpt lat="45.67091" lon="-1.03189">
        <ele>18.2</ele>
        <time>2023-08-06T08:43:48Z</time>
      </trkpt>
      <trkpt lat="45.67094" lon="-1.03186">
        <ele>18.4</ele>
        <time>2023-08-06T08:43:50Z</time>
      </trkpt>
      <trkpt lat="45.67095" lon="-1.03187">
        <ele>18.6</ele>
        <time>2023-08-06T08:43:52Z</time>
      </trkpt>
      <trkpt lat="45.67096" lon="-1.0319">
        <ele>18.6</ele>
        <time>2023-08-06T08:43:53Z</time>
      </trkpt>
      <trkpt lat="45.67096" lon="-1.03192">
        <ele>18.6</ele>
        <time>2023-08-06T08:43:54Z</time>
      </trkpt>
      <trkpt lat="45.67099" lon="-1.03194">
        <ele>18.6</ele>
        <time>2023-08-06T08:43:56Z</time>
      </trkpt>
      <trkpt lat="45.671" lon="-1.03193">
        <ele>18.6</ele>
        <time>2023-08-06T08:43:57Z</time>
      </trkpt>
      <trkpt lat="45.67102" lon="-1.03193">
        <ele>18.6</ele>
        <time>2023-08-06T08:43:58Z</time>
      </trkpt>
      <trkpt lat="45.67106" lon="-1.03196">
        <ele>18.8</ele>
        <time>2023-08-06T08:44:00Z</time>
      </trkpt>
      <trkpt lat="45.67118" lon="-1.03187">
        <ele>19</ele>
        <time>2023-08-06T08:44:05Z</time>
      </trkpt>
      <trkpt lat="45.67127" lon="-1.03182">
        <ele>19</ele>
        <time>2023-08-06T08:44:08Z</time>
      </trkpt>
      <trkpt lat="45.67129" lon="-1.03183">
        <ele>19.2</ele>
        <time>2023-08-06T08:44:09Z</time>
      </trkpt>
      <trkpt lat="45.67133" lon="-1.03184">
        <ele>19.2</ele>
        <time>2023-08-06T08:44:11Z</time>
      </trkpt>
      <trkpt lat="45.67138" lon="-1.0318">
        <ele>19.2</ele>
        <time>2023-08-06T08:44:14Z</time>
      </trkpt>
      <trkpt lat="45.67142" lon="-1.03175">
        <ele>19.2</ele>
        <time>2023-08-06T08:44:19Z</time>
      </trkpt>
      <trkpt lat="45.67142" lon="-1.03177">
        <ele>19.2</ele>
        <time>2023-08-06T08:44:20Z</time>
      </trkpt>
      <trkpt lat="45.67151" lon="-1.0318">
        <ele>19.4</ele>
        <time>2023-08-06T08:44:24Z</time>
      </trkpt>
      <trkpt lat="45.67154" lon="-1.0318">
        <ele>19.4</ele>
        <time>2023-08-06T08:44:25Z</time>
      </trkpt>
      <trkpt lat="45.67157" lon="-1.03181">
        <ele>19.2</ele>
        <time>2023-08-06T08:44:27Z</time>
      </trkpt>
      <trkpt lat="45.67159" lon="-1.03189">
        <ele>19.2</ele>
        <time>2023-08-06T08:44:30Z</time>
      </trkpt>
      <trkpt lat="45.67167" lon="-1.03199">
        <ele>19.4</ele>
        <time>2023-08-06T08:44:35Z</time>
      </trkpt>
      <trkpt lat="45.6717" lon="-1.03198">
        <ele>19.4</ele>
        <time>2023-08-06T08:44:36Z</time>
      </trkpt>
      <trkpt lat="45.67181" lon="-1.0319">
        <ele>19.4</ele>
        <time>2023-08-06T08:44:40Z</time>
      </trkpt>
      <trkpt lat="45.67184" lon="-1.03178">
        <ele>19.2</ele>
        <time>2023-08-06T08:44:44Z</time>
      </trkpt>
      <trkpt lat="45.67194" lon="-1.03166">
        <ele>19.6</ele>
        <time>2023-08-06T08:44:49Z</time>
      </trkpt>
      <trkpt lat="45.67205" lon="-1.0315">
        <ele>19.4</ele>
        <time>2023-08-06T08:44:54Z</time>
      </trkpt>
      <trkpt lat="45.67217" lon="-1.03126">
        <ele>19</ele>
        <time>2023-08-06T08:45:00Z</time>
      </trkpt>
      <trkpt lat="45.67219" lon="-1.03124">
        <ele>19</ele>
        <time>2023-08-06T08:45:01Z</time>
      </trkpt>
      <trkpt lat="45.67225" lon="-1.03125">
        <ele>19</ele>
        <time>2023-08-06T08:45:03Z</time>
      </trkpt>
      <trkpt lat="45.67231" lon="-1.03129">
        <ele>19</ele>
        <time>2023-08-06T08:45:05Z</time>
      </trkpt>
      <trkpt lat="45.6724" lon="-1.03136">
        <ele>18.6</ele>
        <time>2023-08-06T08:45:08Z</time>
      </trkpt>
      <trkpt lat="45.67246" lon="-1.03139">
        <ele>18.8</ele>
        <time>2023-08-06T08:45:10Z</time>
      </trkpt>
      <trkpt lat="45.67248" lon="-1.03142">
        <ele>19</ele>
        <time>2023-08-06T08:45:11Z</time>
      </trkpt>
      <trkpt lat="45.6725" lon="-1.03145">
        <ele>19.2</ele>
        <time>2023-08-06T08:45:12Z</time>
      </trkpt>
      <trkpt lat="45.67255" lon="-1.03153">
        <ele>19.4</ele>
        <time>2023-08-06T08:45:14Z</time>
      </trkpt>
      <trkpt lat="45.6726" lon="-1.03161">
        <ele>19.6</ele>
        <time>2023-08-06T08:45:16Z</time>
      </trkpt>
      <trkpt lat="45.6727" lon="-1.03176">
        <ele>19.8</ele>
        <time>2023-08-06T08:45:20Z</time>
      </trkpt>
      <trkpt lat="45.67278" lon="-1.03181">
        <ele>19.8</ele>
        <time>2023-08-06T08:45:22Z</time>
      </trkpt>
      <trkpt lat="45.67283" lon="-1.03183">
        <ele>19.6</ele>
        <time>2023-08-06T08:45:24Z</time>
      </trkpt>
      <trkpt lat="45.67294" lon="-1.03184">
        <ele>19.6</ele>
        <time>2023-08-06T08:45:26Z</time>
      </trkpt>
      <trkpt lat="45.67299" lon="-1.03184">
        <ele>19.6</ele>
        <time>2023-08-06T08:45:27Z</time>
      </trkpt>
      <trkpt lat="45.67325" lon="-1.0318">
        <ele>19.2</ele>
        <time>2023-08-06T08:45:32Z</time>
      </trkpt>
      <trkpt lat="45.67332" lon="-1.03178">
        <ele>19.2</ele>
        <time>2023-08-06T08:45:33Z</time>
      </trkpt>
      <trkpt lat="45.67363" lon="-1.03164">
        <ele>19.4</ele>
        <time>2023-08-06T08:45:39Z</time>
      </trkpt>
      <trkpt lat="45.67367" lon="-1.03163">
        <ele>19.4</ele>
        <time>2023-08-06T08:45:40Z</time>
      </trkpt>
      <trkpt lat="45.67382" lon="-1.03158">
        <ele>19.2</ele>
        <time>2023-08-06T08:45:45Z</time>
      </trkpt>
      <trkpt lat="45.67393" lon="-1.03147">
        <ele>19.4</ele>
        <time>2023-08-06T08:45:50Z</time>
      </trkpt>
      <trkpt lat="45.67406" lon="-1.03128">
        <ele>19.6</ele>
        <time>2023-08-06T08:45:54Z</time>
      </trkpt>
      <trkpt lat="45.67416" lon="-1.03113">
        <ele>19.8</ele>
        <time>2023-08-06T08:45:57Z</time>
      </trkpt>
      <trkpt lat="45.67423" lon="-1.0311">
        <ele>19.8</ele>
        <time>2023-08-06T08:45:59Z</time>
      </trkpt>
      <trkpt lat="45.67433" lon="-1.03101">
        <ele>20</ele>
        <time>2023-08-06T08:46:02Z</time>
      </trkpt>
      <trkpt lat="45.67451" lon="-1.03077">
        <ele>19.8</ele>
        <time>2023-08-06T08:46:07Z</time>
      </trkpt>
      <trkpt lat="45.67474" lon="-1.03054">
        <ele>19.8</ele>
        <time>2023-08-06T08:46:12Z</time>
      </trkpt>
      <trkpt lat="45.67477" lon="-1.03051">
        <ele>20</ele>
        <time>2023-08-06T08:46:13Z</time>
      </trkpt>
      <trkpt lat="45.67482" lon="-1.03051">
        <ele>19.6</ele>
        <time>2023-08-06T08:46:15Z</time>
      </trkpt>
      <trkpt lat="45.67489" lon="-1.0306">
        <ele>19.8</ele>
        <time>2023-08-06T08:46:19Z</time>
      </trkpt>
      <trkpt lat="45.67493" lon="-1.03067">
        <ele>19.8</ele>
        <time>2023-08-06T08:46:21Z</time>
      </trkpt>
      <trkpt lat="45.67497" lon="-1.03071">
        <ele>20</ele>
        <time>2023-08-06T08:46:23Z</time>
      </trkpt>
      <trkpt lat="45.67501" lon="-1.03077">
        <ele>20</ele>
        <time>2023-08-06T08:46:25Z</time>
      </trkpt>
      <trkpt lat="45.67502" lon="-1.03081">
        <ele>20</ele>
        <time>2023-08-06T08:46:26Z</time>
      </trkpt>
      <trkpt lat="45.67514" lon="-1.03083">
        <ele>19.8</ele>
        <time>2023-08-06T08:46:29Z</time>
      </trkpt>
      <trkpt lat="45.67525" lon="-1.0308">
        <ele>19.8</ele>
        <time>2023-08-06T08:46:31Z</time>
      </trkpt>
      <trkpt lat="45.67533" lon="-1.03082">
        <ele>20.2</ele>
        <time>2023-08-06T08:46:33Z</time>
      </trkpt>
      <trkpt lat="45.67538" lon="-1.03084">
        <ele>20.4</ele>
        <time>2023-08-06T08:46:35Z</time>
      </trkpt>
      <trkpt lat="45.67543" lon="-1.03085">
        <ele>20.4</ele>
        <time>2023-08-06T08:46:37Z</time>
      </trkpt>
      <trkpt lat="45.67551" lon="-1.03084">
        <ele>20.6</ele>
        <time>2023-08-06T08:46:39Z</time>
      </trkpt>
      <trkpt lat="45.67557" lon="-1.03079">
        <ele>20.4</ele>
        <time>2023-08-06T08:46:41Z</time>
      </trkpt>
      <trkpt lat="45.6756" lon="-1.03073">
        <ele>20.4</ele>
        <time>2023-08-06T08:46:43Z</time>
      </trkpt>
      <trkpt lat="45.67563" lon="-1.03062">
        <ele>20.2</ele>
        <time>2023-08-06T08:46:46Z</time>
      </trkpt>
      <trkpt lat="45.6757" lon="-1.03038">
        <ele>20</ele>
        <time>2023-08-06T08:46:53Z</time>
      </trkpt>
      <trkpt lat="45.67572" lon="-1.03031">
        <ele>20</ele>
        <time>2023-08-06T08:46:55Z</time>
      </trkpt>
      <trkpt lat="45.67577" lon="-1.0302">
        <ele>20</ele>
        <time>2023-08-06T08:46:58Z</time>
      </trkpt>
      <trkpt lat="45.67586" lon="-1.03011">
        <ele>20.2</ele>
        <time>2023-08-06T08:47:01Z</time>
      </trkpt>
      <trkpt lat="45.67589" lon="-1.03006">
        <ele>20.2</ele>
        <time>2023-08-06T08:47:02Z</time>
      </trkpt>
      <trkpt lat="45.67591" lon="-1.03001">
        <ele>20.2</ele>
        <time>2023-08-06T08:47:03Z</time>
      </trkpt>
      <trkpt lat="45.676" lon="-1.02987">
        <ele>20.4</ele>
        <time>2023-08-06T08:47:06Z</time>
      </trkpt>
      <trkpt lat="45.67604" lon="-1.02983">
        <ele>20.2</ele>
        <time>2023-08-06T08:47:08Z</time>
      </trkpt>
      <trkpt lat="45.6761" lon="-1.02977">
        <ele>20</ele>
        <time>2023-08-06T08:47:10Z</time>
      </trkpt>
      <trkpt lat="45.67619" lon="-1.02966">
        <ele>19.8</ele>
        <time>2023-08-06T08:47:14Z</time>
      </trkpt>
      <trkpt lat="45.67626" lon="-1.02959">
        <ele>19.8</ele>
        <time>2023-08-06T08:47:16Z</time>
      </trkpt>
      <trkpt lat="45.67632" lon="-1.02957">
        <ele>19.6</ele>
        <time>2023-08-06T08:47:18Z</time>
      </trkpt>
      <trkpt lat="45.67639" lon="-1.02954">
        <ele>19</ele>
        <time>2023-08-06T08:47:21Z</time>
      </trkpt>
      <trkpt lat="45.67645" lon="-1.02951">
        <ele>19</ele>
        <time>2023-08-06T08:47:23Z</time>
      </trkpt>
      <trkpt lat="45.67651" lon="-1.02947">
        <ele>19.2</ele>
        <time>2023-08-06T08:47:25Z</time>
      </trkpt>
      <trkpt lat="45.67656" lon="-1.02947">
        <ele>19.6</ele>
        <time>2023-08-06T08:47:27Z</time>
      </trkpt>
      <trkpt lat="45.67657" lon="-1.02948">
        <ele>19.6</ele>
        <time>2023-08-06T08:47:28Z</time>
      </trkpt>
      <trkpt lat="45.67662" lon="-1.02947">
        <ele>19.8</ele>
        <time>2023-08-06T08:47:30Z</time>
      </trkpt>
      <trkpt lat="45.6767" lon="-1.02944">
        <ele>19.8</ele>
        <time>2023-08-06T08:47:32Z</time>
      </trkpt>
      <trkpt lat="45.67677" lon="-1.02939">
        <ele>20</ele>
        <time>2023-08-06T08:47:34Z</time>
      </trkpt>
      <trkpt lat="45.67683" lon="-1.02939">
        <ele>20</ele>
        <time>2023-08-06T08:47:36Z</time>
      </trkpt>
      <trkpt lat="45.67692" lon="-1.02934">
        <ele>20</ele>
        <time>2023-08-06T08:47:38Z</time>
      </trkpt>
      <trkpt lat="45.67702" lon="-1.02926">
        <ele>19.6</ele>
        <time>2023-08-06T08:47:40Z</time>
      </trkpt>
      <trkpt lat="45.67709" lon="-1.02915">
        <ele>19.4</ele>
        <time>2023-08-06T08:47:42Z</time>
      </trkpt>
      <trkpt lat="45.67712" lon="-1.02907">
        <ele>19.4</ele>
        <time>2023-08-06T08:47:43Z</time>
      </trkpt>
      <trkpt lat="45.67713" lon="-1.02901">
        <ele>19.2</ele>
        <time>2023-08-06T08:47:44Z</time>
      </trkpt>
      <trkpt lat="45.67709" lon="-1.02881">
        <ele>19.2</ele>
        <time>2023-08-06T08:47:47Z</time>
      </trkpt>
      <trkpt lat="45.67705" lon="-1.02855">
        <ele>18.6</ele>
        <time>2023-08-06T08:47:51Z</time>
      </trkpt>
      <trkpt lat="45.67704" lon="-1.02847">
        <ele>18.6</ele>
        <time>2023-08-06T08:47:52Z</time>
      </trkpt>
      <trkpt lat="45.67703" lon="-1.0284">
        <ele>18.4</ele>
        <time>2023-08-06T08:47:53Z</time>
      </trkpt>
      <trkpt lat="45.67699" lon="-1.02819">
        <ele>17.6</ele>
        <time>2023-08-06T08:47:56Z</time>
      </trkpt>
      <trkpt lat="45.67695" lon="-1.02812">
        <ele>18</ele>
        <time>2023-08-06T08:47:58Z</time>
      </trkpt>
      <trkpt lat="45.67691" lon="-1.02812">
        <ele>18</ele>
        <time>2023-08-06T08:48:00Z</time>
      </trkpt>
      <trkpt lat="45.67684" lon="-1.02813">
        <ele>18.2</ele>
        <time>2023-08-06T08:48:02Z</time>
      </trkpt>
      <trkpt lat="45.67677" lon="-1.02816">
        <ele>18.2</ele>
        <time>2023-08-06T08:48:04Z</time>
      </trkpt>
      <trkpt lat="45.67671" lon="-1.0282">
        <ele>18.8</ele>
        <time>2023-08-06T08:48:06Z</time>
      </trkpt>
      <trkpt lat="45.67669" lon="-1.02822">
        <ele>19.2</ele>
        <time>2023-08-06T08:48:07Z</time>
      </trkpt>
      <trkpt lat="45.67665" lon="-1.02824">
        <ele>19.4</ele>
        <time>2023-08-06T08:48:08Z</time>
      </trkpt>
      <trkpt lat="45.67649" lon="-1.02827">
        <ele>19.8</ele>
        <time>2023-08-06T08:48:12Z</time>
      </trkpt>
      <trkpt lat="45.67642" lon="-1.02827">
        <ele>19.8</ele>
        <time>2023-08-06T08:48:14Z</time>
      </trkpt>
      <trkpt lat="45.6762" lon="-1.02829">
        <ele>19.6</ele>
        <time>2023-08-06T08:48:20Z</time>
      </trkpt>
      <trkpt lat="45.67594" lon="-1.02829">
        <ele>19.8</ele>
        <time>2023-08-06T08:48:25Z</time>
      </trkpt>
      <trkpt lat="45.67569" lon="-1.02826">
        <ele>20</ele>
        <time>2023-08-06T08:48:29Z</time>
      </trkpt>
      <trkpt lat="45.67564" lon="-1.02827">
        <ele>20</ele>
        <time>2023-08-06T08:48:30Z</time>
      </trkpt>
      <trkpt lat="45.6755" lon="-1.02829">
        <ele>20.2</ele>
        <time>2023-08-06T08:48:33Z</time>
      </trkpt>
      <trkpt lat="45.67543" lon="-1.02831">
        <ele>20.2</ele>
        <time>2023-08-06T08:48:35Z</time>
      </trkpt>
      <trkpt lat="45.67535" lon="-1.02833">
        <ele>20.2</ele>
        <time>2023-08-06T08:48:38Z</time>
      </trkpt>
      <trkpt lat="45.67529" lon="-1.02838">
        <ele>20</ele>
        <time>2023-08-06T08:48:40Z</time>
      </trkpt>
      <trkpt lat="45.67509" lon="-1.02853">
        <ele>20</ele>
        <time>2023-08-06T08:48:44Z</time>
      </trkpt>
      <trkpt lat="45.67504" lon="-1.0286">
        <ele>20</ele>
        <time>2023-08-06T08:48:46Z</time>
      </trkpt>
      <trkpt lat="45.67498" lon="-1.02868">
        <ele>19.8</ele>
        <time>2023-08-06T08:48:48Z</time>
      </trkpt>
      <trkpt lat="45.67496" lon="-1.02872">
        <ele>19.8</ele>
        <time>2023-08-06T08:48:49Z</time>
      </trkpt>
      <trkpt lat="45.67493" lon="-1.02877">
        <ele>19.8</ele>
        <time>2023-08-06T08:48:50Z</time>
      </trkpt>
      <trkpt lat="45.67481" lon="-1.02896">
        <ele>19.8</ele>
        <time>2023-08-06T08:48:54Z</time>
      </trkpt>
      <trkpt lat="45.67473" lon="-1.02911">
        <ele>20</ele>
        <time>2023-08-06T08:48:57Z</time>
      </trkpt>
      <trkpt lat="45.67464" lon="-1.02922">
        <ele>19.8</ele>
        <time>2023-08-06T08:48:59Z</time>
      </trkpt>
      <trkpt lat="45.67456" lon="-1.02937">
        <ele>19.8</ele>
        <time>2023-08-06T08:49:02Z</time>
      </trkpt>
      <trkpt lat="45.67447" lon="-1.02952">
        <ele>19.4</ele>
        <time>2023-08-06T08:49:05Z</time>
      </trkpt>
      <trkpt lat="45.67437" lon="-1.02973">
        <ele>19.4</ele>
        <time>2023-08-06T08:49:09Z</time>
      </trkpt>
      <trkpt lat="45.67433" lon="-1.02983">
        <ele>19.4</ele>
        <time>2023-08-06T08:49:11Z</time>
      </trkpt>
      <trkpt lat="45.67427" lon="-1.02999">
        <ele>19.4</ele>
        <time>2023-08-06T08:49:14Z</time>
      </trkpt>
      <trkpt lat="45.67422" lon="-1.03009">
        <ele>19.4</ele>
        <time>2023-08-06T08:49:16Z</time>
      </trkpt>
      <trkpt lat="45.6742" lon="-1.03015">
        <ele>19.4</ele>
        <time>2023-08-06T08:49:17Z</time>
      </trkpt>
      <trkpt lat="45.67417" lon="-1.03028">
        <ele>19.4</ele>
        <time>2023-08-06T08:49:20Z</time>
      </trkpt>
      <trkpt lat="45.67415" lon="-1.03036">
        <ele>19.4</ele>
        <time>2023-08-06T08:49:22Z</time>
      </trkpt>
      <trkpt lat="45.67408" lon="-1.03047">
        <ele>19.2</ele>
        <time>2023-08-06T08:49:25Z</time>
      </trkpt>
      <trkpt lat="45.67405" lon="-1.0305">
        <ele>19.2</ele>
        <time>2023-08-06T08:49:26Z</time>
      </trkpt>
      <trkpt lat="45.67402" lon="-1.03053">
        <ele>19.2</ele>
        <time>2023-08-06T08:49:27Z</time>
      </trkpt>
      <trkpt lat="45.67394" lon="-1.03057">
        <ele>19.4</ele>
        <time>2023-08-06T08:49:30Z</time>
      </trkpt>
      <trkpt lat="45.67391" lon="-1.03058">
        <ele>19.4</ele>
        <time>2023-08-06T08:49:31Z</time>
      </trkpt>
      <trkpt lat="45.67387" lon="-1.03059">
        <ele>19.6</ele>
        <time>2023-08-06T08:49:32Z</time>
      </trkpt>
      <trkpt lat="45.67367" lon="-1.03064">
        <ele>19.6</ele>
        <time>2023-08-06T08:49:34Z</time>
      </trkpt>
      <trkpt lat="45.67361" lon="-1.03061">
        <ele>19.6</ele>
        <time>2023-08-06T08:49:36Z</time>
      </trkpt>
      <trkpt lat="45.6732" lon="-1.03069">
        <ele>19.6</ele>
        <time>2023-08-06T08:49:41Z</time>
      </trkpt>
      <trkpt lat="45.67317" lon="-1.03068">
        <ele>19.6</ele>
        <time>2023-08-06T08:49:42Z</time>
      </trkpt>
      <trkpt lat="45.67314" lon="-1.03066">
        <ele>19.6</ele>
        <time>2023-08-06T08:49:43Z</time>
      </trkpt>
      <trkpt lat="45.67285" lon="-1.03076">
        <ele>19.2</ele>
        <time>2023-08-06T08:49:45Z</time>
      </trkpt>
      <trkpt lat="45.67271" lon="-1.03076">
        <ele>19</ele>
        <time>2023-08-06T08:49:47Z</time>
      </trkpt>
      <trkpt lat="45.67251" lon="-1.03079">
        <ele>19.2</ele>
        <time>2023-08-06T08:49:50Z</time>
      </trkpt>
      <trkpt lat="45.6724" lon="-1.03078">
        <ele>19.2</ele>
        <time>2023-08-06T08:49:52Z</time>
      </trkpt>
      <trkpt lat="45.67236" lon="-1.03079">
        <ele>19.4</ele>
        <time>2023-08-06T08:49:53Z</time>
      </trkpt>
      <trkpt lat="45.67215" lon="-1.03086">
        <ele>19</ele>
        <time>2023-08-06T08:49:58Z</time>
      </trkpt>
      <trkpt lat="45.67213" lon="-1.03088">
        <ele>19</ele>
        <time>2023-08-06T08:50:01Z</time>
      </trkpt>
      <trkpt lat="45.67212" lon="-1.0309">
        <ele>19</ele>
        <time>2023-08-06T08:50:03Z</time>
      </trkpt>
      <trkpt lat="45.67209" lon="-1.03097">
        <ele>19.2</ele>
        <time>2023-08-06T08:50:07Z</time>
      </trkpt>
      <trkpt lat="45.67208" lon="-1.03097">
        <ele>19.2</ele>
        <time>2023-08-06T08:50:08Z</time>
      </trkpt>
      <trkpt lat="45.67207" lon="-1.03098">
        <ele>19.4</ele>
        <time>2023-08-06T08:50:09Z</time>
      </trkpt>
      <trkpt lat="45.67206" lon="-1.031">
        <ele>19.2</ele>
        <time>2023-08-06T08:50:11Z</time>
      </trkpt>
      <trkpt lat="45.67205" lon="-1.03104">
        <ele>19</ele>
        <time>2023-08-06T08:50:14Z</time>
      </trkpt>
      <trkpt lat="45.67204" lon="-1.03108">
        <ele>19</ele>
        <time>2023-08-06T08:50:15Z</time>
      </trkpt>
      <trkpt lat="45.67201" lon="-1.03113">
        <ele>19.2</ele>
        <time>2023-08-06T08:50:18Z</time>
      </trkpt>
      <trkpt lat="45.67198" lon="-1.03114">
        <ele>19.2</ele>
        <time>2023-08-06T08:50:20Z</time>
      </trkpt>
      <trkpt lat="45.67196" lon="-1.03121">
        <ele>19.2</ele>
        <time>2023-08-06T08:50:23Z</time>
      </trkpt>
      <trkpt lat="45.6719" lon="-1.0313">
        <ele>19</ele>
        <time>2023-08-06T08:50:27Z</time>
      </trkpt>
      <trkpt lat="45.67189" lon="-1.03131">
        <ele>19.2</ele>
        <time>2023-08-06T08:50:28Z</time>
      </trkpt>
      <trkpt lat="45.67185" lon="-1.03136">
        <ele>20</ele>
        <time>2023-08-06T08:50:32Z</time>
      </trkpt>
      <trkpt lat="45.67181" lon="-1.03139">
        <ele>20</ele>
        <time>2023-08-06T08:50:33Z</time>
      </trkpt>
      <trkpt lat="45.67178" lon="-1.03139">
        <ele>20</ele>
        <time>2023-08-06T08:50:34Z</time>
      </trkpt>
      <trkpt lat="45.67172" lon="-1.0314">
        <ele>19.6</ele>
        <time>2023-08-06T08:50:36Z</time>
      </trkpt>
      <trkpt lat="45.67162" lon="-1.03147">
        <ele>19.4</ele>
        <time>2023-08-06T08:50:39Z</time>
      </trkpt>
      <trkpt lat="45.67156" lon="-1.03152">
        <ele>19.2</ele>
        <time>2023-08-06T08:50:41Z</time>
      </trkpt>
      <trkpt lat="45.67144" lon="-1.03156">
        <ele>19</ele>
        <time>2023-08-06T08:50:43Z</time>
      </trkpt>
      <trkpt lat="45.6714" lon="-1.03157">
        <ele>19</ele>
        <time>2023-08-06T08:50:44Z</time>
      </trkpt>
      <trkpt lat="45.6713" lon="-1.03157">
        <ele>18.8</ele>
        <time>2023-08-06T08:50:47Z</time>
      </trkpt>
      <trkpt lat="45.67127" lon="-1.03156">
        <ele>18.8</ele>
        <time>2023-08-06T08:50:48Z</time>
      </trkpt>
      <trkpt lat="45.67116" lon="-1.03152">
        <ele>18.8</ele>
        <time>2023-08-06T08:50:51Z</time>
      </trkpt>
      <trkpt lat="45.67114" lon="-1.03152">
        <ele>19</ele>
        <time>2023-08-06T08:50:52Z</time>
      </trkpt>
      <trkpt lat="45.67112" lon="-1.03153">
        <ele>19</ele>
        <time>2023-08-06T08:50:53Z</time>
      </trkpt>
      <trkpt lat="45.6711" lon="-1.03155">
        <ele>18.6</ele>
        <time>2023-08-06T08:50:55Z</time>
      </trkpt>
      <trkpt lat="45.67107" lon="-1.0316">
        <ele>18.4</ele>
        <time>2023-08-06T08:50:57Z</time>
      </trkpt>
      <trkpt lat="45.67104" lon="-1.03166">
        <ele>18.4</ele>
        <time>2023-08-06T08:50:59Z</time>
      </trkpt>
      <trkpt lat="45.67102" lon="-1.03168">
        <ele>18.6</ele>
        <time>2023-08-06T08:51:00Z</time>
      </trkpt>
      <trkpt lat="45.67097" lon="-1.03171">
        <ele>18.6</ele>
        <time>2023-08-06T08:51:01Z</time>
      </trkpt>
      <trkpt lat="45.67087" lon="-1.03172">
        <ele>18.6</ele>
        <time>2023-08-06T08:51:03Z</time>
      </trkpt>
      <trkpt lat="45.67059" lon="-1.03162">
        <ele>18.4</ele>
        <time>2023-08-06T08:51:08Z</time>
      </trkpt>
      <trkpt lat="45.67045" lon="-1.03159">
        <ele>18</ele>
        <time>2023-08-06T08:51:10Z</time>
      </trkpt>
      <trkpt lat="45.67035" lon="-1.03164">
        <ele>17.8</ele>
        <time>2023-08-06T08:51:12Z</time>
      </trkpt>
      <trkpt lat="45.67031" lon="-1.03169">
        <ele>17.6</ele>
        <time>2023-08-06T08:51:13Z</time>
      </trkpt>
      <trkpt lat="45.67027" lon="-1.03174">
        <ele>17.6</ele>
        <time>2023-08-06T08:51:14Z</time>
      </trkpt>
      <trkpt lat="45.67022" lon="-1.03187">
        <ele>17.6</ele>
        <time>2023-08-06T08:51:17Z</time>
      </trkpt>
      <trkpt lat="45.67015" lon="-1.03196">
        <ele>17.6</ele>
        <time>2023-08-06T08:51:19Z</time>
      </trkpt>
      <trkpt lat="45.67008" lon="-1.03203">
        <ele>17.4</ele>
        <time>2023-08-06T08:51:21Z</time>
      </trkpt>
      <trkpt lat="45.66993" lon="-1.03211">
        <ele>17.2</ele>
        <time>2023-08-06T08:51:26Z</time>
      </trkpt>
      <trkpt lat="45.6698" lon="-1.03218">
        <ele>17.4</ele>
        <time>2023-08-06T08:51:33Z</time>
      </trkpt>
      <trkpt lat="45.66968" lon="-1.03232">
        <ele>17.4</ele>
        <time>2023-08-06T08:51:38Z</time>
      </trkpt>
      <trkpt lat="45.66961" lon="-1.03235">
        <ele>17.4</ele>
        <time>2023-08-06T08:51:40Z</time>
      </trkpt>
      <trkpt lat="45.66952" lon="-1.03244">
        <ele>17.2</ele>
        <time>2023-08-06T08:51:43Z</time>
      </trkpt>
      <trkpt lat="45.66945" lon="-1.03254">
        <ele>16.8</ele>
        <time>2023-08-06T08:51:46Z</time>
      </trkpt>
      <trkpt lat="45.66939" lon="-1.03262">
        <ele>16.8</ele>
        <time>2023-08-06T08:51:48Z</time>
      </trkpt>
      <trkpt lat="45.66933" lon="-1.03269">
        <ele>16.8</ele>
        <time>2023-08-06T08:51:50Z</time>
      </trkpt>
      <trkpt lat="45.6693" lon="-1.03272">
        <ele>16.4</ele>
        <time>2023-08-06T08:51:51Z</time>
      </trkpt>
      <trkpt lat="45.66923" lon="-1.03279">
        <ele>16</ele>
        <time>2023-08-06T08:51:53Z</time>
      </trkpt>
      <trkpt lat="45.66914" lon="-1.03287">
        <ele>15.4</ele>
        <time>2023-08-06T08:51:56Z</time>
      </trkpt>
      <trkpt lat="45.66911" lon="-1.0329">
        <ele>15.4</ele>
        <time>2023-08-06T08:51:57Z</time>
      </trkpt>
      <trkpt lat="45.669" lon="-1.03298">
        <ele>15.6</ele>
        <time>2023-08-06T08:52:00Z</time>
      </trkpt>
      <trkpt lat="45.66895" lon="-1.033">
        <ele>15.8</ele>
        <time>2023-08-06T08:52:01Z</time>
      </trkpt>
      <trkpt lat="45.66881" lon="-1.03302">
        <ele>16</ele>
        <time>2023-08-06T08:52:04Z</time>
      </trkpt>
      <trkpt lat="45.66879" lon="-1.03303">
        <ele>16</ele>
        <time>2023-08-06T08:52:05Z</time>
      </trkpt>
      <trkpt lat="45.66871" lon="-1.03309">
        <ele>15.4</ele>
        <time>2023-08-06T08:52:08Z</time>
      </trkpt>
      <trkpt lat="45.66865" lon="-1.03309">
        <ele>15.4</ele>
        <time>2023-08-06T08:52:10Z</time>
      </trkpt>
      <trkpt lat="45.66865" lon="-1.03305">
        <ele>15.4</ele>
        <time>2023-08-06T08:52:12Z</time>
      </trkpt>
      <trkpt lat="45.66859" lon="-1.03299">
        <ele>15.8</ele>
        <time>2023-08-06T08:52:14Z</time>
      </trkpt>
      <trkpt lat="45.66855" lon="-1.03297">
        <ele>15.6</ele>
        <time>2023-08-06T08:52:15Z</time>
      </trkpt>
      <trkpt lat="45.66848" lon="-1.03292">
        <ele>15.6</ele>
        <time>2023-08-06T08:52:17Z</time>
      </trkpt>
      <trkpt lat="45.66842" lon="-1.03286">
        <ele>15.4</ele>
        <time>2023-08-06T08:52:19Z</time>
      </trkpt>
      <trkpt lat="45.66837" lon="-1.03277">
        <ele>15</ele>
        <time>2023-08-06T08:52:21Z</time>
      </trkpt>
      <trkpt lat="45.66835" lon="-1.03268">
        <ele>14.6</ele>
        <time>2023-08-06T08:52:23Z</time>
      </trkpt>
      <trkpt lat="45.66835" lon="-1.03264">
        <ele>14.8</ele>
        <time>2023-08-06T08:52:24Z</time>
      </trkpt>
      <trkpt lat="45.66834" lon="-1.0326">
        <ele>14.6</ele>
        <time>2023-08-06T08:52:25Z</time>
      </trkpt>
      <trkpt lat="45.66835" lon="-1.03249">
        <ele>14.6</ele>
        <time>2023-08-06T08:52:28Z</time>
      </trkpt>
      <trkpt lat="45.66836" lon="-1.03248">
        <ele>14.6</ele>
        <time>2023-08-06T08:52:29Z</time>
      </trkpt>
      <trkpt lat="45.66838" lon="-1.03248">
        <ele>14.6</ele>
        <time>2023-08-06T08:52:30Z</time>
      </trkpt>
      <trkpt lat="45.6684" lon="-1.03244">
        <ele>14.6</ele>
        <time>2023-08-06T08:52:32Z</time>
      </trkpt>
      <trkpt lat="45.66842" lon="-1.03244">
        <ele>14.6</ele>
        <time>2023-08-06T08:52:33Z</time>
      </trkpt>
      <trkpt lat="45.66843" lon="-1.03245">
        <ele>14.6</ele>
        <time>2023-08-06T08:52:34Z</time>
      </trkpt>
      <trkpt lat="45.66848" lon="-1.03251">
        <ele>15</ele>
        <time>2023-08-06T08:52:37Z</time>
      </trkpt>
      <trkpt lat="45.66854" lon="-1.03268">
        <ele>15.4</ele>
        <time>2023-08-06T08:52:42Z</time>
      </trkpt>
      <trkpt lat="45.66856" lon="-1.03271">
        <ele>15.6</ele>
        <time>2023-08-06T08:52:43Z</time>
      </trkpt>
      <trkpt lat="45.66859" lon="-1.03272">
        <ele>15.6</ele>
        <time>2023-08-06T08:52:44Z</time>
      </trkpt>
      <trkpt lat="45.66864" lon="-1.0327">
        <ele>15.8</ele>
        <time>2023-08-06T08:52:46Z</time>
      </trkpt>
      <trkpt lat="45.66867" lon="-1.03269">
        <ele>15.6</ele>
        <time>2023-08-06T08:52:47Z</time>
      </trkpt>
      <trkpt lat="45.6687" lon="-1.03267">
        <ele>15.6</ele>
        <time>2023-08-06T08:52:48Z</time>
      </trkpt>
      <trkpt lat="45.66878" lon="-1.03262">
        <ele>15.6</ele>
        <time>2023-08-06T08:52:50Z</time>
      </trkpt>
      <trkpt lat="45.66884" lon="-1.03254">
        <ele>15.6</ele>
        <time>2023-08-06T08:52:52Z</time>
      </trkpt>
      <trkpt lat="45.66889" lon="-1.03243">
        <ele>15.8</ele>
        <time>2023-08-06T08:52:55Z</time>
      </trkpt>
      <trkpt lat="45.66892" lon="-1.03241">
        <ele>16</ele>
        <time>2023-08-06T08:52:56Z</time>
      </trkpt>
      <trkpt lat="45.66894" lon="-1.03239">
        <ele>16</ele>
        <time>2023-08-06T08:52:57Z</time>
      </trkpt>
      <trkpt lat="45.66902" lon="-1.03235">
        <ele>16.4</ele>
        <time>2023-08-06T08:52:59Z</time>
      </trkpt>
      <trkpt lat="45.66908" lon="-1.03231">
        <ele>16.4</ele>
        <time>2023-08-06T08:53:01Z</time>
      </trkpt>
      <trkpt lat="45.66911" lon="-1.03228">
        <ele>16.4</ele>
        <time>2023-08-06T08:53:02Z</time>
      </trkpt>
      <trkpt lat="45.66913" lon="-1.03225">
        <ele>16.4</ele>
        <time>2023-08-06T08:53:03Z</time>
      </trkpt>
      <trkpt lat="45.66915" lon="-1.0322">
        <ele>16.4</ele>
        <time>2023-08-06T08:53:05Z</time>
      </trkpt>
      <trkpt lat="45.66916" lon="-1.03217">
        <ele>16.4</ele>
        <time>2023-08-06T08:53:06Z</time>
      </trkpt>
      <trkpt lat="45.66916" lon="-1.03211">
        <ele>16.4</ele>
        <time>2023-08-06T08:53:08Z</time>
      </trkpt>
      <trkpt lat="45.66916" lon="-1.03202">
        <ele>16.4</ele>
        <time>2023-08-06T08:53:10Z</time>
      </trkpt>
      <trkpt lat="45.66918" lon="-1.03176">
        <ele>16</ele>
        <time>2023-08-06T08:53:15Z</time>
      </trkpt>
      <trkpt lat="45.6692" lon="-1.03165">
        <ele>16.2</ele>
        <time>2023-08-06T08:53:17Z</time>
      </trkpt>
      <trkpt lat="45.66924" lon="-1.03153">
        <ele>16.2</ele>
        <time>2023-08-06T08:53:19Z</time>
      </trkpt>
      <trkpt lat="45.66924" lon="-1.03148">
        <ele>16.2</ele>
        <time>2023-08-06T08:53:20Z</time>
      </trkpt>
      <trkpt lat="45.66923" lon="-1.03144">
        <ele>16</ele>
        <time>2023-08-06T08:53:21Z</time>
      </trkpt>
      <trkpt lat="45.66918" lon="-1.03138">
        <ele>15.6</ele>
        <time>2023-08-06T08:53:23Z</time>
      </trkpt>
      <trkpt lat="45.66912" lon="-1.03134">
        <ele>15.4</ele>
        <time>2023-08-06T08:53:25Z</time>
      </trkpt>
      <trkpt lat="45.66908" lon="-1.03133">
        <ele>15.2</ele>
        <time>2023-08-06T08:53:27Z</time>
      </trkpt>
      <trkpt lat="45.66904" lon="-1.03141">
        <ele>14.8</ele>
        <time>2023-08-06T08:53:32Z</time>
      </trkpt>
      <trkpt lat="45.66902" lon="-1.03143">
        <ele>15</ele>
        <time>2023-08-06T08:53:33Z</time>
      </trkpt>
      <trkpt lat="45.66903" lon="-1.03149">
        <ele>15.2</ele>
        <time>2023-08-06T08:53:36Z</time>
      </trkpt>
      <trkpt lat="45.66903" lon="-1.0315">
        <ele>15.2</ele>
        <time>2023-08-06T08:53:37Z</time>
      </trkpt>
      <trkpt lat="45.66898" lon="-1.03151">
        <ele>15.2</ele>
        <time>2023-08-06T08:53:39Z</time>
      </trkpt>
      <trkpt lat="45.66894" lon="-1.0315">
        <ele>15.2</ele>
        <time>2023-08-06T08:53:41Z</time>
      </trkpt>
      <trkpt lat="45.66887" lon="-1.03151">
        <ele>15.2</ele>
        <time>2023-08-06T08:53:43Z</time>
      </trkpt>
      <trkpt lat="45.66885" lon="-1.03149">
        <ele>15.2</ele>
        <time>2023-08-06T08:53:44Z</time>
      </trkpt>
      <trkpt lat="45.66882" lon="-1.03148">
        <ele>15.2</ele>
        <time>2023-08-06T08:53:45Z</time>
      </trkpt>
      <trkpt lat="45.66878" lon="-1.0315">
        <ele>15</ele>
        <time>2023-08-06T08:53:47Z</time>
      </trkpt>
      <trkpt lat="45.66875" lon="-1.03152">
        <ele>14.8</ele>
        <time>2023-08-06T08:53:48Z</time>
      </trkpt>
      <trkpt lat="45.66873" lon="-1.03154">
        <ele>14.6</ele>
        <time>2023-08-06T08:53:49Z</time>
      </trkpt>
      <trkpt lat="45.66868" lon="-1.0316">
        <ele>14.4</ele>
        <time>2023-08-06T08:53:51Z</time>
      </trkpt>
      <trkpt lat="45.66867" lon="-1.03162">
        <ele>14.4</ele>
        <time>2023-08-06T08:53:52Z</time>
      </trkpt>
      <trkpt lat="45.66865" lon="-1.03164">
        <ele>14.4</ele>
        <time>2023-08-06T08:53:53Z</time>
      </trkpt>
      <trkpt lat="45.66856" lon="-1.03178">
        <ele>13.8</ele>
        <time>2023-08-06T08:53:58Z</time>
      </trkpt>
      <trkpt lat="45.66854" lon="-1.03182">
        <ele>13.8</ele>
        <time>2023-08-06T08:53:59Z</time>
      </trkpt>
      <trkpt lat="45.66849" lon="-1.03193">
        <ele>13.8</ele>
        <time>2023-08-06T08:54:03Z</time>
      </trkpt>
      <trkpt lat="45.66848" lon="-1.03194">
        <ele>13.8</ele>
        <time>2023-08-06T08:54:04Z</time>
      </trkpt>
      <trkpt lat="45.66842" lon="-1.03207">
        <ele>14</ele>
        <time>2023-08-06T08:54:08Z</time>
      </trkpt>
      <trkpt lat="45.66839" lon="-1.03217">
        <ele>14</ele>
        <time>2023-08-06T08:54:11Z</time>
      </trkpt>
      <trkpt lat="45.66831" lon="-1.03227">
        <ele>13.8</ele>
        <time>2023-08-06T08:54:14Z</time>
      </trkpt>
      <trkpt lat="45.66828" lon="-1.03235">
        <ele>13.6</ele>
        <time>2023-08-06T08:54:16Z</time>
      </trkpt>
      <trkpt lat="45.66824" lon="-1.03242">
        <ele>13.8</ele>
        <time>2023-08-06T08:54:18Z</time>
      </trkpt>
      <trkpt lat="45.66816" lon="-1.03264">
        <ele>14</ele>
        <time>2023-08-06T08:54:23Z</time>
      </trkpt>
      <trkpt lat="45.66803" lon="-1.03292">
        <ele>14.2</ele>
        <time>2023-08-06T08:54:28Z</time>
      </trkpt>
      <trkpt lat="45.668" lon="-1.03297">
        <ele>14</ele>
        <time>2023-08-06T08:54:29Z</time>
      </trkpt>
      <trkpt lat="45.66796" lon="-1.03308">
        <ele>13.6</ele>
        <time>2023-08-06T08:54:31Z</time>
      </trkpt>
      <trkpt lat="45.66796" lon="-1.03313">
        <ele>13.4</ele>
        <time>2023-08-06T08:54:32Z</time>
      </trkpt>
      <trkpt lat="45.66788" lon="-1.03328">
        <ele>13.2</ele>
        <time>2023-08-06T08:54:35Z</time>
      </trkpt>
      <trkpt lat="45.66784" lon="-1.03333">
        <ele>13.2</ele>
        <time>2023-08-06T08:54:36Z</time>
      </trkpt>
      <trkpt lat="45.66781" lon="-1.03355">
        <ele>13.8</ele>
        <time>2023-08-06T08:54:41Z</time>
      </trkpt>
      <trkpt lat="45.66779" lon="-1.03362">
        <ele>13.8</ele>
        <time>2023-08-06T08:54:43Z</time>
      </trkpt>
      <trkpt lat="45.66778" lon="-1.03365">
        <ele>13.8</ele>
        <time>2023-08-06T08:54:45Z</time>
      </trkpt>
      <trkpt lat="45.66776" lon="-1.03373">
        <ele>13.6</ele>
        <time>2023-08-06T08:54:50Z</time>
      </trkpt>
      <trkpt lat="45.6677" lon="-1.03377">
        <ele>13.4</ele>
        <time>2023-08-06T08:54:52Z</time>
      </trkpt>
      <trkpt lat="45.6677" lon="-1.03381">
        <ele>13.2</ele>
        <time>2023-08-06T08:54:54Z</time>
      </trkpt>
      <trkpt lat="45.6677" lon="-1.03386">
        <ele>13.2</ele>
        <time>2023-08-06T08:54:56Z</time>
      </trkpt>
      <trkpt lat="45.6677" lon="-1.03392">
        <ele>13.2</ele>
        <time>2023-08-06T08:55:00Z</time>
      </trkpt>
      <trkpt lat="45.66771" lon="-1.03401">
        <ele>13.2</ele>
        <time>2023-08-06T08:55:10Z</time>
      </trkpt>
      <trkpt lat="45.66774" lon="-1.03407">
        <ele>13</ele>
        <time>2023-08-06T08:55:15Z</time>
      </trkpt>
      <trkpt lat="45.66775" lon="-1.03411">
        <ele>13.4</ele>
        <time>2023-08-06T08:55:21Z</time>
      </trkpt>
      <trkpt lat="45.66776" lon="-1.03414">
        <ele>13.6</ele>
        <time>2023-08-06T08:55:31Z</time>
      </trkpt>
      <trkpt lat="45.66779" lon="-1.03416">
        <ele>13.6</ele>
        <time>2023-08-06T08:55:42Z</time>
      </trkpt>
      <trkpt lat="45.66779" lon="-1.03417">
        <ele>12.6</ele>
        <time>2023-08-06T08:55:53Z</time>
      </trkpt>
      <trkpt lat="45.66779" lon="-1.03418">
        <ele>12.2</ele>
        <time>2023-08-06T08:56:03Z</time>
      </trkpt>
      <trkpt lat="45.66779" lon="-1.03419">
        <ele>12.2</ele>
        <time>2023-08-06T08:56:10Z</time>
      </trkpt>
      <trkpt lat="45.66779" lon="-1.03419">
        <ele>12.4</ele>
        <time>2023-08-06T08:56:24Z</time>
      </trkpt>
      <trkpt lat="45.6678" lon="-1.03417">
        <ele>12.2</ele>
        <time>2023-08-06T08:56:39Z</time>
      </trkpt>
      <trkpt lat="45.6678" lon="-1.03416">
        <ele>12</ele>
        <time>2023-08-06T08:56:49Z</time>
      </trkpt>
      <trkpt lat="45.6678" lon="-1.03417">
        <ele>12.4</ele>
        <time>2023-08-06T08:56:57Z</time>
      </trkpt>
      <trkpt lat="45.6678" lon="-1.03417">
        <ele>12.6</ele>
        <time>2023-08-06T08:57:14Z</time>
      </trkpt>
      <trkpt lat="45.66781" lon="-1.0342">
        <ele>12.6</ele>
        <time>2023-08-06T08:57:34Z</time>
      </trkpt>
      <trkpt lat="45.6678" lon="-1.03421">
        <ele>12.6</ele>
        <time>2023-08-06T08:57:50Z</time>
      </trkpt>
      <trkpt lat="45.6678" lon="-1.03422">
        <ele>12.6</ele>
        <time>2023-08-06T08:58:08Z</time>
      </trkpt>
      <trkpt lat="45.6678" lon="-1.0342">
        <ele>12.6</ele>
        <time>2023-08-06T08:58:26Z</time>
      </trkpt>
      <trkpt lat="45.66779" lon="-1.03419">
        <ele>12.6</ele>
        <time>2023-08-06T08:58:43Z</time>
      </trkpt>
      <trkpt lat="45.66777" lon="-1.03425">
        <ele>12.6</ele>
        <time>2023-08-06T08:58:59Z</time>
      </trkpt>
      <trkpt lat="45.66775" lon="-1.03426">
        <ele>12.6</ele>
        <time>2023-08-06T08:59:14Z</time>
      </trkpt>
      <trkpt lat="45.66775" lon="-1.03426">
        <ele>12.6</ele>
        <time>2023-08-06T08:59:30Z</time>
      </trkpt>
      <trkpt lat="45.66775" lon="-1.03426">
        <ele>12.6</ele>
        <time>2023-08-06T08:59:50Z</time>
      </trkpt>
      <trkpt lat="45.66775" lon="-1.03426">
        <ele>12.6</ele>
        <time>2023-08-06T09:00:06Z</time>
      </trkpt>
      <trkpt lat="45.66776" lon="-1.03429">
        <ele>12.6</ele>
        <time>2023-08-06T09:00:23Z</time>
      </trkpt>
      <trkpt lat="45.66776" lon="-1.03429">
        <ele>12.6</ele>
        <time>2023-08-06T09:00:43Z</time>
      </trkpt>
      <trkpt lat="45.66778" lon="-1.03429">
        <ele>12.6</ele>
        <time>2023-08-06T09:01:00Z</time>
      </trkpt>
      <trkpt lat="45.6678" lon="-1.03427">
        <ele>12.6</ele>
        <time>2023-08-06T09:01:19Z</time>
      </trkpt>
      <trkpt lat="45.6678" lon="-1.03426">
        <ele>12.6</ele>
        <time>2023-08-06T09:01:37Z</time>
      </trkpt>
      <trkpt lat="45.66779" lon="-1.03425">
        <ele>12.6</ele>
        <time>2023-08-06T09:01:52Z</time>
      </trkpt>
      <trkpt lat="45.6678" lon="-1.03425">
        <ele>12.6</ele>
        <time>2023-08-06T09:02:10Z</time>
      </trkpt>
      <trkpt lat="45.6678" lon="-1.03424">
        <ele>12.6</ele>
        <time>2023-08-06T09:02:30Z</time>
      </trkpt>
      <trkpt lat="45.66781" lon="-1.03425">
        <ele>12.6</ele>
        <time>2023-08-06T09:02:41Z</time>
      </trkpt>
      <trkpt lat="45.66781" lon="-1.03426">
        <ele>12.6</ele>
        <time>2023-08-06T09:02:57Z</time>
      </trkpt>
      <trkpt lat="45.6678" lon="-1.03424">
        <ele>12.6</ele>
        <time>2023-08-06T09:03:10Z</time>
      </trkpt>
      <trkpt lat="45.66776" lon="-1.03419">
        <ele>12.6</ele>
        <time>2023-08-06T09:03:25Z</time>
      </trkpt>
      <trkpt lat="45.66772" lon="-1.03413">
        <ele>12.6</ele>
        <time>2023-08-06T09:03:30Z</time>
      </trkpt>
      <trkpt lat="45.66767" lon="-1.03408">
        <ele>12.6</ele>
        <time>2023-08-06T09:03:34Z</time>
      </trkpt>
      <trkpt lat="45.66754" lon="-1.03392">
        <ele>12.2</ele>
        <time>2023-08-06T09:03:41Z</time>
      </trkpt>
      <trkpt lat="45.66734" lon="-1.0337">
        <ele>11.8</ele>
        <time>2023-08-06T09:03:46Z</time>
      </trkpt>
      <trkpt lat="45.66729" lon="-1.03365">
        <ele>11.6</ele>
        <time>2023-08-06T09:03:47Z</time>
      </trkpt>
      <trkpt lat="45.66708" lon="-1.03342">
        <ele>11</ele>
        <time>2023-08-06T09:03:51Z</time>
      </trkpt>
      <trkpt lat="45.66688" lon="-1.03322">
        <ele>9.6</ele>
        <time>2023-08-06T09:03:54Z</time>
      </trkpt>
      <trkpt lat="45.66675" lon="-1.0331">
        <ele>8.2</ele>
        <time>2023-08-06T09:03:56Z</time>
      </trkpt>
      <trkpt lat="45.66648" lon="-1.03285">
        <ele>6.8</ele>
        <time>2023-08-06T09:04:00Z</time>
      </trkpt>
      <trkpt lat="45.66637" lon="-1.03271">
        <ele>5.8</ele>
        <time>2023-08-06T09:04:02Z</time>
      </trkpt>
      <trkpt lat="45.66624" lon="-1.03264">
        <ele>5</ele>
        <time>2023-08-06T09:04:04Z</time>
      </trkpt>
      <trkpt lat="45.66618" lon="-1.03263">
        <ele>4.8</ele>
        <time>2023-08-06T09:04:05Z</time>
      </trkpt>
      <trkpt lat="45.66577" lon="-1.0326">
        <ele>5.2</ele>
        <time>2023-08-06T09:04:12Z</time>
      </trkpt>
      <trkpt lat="45.66551" lon="-1.03257">
        <ele>5.8</ele>
        <time>2023-08-06T09:04:18Z</time>
      </trkpt>
      <trkpt lat="45.66544" lon="-1.03256">
        <ele>6.8</ele>
        <time>2023-08-06T09:04:20Z</time>
      </trkpt>
      <trkpt lat="45.66532" lon="-1.03255">
        <ele>8</ele>
        <time>2023-08-06T09:04:24Z</time>
      </trkpt>
      <trkpt lat="45.6653" lon="-1.03255">
        <ele>8.4</ele>
        <time>2023-08-06T09:04:25Z</time>
      </trkpt>
      <trkpt lat="45.66524" lon="-1.03254">
        <ele>9.2</ele>
        <time>2023-08-06T09:04:28Z</time>
      </trkpt>
      <trkpt lat="45.66519" lon="-1.03254">
        <ele>10.4</ele>
        <time>2023-08-06T09:04:31Z</time>
      </trkpt>
      <trkpt lat="45.66516" lon="-1.03253">
        <ele>10.8</ele>
        <time>2023-08-06T09:04:33Z</time>
      </trkpt>
      <trkpt lat="45.66512" lon="-1.03253">
        <ele>11.2</ele>
        <time>2023-08-06T09:04:36Z</time>
      </trkpt>
      <trkpt lat="45.66509" lon="-1.03249">
        <ele>11.2</ele>
        <time>2023-08-06T09:04:38Z</time>
      </trkpt>
      <trkpt lat="45.66499" lon="-1.03244">
        <ele>11.4</ele>
        <time>2023-08-06T09:04:43Z</time>
      </trkpt>
      <trkpt lat="45.66496" lon="-1.03243">
        <ele>11.6</ele>
        <time>2023-08-06T09:04:44Z</time>
      </trkpt>
      <trkpt lat="45.66486" lon="-1.03243">
        <ele>12.6</ele>
        <time>2023-08-06T09:04:48Z</time>
      </trkpt>
      <trkpt lat="45.66484" lon="-1.03243">
        <ele>12.8</ele>
        <time>2023-08-06T09:04:49Z</time>
      </trkpt>
      <trkpt lat="45.66473" lon="-1.03243">
        <ele>13.2</ele>
        <time>2023-08-06T09:04:54Z</time>
      </trkpt>
      <trkpt lat="45.66459" lon="-1.03244">
        <ele>13.6</ele>
        <time>2023-08-06T09:05:00Z</time>
      </trkpt>
      <trkpt lat="45.66457" lon="-1.0324">
        <ele>13.6</ele>
        <time>2023-08-06T09:05:02Z</time>
      </trkpt>
      <trkpt lat="45.66458" lon="-1.03239">
        <ele>13.6</ele>
        <time>2023-08-06T09:05:04Z</time>
      </trkpt>
      <trkpt lat="45.6646" lon="-1.03237">
        <ele>13.6</ele>
        <time>2023-08-06T09:05:06Z</time>
      </trkpt>
      <trkpt lat="45.66463" lon="-1.03232">
        <ele>13.6</ele>
        <time>2023-08-06T09:05:09Z</time>
      </trkpt>
      <trkpt lat="45.66463" lon="-1.03217">
        <ele>13</ele>
        <time>2023-08-06T09:05:14Z</time>
      </trkpt>
      <trkpt lat="45.66464" lon="-1.03213">
        <ele>13</ele>
        <time>2023-08-06T09:05:15Z</time>
      </trkpt>
      <trkpt lat="45.66465" lon="-1.03204">
        <ele>12.8</ele>
        <time>2023-08-06T09:05:18Z</time>
      </trkpt>
      <trkpt lat="45.66464" lon="-1.032">
        <ele>12.8</ele>
        <time>2023-08-06T09:05:20Z</time>
      </trkpt>
      <trkpt lat="45.66461" lon="-1.03194">
        <ele>12.8</ele>
        <time>2023-08-06T09:05:23Z</time>
      </trkpt>
      <trkpt lat="45.66455" lon="-1.03192">
        <ele>13</ele>
        <time>2023-08-06T09:05:26Z</time>
      </trkpt>
      <trkpt lat="45.6645" lon="-1.03198">
        <ele>13.6</ele>
        <time>2023-08-06T09:05:31Z</time>
      </trkpt>
      <trkpt lat="45.66448" lon="-1.03207">
        <ele>13.8</ele>
        <time>2023-08-06T09:05:35Z</time>
      </trkpt>
      <trkpt lat="45.66448" lon="-1.03207">
        <ele>13.8</ele>
        <time>2023-08-06T09:05:36Z</time>
      </trkpt>
      <trkpt lat="45.66447" lon="-1.03207">
        <ele>13.8</ele>
        <time>2023-08-06T09:05:37Z</time>
      </trkpt>
      <trkpt lat="45.66445" lon="-1.03207">
        <ele>14</ele>
        <time>2023-08-06T09:05:40Z</time>
      </trkpt>
      <trkpt lat="45.66442" lon="-1.03208">
        <ele>14.2</ele>
        <time>2023-08-06T09:05:41Z</time>
      </trkpt>
      <trkpt lat="45.66436" lon="-1.03208">
        <ele>14.6</ele>
        <time>2023-08-06T09:05:45Z</time>
      </trkpt>
      <trkpt lat="45.66434" lon="-1.03208">
        <ele>14.6</ele>
        <time>2023-08-06T09:05:47Z</time>
      </trkpt>
      <trkpt lat="45.66434" lon="-1.03217">
        <ele>14.6</ele>
        <time>2023-08-06T09:05:51Z</time>
      </trkpt>
      <trkpt lat="45.6643" lon="-1.03222">
        <ele>14.8</ele>
        <time>2023-08-06T09:05:54Z</time>
      </trkpt>
      <trkpt lat="45.66427" lon="-1.03222">
        <ele>14.8</ele>
        <time>2023-08-06T09:05:55Z</time>
      </trkpt>
      <trkpt lat="45.66423" lon="-1.03221">
        <ele>15</ele>
        <time>2023-08-06T09:05:57Z</time>
      </trkpt>
      <trkpt lat="45.6642" lon="-1.03216">
        <ele>15.2</ele>
        <time>2023-08-06T09:05:59Z</time>
      </trkpt>
      <trkpt lat="45.66417" lon="-1.03199">
        <ele>15.2</ele>
        <time>2023-08-06T09:06:04Z</time>
      </trkpt>
      <trkpt lat="45.66417" lon="-1.03196">
        <ele>14.8</ele>
        <time>2023-08-06T09:06:05Z</time>
      </trkpt>
      <trkpt lat="45.66418" lon="-1.03192">
        <ele>14.8</ele>
        <time>2023-08-06T09:06:06Z</time>
      </trkpt>
      <trkpt lat="45.6642" lon="-1.03186">
        <ele>14.2</ele>
        <time>2023-08-06T09:06:08Z</time>
      </trkpt>
      <trkpt lat="45.66422" lon="-1.03176">
        <ele>14.2</ele>
        <time>2023-08-06T09:06:11Z</time>
      </trkpt>
      <trkpt lat="45.66424" lon="-1.03172">
        <ele>13.8</ele>
        <time>2023-08-06T09:06:13Z</time>
      </trkpt>
      <trkpt lat="45.66429" lon="-1.03169">
        <ele>13.6</ele>
        <time>2023-08-06T09:06:15Z</time>
      </trkpt>
      <trkpt lat="45.66436" lon="-1.0316">
        <ele>13</ele>
        <time>2023-08-06T09:06:18Z</time>
      </trkpt>
      <trkpt lat="45.66436" lon="-1.03157">
        <ele>13</ele>
        <time>2023-08-06T09:06:19Z</time>
      </trkpt>
      <trkpt lat="45.66436" lon="-1.0315">
        <ele>12.6</ele>
        <time>2023-08-06T09:06:21Z</time>
      </trkpt>
      <trkpt lat="45.66435" lon="-1.03144">
        <ele>12.6</ele>
        <time>2023-08-06T09:06:23Z</time>
      </trkpt>
      <trkpt lat="45.66433" lon="-1.03142">
        <ele>12.6</ele>
        <time>2023-08-06T09:06:24Z</time>
      </trkpt>
      <trkpt lat="45.66432" lon="-1.03139">
        <ele>12.6</ele>
        <time>2023-08-06T09:06:26Z</time>
      </trkpt>
      <trkpt lat="45.66432" lon="-1.0313">
        <ele>13</ele>
        <time>2023-08-06T09:06:29Z</time>
      </trkpt>
      <trkpt lat="45.66433" lon="-1.03115">
        <ele>12.8</ele>
        <time>2023-08-06T09:06:33Z</time>
      </trkpt>
      <trkpt lat="45.66427" lon="-1.03112">
        <ele>12.8</ele>
        <time>2023-08-06T09:06:37Z</time>
      </trkpt>
      <trkpt lat="45.66427" lon="-1.03113">
        <ele>13</ele>
        <time>2023-08-06T09:06:38Z</time>
      </trkpt>
      <trkpt lat="45.66425" lon="-1.03115">
        <ele>13.4</ele>
        <time>2023-08-06T09:06:40Z</time>
      </trkpt>
      <trkpt lat="45.66421" lon="-1.03119">
        <ele>13.8</ele>
        <time>2023-08-06T09:06:43Z</time>
      </trkpt>
      <trkpt lat="45.66418" lon="-1.03122">
        <ele>14</ele>
        <time>2023-08-06T09:06:46Z</time>
      </trkpt>
      <trkpt lat="45.66415" lon="-1.03121">
        <ele>14.2</ele>
        <time>2023-08-06T09:06:48Z</time>
      </trkpt>
      <trkpt lat="45.66415" lon="-1.03118">
        <ele>14.4</ele>
        <time>2023-08-06T09:06:50Z</time>
      </trkpt>
      <trkpt lat="45.66414" lon="-1.03116">
        <ele>14.6</ele>
        <time>2023-08-06T09:06:51Z</time>
      </trkpt>
      <trkpt lat="45.66413" lon="-1.03114">
        <ele>14.6</ele>
        <time>2023-08-06T09:06:52Z</time>
      </trkpt>
      <trkpt lat="45.66406" lon="-1.03108">
        <ele>14.4</ele>
        <time>2023-08-06T09:06:55Z</time>
      </trkpt>
      <trkpt lat="45.66404" lon="-1.03107">
        <ele>14.4</ele>
        <time>2023-08-06T09:06:56Z</time>
      </trkpt>
      <trkpt lat="45.66402" lon="-1.03108">
        <ele>14.6</ele>
        <time>2023-08-06T09:06:57Z</time>
      </trkpt>
      <trkpt lat="45.66399" lon="-1.03117">
        <ele>14.8</ele>
        <time>2023-08-06T09:07:00Z</time>
      </trkpt>
      <trkpt lat="45.66395" lon="-1.03139">
        <ele>15</ele>
        <time>2023-08-06T09:07:05Z</time>
      </trkpt>
      <trkpt lat="45.66386" lon="-1.03144">
        <ele>15.2</ele>
        <time>2023-08-06T09:07:09Z</time>
      </trkpt>
      <trkpt lat="45.66383" lon="-1.03146">
        <ele>15.6</ele>
        <time>2023-08-06T09:07:11Z</time>
      </trkpt>
      <trkpt lat="45.66381" lon="-1.03146">
        <ele>15.8</ele>
        <time>2023-08-06T09:07:12Z</time>
      </trkpt>
      <trkpt lat="45.66378" lon="-1.03148">
        <ele>15.6</ele>
        <time>2023-08-06T09:07:14Z</time>
      </trkpt>
      <trkpt lat="45.66374" lon="-1.03152">
        <ele>15.4</ele>
        <time>2023-08-06T09:07:16Z</time>
      </trkpt>
      <trkpt lat="45.66369" lon="-1.03154">
        <ele>15.4</ele>
        <time>2023-08-06T09:07:18Z</time>
      </trkpt>
      <trkpt lat="45.66368" lon="-1.03155">
        <ele>15.4</ele>
        <time>2023-08-06T09:07:19Z</time>
      </trkpt>
      <trkpt lat="45.66367" lon="-1.03162">
        <ele>15.8</ele>
        <time>2023-08-06T09:07:22Z</time>
      </trkpt>
      <trkpt lat="45.6637" lon="-1.03171">
        <ele>16.4</ele>
        <time>2023-08-06T09:07:26Z</time>
      </trkpt>
      <trkpt lat="45.6637" lon="-1.03181">
        <ele>16.4</ele>
        <time>2023-08-06T09:07:28Z</time>
      </trkpt>
      <trkpt lat="45.66372" lon="-1.03189">
        <ele>16.2</ele>
        <time>2023-08-06T09:07:30Z</time>
      </trkpt>
      <trkpt lat="45.66375" lon="-1.03198">
        <ele>16</ele>
        <time>2023-08-06T09:07:32Z</time>
      </trkpt>
      <trkpt lat="45.66375" lon="-1.03206">
        <ele>15.8</ele>
        <time>2023-08-06T09:07:34Z</time>
      </trkpt>
      <trkpt lat="45.66373" lon="-1.03212">
        <ele>15.6</ele>
        <time>2023-08-06T09:07:36Z</time>
      </trkpt>
      <trkpt lat="45.66371" lon="-1.03214">
        <ele>15.6</ele>
        <time>2023-08-06T09:07:38Z</time>
      </trkpt>
      <trkpt lat="45.66362" lon="-1.0322">
        <ele>16</ele>
        <time>2023-08-06T09:07:43Z</time>
      </trkpt>
      <trkpt lat="45.66357" lon="-1.03225">
        <ele>16.2</ele>
        <time>2023-08-06T09:07:45Z</time>
      </trkpt>
      <trkpt lat="45.66343" lon="-1.03229">
        <ele>16</ele>
        <time>2023-08-06T09:07:50Z</time>
      </trkpt>
      <trkpt lat="45.66335" lon="-1.03227">
        <ele>16.2</ele>
        <time>2023-08-06T09:07:54Z</time>
      </trkpt>
      <trkpt lat="45.66334" lon="-1.0323">
        <ele>16.2</ele>
        <time>2023-08-06T09:07:55Z</time>
      </trkpt>
      <trkpt lat="45.66334" lon="-1.03238">
        <ele>16.2</ele>
        <time>2023-08-06T09:07:58Z</time>
      </trkpt>
      <trkpt lat="45.66336" lon="-1.03246">
        <ele>16</ele>
        <time>2023-08-06T09:08:01Z</time>
      </trkpt>
      <trkpt lat="45.66338" lon="-1.0325">
        <ele>16</ele>
        <time>2023-08-06T09:08:03Z</time>
      </trkpt>
      <trkpt lat="45.6634" lon="-1.03255">
        <ele>16</ele>
        <time>2023-08-06T09:08:06Z</time>
      </trkpt>
      <trkpt lat="45.66342" lon="-1.03256">
        <ele>16.2</ele>
        <time>2023-08-06T09:08:07Z</time>
      </trkpt>
      <trkpt lat="45.66355" lon="-1.03254">
        <ele>16.2</ele>
        <time>2023-08-06T09:08:11Z</time>
      </trkpt>
      <trkpt lat="45.66359" lon="-1.03254">
        <ele>16.2</ele>
        <time>2023-08-06T09:08:12Z</time>
      </trkpt>
      <trkpt lat="45.66366" lon="-1.03253">
        <ele>16</ele>
        <time>2023-08-06T09:08:14Z</time>
      </trkpt>
      <trkpt lat="45.66382" lon="-1.03254">
        <ele>15.6</ele>
        <time>2023-08-06T09:08:18Z</time>
      </trkpt>
      <trkpt lat="45.66411" lon="-1.03259">
        <ele>15.8</ele>
        <time>2023-08-06T09:08:24Z</time>
      </trkpt>
      <trkpt lat="45.6644" lon="-1.03268">
        <ele>15</ele>
        <time>2023-08-06T09:08:30Z</time>
      </trkpt>
      <trkpt lat="45.66443" lon="-1.0327">
        <ele>14.6</ele>
        <time>2023-08-06T09:08:31Z</time>
      </trkpt>
      <trkpt lat="45.66449" lon="-1.03279">
        <ele>14</ele>
        <time>2023-08-06T09:08:34Z</time>
      </trkpt>
      <trkpt lat="45.66452" lon="-1.03283">
        <ele>13.8</ele>
        <time>2023-08-06T09:08:36Z</time>
      </trkpt>
      <trkpt lat="45.66453" lon="-1.03285">
        <ele>13.8</ele>
        <time>2023-08-06T09:08:38Z</time>
      </trkpt>
      <trkpt lat="45.66452" lon="-1.03286">
        <ele>13.8</ele>
        <time>2023-08-06T09:08:39Z</time>
      </trkpt>
      <trkpt lat="45.66452" lon="-1.03294">
        <ele>14</ele>
        <time>2023-08-06T09:08:41Z</time>
      </trkpt>
      <trkpt lat="45.66452" lon="-1.03298">
        <ele>14.2</ele>
        <time>2023-08-06T09:08:42Z</time>
      </trkpt>
      <trkpt lat="45.66451" lon="-1.03302">
        <ele>14.2</ele>
        <time>2023-08-06T09:08:43Z</time>
      </trkpt>
      <trkpt lat="45.6645" lon="-1.03319">
        <ele>14.4</ele>
        <time>2023-08-06T09:08:47Z</time>
      </trkpt>
      <trkpt lat="45.66449" lon="-1.03322">
        <ele>14.4</ele>
        <time>2023-08-06T09:08:48Z</time>
      </trkpt>
      <trkpt lat="45.66444" lon="-1.03329">
        <ele>14.4</ele>
        <time>2023-08-06T09:08:52Z</time>
      </trkpt>
      <trkpt lat="45.66442" lon="-1.03331">
        <ele>14.4</ele>
        <time>2023-08-06T09:08:53Z</time>
      </trkpt>
      <trkpt lat="45.66442" lon="-1.03334">
        <ele>14.4</ele>
        <time>2023-08-06T09:08:54Z</time>
      </trkpt>
      <trkpt lat="45.66441" lon="-1.03346">
        <ele>14.4</ele>
        <time>2023-08-06T09:08:57Z</time>
      </trkpt>
      <trkpt lat="45.66441" lon="-1.03349">
        <ele>14.4</ele>
        <time>2023-08-06T09:08:58Z</time>
      </trkpt>
      <trkpt lat="45.66443" lon="-1.03362">
        <ele>14</ele>
        <time>2023-08-06T09:09:02Z</time>
      </trkpt>
      <trkpt lat="45.66444" lon="-1.03365">
        <ele>14</ele>
        <time>2023-08-06T09:09:03Z</time>
      </trkpt>
      <trkpt lat="45.66449" lon="-1.03367">
        <ele>14</ele>
        <time>2023-08-06T09:09:06Z</time>
      </trkpt>
      <trkpt lat="45.66454" lon="-1.03369">
        <ele>13.8</ele>
        <time>2023-08-06T09:09:08Z</time>
      </trkpt>
      <trkpt lat="45.66459" lon="-1.03375">
        <ele>13.8</ele>
        <time>2023-08-06T09:09:10Z</time>
      </trkpt>
      <trkpt lat="45.66464" lon="-1.03381">
        <ele>13.4</ele>
        <time>2023-08-06T09:09:12Z</time>
      </trkpt>
      <trkpt lat="45.66467" lon="-1.03384">
        <ele>13.2</ele>
        <time>2023-08-06T09:09:14Z</time>
      </trkpt>
      <trkpt lat="45.66468" lon="-1.03385">
        <ele>13</ele>
        <time>2023-08-06T09:09:15Z</time>
      </trkpt>
      <trkpt lat="45.6647" lon="-1.03392">
        <ele>13</ele>
        <time>2023-08-06T09:09:17Z</time>
      </trkpt>
      <trkpt lat="45.66474" lon="-1.03402">
        <ele>12.8</ele>
        <time>2023-08-06T09:09:19Z</time>
      </trkpt>
      <trkpt lat="45.66477" lon="-1.03409">
        <ele>12.4</ele>
        <time>2023-08-06T09:09:21Z</time>
      </trkpt>
      <trkpt lat="45.66479" lon="-1.03412">
        <ele>12</ele>
        <time>2023-08-06T09:09:22Z</time>
      </trkpt>
      <trkpt lat="45.66481" lon="-1.03417">
        <ele>11.4</ele>
        <time>2023-08-06T09:09:24Z</time>
      </trkpt>
      <trkpt lat="45.66482" lon="-1.0342">
        <ele>11.2</ele>
        <time>2023-08-06T09:09:25Z</time>
      </trkpt>
      <trkpt lat="45.66485" lon="-1.03432">
        <ele>10.4</ele>
        <time>2023-08-06T09:09:29Z</time>
      </trkpt>
      <trkpt lat="45.6649" lon="-1.03442">
        <ele>9.8</ele>
        <time>2023-08-06T09:09:32Z</time>
      </trkpt>
      <trkpt lat="45.66489" lon="-1.03445">
        <ele>9.4</ele>
        <time>2023-08-06T09:09:34Z</time>
      </trkpt>
      <trkpt lat="45.66487" lon="-1.03447">
        <ele>9.6</ele>
        <time>2023-08-06T09:09:36Z</time>
      </trkpt>
      <trkpt lat="45.66484" lon="-1.03445">
        <ele>10</ele>
        <time>2023-08-06T09:09:39Z</time>
      </trkpt>
      <trkpt lat="45.66482" lon="-1.03446">
        <ele>10.4</ele>
        <time>2023-08-06T09:09:41Z</time>
      </trkpt>
      <trkpt lat="45.66478" lon="-1.03446">
        <ele>10.8</ele>
        <time>2023-08-06T09:09:43Z</time>
      </trkpt>
      <trkpt lat="45.66476" lon="-1.03445">
        <ele>11</ele>
        <time>2023-08-06T09:09:44Z</time>
      </trkpt>
      <trkpt lat="45.66474" lon="-1.03445">
        <ele>11.4</ele>
        <time>2023-08-06T09:09:45Z</time>
      </trkpt>
      <trkpt lat="45.66472" lon="-1.03449">
        <ele>11.8</ele>
        <time>2023-08-06T09:09:47Z</time>
      </trkpt>
      <trkpt lat="45.66472" lon="-1.03457">
        <ele>11.8</ele>
        <time>2023-08-06T09:09:50Z</time>
      </trkpt>
      <trkpt lat="45.66471" lon="-1.03463">
        <ele>11.8</ele>
        <time>2023-08-06T09:09:52Z</time>
      </trkpt>
      <trkpt lat="45.66471" lon="-1.0347">
        <ele>11.8</ele>
        <time>2023-08-06T09:09:55Z</time>
      </trkpt>
      <trkpt lat="45.66469" lon="-1.03475">
        <ele>11.8</ele>
        <time>2023-08-06T09:09:57Z</time>
      </trkpt>
      <trkpt lat="45.66469" lon="-1.03479">
        <ele>11.8</ele>
        <time>2023-08-06T09:09:58Z</time>
      </trkpt>
      <trkpt lat="45.66469" lon="-1.03486">
        <ele>12</ele>
        <time>2023-08-06T09:10:00Z</time>
      </trkpt>
      <trkpt lat="45.66469" lon="-1.03491">
        <ele>11.8</ele>
        <time>2023-08-06T09:10:02Z</time>
      </trkpt>
      <trkpt lat="45.66469" lon="-1.03494">
        <ele>11.6</ele>
        <time>2023-08-06T09:10:04Z</time>
      </trkpt>
      <trkpt lat="45.66465" lon="-1.03501">
        <ele>11.6</ele>
        <time>2023-08-06T09:10:07Z</time>
      </trkpt>
      <trkpt lat="45.66465" lon="-1.03502">
        <ele>11.6</ele>
        <time>2023-08-06T09:10:08Z</time>
      </trkpt>
      <trkpt lat="45.66461" lon="-1.03513">
        <ele>11.6</ele>
        <time>2023-08-06T09:10:12Z</time>
      </trkpt>
      <trkpt lat="45.66459" lon="-1.03514">
        <ele>11.6</ele>
        <time>2023-08-06T09:10:13Z</time>
      </trkpt>
      <trkpt lat="45.66447" lon="-1.03522">
        <ele>11.8</ele>
        <time>2023-08-06T09:10:17Z</time>
      </trkpt>
      <trkpt lat="45.66446" lon="-1.03524">
        <ele>11.8</ele>
        <time>2023-08-06T09:10:18Z</time>
      </trkpt>
      <trkpt lat="45.66443" lon="-1.03529">
        <ele>11.6</ele>
        <time>2023-08-06T09:10:20Z</time>
      </trkpt>
      <trkpt lat="45.66441" lon="-1.03533">
        <ele>11.4</ele>
        <time>2023-08-06T09:10:22Z</time>
      </trkpt>
      <trkpt lat="45.66435" lon="-1.03536">
        <ele>11.2</ele>
        <time>2023-08-06T09:10:25Z</time>
      </trkpt>
      <trkpt lat="45.66426" lon="-1.03541">
        <ele>11</ele>
        <time>2023-08-06T09:10:28Z</time>
      </trkpt>
      <trkpt lat="45.66417" lon="-1.0354">
        <ele>11</ele>
        <time>2023-08-06T09:10:33Z</time>
      </trkpt>
      <trkpt lat="45.66416" lon="-1.03535">
        <ele>11.4</ele>
        <time>2023-08-06T09:10:37Z</time>
      </trkpt>
      <trkpt lat="45.66415" lon="-1.03534">
        <ele>11.6</ele>
        <time>2023-08-06T09:10:38Z</time>
      </trkpt>
      <trkpt lat="45.66414" lon="-1.03534">
        <ele>11.8</ele>
        <time>2023-08-06T09:10:39Z</time>
      </trkpt>
      <trkpt lat="45.66405" lon="-1.03534">
        <ele>12</ele>
        <time>2023-08-06T09:10:43Z</time>
      </trkpt>
      <trkpt lat="45.66396" lon="-1.03529">
        <ele>11.8</ele>
        <time>2023-08-06T09:10:49Z</time>
      </trkpt>
      <trkpt lat="45.66388" lon="-1.03516">
        <ele>12.2</ele>
        <time>2023-08-06T09:10:55Z</time>
      </trkpt>
      <trkpt lat="45.66382" lon="-1.03504">
        <ele>12.2</ele>
        <time>2023-08-06T09:11:00Z</time>
      </trkpt>
      <trkpt lat="45.66376" lon="-1.03491">
        <ele>13</ele>
        <time>2023-08-06T09:11:05Z</time>
      </trkpt>
      <trkpt lat="45.66375" lon="-1.03488">
        <ele>13</ele>
        <time>2023-08-06T09:11:06Z</time>
      </trkpt>
      <trkpt lat="45.66365" lon="-1.03469">
        <ele>13.2</ele>
        <time>2023-08-06T09:11:11Z</time>
      </trkpt>
      <trkpt lat="45.6636" lon="-1.03462">
        <ele>13.6</ele>
        <time>2023-08-06T09:11:13Z</time>
      </trkpt>
      <trkpt lat="45.66356" lon="-1.03456">
        <ele>13.6</ele>
        <time>2023-08-06T09:11:15Z</time>
      </trkpt>
      <trkpt lat="45.66345" lon="-1.0344">
        <ele>13.6</ele>
        <time>2023-08-06T09:11:21Z</time>
      </trkpt>
      <trkpt lat="45.66336" lon="-1.03423">
        <ele>13.6</ele>
        <time>2023-08-06T09:11:25Z</time>
      </trkpt>
      <trkpt lat="45.66335" lon="-1.03418">
        <ele>13.8</ele>
        <time>2023-08-06T09:11:26Z</time>
      </trkpt>
      <trkpt lat="45.6633" lon="-1.03405">
        <ele>14</ele>
        <time>2023-08-06T09:11:29Z</time>
      </trkpt>
      <trkpt lat="45.66328" lon="-1.03403">
        <ele>14</ele>
        <time>2023-08-06T09:11:30Z</time>
      </trkpt>
      <trkpt lat="45.66326" lon="-1.03403">
        <ele>14</ele>
        <time>2023-08-06T09:11:31Z</time>
      </trkpt>
      <trkpt lat="45.66319" lon="-1.03409">
        <ele>14</ele>
        <time>2023-08-06T09:11:34Z</time>
      </trkpt>
      <trkpt lat="45.66316" lon="-1.03411">
        <ele>13.8</ele>
        <time>2023-08-06T09:11:35Z</time>
      </trkpt>
      <trkpt lat="45.66299" lon="-1.03421">
        <ele>13.6</ele>
        <time>2023-08-06T09:11:39Z</time>
      </trkpt>
      <trkpt lat="45.66258" lon="-1.03448">
        <ele>14.2</ele>
        <time>2023-08-06T09:11:48Z</time>
      </trkpt>
      <trkpt lat="45.6624" lon="-1.03465">
        <ele>14.8</ele>
        <time>2023-08-06T09:11:53Z</time>
      </trkpt>
      <trkpt lat="45.66214" lon="-1.03487">
        <ele>13.8</ele>
        <time>2023-08-06T09:11:59Z</time>
      </trkpt>
      <trkpt lat="45.66206" lon="-1.03496">
        <ele>13.6</ele>
        <time>2023-08-06T09:12:01Z</time>
      </trkpt>
      <trkpt lat="45.662" lon="-1.03506">
        <ele>13.6</ele>
        <time>2023-08-06T09:12:03Z</time>
      </trkpt>
      <trkpt lat="45.66194" lon="-1.03511">
        <ele>14</ele>
        <time>2023-08-06T09:12:05Z</time>
      </trkpt>
      <trkpt lat="45.66186" lon="-1.03517">
        <ele>14.2</ele>
        <time>2023-08-06T09:12:07Z</time>
      </trkpt>
      <trkpt lat="45.66176" lon="-1.03524">
        <ele>14.2</ele>
        <time>2023-08-06T09:12:10Z</time>
      </trkpt>
      <trkpt lat="45.66173" lon="-1.0353">
        <ele>14.2</ele>
        <time>2023-08-06T09:12:12Z</time>
      </trkpt>
      <trkpt lat="45.66171" lon="-1.0354">
        <ele>14.6</ele>
        <time>2023-08-06T09:12:15Z</time>
      </trkpt>
      <trkpt lat="45.66172" lon="-1.03544">
        <ele>14.6</ele>
        <time>2023-08-06T09:12:17Z</time>
      </trkpt>
      <trkpt lat="45.66173" lon="-1.03553">
        <ele>14.2</ele>
        <time>2023-08-06T09:12:21Z</time>
      </trkpt>
      <trkpt lat="45.66172" lon="-1.03556">
        <ele>13.8</ele>
        <time>2023-08-06T09:12:22Z</time>
      </trkpt>
      <trkpt lat="45.66172" lon="-1.03567">
        <ele>13.6</ele>
        <time>2023-08-06T09:12:26Z</time>
      </trkpt>
      <trkpt lat="45.66171" lon="-1.03569">
        <ele>13.6</ele>
        <time>2023-08-06T09:12:27Z</time>
      </trkpt>
      <trkpt lat="45.66171" lon="-1.03573">
        <ele>13.8</ele>
        <time>2023-08-06T09:12:29Z</time>
      </trkpt>
      <trkpt lat="45.66172" lon="-1.03584">
        <ele>13.8</ele>
        <time>2023-08-06T09:12:32Z</time>
      </trkpt>
      <trkpt lat="45.66172" lon="-1.03587">
        <ele>13.8</ele>
        <time>2023-08-06T09:12:33Z</time>
      </trkpt>
      <trkpt lat="45.66172" lon="-1.03595">
        <ele>13.6</ele>
        <time>2023-08-06T09:12:35Z</time>
      </trkpt>
      <trkpt lat="45.66172" lon="-1.03598">
        <ele>13.4</ele>
        <time>2023-08-06T09:12:37Z</time>
      </trkpt>
      <trkpt lat="45.66167" lon="-1.03613">
        <ele>13.2</ele>
        <time>2023-08-06T09:12:42Z</time>
      </trkpt>
      <trkpt lat="45.66167" lon="-1.03615">
        <ele>13</ele>
        <time>2023-08-06T09:12:43Z</time>
      </trkpt>
      <trkpt lat="45.66168" lon="-1.03624">
        <ele>13</ele>
        <time>2023-08-06T09:12:46Z</time>
      </trkpt>
      <trkpt lat="45.66168" lon="-1.03627">
        <ele>12.8</ele>
        <time>2023-08-06T09:12:47Z</time>
      </trkpt>
      <trkpt lat="45.66165" lon="-1.03639">
        <ele>12.4</ele>
        <time>2023-08-06T09:12:51Z</time>
      </trkpt>
      <trkpt lat="45.66159" lon="-1.03653">
        <ele>12.2</ele>
        <time>2023-08-06T09:12:53Z</time>
      </trkpt>
      <trkpt lat="45.66158" lon="-1.03657">
        <ele>11.8</ele>
        <time>2023-08-06T09:12:54Z</time>
      </trkpt>
      <trkpt lat="45.66156" lon="-1.03662">
        <ele>11.6</ele>
        <time>2023-08-06T09:12:55Z</time>
      </trkpt>
      <trkpt lat="45.66155" lon="-1.03671">
        <ele>11.2</ele>
        <time>2023-08-06T09:12:57Z</time>
      </trkpt>
      <trkpt lat="45.66157" lon="-1.03675">
        <ele>11.2</ele>
        <time>2023-08-06T09:12:58Z</time>
      </trkpt>
      <trkpt lat="45.66159" lon="-1.03683">
        <ele>10.6</ele>
        <time>2023-08-06T09:13:00Z</time>
      </trkpt>
      <trkpt lat="45.66156" lon="-1.0369">
        <ele>9.6</ele>
        <time>2023-08-06T09:13:02Z</time>
      </trkpt>
      <trkpt lat="45.66152" lon="-1.03694">
        <ele>9.2</ele>
        <time>2023-08-06T09:13:03Z</time>
      </trkpt>
      <trkpt lat="45.66144" lon="-1.03701">
        <ele>8.8</ele>
        <time>2023-08-06T09:13:05Z</time>
      </trkpt>
      <trkpt lat="45.66142" lon="-1.03705">
        <ele>8.8</ele>
        <time>2023-08-06T09:13:06Z</time>
      </trkpt>
      <trkpt lat="45.6614" lon="-1.03722">
        <ele>9</ele>
        <time>2023-08-06T09:13:09Z</time>
      </trkpt>
      <trkpt lat="45.6614" lon="-1.03734">
        <ele>8.8</ele>
        <time>2023-08-06T09:13:11Z</time>
      </trkpt>
      <trkpt lat="45.66137" lon="-1.03743">
        <ele>8.8</ele>
        <time>2023-08-06T09:13:13Z</time>
      </trkpt>
      <trkpt lat="45.66131" lon="-1.03752">
        <ele>8.6</ele>
        <time>2023-08-06T09:13:15Z</time>
      </trkpt>
      <trkpt lat="45.66125" lon="-1.03767">
        <ele>8.8</ele>
        <time>2023-08-06T09:13:18Z</time>
      </trkpt>
      <trkpt lat="45.66122" lon="-1.03779">
        <ele>9.6</ele>
        <time>2023-08-06T09:13:21Z</time>
      </trkpt>
      <trkpt lat="45.66118" lon="-1.03785">
        <ele>9.8</ele>
        <time>2023-08-06T09:13:23Z</time>
      </trkpt>
      <trkpt lat="45.66114" lon="-1.03806">
        <ele>9.8</ele>
        <time>2023-08-06T09:13:28Z</time>
      </trkpt>
      <trkpt lat="45.66106" lon="-1.03828">
        <ele>10</ele>
        <time>2023-08-06T09:13:32Z</time>
      </trkpt>
      <trkpt lat="45.66106" lon="-1.03832">
        <ele>10</ele>
        <time>2023-08-06T09:13:33Z</time>
      </trkpt>
      <trkpt lat="45.66106" lon="-1.03839">
        <ele>10</ele>
        <time>2023-08-06T09:13:35Z</time>
      </trkpt>
      <trkpt lat="45.66104" lon="-1.03841">
        <ele>10.2</ele>
        <time>2023-08-06T09:13:36Z</time>
      </trkpt>
      <trkpt lat="45.661" lon="-1.03844">
        <ele>10.4</ele>
        <time>2023-08-06T09:13:38Z</time>
      </trkpt>
      <trkpt lat="45.66098" lon="-1.0385">
        <ele>11</ele>
        <time>2023-08-06T09:13:40Z</time>
      </trkpt>
      <trkpt lat="45.66096" lon="-1.03856">
        <ele>11.4</ele>
        <time>2023-08-06T09:13:42Z</time>
      </trkpt>
      <trkpt lat="45.66087" lon="-1.03863">
        <ele>11.8</ele>
        <time>2023-08-06T09:13:45Z</time>
      </trkpt>
      <trkpt lat="45.66082" lon="-1.03869">
        <ele>12</ele>
        <time>2023-08-06T09:13:47Z</time>
      </trkpt>
      <trkpt lat="45.6608" lon="-1.0387">
        <ele>12.2</ele>
        <time>2023-08-06T09:13:48Z</time>
      </trkpt>
      <trkpt lat="45.66076" lon="-1.03872">
        <ele>12.4</ele>
        <time>2023-08-06T09:13:49Z</time>
      </trkpt>
      <trkpt lat="45.66053" lon="-1.03876">
        <ele>12.6</ele>
        <time>2023-08-06T09:13:54Z</time>
      </trkpt>
      <trkpt lat="45.6605" lon="-1.03876">
        <ele>12.8</ele>
        <time>2023-08-06T09:13:55Z</time>
      </trkpt>
      <trkpt lat="45.66044" lon="-1.03873">
        <ele>13</ele>
        <time>2023-08-06T09:13:58Z</time>
      </trkpt>
      <trkpt lat="45.66031" lon="-1.03867">
        <ele>13</ele>
        <time>2023-08-06T09:14:02Z</time>
      </trkpt>
      <trkpt lat="45.66014" lon="-1.03855">
        <ele>13.2</ele>
        <time>2023-08-06T09:14:07Z</time>
      </trkpt>
      <trkpt lat="45.66012" lon="-1.03852">
        <ele>13.4</ele>
        <time>2023-08-06T09:14:08Z</time>
      </trkpt>
      <trkpt lat="45.66012" lon="-1.03848">
        <ele>13.4</ele>
        <time>2023-08-06T09:14:10Z</time>
      </trkpt>
      <trkpt lat="45.66005" lon="-1.03835">
        <ele>13.4</ele>
        <time>2023-08-06T09:14:15Z</time>
      </trkpt>
      <trkpt lat="45.65994" lon="-1.03822">
        <ele>13.4</ele>
        <time>2023-08-06T09:14:19Z</time>
      </trkpt>
      <trkpt lat="45.6599" lon="-1.03806">
        <ele>13.6</ele>
        <time>2023-08-06T09:14:23Z</time>
      </trkpt>
      <trkpt lat="45.65992" lon="-1.03803">
        <ele>13.8</ele>
        <time>2023-08-06T09:14:24Z</time>
      </trkpt>
      <trkpt lat="45.65996" lon="-1.03802">
        <ele>13.8</ele>
        <time>2023-08-06T09:14:27Z</time>
      </trkpt>
      <trkpt lat="45.65997" lon="-1.038">
        <ele>13.4</ele>
        <time>2023-08-06T09:14:28Z</time>
      </trkpt>
      <trkpt lat="45.65998" lon="-1.03798">
        <ele>13.2</ele>
        <time>2023-08-06T09:14:29Z</time>
      </trkpt>
      <trkpt lat="45.66001" lon="-1.038">
        <ele>13.2</ele>
        <time>2023-08-06T09:14:32Z</time>
      </trkpt>
      <trkpt lat="45.66006" lon="-1.03809">
        <ele>13.4</ele>
        <time>2023-08-06T09:14:36Z</time>
      </trkpt>
      <trkpt lat="45.66014" lon="-1.03821">
        <ele>13.2</ele>
        <time>2023-08-06T09:14:40Z</time>
      </trkpt>
      <trkpt lat="45.66016" lon="-1.03823">
        <ele>13</ele>
        <time>2023-08-06T09:14:41Z</time>
      </trkpt>
      <trkpt lat="45.66022" lon="-1.03832">
        <ele>13</ele>
        <time>2023-08-06T09:14:45Z</time>
      </trkpt>
      <trkpt lat="45.66031" lon="-1.0384">
        <ele>13</ele>
        <time>2023-08-06T09:14:48Z</time>
      </trkpt>
      <trkpt lat="45.66035" lon="-1.03839">
        <ele>13</ele>
        <time>2023-08-06T09:14:49Z</time>
      </trkpt>
      <trkpt lat="45.66038" lon="-1.03837">
        <ele>12.8</ele>
        <time>2023-08-06T09:14:50Z</time>
      </trkpt>
      <trkpt lat="45.66043" lon="-1.03831">
        <ele>12.2</ele>
        <time>2023-08-06T09:14:52Z</time>
      </trkpt>
      <trkpt lat="45.66045" lon="-1.03828">
        <ele>12</ele>
        <time>2023-08-06T09:14:53Z</time>
      </trkpt>
      <trkpt lat="45.66048" lon="-1.03828">
        <ele>11.8</ele>
        <time>2023-08-06T09:14:54Z</time>
      </trkpt>
      <trkpt lat="45.66055" lon="-1.03827">
        <ele>11.8</ele>
        <time>2023-08-06T09:14:56Z</time>
      </trkpt>
      <trkpt lat="45.6606" lon="-1.03822">
        <ele>11.6</ele>
        <time>2023-08-06T09:14:58Z</time>
      </trkpt>
      <trkpt lat="45.66061" lon="-1.03814">
        <ele>12</ele>
        <time>2023-08-06T09:15:00Z</time>
      </trkpt>
      <trkpt lat="45.66063" lon="-1.03805">
        <ele>12</ele>
        <time>2023-08-06T09:15:02Z</time>
      </trkpt>
      <trkpt lat="45.66068" lon="-1.038">
        <ele>11.6</ele>
        <time>2023-08-06T09:15:04Z</time>
      </trkpt>
      <trkpt lat="45.66074" lon="-1.03795">
        <ele>11.4</ele>
        <time>2023-08-06T09:15:06Z</time>
      </trkpt>
      <trkpt lat="45.66081" lon="-1.03786">
        <ele>11</ele>
        <time>2023-08-06T09:15:08Z</time>
      </trkpt>
      <trkpt lat="45.66083" lon="-1.03785">
        <ele>10.8</ele>
        <time>2023-08-06T09:15:09Z</time>
      </trkpt>
      <trkpt lat="45.66085" lon="-1.03784">
        <ele>10.8</ele>
        <time>2023-08-06T09:15:10Z</time>
      </trkpt>
      <trkpt lat="45.66089" lon="-1.03784">
        <ele>9.8</ele>
        <time>2023-08-06T09:15:12Z</time>
      </trkpt>
      <trkpt lat="45.66097" lon="-1.03773">
        <ele>9.2</ele>
        <time>2023-08-06T09:15:16Z</time>
      </trkpt>
      <trkpt lat="45.66096" lon="-1.03769">
        <ele>9</ele>
        <time>2023-08-06T09:15:17Z</time>
      </trkpt>
      <trkpt lat="45.66096" lon="-1.03765">
        <ele>8.8</ele>
        <time>2023-08-06T09:15:18Z</time>
      </trkpt>
      <trkpt lat="45.66094" lon="-1.03757">
        <ele>8.8</ele>
        <time>2023-08-06T09:15:20Z</time>
      </trkpt>
      <trkpt lat="45.66093" lon="-1.03754">
        <ele>8.8</ele>
        <time>2023-08-06T09:15:21Z</time>
      </trkpt>
      <trkpt lat="45.66091" lon="-1.03752">
        <ele>8.8</ele>
        <time>2023-08-06T09:15:22Z</time>
      </trkpt>
      <trkpt lat="45.66085" lon="-1.03751">
        <ele>9.2</ele>
        <time>2023-08-06T09:15:25Z</time>
      </trkpt>
      <trkpt lat="45.66082" lon="-1.03744">
        <ele>9.8</ele>
        <time>2023-08-06T09:15:28Z</time>
      </trkpt>
      <trkpt lat="45.66083" lon="-1.03741">
        <ele>10</ele>
        <time>2023-08-06T09:15:29Z</time>
      </trkpt>
      <trkpt lat="45.66085" lon="-1.03738">
        <ele>10</ele>
        <time>2023-08-06T09:15:30Z</time>
      </trkpt>
      <trkpt lat="45.6609" lon="-1.03738">
        <ele>10.2</ele>
        <time>2023-08-06T09:15:32Z</time>
      </trkpt>
      <trkpt lat="45.66091" lon="-1.03737">
        <ele>10.2</ele>
        <time>2023-08-06T09:15:33Z</time>
      </trkpt>
      <trkpt lat="45.66101" lon="-1.0374">
        <ele>9.4</ele>
        <time>2023-08-06T09:15:37Z</time>
      </trkpt>
      <trkpt lat="45.66103" lon="-1.03739">
        <ele>9.4</ele>
        <time>2023-08-06T09:15:38Z</time>
      </trkpt>
      <trkpt lat="45.66106" lon="-1.03736">
        <ele>9.4</ele>
        <time>2023-08-06T09:15:40Z</time>
      </trkpt>
      <trkpt lat="45.66106" lon="-1.03734">
        <ele>9.8</ele>
        <time>2023-08-06T09:15:41Z</time>
      </trkpt>
      <trkpt lat="45.661" lon="-1.0372">
        <ele>10</ele>
        <time>2023-08-06T09:15:45Z</time>
      </trkpt>
      <trkpt lat="45.66091" lon="-1.03705">
        <ele>11</ele>
        <time>2023-08-06T09:15:49Z</time>
      </trkpt>
      <trkpt lat="45.66092" lon="-1.0369">
        <ele>11.4</ele>
        <time>2023-08-06T09:15:51Z</time>
      </trkpt>
      <trkpt lat="45.66088" lon="-1.03683">
        <ele>11.8</ele>
        <time>2023-08-06T09:15:53Z</time>
      </trkpt>
      <trkpt lat="45.66083" lon="-1.0368">
        <ele>11.8</ele>
        <time>2023-08-06T09:15:55Z</time>
      </trkpt>
      <trkpt lat="45.6608" lon="-1.03677">
        <ele>11.8</ele>
        <time>2023-08-06T09:15:56Z</time>
      </trkpt>
      <trkpt lat="45.66071" lon="-1.03672">
        <ele>11.2</ele>
        <time>2023-08-06T09:15:59Z</time>
      </trkpt>
      <trkpt lat="45.66066" lon="-1.03667">
        <ele>10.8</ele>
        <time>2023-08-06T09:16:01Z</time>
      </trkpt>
      <trkpt lat="45.66057" lon="-1.03663">
        <ele>10.8</ele>
        <time>2023-08-06T09:16:04Z</time>
      </trkpt>
      <trkpt lat="45.66051" lon="-1.03661">
        <ele>11</ele>
        <time>2023-08-06T09:16:06Z</time>
      </trkpt>
      <trkpt lat="45.66044" lon="-1.03659">
        <ele>12.2</ele>
        <time>2023-08-06T09:16:08Z</time>
      </trkpt>
      <trkpt lat="45.66036" lon="-1.03659">
        <ele>12.8</ele>
        <time>2023-08-06T09:16:10Z</time>
      </trkpt>
      <trkpt lat="45.66033" lon="-1.03659">
        <ele>13</ele>
        <time>2023-08-06T09:16:11Z</time>
      </trkpt>
      <trkpt lat="45.66025" lon="-1.03667">
        <ele>13.2</ele>
        <time>2023-08-06T09:16:15Z</time>
      </trkpt>
      <trkpt lat="45.66024" lon="-1.0367">
        <ele>13.2</ele>
        <time>2023-08-06T09:16:16Z</time>
      </trkpt>
      <trkpt lat="45.66021" lon="-1.03677">
        <ele>13.2</ele>
        <time>2023-08-06T09:16:18Z</time>
      </trkpt>
      <trkpt lat="45.66016" lon="-1.03679">
        <ele>13.4</ele>
        <time>2023-08-06T09:16:20Z</time>
      </trkpt>
      <trkpt lat="45.66001" lon="-1.03677">
        <ele>13.4</ele>
        <time>2023-08-06T09:16:24Z</time>
      </trkpt>
      <trkpt lat="45.65984" lon="-1.03675">
        <ele>13.4</ele>
        <time>2023-08-06T09:16:29Z</time>
      </trkpt>
      <trkpt lat="45.65981" lon="-1.03674">
        <ele>13.4</ele>
        <time>2023-08-06T09:16:30Z</time>
      </trkpt>
      <trkpt lat="45.65979" lon="-1.03673">
        <ele>13.4</ele>
        <time>2023-08-06T09:16:31Z</time>
      </trkpt>
      <trkpt lat="45.65969" lon="-1.03673">
        <ele>13.4</ele>
        <time>2023-08-06T09:16:34Z</time>
      </trkpt>
      <trkpt lat="45.65942" lon="-1.03672">
        <ele>13.8</ele>
        <time>2023-08-06T09:16:41Z</time>
      </trkpt>
      <trkpt lat="45.65929" lon="-1.03673">
        <ele>13.6</ele>
        <time>2023-08-06T09:16:44Z</time>
      </trkpt>
      <trkpt lat="45.6592" lon="-1.03675">
        <ele>13.6</ele>
        <time>2023-08-06T09:16:46Z</time>
      </trkpt>
      <trkpt lat="45.65908" lon="-1.03678">
        <ele>13.4</ele>
        <time>2023-08-06T09:16:48Z</time>
      </trkpt>
      <trkpt lat="45.65904" lon="-1.03679">
        <ele>13.4</ele>
        <time>2023-08-06T09:16:49Z</time>
      </trkpt>
      <trkpt lat="45.65894" lon="-1.03681">
        <ele>13.2</ele>
        <time>2023-08-06T09:16:52Z</time>
      </trkpt>
      <trkpt lat="45.65892" lon="-1.03683">
        <ele>13.2</ele>
        <time>2023-08-06T09:16:53Z</time>
      </trkpt>
      <trkpt lat="45.65885" lon="-1.03689">
        <ele>13</ele>
        <time>2023-08-06T09:16:56Z</time>
      </trkpt>
      <trkpt lat="45.65876" lon="-1.03697">
        <ele>13</ele>
        <time>2023-08-06T09:16:58Z</time>
      </trkpt>
      <trkpt lat="45.65869" lon="-1.03699">
        <ele>12.8</ele>
        <time>2023-08-06T09:17:00Z</time>
      </trkpt>
      <trkpt lat="45.65859" lon="-1.03698">
        <ele>12.8</ele>
        <time>2023-08-06T09:17:02Z</time>
      </trkpt>
      <trkpt lat="45.65855" lon="-1.03693">
        <ele>13</ele>
        <time>2023-08-06T09:17:04Z</time>
      </trkpt>
      <trkpt lat="45.65855" lon="-1.0369">
        <ele>13</ele>
        <time>2023-08-06T09:17:05Z</time>
      </trkpt>
      <trkpt lat="45.65852" lon="-1.0368">
        <ele>13.2</ele>
        <time>2023-08-06T09:17:08Z</time>
      </trkpt>
      <trkpt lat="45.65851" lon="-1.03676">
        <ele>13.2</ele>
        <time>2023-08-06T09:17:09Z</time>
      </trkpt>
      <trkpt lat="45.6585" lon="-1.0367">
        <ele>13.2</ele>
        <time>2023-08-06T09:17:11Z</time>
      </trkpt>
      <trkpt lat="45.65847" lon="-1.03666">
        <ele>13.2</ele>
        <time>2023-08-06T09:17:13Z</time>
      </trkpt>
      <trkpt lat="45.65845" lon="-1.03667">
        <ele>13.2</ele>
        <time>2023-08-06T09:17:14Z</time>
      </trkpt>
      <trkpt lat="45.65841" lon="-1.0367">
        <ele>12.8</ele>
        <time>2023-08-06T09:17:16Z</time>
      </trkpt>
      <trkpt lat="45.65838" lon="-1.03672">
        <ele>12.8</ele>
        <time>2023-08-06T09:17:17Z</time>
      </trkpt>
      <trkpt lat="45.65836" lon="-1.03675">
        <ele>12.8</ele>
        <time>2023-08-06T09:17:18Z</time>
      </trkpt>
      <trkpt lat="45.65834" lon="-1.03682">
        <ele>12.8</ele>
        <time>2023-08-06T09:17:20Z</time>
      </trkpt>
      <trkpt lat="45.65832" lon="-1.03687">
        <ele>12.8</ele>
        <time>2023-08-06T09:17:22Z</time>
      </trkpt>
      <trkpt lat="45.65831" lon="-1.03689">
        <ele>12.8</ele>
        <time>2023-08-06T09:17:23Z</time>
      </trkpt>
      <trkpt lat="45.65826" lon="-1.03695">
        <ele>13.2</ele>
        <time>2023-08-06T09:17:26Z</time>
      </trkpt>
      <trkpt lat="45.65824" lon="-1.03697">
        <ele>13.2</ele>
        <time>2023-08-06T09:17:27Z</time>
      </trkpt>
      <trkpt lat="45.65819" lon="-1.03699">
        <ele>13.2</ele>
        <time>2023-08-06T09:17:28Z</time>
      </trkpt>
      <trkpt lat="45.65804" lon="-1.03698">
        <ele>13.2</ele>
        <time>2023-08-06T09:17:31Z</time>
      </trkpt>
      <trkpt lat="45.65786" lon="-1.03694">
        <ele>12.8</ele>
        <time>2023-08-06T09:17:35Z</time>
      </trkpt>
      <trkpt lat="45.65782" lon="-1.03694">
        <ele>12.8</ele>
        <time>2023-08-06T09:17:36Z</time>
      </trkpt>
      <trkpt lat="45.65779" lon="-1.03692">
        <ele>12.6</ele>
        <time>2023-08-06T09:17:37Z</time>
      </trkpt>
      <trkpt lat="45.65777" lon="-1.0369">
        <ele>12.2</ele>
        <time>2023-08-06T09:17:38Z</time>
      </trkpt>
      <trkpt lat="45.65776" lon="-1.03687">
        <ele>11.8</ele>
        <time>2023-08-06T09:17:39Z</time>
      </trkpt>
      <trkpt lat="45.65775" lon="-1.03683">
        <ele>11.6</ele>
        <time>2023-08-06T09:17:40Z</time>
      </trkpt>
      <trkpt lat="45.65772" lon="-1.0367">
        <ele>11.4</ele>
        <time>2023-08-06T09:17:43Z</time>
      </trkpt>
      <trkpt lat="45.65772" lon="-1.03662">
        <ele>11.2</ele>
        <time>2023-08-06T09:17:45Z</time>
      </trkpt>
      <trkpt lat="45.65773" lon="-1.03659">
        <ele>11.2</ele>
        <time>2023-08-06T09:17:46Z</time>
      </trkpt>
      <trkpt lat="45.65773" lon="-1.03655">
        <ele>11.2</ele>
        <time>2023-08-06T09:17:47Z</time>
      </trkpt>
      <trkpt lat="45.65772" lon="-1.03647">
        <ele>11.4</ele>
        <time>2023-08-06T09:17:49Z</time>
      </trkpt>
      <trkpt lat="45.65767" lon="-1.03638">
        <ele>11.8</ele>
        <time>2023-08-06T09:17:51Z</time>
      </trkpt>
      <trkpt lat="45.65764" lon="-1.03628">
        <ele>12</ele>
        <time>2023-08-06T09:17:53Z</time>
      </trkpt>
      <trkpt lat="45.65765" lon="-1.03617">
        <ele>12</ele>
        <time>2023-08-06T09:17:55Z</time>
      </trkpt>
      <trkpt lat="45.65767" lon="-1.03614">
        <ele>12.4</ele>
        <time>2023-08-06T09:17:56Z</time>
      </trkpt>
      <trkpt lat="45.65769" lon="-1.0361">
        <ele>12.2</ele>
        <time>2023-08-06T09:17:58Z</time>
      </trkpt>
      <trkpt lat="45.65771" lon="-1.03606">
        <ele>12</ele>
        <time>2023-08-06T09:18:00Z</time>
      </trkpt>
      <trkpt lat="45.65776" lon="-1.03601">
        <ele>12</ele>
        <time>2023-08-06T09:18:03Z</time>
      </trkpt>
      <trkpt lat="45.65776" lon="-1.03591">
        <ele>12.2</ele>
        <time>2023-08-06T09:18:06Z</time>
      </trkpt>
      <trkpt lat="45.65775" lon="-1.03576">
        <ele>12.6</ele>
        <time>2023-08-06T09:18:09Z</time>
      </trkpt>
      <trkpt lat="45.65772" lon="-1.03568">
        <ele>12.8</ele>
        <time>2023-08-06T09:18:11Z</time>
      </trkpt>
      <trkpt lat="45.65768" lon="-1.03561">
        <ele>12.8</ele>
        <time>2023-08-06T09:18:13Z</time>
      </trkpt>
      <trkpt lat="45.65768" lon="-1.03554">
        <ele>12.8</ele>
        <time>2023-08-06T09:18:15Z</time>
      </trkpt>
      <trkpt lat="45.6577" lon="-1.0355">
        <ele>12.8</ele>
        <time>2023-08-06T09:18:16Z</time>
      </trkpt>
      <trkpt lat="45.65778" lon="-1.03537">
        <ele>12.6</ele>
        <time>2023-08-06T09:18:20Z</time>
      </trkpt>
      <trkpt lat="45.65792" lon="-1.03523">
        <ele>13</ele>
        <time>2023-08-06T09:18:25Z</time>
      </trkpt>
      <trkpt lat="45.65798" lon="-1.03519">
        <ele>13.2</ele>
        <time>2023-08-06T09:18:27Z</time>
      </trkpt>
      <trkpt lat="45.65802" lon="-1.03514">
        <ele>13.2</ele>
        <time>2023-08-06T09:18:29Z</time>
      </trkpt>
      <trkpt lat="45.65803" lon="-1.0351">
        <ele>13.4</ele>
        <time>2023-08-06T09:18:30Z</time>
      </trkpt>
      <trkpt lat="45.65808" lon="-1.03495">
        <ele>13.6</ele>
        <time>2023-08-06T09:18:33Z</time>
      </trkpt>
      <trkpt lat="45.65812" lon="-1.03485">
        <ele>14</ele>
        <time>2023-08-06T09:18:35Z</time>
      </trkpt>
      <trkpt lat="45.65819" lon="-1.03471">
        <ele>14.6</ele>
        <time>2023-08-06T09:18:38Z</time>
      </trkpt>
      <trkpt lat="45.65821" lon="-1.03469">
        <ele>14.8</ele>
        <time>2023-08-06T09:18:39Z</time>
      </trkpt>
      <trkpt lat="45.65824" lon="-1.03469">
        <ele>15</ele>
        <time>2023-08-06T09:18:40Z</time>
      </trkpt>
      <trkpt lat="45.65828" lon="-1.03464">
        <ele>14.4</ele>
        <time>2023-08-06T09:18:42Z</time>
      </trkpt>
      <trkpt lat="45.65834" lon="-1.03454">
        <ele>14.2</ele>
        <time>2023-08-06T09:18:45Z</time>
      </trkpt>
      <trkpt lat="45.65836" lon="-1.03452">
        <ele>14.2</ele>
        <time>2023-08-06T09:18:46Z</time>
      </trkpt>
      <trkpt lat="45.65837" lon="-1.03439">
        <ele>14.4</ele>
        <time>2023-08-06T09:18:49Z</time>
      </trkpt>
      <trkpt lat="45.65836" lon="-1.03422">
        <ele>14.6</ele>
        <time>2023-08-06T09:18:54Z</time>
      </trkpt>
      <trkpt lat="45.65828" lon="-1.03413">
        <ele>14</ele>
        <time>2023-08-06T09:18:59Z</time>
      </trkpt>
      <trkpt lat="45.65818" lon="-1.03407">
        <ele>14.2</ele>
        <time>2023-08-06T09:19:05Z</time>
      </trkpt>
      <trkpt lat="45.65805" lon="-1.03396">
        <ele>14</ele>
        <time>2023-08-06T09:19:10Z</time>
      </trkpt>
      <trkpt lat="45.65793" lon="-1.03386">
        <ele>14</ele>
        <time>2023-08-06T09:19:15Z</time>
      </trkpt>
      <trkpt lat="45.65789" lon="-1.03383">
        <ele>14</ele>
        <time>2023-08-06T09:19:17Z</time>
      </trkpt>
      <trkpt lat="45.65781" lon="-1.03383">
        <ele>14</ele>
        <time>2023-08-06T09:19:20Z</time>
      </trkpt>
      <trkpt lat="45.65766" lon="-1.03378">
        <ele>14</ele>
        <time>2023-08-06T09:19:25Z</time>
      </trkpt>
      <trkpt lat="45.65759" lon="-1.03377">
        <ele>13.8</ele>
        <time>2023-08-06T09:19:27Z</time>
      </trkpt>
      <trkpt lat="45.65752" lon="-1.03376">
        <ele>13.6</ele>
        <time>2023-08-06T09:19:29Z</time>
      </trkpt>
      <trkpt lat="45.65739" lon="-1.03373">
        <ele>13.2</ele>
        <time>2023-08-06T09:19:34Z</time>
      </trkpt>
      <trkpt lat="45.65731" lon="-1.03372">
        <ele>13</ele>
        <time>2023-08-06T09:19:37Z</time>
      </trkpt>
      <trkpt lat="45.65728" lon="-1.03375">
        <ele>13</ele>
        <time>2023-08-06T09:19:39Z</time>
      </trkpt>
      <trkpt lat="45.65727" lon="-1.03376">
        <ele>13</ele>
        <time>2023-08-06T09:19:40Z</time>
      </trkpt>
      <trkpt lat="45.65723" lon="-1.03383">
        <ele>12.8</ele>
        <time>2023-08-06T09:19:45Z</time>
      </trkpt>
      <trkpt lat="45.65721" lon="-1.03385">
        <ele>12.6</ele>
        <time>2023-08-06T09:19:47Z</time>
      </trkpt>
      <trkpt lat="45.65718" lon="-1.03388">
        <ele>12.6</ele>
        <time>2023-08-06T09:19:49Z</time>
      </trkpt>
      <trkpt lat="45.65713" lon="-1.03393">
        <ele>12.6</ele>
        <time>2023-08-06T09:19:52Z</time>
      </trkpt>
      <trkpt lat="45.65698" lon="-1.03399">
        <ele>12.6</ele>
        <time>2023-08-06T09:19:55Z</time>
      </trkpt>
      <trkpt lat="45.65694" lon="-1.034">
        <ele>12.4</ele>
        <time>2023-08-06T09:19:56Z</time>
      </trkpt>
      <trkpt lat="45.65682" lon="-1.03393">
        <ele>12.6</ele>
        <time>2023-08-06T09:20:02Z</time>
      </trkpt>
      <trkpt lat="45.65676" lon="-1.03384">
        <ele>12.2</ele>
        <time>2023-08-06T09:20:05Z</time>
      </trkpt>
      <trkpt lat="45.65672" lon="-1.03379">
        <ele>11.8</ele>
        <time>2023-08-06T09:20:07Z</time>
      </trkpt>
      <trkpt lat="45.65671" lon="-1.03376">
        <ele>11.6</ele>
        <time>2023-08-06T09:20:08Z</time>
      </trkpt>
      <trkpt lat="45.65663" lon="-1.03364">
        <ele>12</ele>
        <time>2023-08-06T09:20:11Z</time>
      </trkpt>
      <trkpt lat="45.65661" lon="-1.03354">
        <ele>12.2</ele>
        <time>2023-08-06T09:20:13Z</time>
      </trkpt>
      <trkpt lat="45.65657" lon="-1.03347">
        <ele>12.4</ele>
        <time>2023-08-06T09:20:15Z</time>
      </trkpt>
      <trkpt lat="45.6565" lon="-1.03335">
        <ele>12.4</ele>
        <time>2023-08-06T09:20:18Z</time>
      </trkpt>
      <trkpt lat="45.65645" lon="-1.03323">
        <ele>12.4</ele>
        <time>2023-08-06T09:20:20Z</time>
      </trkpt>
      <trkpt lat="45.65643" lon="-1.03313">
        <ele>12.4</ele>
        <time>2023-08-06T09:20:22Z</time>
      </trkpt>
      <trkpt lat="45.65635" lon="-1.03296">
        <ele>13</ele>
        <time>2023-08-06T09:20:26Z</time>
      </trkpt>
      <trkpt lat="45.65632" lon="-1.03294">
        <ele>13</ele>
        <time>2023-08-06T09:20:27Z</time>
      </trkpt>
      <trkpt lat="45.65618" lon="-1.03287">
        <ele>13</ele>
        <time>2023-08-06T09:20:31Z</time>
      </trkpt>
      <trkpt lat="45.65612" lon="-1.03275">
        <ele>12.6</ele>
        <time>2023-08-06T09:20:34Z</time>
      </trkpt>
      <trkpt lat="45.65612" lon="-1.03272">
        <ele>12.4</ele>
        <time>2023-08-06T09:20:35Z</time>
      </trkpt>
      <trkpt lat="45.65615" lon="-1.03257">
        <ele>12.2</ele>
        <time>2023-08-06T09:20:39Z</time>
      </trkpt>
      <trkpt lat="45.65617" lon="-1.03255">
        <ele>12.4</ele>
        <time>2023-08-06T09:20:40Z</time>
      </trkpt>
      <trkpt lat="45.65622" lon="-1.0325">
        <ele>12.6</ele>
        <time>2023-08-06T09:20:42Z</time>
      </trkpt>
      <trkpt lat="45.65626" lon="-1.03245">
        <ele>13</ele>
        <time>2023-08-06T09:20:44Z</time>
      </trkpt>
      <trkpt lat="45.65629" lon="-1.03245">
        <ele>13.2</ele>
        <time>2023-08-06T09:20:45Z</time>
      </trkpt>
      <trkpt lat="45.6565" lon="-1.03249">
        <ele>13.6</ele>
        <time>2023-08-06T09:20:51Z</time>
      </trkpt>
      <trkpt lat="45.65653" lon="-1.03251">
        <ele>13.6</ele>
        <time>2023-08-06T09:20:52Z</time>
      </trkpt>
      <trkpt lat="45.65664" lon="-1.03257">
        <ele>13</ele>
        <time>2023-08-06T09:20:56Z</time>
      </trkpt>
      <trkpt lat="45.65677" lon="-1.03267">
        <ele>13.6</ele>
        <time>2023-08-06T09:21:00Z</time>
      </trkpt>
      <trkpt lat="45.65679" lon="-1.03269">
        <ele>13.6</ele>
        <time>2023-08-06T09:21:01Z</time>
      </trkpt>
      <trkpt lat="45.6568" lon="-1.03271">
        <ele>13.6</ele>
        <time>2023-08-06T09:21:02Z</time>
      </trkpt>
      <trkpt lat="45.65684" lon="-1.03279">
        <ele>13.6</ele>
        <time>2023-08-06T09:21:05Z</time>
      </trkpt>
      <trkpt lat="45.65687" lon="-1.03282">
        <ele>13.4</ele>
        <time>2023-08-06T09:21:06Z</time>
      </trkpt>
      <trkpt lat="45.65698" lon="-1.03288">
        <ele>13.4</ele>
        <time>2023-08-06T09:21:09Z</time>
      </trkpt>
      <trkpt lat="45.65704" lon="-1.03295">
        <ele>13.2</ele>
        <time>2023-08-06T09:21:11Z</time>
      </trkpt>
      <trkpt lat="45.65727" lon="-1.03308">
        <ele>13.2</ele>
        <time>2023-08-06T09:21:16Z</time>
      </trkpt>
      <trkpt lat="45.65731" lon="-1.0331">
        <ele>13.2</ele>
        <time>2023-08-06T09:21:17Z</time>
      </trkpt>
      <trkpt lat="45.65748" lon="-1.03312">
        <ele>13.2</ele>
        <time>2023-08-06T09:21:21Z</time>
      </trkpt>
      <trkpt lat="45.65752" lon="-1.03312">
        <ele>13.2</ele>
        <time>2023-08-06T09:21:22Z</time>
      </trkpt>
      <trkpt lat="45.65763" lon="-1.03311">
        <ele>13.6</ele>
        <time>2023-08-06T09:21:25Z</time>
      </trkpt>
      <trkpt lat="45.65767" lon="-1.03312">
        <ele>13.6</ele>
        <time>2023-08-06T09:21:26Z</time>
      </trkpt>
      <trkpt lat="45.65785" lon="-1.03317">
        <ele>13.8</ele>
        <time>2023-08-06T09:21:30Z</time>
      </trkpt>
      <trkpt lat="45.6579" lon="-1.03318">
        <ele>13.8</ele>
        <time>2023-08-06T09:21:31Z</time>
      </trkpt>
      <trkpt lat="45.65809" lon="-1.03325">
        <ele>14</ele>
        <time>2023-08-06T09:21:35Z</time>
      </trkpt>
      <trkpt lat="45.65817" lon="-1.03328">
        <ele>14</ele>
        <time>2023-08-06T09:21:37Z</time>
      </trkpt>
      <trkpt lat="45.65835" lon="-1.03335">
        <ele>13.8</ele>
        <time>2023-08-06T09:21:41Z</time>
      </trkpt>
      <trkpt lat="45.65838" lon="-1.03337">
        <ele>14</ele>
        <time>2023-08-06T09:21:42Z</time>
      </trkpt>
      <trkpt lat="45.65845" lon="-1.03341">
        <ele>14.6</ele>
        <time>2023-08-06T09:21:44Z</time>
      </trkpt>
      <trkpt lat="45.65849" lon="-1.03342">
        <ele>14.8</ele>
        <time>2023-08-06T09:21:45Z</time>
      </trkpt>
      <trkpt lat="45.65859" lon="-1.03345">
        <ele>14.8</ele>
        <time>2023-08-06T09:21:48Z</time>
      </trkpt>
      <trkpt lat="45.65862" lon="-1.03346">
        <ele>14.4</ele>
        <time>2023-08-06T09:21:49Z</time>
      </trkpt>
      <trkpt lat="45.65867" lon="-1.03344">
        <ele>14</ele>
        <time>2023-08-06T09:21:51Z</time>
      </trkpt>
      <trkpt lat="45.65869" lon="-1.03341">
        <ele>13.8</ele>
        <time>2023-08-06T09:21:52Z</time>
      </trkpt>
      <trkpt lat="45.65875" lon="-1.03329">
        <ele>14.6</ele>
        <time>2023-08-06T09:21:56Z</time>
      </trkpt>
      <trkpt lat="45.65879" lon="-1.03324">
        <ele>14.8</ele>
        <time>2023-08-06T09:21:58Z</time>
      </trkpt>
      <trkpt lat="45.65885" lon="-1.03314">
        <ele>15.4</ele>
        <time>2023-08-06T09:22:00Z</time>
      </trkpt>
      <trkpt lat="45.65895" lon="-1.03294">
        <ele>15.4</ele>
        <time>2023-08-06T09:22:04Z</time>
      </trkpt>
      <trkpt lat="45.65902" lon="-1.03284">
        <ele>15.8</ele>
        <time>2023-08-06T09:22:06Z</time>
      </trkpt>
      <trkpt lat="45.65904" lon="-1.03279">
        <ele>15.8</ele>
        <time>2023-08-06T09:22:07Z</time>
      </trkpt>
      <trkpt lat="45.65905" lon="-1.03274">
        <ele>15.8</ele>
        <time>2023-08-06T09:22:08Z</time>
      </trkpt>
      <trkpt lat="45.65909" lon="-1.03263">
        <ele>16</ele>
        <time>2023-08-06T09:22:10Z</time>
      </trkpt>
      <trkpt lat="45.65915" lon="-1.0325">
        <ele>15.8</ele>
        <time>2023-08-06T09:22:12Z</time>
      </trkpt>
      <trkpt lat="45.65918" lon="-1.03244">
        <ele>15.8</ele>
        <time>2023-08-06T09:22:13Z</time>
      </trkpt>
      <trkpt lat="45.65929" lon="-1.03221">
        <ele>15.6</ele>
        <time>2023-08-06T09:22:17Z</time>
      </trkpt>
      <trkpt lat="45.65932" lon="-1.0321">
        <ele>15.6</ele>
        <time>2023-08-06T09:22:19Z</time>
      </trkpt>
      <trkpt lat="45.65935" lon="-1.03197">
        <ele>15.8</ele>
        <time>2023-08-06T09:22:21Z</time>
      </trkpt>
      <trkpt lat="45.65941" lon="-1.03174">
        <ele>15.8</ele>
        <time>2023-08-06T09:22:24Z</time>
      </trkpt>
      <trkpt lat="45.65946" lon="-1.03151">
        <ele>16.2</ele>
        <time>2023-08-06T09:22:27Z</time>
      </trkpt>
      <trkpt lat="45.6595" lon="-1.03133">
        <ele>16.6</ele>
        <time>2023-08-06T09:22:30Z</time>
      </trkpt>
      <trkpt lat="45.6596" lon="-1.03094">
        <ele>16.2</ele>
        <time>2023-08-06T09:22:35Z</time>
      </trkpt>
      <trkpt lat="45.65961" lon="-1.0308">
        <ele>15.8</ele>
        <time>2023-08-06T09:22:37Z</time>
      </trkpt>
      <trkpt lat="45.65962" lon="-1.03063">
        <ele>16</ele>
        <time>2023-08-06T09:22:39Z</time>
      </trkpt>
      <trkpt lat="45.65963" lon="-1.03046">
        <ele>16.2</ele>
        <time>2023-08-06T09:22:41Z</time>
      </trkpt>
      <trkpt lat="45.65963" lon="-1.03032">
        <ele>16.2</ele>
        <time>2023-08-06T09:22:43Z</time>
      </trkpt>
      <trkpt lat="45.65962" lon="-1.03025">
        <ele>16.2</ele>
        <time>2023-08-06T09:22:44Z</time>
      </trkpt>
      <trkpt lat="45.65962" lon="-1.03017">
        <ele>16.4</ele>
        <time>2023-08-06T09:22:45Z</time>
      </trkpt>
      <trkpt lat="45.65964" lon="-1.03">
        <ele>16.2</ele>
        <time>2023-08-06T09:22:47Z</time>
      </trkpt>
      <trkpt lat="45.65963" lon="-1.02987">
        <ele>16.2</ele>
        <time>2023-08-06T09:22:49Z</time>
      </trkpt>
      <trkpt lat="45.65962" lon="-1.0296">
        <ele>15.8</ele>
        <time>2023-08-06T09:22:53Z</time>
      </trkpt>
      <trkpt lat="45.65965" lon="-1.02948">
        <ele>15.8</ele>
        <time>2023-08-06T09:22:55Z</time>
      </trkpt>
      <trkpt lat="45.65974" lon="-1.02941">
        <ele>16.2</ele>
        <time>2023-08-06T09:22:58Z</time>
      </trkpt>
      <trkpt lat="45.65978" lon="-1.02937">
        <ele>16.4</ele>
        <time>2023-08-06T09:22:59Z</time>
      </trkpt>
      <trkpt lat="45.65997" lon="-1.02922">
        <ele>16.8</ele>
        <time>2023-08-06T09:23:02Z</time>
      </trkpt>
      <trkpt lat="45.66008" lon="-1.02914">
        <ele>16.8</ele>
        <time>2023-08-06T09:23:03Z</time>
      </trkpt>
      <trkpt lat="45.66034" lon="-1.02898">
        <ele>16</ele>
        <time>2023-08-06T09:23:09Z</time>
      </trkpt>
      <trkpt lat="45.66068" lon="-1.02874">
        <ele>16.6</ele>
        <time>2023-08-06T09:23:15Z</time>
      </trkpt>
      <trkpt lat="45.66089" lon="-1.02861">
        <ele>15.8</ele>
        <time>2023-08-06T09:23:18Z</time>
      </trkpt>
      <trkpt lat="45.66109" lon="-1.02852">
        <ele>15.8</ele>
        <time>2023-08-06T09:23:21Z</time>
      </trkpt>
      <trkpt lat="45.66122" lon="-1.02848">
        <ele>16</ele>
        <time>2023-08-06T09:23:23Z</time>
      </trkpt>
      <trkpt lat="45.66133" lon="-1.02848">
        <ele>16.2</ele>
        <time>2023-08-06T09:23:25Z</time>
      </trkpt>
      <trkpt lat="45.66139" lon="-1.02849">
        <ele>16.2</ele>
        <time>2023-08-06T09:23:26Z</time>
      </trkpt>
      <trkpt lat="45.66177" lon="-1.02856">
        <ele>16.2</ele>
        <time>2023-08-06T09:23:33Z</time>
      </trkpt>
      <trkpt lat="45.66182" lon="-1.02855">
        <ele>16.2</ele>
        <time>2023-08-06T09:23:34Z</time>
      </trkpt>
      <trkpt lat="45.66192" lon="-1.0285">
        <ele>16.4</ele>
        <time>2023-08-06T09:23:36Z</time>
      </trkpt>
      <trkpt lat="45.66196" lon="-1.02845">
        <ele>16.6</ele>
        <time>2023-08-06T09:23:37Z</time>
      </trkpt>
      <trkpt lat="45.662" lon="-1.0284">
        <ele>16.6</ele>
        <time>2023-08-06T09:23:38Z</time>
      </trkpt>
      <trkpt lat="45.66219" lon="-1.02823">
        <ele>16.8</ele>
        <time>2023-08-06T09:23:42Z</time>
      </trkpt>
      <trkpt lat="45.66243" lon="-1.02787">
        <ele>16.2</ele>
        <time>2023-08-06T09:23:48Z</time>
      </trkpt>
      <trkpt lat="45.66249" lon="-1.02775">
        <ele>15.6</ele>
        <time>2023-08-06T09:23:50Z</time>
      </trkpt>
      <trkpt lat="45.66253" lon="-1.02765">
        <ele>14.4</ele>
        <time>2023-08-06T09:23:52Z</time>
      </trkpt>
      <trkpt lat="45.66263" lon="-1.0274">
        <ele>13.4</ele>
        <time>2023-08-06T09:23:56Z</time>
      </trkpt>
      <trkpt lat="45.66267" lon="-1.02733">
        <ele>13.2</ele>
        <time>2023-08-06T09:23:57Z</time>
      </trkpt>
      <trkpt lat="45.66298" lon="-1.02677">
        <ele>12.2</ele>
        <time>2023-08-06T09:24:04Z</time>
      </trkpt>
      <trkpt lat="45.66312" lon="-1.02652">
        <ele>11.4</ele>
        <time>2023-08-06T09:24:08Z</time>
      </trkpt>
      <trkpt lat="45.66313" lon="-1.02648">
        <ele>10.8</ele>
        <time>2023-08-06T09:24:09Z</time>
      </trkpt>
      <trkpt lat="45.66317" lon="-1.02641">
        <ele>10</ele>
        <time>2023-08-06T09:24:12Z</time>
      </trkpt>
      <trkpt lat="45.66322" lon="-1.02638">
        <ele>10</ele>
        <time>2023-08-06T09:24:14Z</time>
      </trkpt>
      <trkpt lat="45.66327" lon="-1.0263">
        <ele>10</ele>
        <time>2023-08-06T09:24:16Z</time>
      </trkpt>
      <trkpt lat="45.66338" lon="-1.02611">
        <ele>9.6</ele>
        <time>2023-08-06T09:24:20Z</time>
      </trkpt>
      <trkpt lat="45.66341" lon="-1.02606">
        <ele>9.4</ele>
        <time>2023-08-06T09:24:21Z</time>
      </trkpt>
      <trkpt lat="45.66362" lon="-1.02574">
        <ele>9</ele>
        <time>2023-08-06T09:24:27Z</time>
      </trkpt>
      <trkpt lat="45.66391" lon="-1.02531">
        <ele>8.8</ele>
        <time>2023-08-06T09:24:34Z</time>
      </trkpt>
      <trkpt lat="45.66416" lon="-1.02497">
        <ele>8.6</ele>
        <time>2023-08-06T09:24:40Z</time>
      </trkpt>
      <trkpt lat="45.66448" lon="-1.02456">
        <ele>8.2</ele>
        <time>2023-08-06T09:24:48Z</time>
      </trkpt>
      <trkpt lat="45.66488" lon="-1.02416">
        <ele>9.4</ele>
        <time>2023-08-06T09:24:58Z</time>
      </trkpt>
      <trkpt lat="45.66492" lon="-1.02412">
        <ele>9.6</ele>
        <time>2023-08-06T09:24:59Z</time>
      </trkpt>
      <trkpt lat="45.66522" lon="-1.02378">
        <ele>10.4</ele>
        <time>2023-08-06T09:25:07Z</time>
      </trkpt>
      <trkpt lat="45.66525" lon="-1.02374">
        <ele>10.6</ele>
        <time>2023-08-06T09:25:08Z</time>
      </trkpt>
      <trkpt lat="45.66542" lon="-1.02357">
        <ele>11.8</ele>
        <time>2023-08-06T09:25:13Z</time>
      </trkpt>
      <trkpt lat="45.66548" lon="-1.02351">
        <ele>12.6</ele>
        <time>2023-08-06T09:25:15Z</time>
      </trkpt>
      <trkpt lat="45.66551" lon="-1.02348">
        <ele>12.8</ele>
        <time>2023-08-06T09:25:16Z</time>
      </trkpt>
      <trkpt lat="45.66567" lon="-1.02335">
        <ele>13.8</ele>
        <time>2023-08-06T09:25:22Z</time>
      </trkpt>
      <trkpt lat="45.66571" lon="-1.02332">
        <ele>14</ele>
        <time>2023-08-06T09:25:24Z</time>
      </trkpt>
      <trkpt lat="45.66581" lon="-1.02329">
        <ele>15</ele>
        <time>2023-08-06T09:25:28Z</time>
      </trkpt>
      <trkpt lat="45.66595" lon="-1.0234">
        <ele>15.4</ele>
        <time>2023-08-06T09:25:33Z</time>
      </trkpt>
      <trkpt lat="45.66607" lon="-1.02348">
        <ele>15.6</ele>
        <time>2023-08-06T09:25:38Z</time>
      </trkpt>
      <trkpt lat="45.66609" lon="-1.02347">
        <ele>15.6</ele>
        <time>2023-08-06T09:25:39Z</time>
      </trkpt>
      <trkpt lat="45.66611" lon="-1.02347">
        <ele>15.6</ele>
        <time>2023-08-06T09:25:40Z</time>
      </trkpt>
      <trkpt lat="45.66618" lon="-1.02346">
        <ele>15.6</ele>
        <time>2023-08-06T09:25:43Z</time>
      </trkpt>
      <trkpt lat="45.66626" lon="-1.02356">
        <ele>15.6</ele>
        <time>2023-08-06T09:25:47Z</time>
      </trkpt>
      <trkpt lat="45.66635" lon="-1.02362">
        <ele>15.6</ele>
        <time>2023-08-06T09:25:51Z</time>
      </trkpt>
      <trkpt lat="45.66649" lon="-1.02358">
        <ele>15.8</ele>
        <time>2023-08-06T09:25:56Z</time>
      </trkpt>
      <trkpt lat="45.66654" lon="-1.02359">
        <ele>16</ele>
        <time>2023-08-06T09:25:58Z</time>
      </trkpt>
      <trkpt lat="45.66659" lon="-1.02364">
        <ele>16</ele>
        <time>2023-08-06T09:26:00Z</time>
      </trkpt>
      <trkpt lat="45.66669" lon="-1.02376">
        <ele>16</ele>
        <time>2023-08-06T09:26:05Z</time>
      </trkpt>
      <trkpt lat="45.66669" lon="-1.02378">
        <ele>15.8</ele>
        <time>2023-08-06T09:26:06Z</time>
      </trkpt>
      <trkpt lat="45.66668" lon="-1.02381">
        <ele>15.8</ele>
        <time>2023-08-06T09:26:08Z</time>
      </trkpt>
      <trkpt lat="45.66666" lon="-1.02383">
        <ele>15.6</ele>
        <time>2023-08-06T09:26:10Z</time>
      </trkpt>
      <trkpt lat="45.66659" lon="-1.02388">
        <ele>15</ele>
        <time>2023-08-06T09:26:15Z</time>
      </trkpt>
      <trkpt lat="45.66658" lon="-1.02391">
        <ele>15</ele>
        <time>2023-08-06T09:26:16Z</time>
      </trkpt>
      <trkpt lat="45.66659" lon="-1.02396">
        <ele>14.8</ele>
        <time>2023-08-06T09:26:18Z</time>
      </trkpt>
      <trkpt lat="45.66659" lon="-1.02404">
        <ele>14.6</ele>
        <time>2023-08-06T09:26:21Z</time>
      </trkpt>
      <trkpt lat="45.6666" lon="-1.02406">
        <ele>14.6</ele>
        <time>2023-08-06T09:26:22Z</time>
      </trkpt>
      <trkpt lat="45.66663" lon="-1.02412">
        <ele>14.4</ele>
        <time>2023-08-06T09:26:26Z</time>
      </trkpt>
      <trkpt lat="45.66668" lon="-1.02411">
        <ele>14.6</ele>
        <time>2023-08-06T09:26:29Z</time>
      </trkpt>
      <trkpt lat="45.66671" lon="-1.02413">
        <ele>14.8</ele>
        <time>2023-08-06T09:26:32Z</time>
      </trkpt>
      <trkpt lat="45.66671" lon="-1.02412">
        <ele>14.8</ele>
        <time>2023-08-06T09:26:33Z</time>
      </trkpt>
      <trkpt lat="45.66671" lon="-1.0241">
        <ele>14.8</ele>
        <time>2023-08-06T09:26:35Z</time>
      </trkpt>
      <trkpt lat="45.66673" lon="-1.02407">
        <ele>15.4</ele>
        <time>2023-08-06T09:26:37Z</time>
      </trkpt>
      <trkpt lat="45.66684" lon="-1.02403">
        <ele>15.6</ele>
        <time>2023-08-06T09:26:43Z</time>
      </trkpt>
      <trkpt lat="45.66685" lon="-1.02402">
        <ele>15.6</ele>
        <time>2023-08-06T09:26:44Z</time>
      </trkpt>
      <trkpt lat="45.66687" lon="-1.02394">
        <ele>15.6</ele>
        <time>2023-08-06T09:26:48Z</time>
      </trkpt>
      <trkpt lat="45.66693" lon="-1.02383">
        <ele>16</ele>
        <time>2023-08-06T09:26:53Z</time>
      </trkpt>
      <trkpt lat="45.66692" lon="-1.02381">
        <ele>16</ele>
        <time>2023-08-06T09:26:54Z</time>
      </trkpt>
      <trkpt lat="45.66691" lon="-1.02378">
        <ele>16.2</ele>
        <time>2023-08-06T09:26:56Z</time>
      </trkpt>
      <trkpt lat="45.6669" lon="-1.02377">
        <ele>16.2</ele>
        <time>2023-08-06T09:26:57Z</time>
      </trkpt>
      <trkpt lat="45.66684" lon="-1.02367">
        <ele>16.2</ele>
        <time>2023-08-06T09:27:02Z</time>
      </trkpt>
      <trkpt lat="45.66684" lon="-1.02357">
        <ele>16.2</ele>
        <time>2023-08-06T09:27:06Z</time>
      </trkpt>
      <trkpt lat="45.66685" lon="-1.02355">
        <ele>16.2</ele>
        <time>2023-08-06T09:27:07Z</time>
      </trkpt>
      <trkpt lat="45.66686" lon="-1.02343">
        <ele>16.2</ele>
        <time>2023-08-06T09:27:19Z</time>
      </trkpt>
      <trkpt lat="45.66684" lon="-1.02335">
        <ele>16</ele>
        <time>2023-08-06T09:27:31Z</time>
      </trkpt>
      <trkpt lat="45.66684" lon="-1.02318">
        <ele>16.6</ele>
        <time>2023-08-06T09:27:37Z</time>
      </trkpt>
      <trkpt lat="45.66695" lon="-1.02306">
        <ele>16.8</ele>
        <time>2023-08-06T09:27:43Z</time>
      </trkpt>
      <trkpt lat="45.66698" lon="-1.02307">
        <ele>16.8</ele>
        <time>2023-08-06T09:27:44Z</time>
      </trkpt>
      <trkpt lat="45.66703" lon="-1.02311">
        <ele>16.6</ele>
        <time>2023-08-06T09:27:47Z</time>
      </trkpt>
      <trkpt lat="45.66705" lon="-1.02312">
        <ele>16.4</ele>
        <time>2023-08-06T09:27:48Z</time>
      </trkpt>
      <trkpt lat="45.66715" lon="-1.02313">
        <ele>16.2</ele>
        <time>2023-08-06T09:27:52Z</time>
      </trkpt>
      <trkpt lat="45.66717" lon="-1.02314">
        <ele>16.2</ele>
        <time>2023-08-06T09:27:53Z</time>
      </trkpt>
      <trkpt lat="45.66725" lon="-1.02321">
        <ele>16.2</ele>
        <time>2023-08-06T09:27:56Z</time>
      </trkpt>
      <trkpt lat="45.66733" lon="-1.02336">
        <ele>16.2</ele>
        <time>2023-08-06T09:28:01Z</time>
      </trkpt>
      <trkpt lat="45.6674" lon="-1.02347">
        <ele>15.8</ele>
        <time>2023-08-06T09:28:07Z</time>
      </trkpt>
      <trkpt lat="45.66742" lon="-1.02352">
        <ele>15.8</ele>
        <time>2023-08-06T09:28:10Z</time>
      </trkpt>
      <trkpt lat="45.66744" lon="-1.02353">
        <ele>15.8</ele>
        <time>2023-08-06T09:28:13Z</time>
      </trkpt>
      <trkpt lat="45.66748" lon="-1.02355">
        <ele>15.8</ele>
        <time>2023-08-06T09:28:25Z</time>
      </trkpt>
      <trkpt lat="45.66747" lon="-1.02359">
        <ele>15.8</ele>
        <time>2023-08-06T09:28:43Z</time>
      </trkpt>
      <trkpt lat="45.6675" lon="-1.0236">
        <ele>15.8</ele>
        <time>2023-08-06T09:28:58Z</time>
      </trkpt>
      <trkpt lat="45.66752" lon="-1.02358">
        <ele>15.8</ele>
        <time>2023-08-06T09:29:00Z</time>
      </trkpt>
      <trkpt lat="45.66759" lon="-1.02352">
        <ele>15.8</ele>
        <time>2023-08-06T09:29:04Z</time>
      </trkpt>
      <trkpt lat="45.66761" lon="-1.02349">
        <ele>17.2</ele>
        <time>2023-08-06T09:29:08Z</time>
      </trkpt>
      <trkpt lat="45.66761" lon="-1.02349">
        <ele>17.2</ele>
        <time>2023-08-06T09:29:09Z</time>
      </trkpt>
      <trkpt lat="45.6676" lon="-1.02352">
        <ele>17.6</ele>
        <time>2023-08-06T09:29:22Z</time>
      </trkpt>
      <trkpt lat="45.66761" lon="-1.02345">
        <ele>17.6</ele>
        <time>2023-08-06T09:29:37Z</time>
      </trkpt>
      <trkpt lat="45.66762" lon="-1.02344">
        <ele>17.4</ele>
        <time>2023-08-06T09:29:50Z</time>
      </trkpt>
      <trkpt lat="45.66763" lon="-1.02345">
        <ele>17.6</ele>
        <time>2023-08-06T09:30:06Z</time>
      </trkpt>
      <trkpt lat="45.66763" lon="-1.02345">
        <ele>17.4</ele>
        <time>2023-08-06T09:30:21Z</time>
      </trkpt>
      <trkpt lat="45.66764" lon="-1.02345">
        <ele>17.4</ele>
        <time>2023-08-06T09:30:39Z</time>
      </trkpt>
      <trkpt lat="45.66768" lon="-1.02338">
        <ele>17.4</ele>
        <time>2023-08-06T09:30:52Z</time>
      </trkpt>
      <trkpt lat="45.6677" lon="-1.02337">
        <ele>17.4</ele>
        <time>2023-08-06T09:30:55Z</time>
      </trkpt>
      <trkpt lat="45.66771" lon="-1.02336">
        <ele>17.4</ele>
        <time>2023-08-06T09:30:57Z</time>
      </trkpt>
      <trkpt lat="45.66774" lon="-1.02334">
        <ele>18.2</ele>
        <time>2023-08-06T09:31:05Z</time>
      </trkpt>
      <trkpt lat="45.66774" lon="-1.02334">
        <ele>18.4</ele>
        <time>2023-08-06T09:31:06Z</time>
      </trkpt>
      <trkpt lat="45.66776" lon="-1.02333">
        <ele>19</ele>
        <time>2023-08-06T09:31:11Z</time>
      </trkpt>
      <trkpt lat="45.66778" lon="-1.02333">
        <ele>19</ele>
        <time>2023-08-06T09:31:13Z</time>
      </trkpt>
      <trkpt lat="45.66782" lon="-1.0233">
        <ele>18.8</ele>
        <time>2023-08-06T09:31:18Z</time>
      </trkpt>
      <trkpt lat="45.6679" lon="-1.02332">
        <ele>18.6</ele>
        <time>2023-08-06T09:31:25Z</time>
      </trkpt>
      <trkpt lat="45.66798" lon="-1.02338">
        <ele>18.4</ele>
        <time>2023-08-06T09:31:30Z</time>
      </trkpt>
      <trkpt lat="45.66798" lon="-1.02341">
        <ele>18.6</ele>
        <time>2023-08-06T09:31:32Z</time>
      </trkpt>
      <trkpt lat="45.66795" lon="-1.02341">
        <ele>18.6</ele>
        <time>2023-08-06T09:31:34Z</time>
      </trkpt>
      <trkpt lat="45.66789" lon="-1.02345">
        <ele>19</ele>
        <time>2023-08-06T09:31:39Z</time>
      </trkpt>
      <trkpt lat="45.66783" lon="-1.02351">
        <ele>18.6</ele>
        <time>2023-08-06T09:31:44Z</time>
      </trkpt>
      <trkpt lat="45.66782" lon="-1.02352">
        <ele>18.4</ele>
        <time>2023-08-06T09:31:45Z</time>
      </trkpt>
      <trkpt lat="45.66777" lon="-1.02356">
        <ele>18.4</ele>
        <time>2023-08-06T09:31:49Z</time>
      </trkpt>
      <trkpt lat="45.66776" lon="-1.02358">
        <ele>18.6</ele>
        <time>2023-08-06T09:31:51Z</time>
      </trkpt>
      <trkpt lat="45.66773" lon="-1.02361">
        <ele>18.6</ele>
        <time>2023-08-06T09:31:54Z</time>
      </trkpt>
      <trkpt lat="45.66769" lon="-1.02365">
        <ele>18.4</ele>
        <time>2023-08-06T09:31:58Z</time>
      </trkpt>
      <trkpt lat="45.66768" lon="-1.02366">
        <ele>18.4</ele>
        <time>2023-08-06T09:31:59Z</time>
      </trkpt>
      <trkpt lat="45.66767" lon="-1.02372">
        <ele>18.4</ele>
        <time>2023-08-06T09:32:03Z</time>
      </trkpt>
      <trkpt lat="45.66766" lon="-1.02377">
        <ele>18.4</ele>
        <time>2023-08-06T09:32:06Z</time>
      </trkpt>
      <trkpt lat="45.66763" lon="-1.0238">
        <ele>18.4</ele>
        <time>2023-08-06T09:32:08Z</time>
      </trkpt>
      <trkpt lat="45.66751" lon="-1.02379">
        <ele>18.8</ele>
        <time>2023-08-06T09:32:14Z</time>
      </trkpt>
      <trkpt lat="45.66745" lon="-1.0238">
        <ele>18.8</ele>
        <time>2023-08-06T09:32:17Z</time>
      </trkpt>
      <trkpt lat="45.66744" lon="-1.02381">
        <ele>18.8</ele>
        <time>2023-08-06T09:32:18Z</time>
      </trkpt>
      <trkpt lat="45.66742" lon="-1.02384">
        <ele>18.8</ele>
        <time>2023-08-06T09:32:20Z</time>
      </trkpt>
      <trkpt lat="45.6674" lon="-1.02389">
        <ele>18.8</ele>
        <time>2023-08-06T09:32:22Z</time>
      </trkpt>
      <trkpt lat="45.66741" lon="-1.02391">
        <ele>18.8</ele>
        <time>2023-08-06T09:32:23Z</time>
      </trkpt>
      <trkpt lat="45.66742" lon="-1.02391">
        <ele>19</ele>
        <time>2023-08-06T09:32:24Z</time>
      </trkpt>
      <trkpt lat="45.66746" lon="-1.02395">
        <ele>19</ele>
        <time>2023-08-06T09:32:28Z</time>
      </trkpt>
      <trkpt lat="45.66744" lon="-1.02401">
        <ele>18.6</ele>
        <time>2023-08-06T09:32:31Z</time>
      </trkpt>
      <trkpt lat="45.66743" lon="-1.02403">
        <ele>18.6</ele>
        <time>2023-08-06T09:32:32Z</time>
      </trkpt>
      <trkpt lat="45.66735" lon="-1.02413">
        <ele>18.4</ele>
        <time>2023-08-06T09:32:36Z</time>
      </trkpt>
      <trkpt lat="45.66732" lon="-1.02413">
        <ele>18.2</ele>
        <time>2023-08-06T09:32:38Z</time>
      </trkpt>
      <trkpt lat="45.66727" lon="-1.02411">
        <ele>18.2</ele>
        <time>2023-08-06T09:32:40Z</time>
      </trkpt>
      <trkpt lat="45.66718" lon="-1.02408">
        <ele>18.8</ele>
        <time>2023-08-06T09:32:44Z</time>
      </trkpt>
      <trkpt lat="45.66714" lon="-1.02406">
        <ele>19</ele>
        <time>2023-08-06T09:32:46Z</time>
      </trkpt>
      <trkpt lat="45.66702" lon="-1.02406">
        <ele>18.8</ele>
        <time>2023-08-06T09:32:51Z</time>
      </trkpt>
      <trkpt lat="45.66701" lon="-1.02407">
        <ele>18.8</ele>
        <time>2023-08-06T09:32:52Z</time>
      </trkpt>
      <trkpt lat="45.667" lon="-1.02412">
        <ele>18.8</ele>
        <time>2023-08-06T09:32:54Z</time>
      </trkpt>
      <trkpt lat="45.66699" lon="-1.02419">
        <ele>19</ele>
        <time>2023-08-06T09:32:57Z</time>
      </trkpt>
      <trkpt lat="45.66699" lon="-1.02433">
        <ele>18.6</ele>
        <time>2023-08-06T09:33:02Z</time>
      </trkpt>
      <trkpt lat="45.66705" lon="-1.02447">
        <ele>18.2</ele>
        <time>2023-08-06T09:33:07Z</time>
      </trkpt>
      <trkpt lat="45.66716" lon="-1.0246">
        <ele>17.6</ele>
        <time>2023-08-06T09:33:14Z</time>
      </trkpt>
      <trkpt lat="45.66722" lon="-1.02467">
        <ele>17.8</ele>
        <time>2023-08-06T09:33:17Z</time>
      </trkpt>
      <trkpt lat="45.66723" lon="-1.0247">
        <ele>17.8</ele>
        <time>2023-08-06T09:33:19Z</time>
      </trkpt>
      <trkpt lat="45.66724" lon="-1.02472">
        <ele>17.8</ele>
        <time>2023-08-06T09:33:20Z</time>
      </trkpt>
      <trkpt lat="45.66729" lon="-1.02471">
        <ele>17.6</ele>
        <time>2023-08-06T09:33:24Z</time>
      </trkpt>
      <trkpt lat="45.66731" lon="-1.02472">
        <ele>17.6</ele>
        <time>2023-08-06T09:33:25Z</time>
      </trkpt>
      <trkpt lat="45.66739" lon="-1.02465">
        <ele>18.2</ele>
        <time>2023-08-06T09:33:32Z</time>
      </trkpt>
      <trkpt lat="45.66741" lon="-1.02462">
        <ele>17.8</ele>
        <time>2023-08-06T09:33:34Z</time>
      </trkpt>
      <trkpt lat="45.66748" lon="-1.0246">
        <ele>17.8</ele>
        <time>2023-08-06T09:33:37Z</time>
      </trkpt>
      <trkpt lat="45.66765" lon="-1.02467">
        <ele>18</ele>
        <time>2023-08-06T09:33:43Z</time>
      </trkpt>
      <trkpt lat="45.66777" lon="-1.02479">
        <ele>18.2</ele>
        <time>2023-08-06T09:33:48Z</time>
      </trkpt>
      <trkpt lat="45.66774" lon="-1.02486">
        <ele>18.2</ele>
        <time>2023-08-06T09:33:51Z</time>
      </trkpt>
      <trkpt lat="45.66772" lon="-1.02486">
        <ele>18</ele>
        <time>2023-08-06T09:33:52Z</time>
      </trkpt>
      <trkpt lat="45.66768" lon="-1.02486">
        <ele>17.8</ele>
        <time>2023-08-06T09:33:57Z</time>
      </trkpt>
      <trkpt lat="45.66769" lon="-1.02488">
        <ele>17.8</ele>
        <time>2023-08-06T09:34:01Z</time>
      </trkpt>
      <trkpt lat="45.66766" lon="-1.02488">
        <ele>17.8</ele>
        <time>2023-08-06T09:34:04Z</time>
      </trkpt>
      <trkpt lat="45.66761" lon="-1.02489">
        <ele>18</ele>
        <time>2023-08-06T09:34:07Z</time>
      </trkpt>
      <trkpt lat="45.6676" lon="-1.02491">
        <ele>18.2</ele>
        <time>2023-08-06T09:34:09Z</time>
      </trkpt>
      <trkpt lat="45.66756" lon="-1.02495">
        <ele>18.2</ele>
        <time>2023-08-06T09:34:12Z</time>
      </trkpt>
      <trkpt lat="45.66756" lon="-1.02499">
        <ele>18</ele>
        <time>2023-08-06T09:34:14Z</time>
      </trkpt>
      <trkpt lat="45.66763" lon="-1.02509">
        <ele>18</ele>
        <time>2023-08-06T09:34:18Z</time>
      </trkpt>
      <trkpt lat="45.66771" lon="-1.02523">
        <ele>17.4</ele>
        <time>2023-08-06T09:34:23Z</time>
      </trkpt>
      <trkpt lat="45.66776" lon="-1.02527">
        <ele>17.4</ele>
        <time>2023-08-06T09:34:27Z</time>
      </trkpt>
      <trkpt lat="45.66779" lon="-1.02526">
        <ele>17.2</ele>
        <time>2023-08-06T09:34:28Z</time>
      </trkpt>
      <trkpt lat="45.66785" lon="-1.02528">
        <ele>17.4</ele>
        <time>2023-08-06T09:34:31Z</time>
      </trkpt>
      <trkpt lat="45.66788" lon="-1.0253">
        <ele>17.2</ele>
        <time>2023-08-06T09:34:32Z</time>
      </trkpt>
      <trkpt lat="45.66793" lon="-1.02533">
        <ele>17.4</ele>
        <time>2023-08-06T09:34:34Z</time>
      </trkpt>
      <trkpt lat="45.66799" lon="-1.0254">
        <ele>17.2</ele>
        <time>2023-08-06T09:34:37Z</time>
      </trkpt>
      <trkpt lat="45.66801" lon="-1.02541">
        <ele>16.8</ele>
        <time>2023-08-06T09:34:38Z</time>
      </trkpt>
      <trkpt lat="45.6681" lon="-1.02539">
        <ele>16.4</ele>
        <time>2023-08-06T09:34:42Z</time>
      </trkpt>
      <trkpt lat="45.66816" lon="-1.02529">
        <ele>16.4</ele>
        <time>2023-08-06T09:34:46Z</time>
      </trkpt>
      <trkpt lat="45.66825" lon="-1.02522">
        <ele>16.6</ele>
        <time>2023-08-06T09:34:50Z</time>
      </trkpt>
      <trkpt lat="45.6683" lon="-1.02519">
        <ele>16.4</ele>
        <time>2023-08-06T09:34:52Z</time>
      </trkpt>
      <trkpt lat="45.66833" lon="-1.02518">
        <ele>16.2</ele>
        <time>2023-08-06T09:34:53Z</time>
      </trkpt>
      <trkpt lat="45.6684" lon="-1.02513">
        <ele>15</ele>
        <time>2023-08-06T09:34:56Z</time>
      </trkpt>
      <trkpt lat="45.66845" lon="-1.02507">
        <ele>14.8</ele>
        <time>2023-08-06T09:34:59Z</time>
      </trkpt>
      <trkpt lat="45.66846" lon="-1.02499">
        <ele>14.8</ele>
        <time>2023-08-06T09:35:02Z</time>
      </trkpt>
      <trkpt lat="45.66849" lon="-1.02496">
        <ele>14.8</ele>
        <time>2023-08-06T09:35:04Z</time>
      </trkpt>
      <trkpt lat="45.66855" lon="-1.02492">
        <ele>14.4</ele>
        <time>2023-08-06T09:35:06Z</time>
      </trkpt>
      <trkpt lat="45.66859" lon="-1.02486">
        <ele>14.4</ele>
        <time>2023-08-06T09:35:08Z</time>
      </trkpt>
      <trkpt lat="45.66864" lon="-1.02478">
        <ele>14.2</ele>
        <time>2023-08-06T09:35:11Z</time>
      </trkpt>
      <trkpt lat="45.6687" lon="-1.02463">
        <ele>14.6</ele>
        <time>2023-08-06T09:35:15Z</time>
      </trkpt>
      <trkpt lat="45.66881" lon="-1.0245">
        <ele>15</ele>
        <time>2023-08-06T09:35:19Z</time>
      </trkpt>
      <trkpt lat="45.66888" lon="-1.02438">
        <ele>15</ele>
        <time>2023-08-06T09:35:22Z</time>
      </trkpt>
      <trkpt lat="45.6689" lon="-1.02433">
        <ele>15</ele>
        <time>2023-08-06T09:35:23Z</time>
      </trkpt>
      <trkpt lat="45.66894" lon="-1.02423">
        <ele>15</ele>
        <time>2023-08-06T09:35:25Z</time>
      </trkpt>
      <trkpt lat="45.66894" lon="-1.02416">
        <ele>15</ele>
        <time>2023-08-06T09:35:27Z</time>
      </trkpt>
      <trkpt lat="45.66884" lon="-1.02412">
        <ele>15.4</ele>
        <time>2023-08-06T09:35:30Z</time>
      </trkpt>
      <trkpt lat="45.66881" lon="-1.02409">
        <ele>15.6</ele>
        <time>2023-08-06T09:35:31Z</time>
      </trkpt>
      <trkpt lat="45.66879" lon="-1.02406">
        <ele>16.2</ele>
        <time>2023-08-06T09:35:32Z</time>
      </trkpt>
      <trkpt lat="45.66877" lon="-1.02405">
        <ele>16.4</ele>
        <time>2023-08-06T09:35:33Z</time>
      </trkpt>
      <trkpt lat="45.66876" lon="-1.02405">
        <ele>16.8</ele>
        <time>2023-08-06T09:35:35Z</time>
      </trkpt>
      <trkpt lat="45.66876" lon="-1.02403">
        <ele>16.8</ele>
        <time>2023-08-06T09:35:36Z</time>
      </trkpt>
      <trkpt lat="45.66875" lon="-1.02398">
        <ele>17</ele>
        <time>2023-08-06T09:35:38Z</time>
      </trkpt>
      <trkpt lat="45.66873" lon="-1.02392">
        <ele>17.2</ele>
        <time>2023-08-06T09:35:40Z</time>
      </trkpt>
      <trkpt lat="45.66871" lon="-1.02389">
        <ele>17.4</ele>
        <time>2023-08-06T09:35:41Z</time>
      </trkpt>
      <trkpt lat="45.6687" lon="-1.02386">
        <ele>17.8</ele>
        <time>2023-08-06T09:35:42Z</time>
      </trkpt>
      <trkpt lat="45.66867" lon="-1.02385">
        <ele>18</ele>
        <time>2023-08-06T09:35:43Z</time>
      </trkpt>
      <trkpt lat="45.6686" lon="-1.02379">
        <ele>18</ele>
        <time>2023-08-06T09:35:47Z</time>
      </trkpt>
      <trkpt lat="45.66857" lon="-1.02374">
        <ele>18</ele>
        <time>2023-08-06T09:35:49Z</time>
      </trkpt>
      <trkpt lat="45.66852" lon="-1.0237">
        <ele>18</ele>
        <time>2023-08-06T09:35:52Z</time>
      </trkpt>
      <trkpt lat="45.66849" lon="-1.02368">
        <ele>18.2</ele>
        <time>2023-08-06T09:35:53Z</time>
      </trkpt>
      <trkpt lat="45.66836" lon="-1.02361">
        <ele>18.6</ele>
        <time>2023-08-06T09:35:59Z</time>
      </trkpt>
      <trkpt lat="45.6682" lon="-1.02347">
        <ele>19</ele>
        <time>2023-08-06T09:36:05Z</time>
      </trkpt>
      <trkpt lat="45.66806" lon="-1.02333">
        <ele>19.2</ele>
        <time>2023-08-06T09:36:10Z</time>
      </trkpt>
      <trkpt lat="45.66802" lon="-1.02332">
        <ele>19.2</ele>
        <time>2023-08-06T09:36:12Z</time>
      </trkpt>
      <trkpt lat="45.66799" lon="-1.0233">
        <ele>19.2</ele>
        <time>2023-08-06T09:36:13Z</time>
      </trkpt>
      <trkpt lat="45.66794" lon="-1.02325">
        <ele>19.4</ele>
        <time>2023-08-06T09:36:15Z</time>
      </trkpt>
      <trkpt lat="45.66789" lon="-1.02319">
        <ele>19.4</ele>
        <time>2023-08-06T09:36:17Z</time>
      </trkpt>
      <trkpt lat="45.66787" lon="-1.02312">
        <ele>19.4</ele>
        <time>2023-08-06T09:36:19Z</time>
      </trkpt>
      <trkpt lat="45.66779" lon="-1.02295">
        <ele>19.4</ele>
        <time>2023-08-06T09:36:24Z</time>
      </trkpt>
      <trkpt lat="45.66766" lon="-1.0229">
        <ele>19.4</ele>
        <time>2023-08-06T09:36:28Z</time>
      </trkpt>
      <trkpt lat="45.66765" lon="-1.02287">
        <ele>19.4</ele>
        <time>2023-08-06T09:36:29Z</time>
      </trkpt>
      <trkpt lat="45.66768" lon="-1.02281">
        <ele>19.4</ele>
        <time>2023-08-06T09:36:31Z</time>
      </trkpt>
      <trkpt lat="45.66776" lon="-1.02266">
        <ele>19.6</ele>
        <time>2023-08-06T09:36:36Z</time>
      </trkpt>
      <trkpt lat="45.66781" lon="-1.02258">
        <ele>19.2</ele>
        <time>2023-08-06T09:36:39Z</time>
      </trkpt>
      <trkpt lat="45.66782" lon="-1.02258">
        <ele>19.2</ele>
        <time>2023-08-06T09:36:40Z</time>
      </trkpt>
      <trkpt lat="45.66784" lon="-1.02263">
        <ele>19</ele>
        <time>2023-08-06T09:36:42Z</time>
      </trkpt>
      <trkpt lat="45.66784" lon="-1.02266">
        <ele>19</ele>
        <time>2023-08-06T09:36:44Z</time>
      </trkpt>
      <trkpt lat="45.66784" lon="-1.02268">
        <ele>19</ele>
        <time>2023-08-06T09:36:45Z</time>
      </trkpt>
      <trkpt lat="45.66788" lon="-1.0227">
        <ele>19.2</ele>
        <time>2023-08-06T09:36:48Z</time>
      </trkpt>
      <trkpt lat="45.66788" lon="-1.0228">
        <ele>19.4</ele>
        <time>2023-08-06T09:36:53Z</time>
      </trkpt>
      <trkpt lat="45.66789" lon="-1.02286">
        <ele>19.6</ele>
        <time>2023-08-06T09:36:55Z</time>
      </trkpt>
      <trkpt lat="45.66793" lon="-1.02288">
        <ele>19.4</ele>
        <time>2023-08-06T09:36:57Z</time>
      </trkpt>
      <trkpt lat="45.66801" lon="-1.02288">
        <ele>19.2</ele>
        <time>2023-08-06T09:37:01Z</time>
      </trkpt>
      <trkpt lat="45.66803" lon="-1.0229">
        <ele>19</ele>
        <time>2023-08-06T09:37:02Z</time>
      </trkpt>
      <trkpt lat="45.66805" lon="-1.023">
        <ele>19</ele>
        <time>2023-08-06T09:37:05Z</time>
      </trkpt>
      <trkpt lat="45.66807" lon="-1.02303">
        <ele>19</ele>
        <time>2023-08-06T09:37:06Z</time>
      </trkpt>
      <trkpt lat="45.6681" lon="-1.02305">
        <ele>19</ele>
        <time>2023-08-06T09:37:07Z</time>
      </trkpt>
      <trkpt lat="45.66815" lon="-1.02303">
        <ele>19</ele>
        <time>2023-08-06T09:37:09Z</time>
      </trkpt>
      <trkpt lat="45.66819" lon="-1.02295">
        <ele>18.8</ele>
        <time>2023-08-06T09:37:12Z</time>
      </trkpt>
      <trkpt lat="45.66817" lon="-1.02289">
        <ele>18.8</ele>
        <time>2023-08-06T09:37:14Z</time>
      </trkpt>
      <trkpt lat="45.66813" lon="-1.02278">
        <ele>18.4</ele>
        <time>2023-08-06T09:37:18Z</time>
      </trkpt>
      <trkpt lat="45.66814" lon="-1.02276">
        <ele>18.4</ele>
        <time>2023-08-06T09:37:19Z</time>
      </trkpt>
      <trkpt lat="45.66815" lon="-1.02271">
        <ele>18.2</ele>
        <time>2023-08-06T09:37:21Z</time>
      </trkpt>
      <trkpt lat="45.66819" lon="-1.02266">
        <ele>18.2</ele>
        <time>2023-08-06T09:37:23Z</time>
      </trkpt>
      <trkpt lat="45.66819" lon="-1.02258">
        <ele>18.2</ele>
        <time>2023-08-06T09:37:25Z</time>
      </trkpt>
      <trkpt lat="45.66813" lon="-1.02239">
        <ele>18.8</ele>
        <time>2023-08-06T09:37:30Z</time>
      </trkpt>
      <trkpt lat="45.66809" lon="-1.02231">
        <ele>19</ele>
        <time>2023-08-06T09:37:32Z</time>
      </trkpt>
      <trkpt lat="45.66805" lon="-1.02221">
        <ele>19.2</ele>
        <time>2023-08-06T09:37:35Z</time>
      </trkpt>
      <trkpt lat="45.66804" lon="-1.02214">
        <ele>19.2</ele>
        <time>2023-08-06T09:37:37Z</time>
      </trkpt>
      <trkpt lat="45.66806" lon="-1.02205">
        <ele>19.2</ele>
        <time>2023-08-06T09:37:39Z</time>
      </trkpt>
      <trkpt lat="45.6681" lon="-1.02197">
        <ele>19.4</ele>
        <time>2023-08-06T09:37:41Z</time>
      </trkpt>
      <trkpt lat="45.66811" lon="-1.02188">
        <ele>19.2</ele>
        <time>2023-08-06T09:37:43Z</time>
      </trkpt>
      <trkpt lat="45.66811" lon="-1.02183">
        <ele>19.2</ele>
        <time>2023-08-06T09:37:44Z</time>
      </trkpt>
      <trkpt lat="45.66807" lon="-1.02167">
        <ele>19.2</ele>
        <time>2023-08-06T09:37:47Z</time>
      </trkpt>
      <trkpt lat="45.66804" lon="-1.02165">
        <ele>19.2</ele>
        <time>2023-08-06T09:37:48Z</time>
      </trkpt>
      <trkpt lat="45.66797" lon="-1.02164">
        <ele>19.2</ele>
        <time>2023-08-06T09:37:50Z</time>
      </trkpt>
      <trkpt lat="45.66789" lon="-1.02161">
        <ele>19.2</ele>
        <time>2023-08-06T09:37:53Z</time>
      </trkpt>
      <trkpt lat="45.66787" lon="-1.0216">
        <ele>19.2</ele>
        <time>2023-08-06T09:37:54Z</time>
      </trkpt>
      <trkpt lat="45.6678" lon="-1.02152">
        <ele>19</ele>
        <time>2023-08-06T09:37:58Z</time>
      </trkpt>
      <trkpt lat="45.66771" lon="-1.0214">
        <ele>19</ele>
        <time>2023-08-06T09:38:03Z</time>
      </trkpt>
      <trkpt lat="45.66769" lon="-1.02137">
        <ele>19.2</ele>
        <time>2023-08-06T09:38:04Z</time>
      </trkpt>
      <trkpt lat="45.6676" lon="-1.02124">
        <ele>19.4</ele>
        <time>2023-08-06T09:38:08Z</time>
      </trkpt>
      <trkpt lat="45.66757" lon="-1.02122">
        <ele>19.2</ele>
        <time>2023-08-06T09:38:09Z</time>
      </trkpt>
      <trkpt lat="45.66747" lon="-1.02116">
        <ele>18.8</ele>
        <time>2023-08-06T09:38:12Z</time>
      </trkpt>
      <trkpt lat="45.66741" lon="-1.02112">
        <ele>18.6</ele>
        <time>2023-08-06T09:38:14Z</time>
      </trkpt>
      <trkpt lat="45.66732" lon="-1.02112">
        <ele>18.2</ele>
        <time>2023-08-06T09:38:18Z</time>
      </trkpt>
      <trkpt lat="45.66731" lon="-1.02116">
        <ele>18.2</ele>
        <time>2023-08-06T09:38:20Z</time>
      </trkpt>
      <trkpt lat="45.66732" lon="-1.02119">
        <ele>18.2</ele>
        <time>2023-08-06T09:38:22Z</time>
      </trkpt>
      <trkpt lat="45.66737" lon="-1.02126">
        <ele>18.2</ele>
        <time>2023-08-06T09:38:27Z</time>
      </trkpt>
      <trkpt lat="45.66737" lon="-1.02133">
        <ele>18.6</ele>
        <time>2023-08-06T09:38:31Z</time>
      </trkpt>
      <trkpt lat="45.66736" lon="-1.02137">
        <ele>19</ele>
        <time>2023-08-06T09:38:33Z</time>
      </trkpt>
      <trkpt lat="45.66736" lon="-1.02141">
        <ele>19</ele>
        <time>2023-08-06T09:38:35Z</time>
      </trkpt>
      <trkpt lat="45.66737" lon="-1.02145">
        <ele>19.2</ele>
        <time>2023-08-06T09:38:37Z</time>
      </trkpt>
      <trkpt lat="45.66737" lon="-1.02151">
        <ele>19.4</ele>
        <time>2023-08-06T09:38:39Z</time>
      </trkpt>
      <trkpt lat="45.66737" lon="-1.02167">
        <ele>19.4</ele>
        <time>2023-08-06T09:38:43Z</time>
      </trkpt>
      <trkpt lat="45.66734" lon="-1.02178">
        <ele>19.4</ele>
        <time>2023-08-06T09:38:46Z</time>
      </trkpt>
      <trkpt lat="45.66734" lon="-1.02182">
        <ele>19.2</ele>
        <time>2023-08-06T09:38:47Z</time>
      </trkpt>
      <trkpt lat="45.66735" lon="-1.02201">
        <ele>19.2</ele>
        <time>2023-08-06T09:38:51Z</time>
      </trkpt>
      <trkpt lat="45.66736" lon="-1.02208">
        <ele>19.4</ele>
        <time>2023-08-06T09:38:53Z</time>
      </trkpt>
      <trkpt lat="45.66733" lon="-1.0222">
        <ele>19.8</ele>
        <time>2023-08-06T09:38:56Z</time>
      </trkpt>
      <trkpt lat="45.66729" lon="-1.0223">
        <ele>19.6</ele>
        <time>2023-08-06T09:38:58Z</time>
      </trkpt>
      <trkpt lat="45.66721" lon="-1.02235">
        <ele>19.4</ele>
        <time>2023-08-06T09:39:00Z</time>
      </trkpt>
      <trkpt lat="45.66716" lon="-1.02237">
        <ele>19.2</ele>
        <time>2023-08-06T09:39:02Z</time>
      </trkpt>
      <trkpt lat="45.66711" lon="-1.02241">
        <ele>19.2</ele>
        <time>2023-08-06T09:39:04Z</time>
      </trkpt>
      <trkpt lat="45.66708" lon="-1.02244">
        <ele>19.6</ele>
        <time>2023-08-06T09:39:05Z</time>
      </trkpt>
      <trkpt lat="45.66701" lon="-1.0225">
        <ele>19.8</ele>
        <time>2023-08-06T09:39:07Z</time>
      </trkpt>
      <trkpt lat="45.66698" lon="-1.02253">
        <ele>19.8</ele>
        <time>2023-08-06T09:39:08Z</time>
      </trkpt>
      <trkpt lat="45.66689" lon="-1.02261">
        <ele>19.4</ele>
        <time>2023-08-06T09:39:12Z</time>
      </trkpt>
      <trkpt lat="45.6668" lon="-1.02268">
        <ele>19.4</ele>
        <time>2023-08-06T09:39:15Z</time>
      </trkpt>
      <trkpt lat="45.66673" lon="-1.02273">
        <ele>19.2</ele>
        <time>2023-08-06T09:39:17Z</time>
      </trkpt>
      <trkpt lat="45.66668" lon="-1.02278">
        <ele>19.2</ele>
        <time>2023-08-06T09:39:19Z</time>
      </trkpt>
      <trkpt lat="45.66663" lon="-1.0228">
        <ele>19.2</ele>
        <time>2023-08-06T09:39:21Z</time>
      </trkpt>
      <trkpt lat="45.66649" lon="-1.02283">
        <ele>19</ele>
        <time>2023-08-06T09:39:25Z</time>
      </trkpt>
      <trkpt lat="45.66638" lon="-1.02278">
        <ele>19.2</ele>
        <time>2023-08-06T09:39:29Z</time>
      </trkpt>
      <trkpt lat="45.66634" lon="-1.02278">
        <ele>19.2</ele>
        <time>2023-08-06T09:39:31Z</time>
      </trkpt>
      <trkpt lat="45.66629" lon="-1.0228">
        <ele>19.4</ele>
        <time>2023-08-06T09:39:33Z</time>
      </trkpt>
      <trkpt lat="45.66621" lon="-1.02285">
        <ele>19.4</ele>
        <time>2023-08-06T09:39:36Z</time>
      </trkpt>
      <trkpt lat="45.66614" lon="-1.02283">
        <ele>19.4</ele>
        <time>2023-08-06T09:39:39Z</time>
      </trkpt>
      <trkpt lat="45.66601" lon="-1.02269">
        <ele>19</ele>
        <time>2023-08-06T09:39:45Z</time>
      </trkpt>
      <trkpt lat="45.66601" lon="-1.02267">
        <ele>19</ele>
        <time>2023-08-06T09:39:46Z</time>
      </trkpt>
      <trkpt lat="45.66602" lon="-1.02264">
        <ele>19</ele>
        <time>2023-08-06T09:39:49Z</time>
      </trkpt>
      <trkpt lat="45.66603" lon="-1.02262">
        <ele>19.2</ele>
        <time>2023-08-06T09:39:56Z</time>
      </trkpt>
      <trkpt lat="45.66604" lon="-1.02258">
        <ele>19.2</ele>
        <time>2023-08-06T09:40:06Z</time>
      </trkpt>
      <trkpt lat="45.66605" lon="-1.02258">
        <ele>19.2</ele>
        <time>2023-08-06T09:40:07Z</time>
      </trkpt>
      <trkpt lat="45.66611" lon="-1.0226">
        <ele>19</ele>
        <time>2023-08-06T09:40:13Z</time>
      </trkpt>
      <trkpt lat="45.66612" lon="-1.02257">
        <ele>18.8</ele>
        <time>2023-08-06T09:40:16Z</time>
      </trkpt>
      <trkpt lat="45.66612" lon="-1.0225">
        <ele>18.8</ele>
        <time>2023-08-06T09:40:18Z</time>
      </trkpt>
      <trkpt lat="45.66615" lon="-1.02242">
        <ele>18.4</ele>
        <time>2023-08-06T09:40:21Z</time>
      </trkpt>
      <trkpt lat="45.66617" lon="-1.02238">
        <ele>18.4</ele>
        <time>2023-08-06T09:40:23Z</time>
      </trkpt>
      <trkpt lat="45.66618" lon="-1.02232">
        <ele>18.8</ele>
        <time>2023-08-06T09:40:26Z</time>
      </trkpt>
      <trkpt lat="45.66622" lon="-1.02224">
        <ele>18.6</ele>
        <time>2023-08-06T09:40:29Z</time>
      </trkpt>
      <trkpt lat="45.66623" lon="-1.02223">
        <ele>18.4</ele>
        <time>2023-08-06T09:40:30Z</time>
      </trkpt>
      <trkpt lat="45.66627" lon="-1.0222">
        <ele>18.2</ele>
        <time>2023-08-06T09:40:32Z</time>
      </trkpt>
      <trkpt lat="45.66631" lon="-1.02212">
        <ele>18.2</ele>
        <time>2023-08-06T09:40:34Z</time>
      </trkpt>
      <trkpt lat="45.66636" lon="-1.02202">
        <ele>18</ele>
        <time>2023-08-06T09:40:37Z</time>
      </trkpt>
      <trkpt lat="45.6664" lon="-1.02201">
        <ele>18</ele>
        <time>2023-08-06T09:40:39Z</time>
      </trkpt>
      <trkpt lat="45.66647" lon="-1.022">
        <ele>18.2</ele>
        <time>2023-08-06T09:40:42Z</time>
      </trkpt>
      <trkpt lat="45.6665" lon="-1.02198">
        <ele>18.4</ele>
        <time>2023-08-06T09:40:44Z</time>
      </trkpt>
      <trkpt lat="45.66662" lon="-1.02189">
        <ele>18</ele>
        <time>2023-08-06T09:40:49Z</time>
      </trkpt>
      <trkpt lat="45.66665" lon="-1.02189">
        <ele>18</ele>
        <time>2023-08-06T09:40:50Z</time>
      </trkpt>
      <trkpt lat="45.66676" lon="-1.02195">
        <ele>17.6</ele>
        <time>2023-08-06T09:40:55Z</time>
      </trkpt>
      <trkpt lat="45.66678" lon="-1.02195">
        <ele>17.6</ele>
        <time>2023-08-06T09:40:56Z</time>
      </trkpt>
      <trkpt lat="45.6668" lon="-1.02191">
        <ele>17.8</ele>
        <time>2023-08-06T09:40:59Z</time>
      </trkpt>
      <trkpt lat="45.6668" lon="-1.02188">
        <ele>18.2</ele>
        <time>2023-08-06T09:41:01Z</time>
      </trkpt>
      <trkpt lat="45.66678" lon="-1.02186">
        <ele>18.4</ele>
        <time>2023-08-06T09:41:03Z</time>
      </trkpt>
      <trkpt lat="45.66676" lon="-1.02184">
        <ele>18.4</ele>
        <time>2023-08-06T09:41:06Z</time>
      </trkpt>
      <trkpt lat="45.66676" lon="-1.02181">
        <ele>18.4</ele>
        <time>2023-08-06T09:41:07Z</time>
      </trkpt>
      <trkpt lat="45.66673" lon="-1.02172">
        <ele>18.2</ele>
        <time>2023-08-06T09:41:12Z</time>
      </trkpt>
      <trkpt lat="45.66672" lon="-1.02171">
        <ele>18</ele>
        <time>2023-08-06T09:41:14Z</time>
      </trkpt>
      <trkpt lat="45.66672" lon="-1.02174">
        <ele>18</ele>
        <time>2023-08-06T09:41:16Z</time>
      </trkpt>
      <trkpt lat="45.6667" lon="-1.02176">
        <ele>18</ele>
        <time>2023-08-06T09:41:19Z</time>
      </trkpt>
      <trkpt lat="45.66669" lon="-1.02176">
        <ele>18.2</ele>
        <time>2023-08-06T09:41:21Z</time>
      </trkpt>
      <trkpt lat="45.66667" lon="-1.02177">
        <ele>18.2</ele>
        <time>2023-08-06T09:41:23Z</time>
      </trkpt>
      <trkpt lat="45.66667" lon="-1.02176">
        <ele>18</ele>
        <time>2023-08-06T09:41:27Z</time>
      </trkpt>
      <trkpt lat="45.66661" lon="-1.02174">
        <ele>18</ele>
        <time>2023-08-06T09:41:37Z</time>
      </trkpt>
      <trkpt lat="45.66657" lon="-1.02174">
        <ele>17.8</ele>
        <time>2023-08-06T09:41:39Z</time>
      </trkpt>
      <trkpt lat="45.66645" lon="-1.02176">
        <ele>18</ele>
        <time>2023-08-06T09:41:44Z</time>
      </trkpt>
      <trkpt lat="45.66635" lon="-1.02183">
        <ele>18.4</ele>
        <time>2023-08-06T09:41:49Z</time>
      </trkpt>
      <trkpt lat="45.66633" lon="-1.02183">
        <ele>18.2</ele>
        <time>2023-08-06T09:41:50Z</time>
      </trkpt>
      <trkpt lat="45.6663" lon="-1.02178">
        <ele>18.4</ele>
        <time>2023-08-06T09:41:52Z</time>
      </trkpt>
      <trkpt lat="45.66627" lon="-1.02174">
        <ele>18.6</ele>
        <time>2023-08-06T09:41:54Z</time>
      </trkpt>
      <trkpt lat="45.66626" lon="-1.02175">
        <ele>18.6</ele>
        <time>2023-08-06T09:41:55Z</time>
      </trkpt>
      <trkpt lat="45.66625" lon="-1.02177">
        <ele>18.8</ele>
        <time>2023-08-06T09:41:57Z</time>
      </trkpt>
      <trkpt lat="45.66622" lon="-1.0218">
        <ele>18.8</ele>
        <time>2023-08-06T09:41:59Z</time>
      </trkpt>
      <trkpt lat="45.66619" lon="-1.0218">
        <ele>18.6</ele>
        <time>2023-08-06T09:42:00Z</time>
      </trkpt>
      <trkpt lat="45.66606" lon="-1.02178">
        <ele>18.2</ele>
        <time>2023-08-06T09:42:04Z</time>
      </trkpt>
      <trkpt lat="45.66604" lon="-1.02179">
        <ele>18.2</ele>
        <time>2023-08-06T09:42:05Z</time>
      </trkpt>
      <trkpt lat="45.66605" lon="-1.02183">
        <ele>18.2</ele>
        <time>2023-08-06T09:42:07Z</time>
      </trkpt>
      <trkpt lat="45.66608" lon="-1.02188">
        <ele>18</ele>
        <time>2023-08-06T09:42:11Z</time>
      </trkpt>
      <trkpt lat="45.6661" lon="-1.02189">
        <ele>18.2</ele>
        <time>2023-08-06T09:42:12Z</time>
      </trkpt>
      <trkpt lat="45.66613" lon="-1.02191">
        <ele>18.2</ele>
        <time>2023-08-06T09:42:15Z</time>
      </trkpt>
      <trkpt lat="45.66613" lon="-1.02192">
        <ele>18.4</ele>
        <time>2023-08-06T09:42:16Z</time>
      </trkpt>
      <trkpt lat="45.66608" lon="-1.02199">
        <ele>18.6</ele>
        <time>2023-08-06T09:42:20Z</time>
      </trkpt>
      <trkpt lat="45.66603" lon="-1.02205">
        <ele>19</ele>
        <time>2023-08-06T09:42:25Z</time>
      </trkpt>
      <trkpt lat="45.66601" lon="-1.02212">
        <ele>18.8</ele>
        <time>2023-08-06T09:42:27Z</time>
      </trkpt>
      <trkpt lat="45.66598" lon="-1.02219">
        <ele>18.6</ele>
        <time>2023-08-06T09:42:29Z</time>
      </trkpt>
      <trkpt lat="45.66595" lon="-1.02223">
        <ele>18.6</ele>
        <time>2023-08-06T09:42:30Z</time>
      </trkpt>
      <trkpt lat="45.6659" lon="-1.02226">
        <ele>18.6</ele>
        <time>2023-08-06T09:42:32Z</time>
      </trkpt>
      <trkpt lat="45.66585" lon="-1.02225">
        <ele>18.6</ele>
        <time>2023-08-06T09:42:33Z</time>
      </trkpt>
      <trkpt lat="45.6658" lon="-1.02215">
        <ele>18.6</ele>
        <time>2023-08-06T09:42:39Z</time>
      </trkpt>
      <trkpt lat="45.66576" lon="-1.02205">
        <ele>18.4</ele>
        <time>2023-08-06T09:42:44Z</time>
      </trkpt>
      <trkpt lat="45.66566" lon="-1.02205">
        <ele>18.2</ele>
        <time>2023-08-06T09:42:49Z</time>
      </trkpt>
      <trkpt lat="45.66563" lon="-1.02207">
        <ele>18</ele>
        <time>2023-08-06T09:42:51Z</time>
      </trkpt>
      <trkpt lat="45.66561" lon="-1.02209">
        <ele>18</ele>
        <time>2023-08-06T09:42:53Z</time>
      </trkpt>
      <trkpt lat="45.66554" lon="-1.02208">
        <ele>18</ele>
        <time>2023-08-06T09:42:57Z</time>
      </trkpt>
      <trkpt lat="45.66538" lon="-1.02205">
        <ele>17.6</ele>
        <time>2023-08-06T09:43:03Z</time>
      </trkpt>
      <trkpt lat="45.66522" lon="-1.02205">
        <ele>17.2</ele>
        <time>2023-08-06T09:43:07Z</time>
      </trkpt>
      <trkpt lat="45.66517" lon="-1.02207">
        <ele>17.2</ele>
        <time>2023-08-06T09:43:08Z</time>
      </trkpt>
      <trkpt lat="45.6649" lon="-1.02221">
        <ele>16.4</ele>
        <time>2023-08-06T09:43:13Z</time>
      </trkpt>
      <trkpt lat="45.66467" lon="-1.02229">
        <ele>16.2</ele>
        <time>2023-08-06T09:43:17Z</time>
      </trkpt>
      <trkpt lat="45.66456" lon="-1.02231">
        <ele>15.8</ele>
        <time>2023-08-06T09:43:19Z</time>
      </trkpt>
      <trkpt lat="45.66439" lon="-1.02231">
        <ele>15</ele>
        <time>2023-08-06T09:43:22Z</time>
      </trkpt>
      <trkpt lat="45.6642" lon="-1.0223">
        <ele>14.4</ele>
        <time>2023-08-06T09:43:26Z</time>
      </trkpt>
      <trkpt lat="45.66385" lon="-1.02228">
        <ele>14</ele>
        <time>2023-08-06T09:43:34Z</time>
      </trkpt>
      <trkpt lat="45.66366" lon="-1.02228">
        <ele>14</ele>
        <time>2023-08-06T09:43:38Z</time>
      </trkpt>
      <trkpt lat="45.66341" lon="-1.02232">
        <ele>13.6</ele>
        <time>2023-08-06T09:43:43Z</time>
      </trkpt>
      <trkpt lat="45.66306" lon="-1.02245">
        <ele>13.8</ele>
        <time>2023-08-06T09:43:51Z</time>
      </trkpt>
      <trkpt lat="45.66277" lon="-1.0226">
        <ele>14.2</ele>
        <time>2023-08-06T09:43:58Z</time>
      </trkpt>
      <trkpt lat="45.66274" lon="-1.02263">
        <ele>14.4</ele>
        <time>2023-08-06T09:43:59Z</time>
      </trkpt>
      <trkpt lat="45.6626" lon="-1.02276">
        <ele>15</ele>
        <time>2023-08-06T09:44:03Z</time>
      </trkpt>
      <trkpt lat="45.66246" lon="-1.02289">
        <ele>15.4</ele>
        <time>2023-08-06T09:44:07Z</time>
      </trkpt>
      <trkpt lat="45.66243" lon="-1.02293">
        <ele>15.4</ele>
        <time>2023-08-06T09:44:08Z</time>
      </trkpt>
      <trkpt lat="45.66238" lon="-1.02302">
        <ele>15.6</ele>
        <time>2023-08-06T09:44:10Z</time>
      </trkpt>
      <trkpt lat="45.66233" lon="-1.02313">
        <ele>15.6</ele>
        <time>2023-08-06T09:44:12Z</time>
      </trkpt>
      <trkpt lat="45.66227" lon="-1.02322">
        <ele>15.4</ele>
        <time>2023-08-06T09:44:14Z</time>
      </trkpt>
      <trkpt lat="45.66215" lon="-1.02333">
        <ele>15</ele>
        <time>2023-08-06T09:44:17Z</time>
      </trkpt>
      <trkpt lat="45.66189" lon="-1.02359">
        <ele>14.4</ele>
        <time>2023-08-06T09:44:24Z</time>
      </trkpt>
      <trkpt lat="45.66178" lon="-1.02372">
        <ele>14</ele>
        <time>2023-08-06T09:44:27Z</time>
      </trkpt>
      <trkpt lat="45.66161" lon="-1.0239">
        <ele>14</ele>
        <time>2023-08-06T09:44:31Z</time>
      </trkpt>
      <trkpt lat="45.66136" lon="-1.02416">
        <ele>13.6</ele>
        <time>2023-08-06T09:44:38Z</time>
      </trkpt>
      <trkpt lat="45.66134" lon="-1.0242">
        <ele>13.6</ele>
        <time>2023-08-06T09:44:39Z</time>
      </trkpt>
      <trkpt lat="45.66133" lon="-1.02427">
        <ele>13.6</ele>
        <time>2023-08-06T09:44:41Z</time>
      </trkpt>
      <trkpt lat="45.6614" lon="-1.02439">
        <ele>13.8</ele>
        <time>2023-08-06T09:44:44Z</time>
      </trkpt>
      <trkpt lat="45.6615" lon="-1.02458">
        <ele>14</ele>
        <time>2023-08-06T09:44:49Z</time>
      </trkpt>
      <trkpt lat="45.66145" lon="-1.02467">
        <ele>13.4</ele>
        <time>2023-08-06T09:44:52Z</time>
      </trkpt>
      <trkpt lat="45.66127" lon="-1.02483">
        <ele>13.2</ele>
        <time>2023-08-06T09:44:58Z</time>
      </trkpt>
      <trkpt lat="45.66099" lon="-1.02506">
        <ele>14.2</ele>
        <time>2023-08-06T09:45:05Z</time>
      </trkpt>
      <trkpt lat="45.66081" lon="-1.02523">
        <ele>15.4</ele>
        <time>2023-08-06T09:45:10Z</time>
      </trkpt>
      <trkpt lat="45.66066" lon="-1.02536">
        <ele>15.8</ele>
        <time>2023-08-06T09:45:14Z</time>
      </trkpt>
      <trkpt lat="45.66059" lon="-1.02542">
        <ele>15.8</ele>
        <time>2023-08-06T09:45:16Z</time>
      </trkpt>
      <trkpt lat="45.66049" lon="-1.02551">
        <ele>16</ele>
        <time>2023-08-06T09:45:19Z</time>
      </trkpt>
      <trkpt lat="45.66046" lon="-1.02556">
        <ele>16.4</ele>
        <time>2023-08-06T09:45:20Z</time>
      </trkpt>
      <trkpt lat="45.66044" lon="-1.0256">
        <ele>16.6</ele>
        <time>2023-08-06T09:45:21Z</time>
      </trkpt>
      <trkpt lat="45.66041" lon="-1.0257">
        <ele>16.6</ele>
        <time>2023-08-06T09:45:23Z</time>
      </trkpt>
      <trkpt lat="45.6604" lon="-1.02575">
        <ele>16.6</ele>
        <time>2023-08-06T09:45:24Z</time>
      </trkpt>
      <trkpt lat="45.66037" lon="-1.026">
        <ele>16.6</ele>
        <time>2023-08-06T09:45:29Z</time>
      </trkpt>
      <trkpt lat="45.66037" lon="-1.02605">
        <ele>16.6</ele>
        <time>2023-08-06T09:45:30Z</time>
      </trkpt>
      <trkpt lat="45.66037" lon="-1.02616">
        <ele>16.8</ele>
        <time>2023-08-06T09:45:32Z</time>
      </trkpt>
      <trkpt lat="45.66036" lon="-1.02627">
        <ele>16.8</ele>
        <time>2023-08-06T09:45:35Z</time>
      </trkpt>
      <trkpt lat="45.66033" lon="-1.02632">
        <ele>16.6</ele>
        <time>2023-08-06T09:45:37Z</time>
      </trkpt>
      <trkpt lat="45.66029" lon="-1.02632">
        <ele>16.6</ele>
        <time>2023-08-06T09:45:39Z</time>
      </trkpt>
      <trkpt lat="45.66021" lon="-1.02626">
        <ele>17</ele>
        <time>2023-08-06T09:45:43Z</time>
      </trkpt>
      <trkpt lat="45.66018" lon="-1.02626">
        <ele>17.4</ele>
        <time>2023-08-06T09:45:45Z</time>
      </trkpt>
      <trkpt lat="45.66016" lon="-1.02627">
        <ele>17.4</ele>
        <time>2023-08-06T09:45:46Z</time>
      </trkpt>
      <trkpt lat="45.66015" lon="-1.02628">
        <ele>17.4</ele>
        <time>2023-08-06T09:45:47Z</time>
      </trkpt>
      <trkpt lat="45.66013" lon="-1.02634">
        <ele>17.6</ele>
        <time>2023-08-06T09:45:50Z</time>
      </trkpt>
      <trkpt lat="45.66009" lon="-1.02637">
        <ele>17.6</ele>
        <time>2023-08-06T09:45:52Z</time>
      </trkpt>
      <trkpt lat="45.65999" lon="-1.02645">
        <ele>17.8</ele>
        <time>2023-08-06T09:45:57Z</time>
      </trkpt>
      <trkpt lat="45.65997" lon="-1.02648">
        <ele>17.8</ele>
        <time>2023-08-06T09:45:58Z</time>
      </trkpt>
      <trkpt lat="45.6598" lon="-1.02664">
        <ele>18</ele>
        <time>2023-08-06T09:46:04Z</time>
      </trkpt>
      <trkpt lat="45.65976" lon="-1.02666">
        <ele>18</ele>
        <time>2023-08-06T09:46:05Z</time>
      </trkpt>
      <trkpt lat="45.65966" lon="-1.02672">
        <ele>18</ele>
        <time>2023-08-06T09:46:08Z</time>
      </trkpt>
      <trkpt lat="45.65958" lon="-1.02675">
        <ele>18</ele>
        <time>2023-08-06T09:46:10Z</time>
      </trkpt>
      <trkpt lat="45.65946" lon="-1.0268">
        <ele>17.8</ele>
        <time>2023-08-06T09:46:13Z</time>
      </trkpt>
      <trkpt lat="45.65938" lon="-1.0268">
        <ele>17.8</ele>
        <time>2023-08-06T09:46:15Z</time>
      </trkpt>
      <trkpt lat="45.65931" lon="-1.02681">
        <ele>17.6</ele>
        <time>2023-08-06T09:46:17Z</time>
      </trkpt>
      <trkpt lat="45.65924" lon="-1.0268">
        <ele>17.8</ele>
        <time>2023-08-06T09:46:19Z</time>
      </trkpt>
      <trkpt lat="45.65913" lon="-1.02676">
        <ele>17.8</ele>
        <time>2023-08-06T09:46:22Z</time>
      </trkpt>
      <trkpt lat="45.65907" lon="-1.02676">
        <ele>17.8</ele>
        <time>2023-08-06T09:46:24Z</time>
      </trkpt>
      <trkpt lat="45.65892" lon="-1.0268">
        <ele>18</ele>
        <time>2023-08-06T09:46:28Z</time>
      </trkpt>
      <trkpt lat="45.6588" lon="-1.02675">
        <ele>18</ele>
        <time>2023-08-06T09:46:32Z</time>
      </trkpt>
      <trkpt lat="45.65873" lon="-1.02672">
        <ele>17.8</ele>
        <time>2023-08-06T09:46:34Z</time>
      </trkpt>
      <trkpt lat="45.65865" lon="-1.0267">
        <ele>17.8</ele>
        <time>2023-08-06T09:46:36Z</time>
      </trkpt>
      <trkpt lat="45.65848" lon="-1.02671">
        <ele>17.8</ele>
        <time>2023-08-06T09:46:40Z</time>
      </trkpt>
      <trkpt lat="45.65833" lon="-1.02677">
        <ele>17.4</ele>
        <time>2023-08-06T09:46:44Z</time>
      </trkpt>
      <trkpt lat="45.65819" lon="-1.02689">
        <ele>18.2</ele>
        <time>2023-08-06T09:46:49Z</time>
      </trkpt>
      <trkpt lat="45.65817" lon="-1.02693">
        <ele>18.2</ele>
        <time>2023-08-06T09:46:50Z</time>
      </trkpt>
      <trkpt lat="45.65813" lon="-1.02697">
        <ele>18</ele>
        <time>2023-08-06T09:46:51Z</time>
      </trkpt>
      <trkpt lat="45.65808" lon="-1.02705">
        <ele>18</ele>
        <time>2023-08-06T09:46:53Z</time>
      </trkpt>
      <trkpt lat="45.65807" lon="-1.02711">
        <ele>17.8</ele>
        <time>2023-08-06T09:46:54Z</time>
      </trkpt>
      <trkpt lat="45.65806" lon="-1.02718">
        <ele>17.6</ele>
        <time>2023-08-06T09:46:55Z</time>
      </trkpt>
      <trkpt lat="45.65806" lon="-1.02729">
        <ele>17.4</ele>
        <time>2023-08-06T09:46:57Z</time>
      </trkpt>
      <trkpt lat="45.65805" lon="-1.02749">
        <ele>17.6</ele>
        <time>2023-08-06T09:47:02Z</time>
      </trkpt>
      <trkpt lat="45.65804" lon="-1.02751">
        <ele>17.8</ele>
        <time>2023-08-06T09:47:03Z</time>
      </trkpt>
      <trkpt lat="45.658" lon="-1.02754">
        <ele>17.6</ele>
        <time>2023-08-06T09:47:05Z</time>
      </trkpt>
      <trkpt lat="45.65792" lon="-1.0276">
        <ele>17.4</ele>
        <time>2023-08-06T09:47:09Z</time>
      </trkpt>
      <trkpt lat="45.65791" lon="-1.02763">
        <ele>17.4</ele>
        <time>2023-08-06T09:47:10Z</time>
      </trkpt>
      <trkpt lat="45.65788" lon="-1.02765">
        <ele>17.4</ele>
        <time>2023-08-06T09:47:11Z</time>
      </trkpt>
      <trkpt lat="45.65781" lon="-1.02769">
        <ele>17.2</ele>
        <time>2023-08-06T09:47:14Z</time>
      </trkpt>
      <trkpt lat="45.6577" lon="-1.0278">
        <ele>16.6</ele>
        <time>2023-08-06T09:47:20Z</time>
      </trkpt>
      <trkpt lat="45.6576" lon="-1.02787">
        <ele>17</ele>
        <time>2023-08-06T09:47:24Z</time>
      </trkpt>
      <trkpt lat="45.65757" lon="-1.0279">
        <ele>17</ele>
        <time>2023-08-06T09:47:25Z</time>
      </trkpt>
      <trkpt lat="45.65755" lon="-1.02792">
        <ele>17</ele>
        <time>2023-08-06T09:47:26Z</time>
      </trkpt>
      <trkpt lat="45.6575" lon="-1.02797">
        <ele>17.2</ele>
        <time>2023-08-06T09:47:28Z</time>
      </trkpt>
      <trkpt lat="45.65741" lon="-1.02797">
        <ele>17.2</ele>
        <time>2023-08-06T09:47:30Z</time>
      </trkpt>
      <trkpt lat="45.65716" lon="-1.0279">
        <ele>17</ele>
        <time>2023-08-06T09:47:36Z</time>
      </trkpt>
      <trkpt lat="45.65685" lon="-1.02781">
        <ele>16.8</ele>
        <time>2023-08-06T09:47:43Z</time>
      </trkpt>
      <trkpt lat="45.6568" lon="-1.02778">
        <ele>16.8</ele>
        <time>2023-08-06T09:47:44Z</time>
      </trkpt>
      <trkpt lat="45.65669" lon="-1.02769">
        <ele>16.4</ele>
        <time>2023-08-06T09:47:47Z</time>
      </trkpt>
      <trkpt lat="45.65667" lon="-1.02766">
        <ele>16.2</ele>
        <time>2023-08-06T09:47:48Z</time>
      </trkpt>
      <trkpt lat="45.6566" lon="-1.02756">
        <ele>15.6</ele>
        <time>2023-08-06T09:47:52Z</time>
      </trkpt>
      <trkpt lat="45.65655" lon="-1.02741">
        <ele>15.6</ele>
        <time>2023-08-06T09:47:59Z</time>
      </trkpt>
      <trkpt lat="45.65645" lon="-1.0272">
        <ele>15.8</ele>
        <time>2023-08-06T09:48:06Z</time>
      </trkpt>
      <trkpt lat="45.65628" lon="-1.02693">
        <ele>16.8</ele>
        <time>2023-08-06T09:48:12Z</time>
      </trkpt>
      <trkpt lat="45.65612" lon="-1.02657">
        <ele>17.4</ele>
        <time>2023-08-06T09:48:18Z</time>
      </trkpt>
      <trkpt lat="45.65596" lon="-1.02616">
        <ele>17.2</ele>
        <time>2023-08-06T09:48:25Z</time>
      </trkpt>
      <trkpt lat="45.65589" lon="-1.02606">
        <ele>17.4</ele>
        <time>2023-08-06T09:48:27Z</time>
      </trkpt>
      <trkpt lat="45.65577" lon="-1.02593">
        <ele>17.6</ele>
        <time>2023-08-06T09:48:30Z</time>
      </trkpt>
      <trkpt lat="45.65564" lon="-1.02582">
        <ele>18.2</ele>
        <time>2023-08-06T09:48:33Z</time>
      </trkpt>
      <trkpt lat="45.65559" lon="-1.02572">
        <ele>18.2</ele>
        <time>2023-08-06T09:48:35Z</time>
      </trkpt>
      <trkpt lat="45.65555" lon="-1.02558">
        <ele>18</ele>
        <time>2023-08-06T09:48:37Z</time>
      </trkpt>
      <trkpt lat="45.65549" lon="-1.02535">
        <ele>17.8</ele>
        <time>2023-08-06T09:48:40Z</time>
      </trkpt>
      <trkpt lat="45.65534" lon="-1.02481">
        <ele>18.2</ele>
        <time>2023-08-06T09:48:47Z</time>
      </trkpt>
      <trkpt lat="45.6552" lon="-1.02424">
        <ele>18.4</ele>
        <time>2023-08-06T09:48:55Z</time>
      </trkpt>
      <trkpt lat="45.65518" lon="-1.02417">
        <ele>18.4</ele>
        <time>2023-08-06T09:48:56Z</time>
      </trkpt>
      <trkpt lat="45.65516" lon="-1.02411">
        <ele>18.4</ele>
        <time>2023-08-06T09:48:57Z</time>
      </trkpt>
      <trkpt lat="45.65509" lon="-1.02382">
        <ele>17.8</ele>
        <time>2023-08-06T09:49:01Z</time>
      </trkpt>
      <trkpt lat="45.65501" lon="-1.02347">
        <ele>18.2</ele>
        <time>2023-08-06T09:49:07Z</time>
      </trkpt>
      <trkpt lat="45.655" lon="-1.02342">
        <ele>18.4</ele>
        <time>2023-08-06T09:49:08Z</time>
      </trkpt>
      <trkpt lat="45.65496" lon="-1.02321">
        <ele>18.8</ele>
        <time>2023-08-06T09:49:13Z</time>
      </trkpt>
      <trkpt lat="45.65493" lon="-1.02318">
        <ele>18.8</ele>
        <time>2023-08-06T09:49:14Z</time>
      </trkpt>
      <trkpt lat="45.65485" lon="-1.02316">
        <ele>19</ele>
        <time>2023-08-06T09:49:16Z</time>
      </trkpt>
      <trkpt lat="45.65481" lon="-1.02316">
        <ele>19</ele>
        <time>2023-08-06T09:49:17Z</time>
      </trkpt>
      <trkpt lat="45.6546" lon="-1.02317">
        <ele>19.2</ele>
        <time>2023-08-06T09:49:21Z</time>
      </trkpt>
      <trkpt lat="45.65426" lon="-1.02322">
        <ele>19</ele>
        <time>2023-08-06T09:49:27Z</time>
      </trkpt>
      <trkpt lat="45.6542" lon="-1.02323">
        <ele>19</ele>
        <time>2023-08-06T09:49:28Z</time>
      </trkpt>
      <trkpt lat="45.65389" lon="-1.0233">
        <ele>18.4</ele>
        <time>2023-08-06T09:49:34Z</time>
      </trkpt>
      <trkpt lat="45.65384" lon="-1.0233">
        <ele>18.2</ele>
        <time>2023-08-06T09:49:35Z</time>
      </trkpt>
      <trkpt lat="45.65377" lon="-1.02329">
        <ele>18.2</ele>
        <time>2023-08-06T09:49:37Z</time>
      </trkpt>
      <trkpt lat="45.65375" lon="-1.02326">
        <ele>18.2</ele>
        <time>2023-08-06T09:49:38Z</time>
      </trkpt>
      <trkpt lat="45.6537" lon="-1.02304">
        <ele>17.8</ele>
        <time>2023-08-06T09:49:43Z</time>
      </trkpt>
      <trkpt lat="45.6537" lon="-1.02298">
        <ele>17.8</ele>
        <time>2023-08-06T09:49:44Z</time>
      </trkpt>
      <trkpt lat="45.65372" lon="-1.02286">
        <ele>18</ele>
        <time>2023-08-06T09:49:46Z</time>
      </trkpt>
      <trkpt lat="45.65374" lon="-1.02281">
        <ele>18</ele>
        <time>2023-08-06T09:49:47Z</time>
      </trkpt>
      <trkpt lat="45.65376" lon="-1.02277">
        <ele>18.2</ele>
        <time>2023-08-06T09:49:48Z</time>
      </trkpt>
      <trkpt lat="45.65385" lon="-1.02273">
        <ele>18.6</ele>
        <time>2023-08-06T09:49:50Z</time>
      </trkpt>
      <trkpt lat="45.65389" lon="-1.02271">
        <ele>18.8</ele>
        <time>2023-08-06T09:49:51Z</time>
      </trkpt>
      <trkpt lat="45.65394" lon="-1.0227">
        <ele>18.8</ele>
        <time>2023-08-06T09:49:52Z</time>
      </trkpt>
      <trkpt lat="45.65411" lon="-1.02268">
        <ele>19</ele>
        <time>2023-08-06T09:49:55Z</time>
      </trkpt>
      <trkpt lat="45.65446" lon="-1.02265">
        <ele>18.8</ele>
        <time>2023-08-06T09:50:02Z</time>
      </trkpt>
      <trkpt lat="45.6545" lon="-1.02263">
        <ele>18.6</ele>
        <time>2023-08-06T09:50:03Z</time>
      </trkpt>
      <trkpt lat="45.65454" lon="-1.02253">
        <ele>18.8</ele>
        <time>2023-08-06T09:50:05Z</time>
      </trkpt>
      <trkpt lat="45.65452" lon="-1.02226">
        <ele>19</ele>
        <time>2023-08-06T09:50:09Z</time>
      </trkpt>
      <trkpt lat="45.65444" lon="-1.02187">
        <ele>19</ele>
        <time>2023-08-06T09:50:15Z</time>
      </trkpt>
      <trkpt lat="45.65443" lon="-1.02181">
        <ele>19</ele>
        <time>2023-08-06T09:50:16Z</time>
      </trkpt>
      <trkpt lat="45.6544" lon="-1.02155">
        <ele>19</ele>
        <time>2023-08-06T09:50:20Z</time>
      </trkpt>
      <trkpt lat="45.65437" lon="-1.02128">
        <ele>19</ele>
        <time>2023-08-06T09:50:24Z</time>
      </trkpt>
      <trkpt lat="45.65435" lon="-1.02105">
        <ele>19.2</ele>
        <time>2023-08-06T09:50:27Z</time>
      </trkpt>
      <trkpt lat="45.65431" lon="-1.02074">
        <ele>19.4</ele>
        <time>2023-08-06T09:50:31Z</time>
      </trkpt>
      <trkpt lat="45.65428" lon="-1.02058">
        <ele>19.6</ele>
        <time>2023-08-06T09:50:33Z</time>
      </trkpt>
      <trkpt lat="45.65424" lon="-1.02027">
        <ele>19.8</ele>
        <time>2023-08-06T09:50:37Z</time>
      </trkpt>
      <trkpt lat="45.65426" lon="-1.0201">
        <ele>20</ele>
        <time>2023-08-06T09:50:39Z</time>
      </trkpt>
      <trkpt lat="45.65433" lon="-1.01998">
        <ele>20.2</ele>
        <time>2023-08-06T09:50:41Z</time>
      </trkpt>
      <trkpt lat="45.65438" lon="-1.01994">
        <ele>20.2</ele>
        <time>2023-08-06T09:50:42Z</time>
      </trkpt>
      <trkpt lat="45.65443" lon="-1.01992">
        <ele>20.6</ele>
        <time>2023-08-06T09:50:43Z</time>
      </trkpt>
      <trkpt lat="45.65463" lon="-1.01984">
        <ele>21</ele>
        <time>2023-08-06T09:50:47Z</time>
      </trkpt>
      <trkpt lat="45.65494" lon="-1.01972">
        <ele>20.6</ele>
        <time>2023-08-06T09:50:53Z</time>
      </trkpt>
      <trkpt lat="45.65515" lon="-1.01966">
        <ele>20.6</ele>
        <time>2023-08-06T09:50:58Z</time>
      </trkpt>
      <trkpt lat="45.65518" lon="-1.01964">
        <ele>20.6</ele>
        <time>2023-08-06T09:50:59Z</time>
      </trkpt>
      <trkpt lat="45.65537" lon="-1.01956">
        <ele>20.6</ele>
        <time>2023-08-06T09:51:03Z</time>
      </trkpt>
      <trkpt lat="45.65564" lon="-1.01945">
        <ele>20.4</ele>
        <time>2023-08-06T09:51:09Z</time>
      </trkpt>
      <trkpt lat="45.65572" lon="-1.01942">
        <ele>20.6</ele>
        <time>2023-08-06T09:51:11Z</time>
      </trkpt>
      <trkpt lat="45.65587" lon="-1.01936">
        <ele>20.8</ele>
        <time>2023-08-06T09:51:14Z</time>
      </trkpt>
      <trkpt lat="45.65622" lon="-1.01923">
        <ele>21</ele>
        <time>2023-08-06T09:51:20Z</time>
      </trkpt>
      <trkpt lat="45.65644" lon="-1.01912">
        <ele>21</ele>
        <time>2023-08-06T09:51:24Z</time>
      </trkpt>
      <trkpt lat="45.65649" lon="-1.01907">
        <ele>21</ele>
        <time>2023-08-06T09:51:25Z</time>
      </trkpt>
      <trkpt lat="45.65652" lon="-1.01901">
        <ele>21</ele>
        <time>2023-08-06T09:51:26Z</time>
      </trkpt>
      <trkpt lat="45.65654" lon="-1.01886">
        <ele>20.8</ele>
        <time>2023-08-06T09:51:28Z</time>
      </trkpt>
      <trkpt lat="45.65649" lon="-1.01847">
        <ele>20.4</ele>
        <time>2023-08-06T09:51:33Z</time>
      </trkpt>
      <trkpt lat="45.65644" lon="-1.01809">
        <ele>20.4</ele>
        <time>2023-08-06T09:51:38Z</time>
      </trkpt>
      <trkpt lat="45.65645" lon="-1.01802">
        <ele>20.4</ele>
        <time>2023-08-06T09:51:39Z</time>
      </trkpt>
      <trkpt lat="45.65647" lon="-1.01796">
        <ele>20.4</ele>
        <time>2023-08-06T09:51:40Z</time>
      </trkpt>
      <trkpt lat="45.65652" lon="-1.01787">
        <ele>20.6</ele>
        <time>2023-08-06T09:51:42Z</time>
      </trkpt>
      <trkpt lat="45.65656" lon="-1.01784">
        <ele>20.6</ele>
        <time>2023-08-06T09:51:43Z</time>
      </trkpt>
      <trkpt lat="45.65681" lon="-1.01759">
        <ele>20.4</ele>
        <time>2023-08-06T09:51:49Z</time>
      </trkpt>
      <trkpt lat="45.65713" lon="-1.0174">
        <ele>20.6</ele>
        <time>2023-08-06T09:51:55Z</time>
      </trkpt>
      <trkpt lat="45.65719" lon="-1.01739">
        <ele>20.8</ele>
        <time>2023-08-06T09:51:56Z</time>
      </trkpt>
      <trkpt lat="45.65746" lon="-1.01731">
        <ele>21</ele>
        <time>2023-08-06T09:52:01Z</time>
      </trkpt>
      <trkpt lat="45.65757" lon="-1.01728">
        <ele>20.6</ele>
        <time>2023-08-06T09:52:03Z</time>
      </trkpt>
      <trkpt lat="45.65777" lon="-1.01721">
        <ele>20.4</ele>
        <time>2023-08-06T09:52:07Z</time>
      </trkpt>
      <trkpt lat="45.65792" lon="-1.01712">
        <ele>20.4</ele>
        <time>2023-08-06T09:52:10Z</time>
      </trkpt>
      <trkpt lat="45.65801" lon="-1.01706">
        <ele>20.4</ele>
        <time>2023-08-06T09:52:12Z</time>
      </trkpt>
      <trkpt lat="45.65806" lon="-1.01702">
        <ele>20.2</ele>
        <time>2023-08-06T09:52:13Z</time>
      </trkpt>
      <trkpt lat="45.65824" lon="-1.01685">
        <ele>19.6</ele>
        <time>2023-08-06T09:52:17Z</time>
      </trkpt>
      <trkpt lat="45.65832" lon="-1.01676">
        <ele>19.6</ele>
        <time>2023-08-06T09:52:19Z</time>
      </trkpt>
      <trkpt lat="45.65857" lon="-1.01648">
        <ele>19.8</ele>
        <time>2023-08-06T09:52:25Z</time>
      </trkpt>
      <trkpt lat="45.65861" lon="-1.01644">
        <ele>19.8</ele>
        <time>2023-08-06T09:52:26Z</time>
      </trkpt>
      <trkpt lat="45.6588" lon="-1.01622">
        <ele>19.4</ele>
        <time>2023-08-06T09:52:32Z</time>
      </trkpt>
      <trkpt lat="45.65883" lon="-1.01622">
        <ele>19.4</ele>
        <time>2023-08-06T09:52:34Z</time>
      </trkpt>
      <trkpt lat="45.65885" lon="-1.01624">
        <ele>19.4</ele>
        <time>2023-08-06T09:52:36Z</time>
      </trkpt>
      <trkpt lat="45.65889" lon="-1.01633">
        <ele>19.4</ele>
        <time>2023-08-06T09:52:41Z</time>
      </trkpt>
      <trkpt lat="45.65889" lon="-1.01639">
        <ele>19.4</ele>
        <time>2023-08-06T09:52:46Z</time>
      </trkpt>
      <trkpt lat="45.65888" lon="-1.0164">
        <ele>19.4</ele>
        <time>2023-08-06T09:52:47Z</time>
      </trkpt>
      <trkpt lat="45.65884" lon="-1.01641">
        <ele>19.4</ele>
        <time>2023-08-06T09:52:49Z</time>
      </trkpt>
      <trkpt lat="45.65877" lon="-1.01643">
        <ele>19.6</ele>
        <time>2023-08-06T09:52:52Z</time>
      </trkpt>
      <trkpt lat="45.6587" lon="-1.01653">
        <ele>19.6</ele>
        <time>2023-08-06T09:52:57Z</time>
      </trkpt>
      <trkpt lat="45.65871" lon="-1.01658">
        <ele>19.6</ele>
        <time>2023-08-06T09:52:59Z</time>
      </trkpt>
      <trkpt lat="45.65874" lon="-1.01669">
        <ele>19.6</ele>
        <time>2023-08-06T09:53:03Z</time>
      </trkpt>
      <trkpt lat="45.65882" lon="-1.01687">
        <ele>20.2</ele>
        <time>2023-08-06T09:53:10Z</time>
      </trkpt>
      <trkpt lat="45.65892" lon="-1.01698">
        <ele>20.6</ele>
        <time>2023-08-06T09:53:15Z</time>
      </trkpt>
      <trkpt lat="45.65894" lon="-1.01697">
        <ele>20.6</ele>
        <time>2023-08-06T09:53:17Z</time>
      </trkpt>
      <trkpt lat="45.65894" lon="-1.01695">
        <ele>20.8</ele>
        <time>2023-08-06T09:53:19Z</time>
      </trkpt>
      <trkpt lat="45.65893" lon="-1.01684">
        <ele>20.2</ele>
        <time>2023-08-06T09:53:24Z</time>
      </trkpt>
      <trkpt lat="45.65894" lon="-1.01682">
        <ele>20.2</ele>
        <time>2023-08-06T09:53:25Z</time>
      </trkpt>
      <trkpt lat="45.659" lon="-1.01677">
        <ele>20.2</ele>
        <time>2023-08-06T09:53:28Z</time>
      </trkpt>
      <trkpt lat="45.65902" lon="-1.01678">
        <ele>20.2</ele>
        <time>2023-08-06T09:53:29Z</time>
      </trkpt>
      <trkpt lat="45.65906" lon="-1.01684">
        <ele>20.6</ele>
        <time>2023-08-06T09:53:32Z</time>
      </trkpt>
      <trkpt lat="45.65912" lon="-1.01693">
        <ele>20.6</ele>
        <time>2023-08-06T09:53:37Z</time>
      </trkpt>
      <trkpt lat="45.65913" lon="-1.01695">
        <ele>20.6</ele>
        <time>2023-08-06T09:53:38Z</time>
      </trkpt>
      <trkpt lat="45.65914" lon="-1.01707">
        <ele>20.6</ele>
        <time>2023-08-06T09:53:45Z</time>
      </trkpt>
      <trkpt lat="45.65922" lon="-1.01724">
        <ele>20.8</ele>
        <time>2023-08-06T09:53:51Z</time>
      </trkpt>
      <trkpt lat="45.65924" lon="-1.01732">
        <ele>20.6</ele>
        <time>2023-08-06T09:53:56Z</time>
      </trkpt>
      <trkpt lat="45.65923" lon="-1.01734">
        <ele>20.4</ele>
        <time>2023-08-06T09:53:57Z</time>
      </trkpt>
      <trkpt lat="45.65914" lon="-1.01741">
        <ele>20.2</ele>
        <time>2023-08-06T09:54:02Z</time>
      </trkpt>
      <trkpt lat="45.65912" lon="-1.01746">
        <ele>20.2</ele>
        <time>2023-08-06T09:54:04Z</time>
      </trkpt>
      <trkpt lat="45.65912" lon="-1.01748">
        <ele>20.2</ele>
        <time>2023-08-06T09:54:06Z</time>
      </trkpt>
      <trkpt lat="45.65904" lon="-1.01745">
        <ele>19.8</ele>
        <time>2023-08-06T09:54:15Z</time>
      </trkpt>
      <trkpt lat="45.65894" lon="-1.01739">
        <ele>19.8</ele>
        <time>2023-08-06T09:54:21Z</time>
      </trkpt>
      <trkpt lat="45.65881" lon="-1.01736">
        <ele>19.8</ele>
        <time>2023-08-06T09:54:26Z</time>
      </trkpt>
      <trkpt lat="45.65873" lon="-1.01736">
        <ele>19.8</ele>
        <time>2023-08-06T09:54:29Z</time>
      </trkpt>
      <trkpt lat="45.65867" lon="-1.01736">
        <ele>19.8</ele>
        <time>2023-08-06T09:54:31Z</time>
      </trkpt>
      <trkpt lat="45.6586" lon="-1.01735">
        <ele>19.6</ele>
        <time>2023-08-06T09:54:33Z</time>
      </trkpt>
      <trkpt lat="45.65851" lon="-1.01734">
        <ele>19.2</ele>
        <time>2023-08-06T09:54:35Z</time>
      </trkpt>
      <trkpt lat="45.65831" lon="-1.01732">
        <ele>19.2</ele>
        <time>2023-08-06T09:54:40Z</time>
      </trkpt>
      <trkpt lat="45.65815" lon="-1.01737">
        <ele>19.6</ele>
        <time>2023-08-06T09:54:47Z</time>
      </trkpt>
      <trkpt lat="45.65801" lon="-1.0174">
        <ele>19.4</ele>
        <time>2023-08-06T09:54:52Z</time>
      </trkpt>
      <trkpt lat="45.65793" lon="-1.01741">
        <ele>19.4</ele>
        <time>2023-08-06T09:54:55Z</time>
      </trkpt>
      <trkpt lat="45.6579" lon="-1.01745">
        <ele>19.4</ele>
        <time>2023-08-06T09:54:57Z</time>
      </trkpt>
      <trkpt lat="45.65789" lon="-1.01746">
        <ele>19.4</ele>
        <time>2023-08-06T09:54:58Z</time>
      </trkpt>
      <trkpt lat="45.65786" lon="-1.01754">
        <ele>19.8</ele>
        <time>2023-08-06T09:55:02Z</time>
      </trkpt>
      <trkpt lat="45.65783" lon="-1.0176">
        <ele>20</ele>
        <time>2023-08-06T09:55:05Z</time>
      </trkpt>
      <trkpt lat="45.65784" lon="-1.01767">
        <ele>19.8</ele>
        <time>2023-08-06T09:55:07Z</time>
      </trkpt>
      <trkpt lat="45.65786" lon="-1.01773">
        <ele>19.4</ele>
        <time>2023-08-06T09:55:11Z</time>
      </trkpt>
      <trkpt lat="45.65787" lon="-1.01773">
        <ele>19.4</ele>
        <time>2023-08-06T09:55:12Z</time>
      </trkpt>
      <trkpt lat="45.65789" lon="-1.01771">
        <ele>19.4</ele>
        <time>2023-08-06T09:55:14Z</time>
      </trkpt>
      <trkpt lat="45.65788" lon="-1.01768">
        <ele>19.4</ele>
        <time>2023-08-06T09:55:17Z</time>
      </trkpt>
      <trkpt lat="45.65788" lon="-1.01766">
        <ele>19.4</ele>
        <time>2023-08-06T09:55:18Z</time>
      </trkpt>
      <trkpt lat="45.65791" lon="-1.01765">
        <ele>19.6</ele>
        <time>2023-08-06T09:55:22Z</time>
      </trkpt>
      <trkpt lat="45.65795" lon="-1.01767">
        <ele>19.6</ele>
        <time>2023-08-06T09:55:26Z</time>
      </trkpt>
      <trkpt lat="45.65798" lon="-1.01766">
        <ele>19.6</ele>
        <time>2023-08-06T09:55:28Z</time>
      </trkpt>
      <trkpt lat="45.65813" lon="-1.01767">
        <ele>19.4</ele>
        <time>2023-08-06T09:55:36Z</time>
      </trkpt>
      <trkpt lat="45.65817" lon="-1.0177">
        <ele>19.2</ele>
        <time>2023-08-06T09:55:40Z</time>
      </trkpt>
      <trkpt lat="45.65829" lon="-1.01772">
        <ele>19.2</ele>
        <time>2023-08-06T09:55:49Z</time>
      </trkpt>
      <trkpt lat="45.65831" lon="-1.01774">
        <ele>19.2</ele>
        <time>2023-08-06T09:55:51Z</time>
      </trkpt>
      <trkpt lat="45.65832" lon="-1.01775">
        <ele>19</ele>
        <time>2023-08-06T09:55:53Z</time>
      </trkpt>
      <trkpt lat="45.65834" lon="-1.01778">
        <ele>19</ele>
        <time>2023-08-06T09:55:56Z</time>
      </trkpt>
      <trkpt lat="45.65838" lon="-1.01782">
        <ele>18.8</ele>
        <time>2023-08-06T09:56:01Z</time>
      </trkpt>
      <trkpt lat="45.65842" lon="-1.01786">
        <ele>19.2</ele>
        <time>2023-08-06T09:56:06Z</time>
      </trkpt>
      <trkpt lat="45.65848" lon="-1.01789">
        <ele>19.4</ele>
        <time>2023-08-06T09:56:09Z</time>
      </trkpt>
      <trkpt lat="45.65849" lon="-1.01788">
        <ele>19.4</ele>
        <time>2023-08-06T09:56:10Z</time>
      </trkpt>
      <trkpt lat="45.65854" lon="-1.01785">
        <ele>19.6</ele>
        <time>2023-08-06T09:56:14Z</time>
      </trkpt>
      <trkpt lat="45.65856" lon="-1.01785">
        <ele>19.4</ele>
        <time>2023-08-06T09:56:15Z</time>
      </trkpt>
      <trkpt lat="45.65859" lon="-1.01785">
        <ele>19.2</ele>
        <time>2023-08-06T09:56:17Z</time>
      </trkpt>
      <trkpt lat="45.65861" lon="-1.01786">
        <ele>18.8</ele>
        <time>2023-08-06T09:56:21Z</time>
      </trkpt>
      <trkpt lat="45.65865" lon="-1.01788">
        <ele>19</ele>
        <time>2023-08-06T09:56:35Z</time>
      </trkpt>
      <trkpt lat="45.65866" lon="-1.0179">
        <ele>19</ele>
        <time>2023-08-06T09:56:36Z</time>
      </trkpt>
      <trkpt lat="45.65866" lon="-1.01791">
        <ele>19</ele>
        <time>2023-08-06T09:56:38Z</time>
      </trkpt>
      <trkpt lat="45.65863" lon="-1.01793">
        <ele>19</ele>
        <time>2023-08-06T09:56:41Z</time>
      </trkpt>
      <trkpt lat="45.65862" lon="-1.01795">
        <ele>18.6</ele>
        <time>2023-08-06T09:56:43Z</time>
      </trkpt>
      <trkpt lat="45.65861" lon="-1.01797">
        <ele>18.8</ele>
        <time>2023-08-06T09:56:45Z</time>
      </trkpt>
      <trkpt lat="45.65863" lon="-1.01806">
        <ele>19</ele>
        <time>2023-08-06T09:56:50Z</time>
      </trkpt>
      <trkpt lat="45.65862" lon="-1.01813">
        <ele>18.8</ele>
        <time>2023-08-06T09:56:53Z</time>
      </trkpt>
      <trkpt lat="45.65866" lon="-1.01836">
        <ele>18.6</ele>
        <time>2023-08-06T09:57:03Z</time>
      </trkpt>
      <trkpt lat="45.65872" lon="-1.01835">
        <ele>18.6</ele>
        <time>2023-08-06T09:57:06Z</time>
      </trkpt>
      <trkpt lat="45.65883" lon="-1.01833">
        <ele>18.8</ele>
        <time>2023-08-06T09:57:13Z</time>
      </trkpt>
      <trkpt lat="45.65889" lon="-1.01837">
        <ele>18.6</ele>
        <time>2023-08-06T09:57:27Z</time>
      </trkpt>
      <trkpt lat="45.65894" lon="-1.01838">
        <ele>18.4</ele>
        <time>2023-08-06T09:57:37Z</time>
      </trkpt>
      <trkpt lat="45.65895" lon="-1.01838">
        <ele>18.4</ele>
        <time>2023-08-06T09:57:42Z</time>
      </trkpt>
      <trkpt lat="45.659" lon="-1.01837">
        <ele>18.4</ele>
        <time>2023-08-06T09:57:55Z</time>
      </trkpt>
      <trkpt lat="45.65902" lon="-1.01837">
        <ele>18.6</ele>
        <time>2023-08-06T09:57:57Z</time>
      </trkpt>
      <trkpt lat="45.65909" lon="-1.01833">
        <ele>18.4</ele>
        <time>2023-08-06T09:58:13Z</time>
      </trkpt>
      <trkpt lat="45.65909" lon="-1.01832">
        <ele>18.2</ele>
        <time>2023-08-06T09:58:24Z</time>
      </trkpt>
      <trkpt lat="45.65914" lon="-1.01823">
        <ele>18.2</ele>
        <time>2023-08-06T09:58:32Z</time>
      </trkpt>
      <trkpt lat="45.65923" lon="-1.01803">
        <ele>18</ele>
        <time>2023-08-06T09:58:43Z</time>
      </trkpt>
      <trkpt lat="45.65927" lon="-1.01799">
        <ele>18.2</ele>
        <time>2023-08-06T09:58:46Z</time>
      </trkpt>
      <trkpt lat="45.65934" lon="-1.01793">
        <ele>19.4</ele>
        <time>2023-08-06T09:58:51Z</time>
      </trkpt>
      <trkpt lat="45.65936" lon="-1.01793">
        <ele>19.4</ele>
        <time>2023-08-06T09:58:52Z</time>
      </trkpt>
      <trkpt lat="45.6594" lon="-1.01792">
        <ele>19.6</ele>
        <time>2023-08-06T09:58:53Z</time>
      </trkpt>
      <trkpt lat="45.65944" lon="-1.01793">
        <ele>19.6</ele>
        <time>2023-08-06T09:58:54Z</time>
      </trkpt>
      <trkpt lat="45.65945" lon="-1.01796">
        <ele>19.6</ele>
        <time>2023-08-06T09:58:56Z</time>
      </trkpt>
      <trkpt lat="45.65946" lon="-1.01797">
        <ele>19.6</ele>
        <time>2023-08-06T09:58:57Z</time>
      </trkpt>
      <trkpt lat="45.65952" lon="-1.0181">
        <ele>19.2</ele>
        <time>2023-08-06T09:59:03Z</time>
      </trkpt>
      <trkpt lat="45.65956" lon="-1.01822">
        <ele>18.4</ele>
        <time>2023-08-06T09:59:07Z</time>
      </trkpt>
      <trkpt lat="45.65958" lon="-1.01823">
        <ele>18.4</ele>
        <time>2023-08-06T09:59:08Z</time>
      </trkpt>
      <trkpt lat="45.65961" lon="-1.01822">
        <ele>18.4</ele>
        <time>2023-08-06T09:59:10Z</time>
      </trkpt>
      <trkpt lat="45.65964" lon="-1.01819">
        <ele>18.2</ele>
        <time>2023-08-06T09:59:12Z</time>
      </trkpt>
      <trkpt lat="45.65975" lon="-1.01809">
        <ele>19.6</ele>
        <time>2023-08-06T09:59:19Z</time>
      </trkpt>
      <trkpt lat="45.65981" lon="-1.018">
        <ele>19.4</ele>
        <time>2023-08-06T09:59:24Z</time>
      </trkpt>
      <trkpt lat="45.65981" lon="-1.01788">
        <ele>19.2</ele>
        <time>2023-08-06T09:59:28Z</time>
      </trkpt>
      <trkpt lat="45.65982" lon="-1.01786">
        <ele>19.2</ele>
        <time>2023-08-06T09:59:29Z</time>
      </trkpt>
      <trkpt lat="45.65985" lon="-1.01782">
        <ele>19</ele>
        <time>2023-08-06T09:59:31Z</time>
      </trkpt>
      <trkpt lat="45.65986" lon="-1.01781">
        <ele>19</ele>
        <time>2023-08-06T09:59:32Z</time>
      </trkpt>
      <trkpt lat="45.65993" lon="-1.01778">
        <ele>19.6</ele>
        <time>2023-08-06T09:59:37Z</time>
      </trkpt>
      <trkpt lat="45.65999" lon="-1.01777">
        <ele>19.6</ele>
        <time>2023-08-06T09:59:40Z</time>
      </trkpt>
      <trkpt lat="45.66004" lon="-1.0178">
        <ele>19.8</ele>
        <time>2023-08-06T09:59:44Z</time>
      </trkpt>
      <trkpt lat="45.66005" lon="-1.01783">
        <ele>19.6</ele>
        <time>2023-08-06T09:59:46Z</time>
      </trkpt>
      <trkpt lat="45.66008" lon="-1.01786">
        <ele>19.8</ele>
        <time>2023-08-06T09:59:48Z</time>
      </trkpt>
      <trkpt lat="45.6601" lon="-1.01792">
        <ele>19.6</ele>
        <time>2023-08-06T09:59:51Z</time>
      </trkpt>
      <trkpt lat="45.66008" lon="-1.01798">
        <ele>19.6</ele>
        <time>2023-08-06T09:59:55Z</time>
      </trkpt>
      <trkpt lat="45.66009" lon="-1.018">
        <ele>19.4</ele>
        <time>2023-08-06T09:59:56Z</time>
      </trkpt>
      <trkpt lat="45.66012" lon="-1.01814">
        <ele>19.4</ele>
        <time>2023-08-06T10:00:02Z</time>
      </trkpt>
      <trkpt lat="45.66013" lon="-1.01818">
        <ele>19.2</ele>
        <time>2023-08-06T10:00:04Z</time>
      </trkpt>
      <trkpt lat="45.66014" lon="-1.01827">
        <ele>19.2</ele>
        <time>2023-08-06T10:00:08Z</time>
      </trkpt>
      <trkpt lat="45.66015" lon="-1.01835">
        <ele>19.4</ele>
        <time>2023-08-06T10:00:10Z</time>
      </trkpt>
      <trkpt lat="45.66019" lon="-1.0184">
        <ele>19.6</ele>
        <time>2023-08-06T10:00:13Z</time>
      </trkpt>
      <trkpt lat="45.66021" lon="-1.0184">
        <ele>19.6</ele>
        <time>2023-08-06T10:00:15Z</time>
      </trkpt>
      <trkpt lat="45.66022" lon="-1.01838">
        <ele>19.8</ele>
        <time>2023-08-06T10:00:17Z</time>
      </trkpt>
      <trkpt lat="45.66022" lon="-1.01836">
        <ele>19.8</ele>
        <time>2023-08-06T10:00:18Z</time>
      </trkpt>
      <trkpt lat="45.66025" lon="-1.01829">
        <ele>19.8</ele>
        <time>2023-08-06T10:00:22Z</time>
      </trkpt>
      <trkpt lat="45.66027" lon="-1.01827">
        <ele>19.6</ele>
        <time>2023-08-06T10:00:24Z</time>
      </trkpt>
      <trkpt lat="45.66037" lon="-1.01825">
        <ele>19.8</ele>
        <time>2023-08-06T10:00:30Z</time>
      </trkpt>
      <trkpt lat="45.66041" lon="-1.01819">
        <ele>19.4</ele>
        <time>2023-08-06T10:00:32Z</time>
      </trkpt>
      <trkpt lat="45.66042" lon="-1.01814">
        <ele>19.2</ele>
        <time>2023-08-06T10:00:34Z</time>
      </trkpt>
      <trkpt lat="45.66044" lon="-1.01807">
        <ele>19</ele>
        <time>2023-08-06T10:00:36Z</time>
      </trkpt>
      <trkpt lat="45.66042" lon="-1.01797">
        <ele>19.2</ele>
        <time>2023-08-06T10:00:39Z</time>
      </trkpt>
      <trkpt lat="45.66037" lon="-1.01775">
        <ele>19</ele>
        <time>2023-08-06T10:00:45Z</time>
      </trkpt>
      <trkpt lat="45.66033" lon="-1.01762">
        <ele>18.8</ele>
        <time>2023-08-06T10:00:52Z</time>
      </trkpt>
      <trkpt lat="45.66031" lon="-1.01761">
        <ele>19</ele>
        <time>2023-08-06T10:00:53Z</time>
      </trkpt>
      <trkpt lat="45.66023" lon="-1.01759">
        <ele>19.4</ele>
        <time>2023-08-06T10:00:59Z</time>
      </trkpt>
      <trkpt lat="45.66019" lon="-1.01756">
        <ele>19.4</ele>
        <time>2023-08-06T10:01:01Z</time>
      </trkpt>
      <trkpt lat="45.66014" lon="-1.01751">
        <ele>19.6</ele>
        <time>2023-08-06T10:01:04Z</time>
      </trkpt>
      <trkpt lat="45.6601" lon="-1.01747">
        <ele>19.8</ele>
        <time>2023-08-06T10:01:06Z</time>
      </trkpt>
      <trkpt lat="45.66002" lon="-1.01745">
        <ele>19.8</ele>
        <time>2023-08-06T10:01:09Z</time>
      </trkpt>
      <trkpt lat="45.65996" lon="-1.0175">
        <ele>19.8</ele>
        <time>2023-08-06T10:01:15Z</time>
      </trkpt>
      <trkpt lat="45.65992" lon="-1.01753">
        <ele>19.6</ele>
        <time>2023-08-06T10:01:17Z</time>
      </trkpt>
      <trkpt lat="45.65985" lon="-1.01756">
        <ele>19.4</ele>
        <time>2023-08-06T10:01:20Z</time>
      </trkpt>
      <trkpt lat="45.65972" lon="-1.01747">
        <ele>19.2</ele>
        <time>2023-08-06T10:01:26Z</time>
      </trkpt>
      <trkpt lat="45.65966" lon="-1.01745">
        <ele>19.6</ele>
        <time>2023-08-06T10:01:29Z</time>
      </trkpt>
      <trkpt lat="45.65964" lon="-1.01741">
        <ele>19.8</ele>
        <time>2023-08-06T10:01:31Z</time>
      </trkpt>
      <trkpt lat="45.65962" lon="-1.0173">
        <ele>19.8</ele>
        <time>2023-08-06T10:01:36Z</time>
      </trkpt>
      <trkpt lat="45.65962" lon="-1.0173">
        <ele>19.8</ele>
        <time>2023-08-06T10:01:37Z</time>
      </trkpt>
      <trkpt lat="45.65963" lon="-1.0173">
        <ele>19.8</ele>
        <time>2023-08-06T10:01:40Z</time>
      </trkpt>
      <trkpt lat="45.65965" lon="-1.0173">
        <ele>19.8</ele>
        <time>2023-08-06T10:01:42Z</time>
      </trkpt>
      <trkpt lat="45.65965" lon="-1.01729">
        <ele>19.8</ele>
        <time>2023-08-06T10:01:43Z</time>
      </trkpt>
      <trkpt lat="45.65967" lon="-1.01717">
        <ele>19.8</ele>
        <time>2023-08-06T10:01:48Z</time>
      </trkpt>
      <trkpt lat="45.65969" lon="-1.01715">
        <ele>19.8</ele>
        <time>2023-08-06T10:01:49Z</time>
      </trkpt>
      <trkpt lat="45.6597" lon="-1.01715">
        <ele>19.6</ele>
        <time>2023-08-06T10:01:50Z</time>
      </trkpt>
      <trkpt lat="45.65975" lon="-1.01714">
        <ele>19.6</ele>
        <time>2023-08-06T10:01:53Z</time>
      </trkpt>
      <trkpt lat="45.65977" lon="-1.01712">
        <ele>19.6</ele>
        <time>2023-08-06T10:01:54Z</time>
      </trkpt>
      <trkpt lat="45.65984" lon="-1.01701">
        <ele>19.8</ele>
        <time>2023-08-06T10:01:58Z</time>
      </trkpt>
      <trkpt lat="45.65988" lon="-1.01697">
        <ele>19.6</ele>
        <time>2023-08-06T10:02:00Z</time>
      </trkpt>
      <trkpt lat="45.65994" lon="-1.01687">
        <ele>19</ele>
        <time>2023-08-06T10:02:04Z</time>
      </trkpt>
      <trkpt lat="45.65995" lon="-1.01684">
        <ele>19</ele>
        <time>2023-08-06T10:02:05Z</time>
      </trkpt>
      <trkpt lat="45.65988" lon="-1.01671">
        <ele>19</ele>
        <time>2023-08-06T10:02:11Z</time>
      </trkpt>
      <trkpt lat="45.6598" lon="-1.01665">
        <ele>18.8</ele>
        <time>2023-08-06T10:02:16Z</time>
      </trkpt>
      <trkpt lat="45.65979" lon="-1.0166">
        <ele>18.8</ele>
        <time>2023-08-06T10:02:19Z</time>
      </trkpt>
      <trkpt lat="45.65976" lon="-1.0166">
        <ele>18.8</ele>
        <time>2023-08-06T10:02:21Z</time>
      </trkpt>
      <trkpt lat="45.65971" lon="-1.01659">
        <ele>19</ele>
        <time>2023-08-06T10:02:24Z</time>
      </trkpt>
      <trkpt lat="45.65969" lon="-1.01658">
        <ele>18.8</ele>
        <time>2023-08-06T10:02:26Z</time>
      </trkpt>
      <trkpt lat="45.65969" lon="-1.01658">
        <ele>18.8</ele>
        <time>2023-08-06T10:02:27Z</time>
      </trkpt>
      <trkpt lat="45.65968" lon="-1.01654">
        <ele>18.4</ele>
        <time>2023-08-06T10:02:32Z</time>
      </trkpt>
      <trkpt lat="45.65969" lon="-1.01643">
        <ele>18.8</ele>
        <time>2023-08-06T10:02:41Z</time>
      </trkpt>
      <trkpt lat="45.65968" lon="-1.01641">
        <ele>18.6</ele>
        <time>2023-08-06T10:02:43Z</time>
      </trkpt>
      <trkpt lat="45.65968" lon="-1.01633">
        <ele>18.8</ele>
        <time>2023-08-06T10:02:47Z</time>
      </trkpt>
      <trkpt lat="45.65965" lon="-1.01628">
        <ele>18.8</ele>
        <time>2023-08-06T10:02:49Z</time>
      </trkpt>
      <trkpt lat="45.65959" lon="-1.01617">
        <ele>18.4</ele>
        <time>2023-08-06T10:02:53Z</time>
      </trkpt>
      <trkpt lat="45.65945" lon="-1.01606">
        <ele>17.6</ele>
        <time>2023-08-06T10:03:00Z</time>
      </trkpt>
      <trkpt lat="45.65942" lon="-1.01603">
        <ele>17.4</ele>
        <time>2023-08-06T10:03:02Z</time>
      </trkpt>
      <trkpt lat="45.6594" lon="-1.016">
        <ele>17.2</ele>
        <time>2023-08-06T10:03:05Z</time>
      </trkpt>
      <trkpt lat="45.6594" lon="-1.01599">
        <ele>17.2</ele>
        <time>2023-08-06T10:03:06Z</time>
      </trkpt>
      <trkpt lat="45.6594" lon="-1.01598">
        <ele>17.2</ele>
        <time>2023-08-06T10:03:07Z</time>
      </trkpt>
      <trkpt lat="45.65933" lon="-1.01591">
        <ele>17.4</ele>
        <time>2023-08-06T10:03:19Z</time>
      </trkpt>
      <trkpt lat="45.65926" lon="-1.01579">
        <ele>17.2</ele>
        <time>2023-08-06T10:03:27Z</time>
      </trkpt>
      <trkpt lat="45.65924" lon="-1.01565">
        <ele>17</ele>
        <time>2023-08-06T10:03:31Z</time>
      </trkpt>
      <trkpt lat="45.65911" lon="-1.0154">
        <ele>16.4</ele>
        <time>2023-08-06T10:03:37Z</time>
      </trkpt>
      <trkpt lat="45.65909" lon="-1.01535">
        <ele>16.4</ele>
        <time>2023-08-06T10:03:38Z</time>
      </trkpt>
      <trkpt lat="45.65898" lon="-1.01501">
        <ele>15.6</ele>
        <time>2023-08-06T10:03:43Z</time>
      </trkpt>
      <trkpt lat="45.65892" lon="-1.01482">
        <ele>15.4</ele>
        <time>2023-08-06T10:03:45Z</time>
      </trkpt>
      <trkpt lat="45.65885" lon="-1.01461">
        <ele>15</ele>
        <time>2023-08-06T10:03:47Z</time>
      </trkpt>
      <trkpt lat="45.65877" lon="-1.01439">
        <ele>14.2</ele>
        <time>2023-08-06T10:03:49Z</time>
      </trkpt>
      <trkpt lat="45.65866" lon="-1.01404">
        <ele>13</ele>
        <time>2023-08-06T10:03:52Z</time>
      </trkpt>
      <trkpt lat="45.65851" lon="-1.01344">
        <ele>11.8</ele>
        <time>2023-08-06T10:03:57Z</time>
      </trkpt>
      <trkpt lat="45.65849" lon="-1.01335">
        <ele>11.4</ele>
        <time>2023-08-06T10:03:58Z</time>
      </trkpt>
      <trkpt lat="45.65842" lon="-1.0132">
        <ele>10.8</ele>
        <time>2023-08-06T10:04:00Z</time>
      </trkpt>
      <trkpt lat="45.65838" lon="-1.01312">
        <ele>10.2</ele>
        <time>2023-08-06T10:04:01Z</time>
      </trkpt>
      <trkpt lat="45.65835" lon="-1.01303">
        <ele>9.4</ele>
        <time>2023-08-06T10:04:02Z</time>
      </trkpt>
      <trkpt lat="45.65831" lon="-1.01294">
        <ele>8.8</ele>
        <time>2023-08-06T10:04:03Z</time>
      </trkpt>
      <trkpt lat="45.65828" lon="-1.01284">
        <ele>8.6</ele>
        <time>2023-08-06T10:04:04Z</time>
      </trkpt>
      <trkpt lat="45.65818" lon="-1.01249">
        <ele>7.6</ele>
        <time>2023-08-06T10:04:08Z</time>
      </trkpt>
      <trkpt lat="45.65813" lon="-1.01234">
        <ele>7.2</ele>
        <time>2023-08-06T10:04:10Z</time>
      </trkpt>
      <trkpt lat="45.65807" lon="-1.01215">
        <ele>6.4</ele>
        <time>2023-08-06T10:04:13Z</time>
      </trkpt>
      <trkpt lat="45.65804" lon="-1.01209">
        <ele>6.2</ele>
        <time>2023-08-06T10:04:14Z</time>
      </trkpt>
      <trkpt lat="45.65801" lon="-1.01205">
        <ele>6</ele>
        <time>2023-08-06T10:04:15Z</time>
      </trkpt>
      <trkpt lat="45.65796" lon="-1.01204">
        <ele>6</ele>
        <time>2023-08-06T10:04:16Z</time>
      </trkpt>
      <trkpt lat="45.65787" lon="-1.01207">
        <ele>5.8</ele>
        <time>2023-08-06T10:04:18Z</time>
      </trkpt>
      <trkpt lat="45.65758" lon="-1.01227">
        <ele>5.4</ele>
        <time>2023-08-06T10:04:24Z</time>
      </trkpt>
      <trkpt lat="45.65753" lon="-1.0123">
        <ele>5.4</ele>
        <time>2023-08-06T10:04:25Z</time>
      </trkpt>
      <trkpt lat="45.65714" lon="-1.01256">
        <ele>5.8</ele>
        <time>2023-08-06T10:04:33Z</time>
      </trkpt>
      <trkpt lat="45.65684" lon="-1.01274">
        <ele>6.4</ele>
        <time>2023-08-06T10:04:40Z</time>
      </trkpt>
      <trkpt lat="45.65676" lon="-1.01279">
        <ele>6.4</ele>
        <time>2023-08-06T10:04:42Z</time>
      </trkpt>
      <trkpt lat="45.65649" lon="-1.01296">
        <ele>6</ele>
        <time>2023-08-06T10:04:48Z</time>
      </trkpt>
      <trkpt lat="45.6564" lon="-1.01303">
        <ele>6.2</ele>
        <time>2023-08-06T10:04:50Z</time>
      </trkpt>
      <trkpt lat="45.65626" lon="-1.01313">
        <ele>6.6</ele>
        <time>2023-08-06T10:04:53Z</time>
      </trkpt>
      <trkpt lat="45.65621" lon="-1.01317">
        <ele>6.6</ele>
        <time>2023-08-06T10:04:54Z</time>
      </trkpt>
      <trkpt lat="45.65587" lon="-1.01339">
        <ele>7.4</ele>
        <time>2023-08-06T10:05:01Z</time>
      </trkpt>
      <trkpt lat="45.65578" lon="-1.01345">
        <ele>8.2</ele>
        <time>2023-08-06T10:05:03Z</time>
      </trkpt>
      <trkpt lat="45.65573" lon="-1.01348">
        <ele>8.4</ele>
        <time>2023-08-06T10:05:04Z</time>
      </trkpt>
      <trkpt lat="45.65555" lon="-1.01359">
        <ele>9.2</ele>
        <time>2023-08-06T10:05:08Z</time>
      </trkpt>
      <trkpt lat="45.65551" lon="-1.01361">
        <ele>9.6</ele>
        <time>2023-08-06T10:05:09Z</time>
      </trkpt>
      <trkpt lat="45.65543" lon="-1.01367">
        <ele>10</ele>
        <time>2023-08-06T10:05:11Z</time>
      </trkpt>
      <trkpt lat="45.65531" lon="-1.01374">
        <ele>10.8</ele>
        <time>2023-08-06T10:05:14Z</time>
      </trkpt>
      <trkpt lat="45.65517" lon="-1.01383">
        <ele>11.6</ele>
        <time>2023-08-06T10:05:18Z</time>
      </trkpt>
      <trkpt lat="45.65515" lon="-1.01385">
        <ele>12.2</ele>
        <time>2023-08-06T10:05:19Z</time>
      </trkpt>
      <trkpt lat="45.65513" lon="-1.01388">
        <ele>12.6</ele>
        <time>2023-08-06T10:05:20Z</time>
      </trkpt>
      <trkpt lat="45.65511" lon="-1.01394">
        <ele>13</ele>
        <time>2023-08-06T10:05:22Z</time>
      </trkpt>
      <trkpt lat="45.65512" lon="-1.01398">
        <ele>13.2</ele>
        <time>2023-08-06T10:05:23Z</time>
      </trkpt>
      <trkpt lat="45.65517" lon="-1.01408">
        <ele>13.8</ele>
        <time>2023-08-06T10:05:26Z</time>
      </trkpt>
      <trkpt lat="45.65524" lon="-1.01431">
        <ele>14.4</ele>
        <time>2023-08-06T10:05:31Z</time>
      </trkpt>
      <trkpt lat="45.65528" lon="-1.01445">
        <ele>14.6</ele>
        <time>2023-08-06T10:05:34Z</time>
      </trkpt>
      <trkpt lat="45.6554" lon="-1.01484">
        <ele>14.6</ele>
        <time>2023-08-06T10:05:42Z</time>
      </trkpt>
      <trkpt lat="45.6555" lon="-1.01525">
        <ele>14.8</ele>
        <time>2023-08-06T10:05:50Z</time>
      </trkpt>
      <trkpt lat="45.65559" lon="-1.01569">
        <ele>15.2</ele>
        <time>2023-08-06T10:05:59Z</time>
      </trkpt>
      <trkpt lat="45.65564" lon="-1.0159">
        <ele>15.4</ele>
        <time>2023-08-06T10:06:03Z</time>
      </trkpt>
      <trkpt lat="45.65567" lon="-1.01604">
        <ele>16.6</ele>
        <time>2023-08-06T10:06:06Z</time>
      </trkpt>
      <trkpt lat="45.6557" lon="-1.01613">
        <ele>16.6</ele>
        <time>2023-08-06T10:06:08Z</time>
      </trkpt>
      <trkpt lat="45.65578" lon="-1.01642">
        <ele>17</ele>
        <time>2023-08-06T10:06:14Z</time>
      </trkpt>
      <trkpt lat="45.65591" lon="-1.01682">
        <ele>17.6</ele>
        <time>2023-08-06T10:06:22Z</time>
      </trkpt>
      <trkpt lat="45.65596" lon="-1.01698">
        <ele>17.6</ele>
        <time>2023-08-06T10:06:25Z</time>
      </trkpt>
      <trkpt lat="45.65604" lon="-1.01718">
        <ele>17.2</ele>
        <time>2023-08-06T10:06:29Z</time>
      </trkpt>
      <trkpt lat="45.65605" lon="-1.01724">
        <ele>17.4</ele>
        <time>2023-08-06T10:06:30Z</time>
      </trkpt>
      <trkpt lat="45.65616" lon="-1.01759">
        <ele>17.6</ele>
        <time>2023-08-06T10:06:36Z</time>
      </trkpt>
      <trkpt lat="45.65617" lon="-1.01764">
        <ele>17.6</ele>
        <time>2023-08-06T10:06:37Z</time>
      </trkpt>
      <trkpt lat="45.65614" lon="-1.01774">
        <ele>17.6</ele>
        <time>2023-08-06T10:06:39Z</time>
      </trkpt>
      <trkpt lat="45.65608" lon="-1.01781">
        <ele>18</ele>
        <time>2023-08-06T10:06:41Z</time>
      </trkpt>
      <trkpt lat="45.656" lon="-1.01786">
        <ele>18.2</ele>
        <time>2023-08-06T10:06:43Z</time>
      </trkpt>
      <trkpt lat="45.65591" lon="-1.01791">
        <ele>18.4</ele>
        <time>2023-08-06T10:06:45Z</time>
      </trkpt>
      <trkpt lat="45.65571" lon="-1.01798">
        <ele>18.2</ele>
        <time>2023-08-06T10:06:49Z</time>
      </trkpt>
      <trkpt lat="45.65538" lon="-1.01806">
        <ele>18.4</ele>
        <time>2023-08-06T10:06:56Z</time>
      </trkpt>
      <trkpt lat="45.65522" lon="-1.01809">
        <ele>18.6</ele>
        <time>2023-08-06T10:06:59Z</time>
      </trkpt>
      <trkpt lat="45.655" lon="-1.01816">
        <ele>18.4</ele>
        <time>2023-08-06T10:07:03Z</time>
      </trkpt>
      <trkpt lat="45.65492" lon="-1.01821">
        <ele>17.8</ele>
        <time>2023-08-06T10:07:05Z</time>
      </trkpt>
      <trkpt lat="45.65486" lon="-1.01829">
        <ele>17.6</ele>
        <time>2023-08-06T10:07:07Z</time>
      </trkpt>
      <trkpt lat="45.65473" lon="-1.01851">
        <ele>17.6</ele>
        <time>2023-08-06T10:07:12Z</time>
      </trkpt>
      <trkpt lat="45.65471" lon="-1.01855">
        <ele>17.6</ele>
        <time>2023-08-06T10:07:13Z</time>
      </trkpt>
      <trkpt lat="45.65465" lon="-1.01861">
        <ele>17.6</ele>
        <time>2023-08-06T10:07:15Z</time>
      </trkpt>
      <trkpt lat="45.65462" lon="-1.01865">
        <ele>17.6</ele>
        <time>2023-08-06T10:07:16Z</time>
      </trkpt>
      <trkpt lat="45.65457" lon="-1.01877">
        <ele>17.6</ele>
        <time>2023-08-06T10:07:19Z</time>
      </trkpt>
      <trkpt lat="45.65449" lon="-1.01895">
        <ele>17.6</ele>
        <time>2023-08-06T10:07:23Z</time>
      </trkpt>
      <trkpt lat="45.65445" lon="-1.01905">
        <ele>17.6</ele>
        <time>2023-08-06T10:07:25Z</time>
      </trkpt>
      <trkpt lat="45.65441" lon="-1.01914">
        <ele>17.8</ele>
        <time>2023-08-06T10:07:27Z</time>
      </trkpt>
      <trkpt lat="45.65439" lon="-1.01926">
        <ele>18</ele>
        <time>2023-08-06T10:07:29Z</time>
      </trkpt>
      <trkpt lat="45.65438" lon="-1.01932">
        <ele>18</ele>
        <time>2023-08-06T10:07:30Z</time>
      </trkpt>
      <trkpt lat="45.65437" lon="-1.01946">
        <ele>18.2</ele>
        <time>2023-08-06T10:07:32Z</time>
      </trkpt>
      <trkpt lat="45.65436" lon="-1.01959">
        <ele>18</ele>
        <time>2023-08-06T10:07:34Z</time>
      </trkpt>
      <trkpt lat="45.65433" lon="-1.01965">
        <ele>18</ele>
        <time>2023-08-06T10:07:35Z</time>
      </trkpt>
      <trkpt lat="45.65429" lon="-1.01971">
        <ele>17.8</ele>
        <time>2023-08-06T10:07:36Z</time>
      </trkpt>
      <trkpt lat="45.6542" lon="-1.01979">
        <ele>17.6</ele>
        <time>2023-08-06T10:07:38Z</time>
      </trkpt>
      <trkpt lat="45.65414" lon="-1.01983">
        <ele>17.4</ele>
        <time>2023-08-06T10:07:39Z</time>
      </trkpt>
      <trkpt lat="45.65409" lon="-1.01987">
        <ele>17.4</ele>
        <time>2023-08-06T10:07:40Z</time>
      </trkpt>
      <trkpt lat="45.65378" lon="-1.02009">
        <ele>17.6</ele>
        <time>2023-08-06T10:07:46Z</time>
      </trkpt>
      <trkpt lat="45.6534" lon="-1.02033">
        <ele>18</ele>
        <time>2023-08-06T10:07:53Z</time>
      </trkpt>
      <trkpt lat="45.65303" lon="-1.02064">
        <ele>18.4</ele>
        <time>2023-08-06T10:08:00Z</time>
      </trkpt>
      <trkpt lat="45.65294" lon="-1.02074">
        <ele>18</ele>
        <time>2023-08-06T10:08:02Z</time>
      </trkpt>
      <trkpt lat="45.65278" lon="-1.02091">
        <ele>17.4</ele>
        <time>2023-08-06T10:08:06Z</time>
      </trkpt>
      <trkpt lat="45.65256" lon="-1.02124">
        <ele>16</ele>
        <time>2023-08-06T10:08:13Z</time>
      </trkpt>
      <trkpt lat="45.65253" lon="-1.02128">
        <ele>15.8</ele>
        <time>2023-08-06T10:08:14Z</time>
      </trkpt>
      <trkpt lat="45.65246" lon="-1.0213">
        <ele>15.6</ele>
        <time>2023-08-06T10:08:16Z</time>
      </trkpt>
      <trkpt lat="45.6524" lon="-1.02122">
        <ele>15.6</ele>
        <time>2023-08-06T10:08:19Z</time>
      </trkpt>
      <trkpt lat="45.65234" lon="-1.02113">
        <ele>15.8</ele>
        <time>2023-08-06T10:08:22Z</time>
      </trkpt>
      <trkpt lat="45.65231" lon="-1.02105">
        <ele>15.8</ele>
        <time>2023-08-06T10:08:24Z</time>
      </trkpt>
      <trkpt lat="45.6522" lon="-1.02071">
        <ele>16.4</ele>
        <time>2023-08-06T10:08:30Z</time>
      </trkpt>
      <trkpt lat="45.65219" lon="-1.02066">
        <ele>16.6</ele>
        <time>2023-08-06T10:08:31Z</time>
      </trkpt>
      <trkpt lat="45.65211" lon="-1.02039">
        <ele>16.6</ele>
        <time>2023-08-06T10:08:36Z</time>
      </trkpt>
      <trkpt lat="45.65197" lon="-1.02006">
        <ele>16.8</ele>
        <time>2023-08-06T10:08:42Z</time>
      </trkpt>
      <trkpt lat="45.65188" lon="-1.01982">
        <ele>16.8</ele>
        <time>2023-08-06T10:08:46Z</time>
      </trkpt>
      <trkpt lat="45.65182" lon="-1.01972">
        <ele>16.8</ele>
        <time>2023-08-06T10:08:48Z</time>
      </trkpt>
      <trkpt lat="45.65173" lon="-1.01953">
        <ele>16.8</ele>
        <time>2023-08-06T10:08:51Z</time>
      </trkpt>
      <trkpt lat="45.65168" lon="-1.01939">
        <ele>17</ele>
        <time>2023-08-06T10:08:53Z</time>
      </trkpt>
      <trkpt lat="45.65156" lon="-1.01912">
        <ele>16.4</ele>
        <time>2023-08-06T10:08:58Z</time>
      </trkpt>
      <trkpt lat="45.65141" lon="-1.01881">
        <ele>16.2</ele>
        <time>2023-08-06T10:09:03Z</time>
      </trkpt>
      <trkpt lat="45.65136" lon="-1.01868">
        <ele>16.6</ele>
        <time>2023-08-06T10:09:05Z</time>
      </trkpt>
      <trkpt lat="45.65128" lon="-1.01851">
        <ele>16.6</ele>
        <time>2023-08-06T10:09:08Z</time>
      </trkpt>
      <trkpt lat="45.65107" lon="-1.01805">
        <ele>16.8</ele>
        <time>2023-08-06T10:09:15Z</time>
      </trkpt>
      <trkpt lat="45.65093" lon="-1.01761">
        <ele>16.8</ele>
        <time>2023-08-06T10:09:21Z</time>
      </trkpt>
      <trkpt lat="45.65086" lon="-1.01745">
        <ele>16.6</ele>
        <time>2023-08-06T10:09:23Z</time>
      </trkpt>
      <trkpt lat="45.65079" lon="-1.01728">
        <ele>16.4</ele>
        <time>2023-08-06T10:09:25Z</time>
      </trkpt>
      <trkpt lat="45.65065" lon="-1.01689">
        <ele>16.2</ele>
        <time>2023-08-06T10:09:29Z</time>
      </trkpt>
      <trkpt lat="45.65058" lon="-1.01668">
        <ele>16</ele>
        <time>2023-08-06T10:09:31Z</time>
      </trkpt>
      <trkpt lat="45.65038" lon="-1.01611">
        <ele>15.4</ele>
        <time>2023-08-06T10:09:37Z</time>
      </trkpt>
      <trkpt lat="45.65034" lon="-1.01598">
        <ele>15.4</ele>
        <time>2023-08-06T10:09:39Z</time>
      </trkpt>
      <trkpt lat="45.65031" lon="-1.01591">
        <ele>15</ele>
        <time>2023-08-06T10:09:40Z</time>
      </trkpt>
      <trkpt lat="45.65028" lon="-1.01585">
        <ele>15</ele>
        <time>2023-08-06T10:09:41Z</time>
      </trkpt>
      <trkpt lat="45.65025" lon="-1.0158">
        <ele>14.8</ele>
        <time>2023-08-06T10:09:42Z</time>
      </trkpt>
      <trkpt lat="45.65017" lon="-1.01583">
        <ele>14.8</ele>
        <time>2023-08-06T10:09:44Z</time>
      </trkpt>
      <trkpt lat="45.65009" lon="-1.01591">
        <ele>15</ele>
        <time>2023-08-06T10:09:46Z</time>
      </trkpt>
      <trkpt lat="45.65005" lon="-1.01597">
        <ele>15</ele>
        <time>2023-08-06T10:09:47Z</time>
      </trkpt>
      <trkpt lat="45.65001" lon="-1.01602">
        <ele>15</ele>
        <time>2023-08-06T10:09:48Z</time>
      </trkpt>
      <trkpt lat="45.6498" lon="-1.01621">
        <ele>15</ele>
        <time>2023-08-06T10:09:52Z</time>
      </trkpt>
      <trkpt lat="45.64932" lon="-1.01655">
        <ele>15.4</ele>
        <time>2023-08-06T10:10:00Z</time>
      </trkpt>
      <trkpt lat="45.64887" lon="-1.01692">
        <ele>15.6</ele>
        <time>2023-08-06T10:10:07Z</time>
      </trkpt>
      <trkpt lat="45.64857" lon="-1.01728">
        <ele>15</ele>
        <time>2023-08-06T10:10:12Z</time>
      </trkpt>
      <trkpt lat="45.64828" lon="-1.01785">
        <ele>14.4</ele>
        <time>2023-08-06T10:10:19Z</time>
      </trkpt>
      <trkpt lat="45.64804" lon="-1.01847">
        <ele>14.2</ele>
        <time>2023-08-06T10:10:27Z</time>
      </trkpt>
      <trkpt lat="45.64783" lon="-1.01894">
        <ele>14</ele>
        <time>2023-08-06T10:10:33Z</time>
      </trkpt>
      <trkpt lat="45.64774" lon="-1.01911">
        <ele>13.8</ele>
        <time>2023-08-06T10:10:35Z</time>
      </trkpt>
      <trkpt lat="45.6476" lon="-1.01937">
        <ele>13</ele>
        <time>2023-08-06T10:10:38Z</time>
      </trkpt>
      <trkpt lat="45.64755" lon="-1.01944">
        <ele>12.2</ele>
        <time>2023-08-06T10:10:39Z</time>
      </trkpt>
      <trkpt lat="45.6475" lon="-1.01948">
        <ele>11.6</ele>
        <time>2023-08-06T10:10:40Z</time>
      </trkpt>
      <trkpt lat="45.64745" lon="-1.01949">
        <ele>11</ele>
        <time>2023-08-06T10:10:41Z</time>
      </trkpt>
      <trkpt lat="45.64741" lon="-1.01947">
        <ele>10.4</ele>
        <time>2023-08-06T10:10:42Z</time>
      </trkpt>
      <trkpt lat="45.64736" lon="-1.01944">
        <ele>9.6</ele>
        <time>2023-08-06T10:10:43Z</time>
      </trkpt>
      <trkpt lat="45.64732" lon="-1.0194">
        <ele>9.4</ele>
        <time>2023-08-06T10:10:44Z</time>
      </trkpt>
      <trkpt lat="45.64722" lon="-1.01932">
        <ele>8.8</ele>
        <time>2023-08-06T10:10:46Z</time>
      </trkpt>
      <trkpt lat="45.64717" lon="-1.01928">
        <ele>8.2</ele>
        <time>2023-08-06T10:10:47Z</time>
      </trkpt>
      <trkpt lat="45.64712" lon="-1.01924">
        <ele>8</ele>
        <time>2023-08-06T10:10:48Z</time>
      </trkpt>
      <trkpt lat="45.6469" lon="-1.01902">
        <ele>7</ele>
        <time>2023-08-06T10:10:52Z</time>
      </trkpt>
      <trkpt lat="45.64685" lon="-1.01894">
        <ele>6.6</ele>
        <time>2023-08-06T10:10:53Z</time>
      </trkpt>
      <trkpt lat="45.64676" lon="-1.01877">
        <ele>5.8</ele>
        <time>2023-08-06T10:10:55Z</time>
      </trkpt>
      <trkpt lat="45.64672" lon="-1.01868">
        <ele>5.4</ele>
        <time>2023-08-06T10:10:56Z</time>
      </trkpt>
      <trkpt lat="45.64659" lon="-1.01829">
        <ele>4.4</ele>
        <time>2023-08-06T10:11:00Z</time>
      </trkpt>
      <trkpt lat="45.64657" lon="-1.01818">
        <ele>4.2</ele>
        <time>2023-08-06T10:11:01Z</time>
      </trkpt>
      <trkpt lat="45.64653" lon="-1.01771">
        <ele>3.6</ele>
        <time>2023-08-06T10:11:06Z</time>
      </trkpt>
      <trkpt lat="45.64654" lon="-1.01753">
        <ele>3.2</ele>
        <time>2023-08-06T10:11:08Z</time>
      </trkpt>
      <trkpt lat="45.64653" lon="-1.01731">
        <ele>3.2</ele>
        <time>2023-08-06T10:11:11Z</time>
      </trkpt>
      <trkpt lat="45.64648" lon="-1.0172">
        <ele>3</ele>
        <time>2023-08-06T10:11:13Z</time>
      </trkpt>
      <trkpt lat="45.64643" lon="-1.01717">
        <ele>3</ele>
        <time>2023-08-06T10:11:14Z</time>
      </trkpt>
      <trkpt lat="45.64638" lon="-1.01716">
        <ele>2.8</ele>
        <time>2023-08-06T10:11:15Z</time>
      </trkpt>
      <trkpt lat="45.64614" lon="-1.01713">
        <ele>2.4</ele>
        <time>2023-08-06T10:11:19Z</time>
      </trkpt>
      <trkpt lat="45.64588" lon="-1.01711">
        <ele>2.2</ele>
        <time>2023-08-06T10:11:23Z</time>
      </trkpt>
      <trkpt lat="45.64566" lon="-1.0171">
        <ele>1.8</ele>
        <time>2023-08-06T10:11:26Z</time>
      </trkpt>
      <trkpt lat="45.64551" lon="-1.0171">
        <ele>1.2</ele>
        <time>2023-08-06T10:11:28Z</time>
      </trkpt>
      <trkpt lat="45.64522" lon="-1.01711">
        <ele>0.8</ele>
        <time>2023-08-06T10:11:32Z</time>
      </trkpt>
      <trkpt lat="45.64506" lon="-1.01713">
        <ele>-0.4</ele>
        <time>2023-08-06T10:11:34Z</time>
      </trkpt>
      <trkpt lat="45.64476" lon="-1.01715">
        <ele>-1.6</ele>
        <time>2023-08-06T10:11:38Z</time>
      </trkpt>
      <trkpt lat="45.64452" lon="-1.01715">
        <ele>-1.4</ele>
        <time>2023-08-06T10:11:41Z</time>
      </trkpt>
      <trkpt lat="45.64436" lon="-1.01709">
        <ele>-3</ele>
        <time>2023-08-06T10:11:43Z</time>
      </trkpt>
      <trkpt lat="45.64422" lon="-1.01698">
        <ele>-4.2</ele>
        <time>2023-08-06T10:11:45Z</time>
      </trkpt>
      <trkpt lat="45.64408" lon="-1.01684">
        <ele>-5</ele>
        <time>2023-08-06T10:11:47Z</time>
      </trkpt>
      <trkpt lat="45.64402" lon="-1.01676">
        <ele>-5.2</ele>
        <time>2023-08-06T10:11:48Z</time>
      </trkpt>
      <trkpt lat="45.64397" lon="-1.01666">
        <ele>-5.6</ele>
        <time>2023-08-06T10:11:49Z</time>
      </trkpt>
      <trkpt lat="45.64385" lon="-1.01635">
        <ele>-6.4</ele>
        <time>2023-08-06T10:11:52Z</time>
      </trkpt>
      <trkpt lat="45.64379" lon="-1.01617">
        <ele>-6.8</ele>
        <time>2023-08-06T10:11:54Z</time>
      </trkpt>
      <trkpt lat="45.64377" lon="-1.0161">
        <ele>-7.2</ele>
        <time>2023-08-06T10:11:55Z</time>
      </trkpt>
      <trkpt lat="45.64374" lon="-1.01605">
        <ele>-7.6</ele>
        <time>2023-08-06T10:11:56Z</time>
      </trkpt>
      <trkpt lat="45.64371" lon="-1.01603">
        <ele>-7.8</ele>
        <time>2023-08-06T10:11:57Z</time>
      </trkpt>
      <trkpt lat="45.64365" lon="-1.01606">
        <ele>-8.4</ele>
        <time>2023-08-06T10:11:59Z</time>
      </trkpt>
      <trkpt lat="45.64359" lon="-1.01623">
        <ele>-8.8</ele>
        <time>2023-08-06T10:12:02Z</time>
      </trkpt>
      <trkpt lat="45.6434" lon="-1.01664">
        <ele>-9</ele>
        <time>2023-08-06T10:12:08Z</time>
      </trkpt>
      <trkpt lat="45.64337" lon="-1.01682">
        <ele>-8.6</ele>
        <time>2023-08-06T10:12:10Z</time>
      </trkpt>
      <trkpt lat="45.64337" lon="-1.01691">
        <ele>-8.4</ele>
        <time>2023-08-06T10:12:11Z</time>
      </trkpt>
      <trkpt lat="45.64338" lon="-1.01725">
        <ele>-7.8</ele>
        <time>2023-08-06T10:12:15Z</time>
      </trkpt>
      <trkpt lat="45.6434" lon="-1.0174">
        <ele>-7.2</ele>
        <time>2023-08-06T10:12:17Z</time>
      </trkpt>
      <trkpt lat="45.64344" lon="-1.01769">
        <ele>-7.4</ele>
        <time>2023-08-06T10:12:21Z</time>
      </trkpt>
      <trkpt lat="45.64344" lon="-1.01775">
        <ele>-7.4</ele>
        <time>2023-08-06T10:12:22Z</time>
      </trkpt>
      <trkpt lat="45.64341" lon="-1.0178">
        <ele>-7.4</ele>
        <time>2023-08-06T10:12:23Z</time>
      </trkpt>
      <trkpt lat="45.64336" lon="-1.01785">
        <ele>-7.4</ele>
        <time>2023-08-06T10:12:25Z</time>
      </trkpt>
      <trkpt lat="45.64332" lon="-1.01787">
        <ele>-6.8</ele>
        <time>2023-08-06T10:12:27Z</time>
      </trkpt>
      <trkpt lat="45.64324" lon="-1.01792">
        <ele>-6.2</ele>
        <time>2023-08-06T10:12:31Z</time>
      </trkpt>
      <trkpt lat="45.64318" lon="-1.01796">
        <ele>-5.4</ele>
        <time>2023-08-06T10:12:34Z</time>
      </trkpt>
      <trkpt lat="45.64313" lon="-1.01799">
        <ele>-5</ele>
        <time>2023-08-06T10:12:37Z</time>
      </trkpt>
      <trkpt lat="45.64306" lon="-1.01803">
        <ele>-4.4</ele>
        <time>2023-08-06T10:12:41Z</time>
      </trkpt>
      <trkpt lat="45.64299" lon="-1.01807">
        <ele>-3.6</ele>
        <time>2023-08-06T10:12:45Z</time>
      </trkpt>
      <trkpt lat="45.64296" lon="-1.01808">
        <ele>-3.2</ele>
        <time>2023-08-06T10:12:47Z</time>
      </trkpt>
      <trkpt lat="45.64288" lon="-1.01814">
        <ele>-2.2</ele>
        <time>2023-08-06T10:12:53Z</time>
      </trkpt>
      <trkpt lat="45.64286" lon="-1.01816">
        <ele>-1.8</ele>
        <time>2023-08-06T10:12:55Z</time>
      </trkpt>
      <trkpt lat="45.64281" lon="-1.01818">
        <ele>-1.2</ele>
        <time>2023-08-06T10:12:59Z</time>
      </trkpt>
      <trkpt lat="45.64276" lon="-1.0182">
        <ele>-0.2</ele>
        <time>2023-08-06T10:13:03Z</time>
      </trkpt>
      <trkpt lat="45.64274" lon="-1.0182">
        <ele>16.4</ele>
        <time>2023-08-06T10:13:04Z</time>
      </trkpt>
      <trkpt lat="45.64273" lon="-1.01819">
        <ele>0.4</ele>
        <time>2023-08-06T10:13:05Z</time>
      </trkpt>
      <trkpt lat="45.64269" lon="-1.01815">
        <ele>1.2</ele>
        <time>2023-08-06T10:13:08Z</time>
      </trkpt>
      <trkpt lat="45.64264" lon="-1.01795">
        <ele>2</ele>
        <time>2023-08-06T10:13:14Z</time>
      </trkpt>
      <trkpt lat="45.64256" lon="-1.01785">
        <ele>2</ele>
        <time>2023-08-06T10:13:18Z</time>
      </trkpt>
      <trkpt lat="45.64247" lon="-1.0179">
        <ele>2</ele>
        <time>2023-08-06T10:13:22Z</time>
      </trkpt>
      <trkpt lat="45.64238" lon="-1.018">
        <ele>2.6</ele>
        <time>2023-08-06T10:13:27Z</time>
      </trkpt>
      <trkpt lat="45.6423" lon="-1.01808">
        <ele>3.6</ele>
        <time>2023-08-06T10:13:31Z</time>
      </trkpt>
      <trkpt lat="45.64228" lon="-1.01811">
        <ele>3.8</ele>
        <time>2023-08-06T10:13:32Z</time>
      </trkpt>
      <trkpt lat="45.64213" lon="-1.01828">
        <ele>3.8</ele>
        <time>2023-08-06T10:13:39Z</time>
      </trkpt>
      <trkpt lat="45.64199" lon="-1.01845">
        <ele>4.8</ele>
        <time>2023-08-06T10:13:45Z</time>
      </trkpt>
      <trkpt lat="45.64197" lon="-1.01848">
        <ele>4.8</ele>
        <time>2023-08-06T10:13:46Z</time>
      </trkpt>
      <trkpt lat="45.64183" lon="-1.01857">
        <ele>5.4</ele>
        <time>2023-08-06T10:13:52Z</time>
      </trkpt>
      <trkpt lat="45.6417" lon="-1.01857">
        <ele>5.6</ele>
        <time>2023-08-06T10:13:56Z</time>
      </trkpt>
      <trkpt lat="45.64159" lon="-1.01869">
        <ele>5.6</ele>
        <time>2023-08-06T10:14:00Z</time>
      </trkpt>
      <trkpt lat="45.64155" lon="-1.01876">
        <ele>5.8</ele>
        <time>2023-08-06T10:14:02Z</time>
      </trkpt>
      <trkpt lat="45.64144" lon="-1.01891">
        <ele>6</ele>
        <time>2023-08-06T10:14:07Z</time>
      </trkpt>
      <trkpt lat="45.64121" lon="-1.01921">
        <ele>6.6</ele>
        <time>2023-08-06T10:14:18Z</time>
      </trkpt>
      <trkpt lat="45.64117" lon="-1.01926">
        <ele>7</ele>
        <time>2023-08-06T10:14:20Z</time>
      </trkpt>
      <trkpt lat="45.64109" lon="-1.01936">
        <ele>7.4</ele>
        <time>2023-08-06T10:14:25Z</time>
      </trkpt>
      <trkpt lat="45.6411" lon="-1.01941">
        <ele>7.4</ele>
        <time>2023-08-06T10:14:27Z</time>
      </trkpt>
      <trkpt lat="45.64113" lon="-1.01945">
        <ele>7.6</ele>
        <time>2023-08-06T10:14:29Z</time>
      </trkpt>
      <trkpt lat="45.64122" lon="-1.01962">
        <ele>8</ele>
        <time>2023-08-06T10:14:34Z</time>
      </trkpt>
      <trkpt lat="45.64125" lon="-1.01968">
        <ele>8</ele>
        <time>2023-08-06T10:14:36Z</time>
      </trkpt>
      <trkpt lat="45.64134" lon="-1.0199">
        <ele>8</ele>
        <time>2023-08-06T10:14:42Z</time>
      </trkpt>
      <trkpt lat="45.64141" lon="-1.02017">
        <ele>8.8</ele>
        <time>2023-08-06T10:14:49Z</time>
      </trkpt>
      <trkpt lat="45.64143" lon="-1.02031">
        <ele>9</ele>
        <time>2023-08-06T10:14:52Z</time>
      </trkpt>
      <trkpt lat="45.64146" lon="-1.02048">
        <ele>9.2</ele>
        <time>2023-08-06T10:14:55Z</time>
      </trkpt>
      <trkpt lat="45.64157" lon="-1.02098">
        <ele>9.8</ele>
        <time>2023-08-06T10:15:04Z</time>
      </trkpt>
      <trkpt lat="45.64158" lon="-1.02104">
        <ele>10</ele>
        <time>2023-08-06T10:15:05Z</time>
      </trkpt>
      <trkpt lat="45.64166" lon="-1.02146">
        <ele>10.2</ele>
        <time>2023-08-06T10:15:12Z</time>
      </trkpt>
      <trkpt lat="45.64172" lon="-1.02181">
        <ele>10</ele>
        <time>2023-08-06T10:15:18Z</time>
      </trkpt>
      <trkpt lat="45.6418" lon="-1.02217">
        <ele>10.2</ele>
        <time>2023-08-06T10:15:24Z</time>
      </trkpt>
      <trkpt lat="45.64182" lon="-1.02222">
        <ele>10.2</ele>
        <time>2023-08-06T10:15:25Z</time>
      </trkpt>
      <trkpt lat="45.64196" lon="-1.02255">
        <ele>9.6</ele>
        <time>2023-08-06T10:15:32Z</time>
      </trkpt>
      <trkpt lat="45.64197" lon="-1.02263">
        <ele>9.6</ele>
        <time>2023-08-06T10:15:34Z</time>
      </trkpt>
      <trkpt lat="45.64195" lon="-1.02266">
        <ele>9.6</ele>
        <time>2023-08-06T10:15:35Z</time>
      </trkpt>
      <trkpt lat="45.64193" lon="-1.02267">
        <ele>9.6</ele>
        <time>2023-08-06T10:15:36Z</time>
      </trkpt>
      <trkpt lat="45.64187" lon="-1.02268">
        <ele>9.4</ele>
        <time>2023-08-06T10:15:39Z</time>
      </trkpt>
      <trkpt lat="45.64185" lon="-1.02268">
        <ele>9.4</ele>
        <time>2023-08-06T10:15:41Z</time>
      </trkpt>
      <trkpt lat="45.64185" lon="-1.02268">
        <ele>9.4</ele>
        <time>2023-08-06T10:15:43Z</time>
      </trkpt>
    </trkseg>
  </trk>
</gpx>